<?xml version="1.0" encoding="UTF-8" standalone="no" ?>
<gpx xmlns="http://www.topografix.com/GPX/1/1" xmlns:xsi="http://www.w3.org/2001/XMLSchema-instance" xsi:schemaLocation="http://www.topografix.com/GPX/1/1 http://www.topografix.com/GPX/1/1/gpx.xsd" version="1.1" creator="VisuGPX - https://www.visugpx.com">
  <metadata>
    <name>SO-NE-St Léger St Pazanne Machecoul St Philbert La Chevrolière Pont St Martin St Aignan</name>
    <desc><![CDATA[SO-NE-St Léger St Pazanne Machecoul St Philbert La Chevrolière Pont St Martin St Aignan]]></desc>
  </metadata>
  <trk>
    <name><![CDATA[2022-06-05 09:58 GMT+2]]></name>
    <trkseg>
      <trkpt lat="47.16781" lon="-1.62656">
        <ele>68</ele>
        <time>2022-06-05T07:58:21Z</time>
      </trkpt>
      <trkpt lat="47.1678" lon="-1.62662">
        <ele>76</ele>
        <time>2022-06-05T08:00:22Z</time>
      </trkpt>
      <trkpt lat="47.16774" lon="-1.62676">
        <ele>75</ele>
        <time>2022-06-05T08:00:25Z</time>
      </trkpt>
      <trkpt lat="47.16765" lon="-1.62679">
        <ele>74</ele>
        <time>2022-06-05T08:00:27Z</time>
      </trkpt>
      <trkpt lat="47.16756" lon="-1.62673">
        <ele>74</ele>
        <time>2022-06-05T08:00:29Z</time>
      </trkpt>
      <trkpt lat="47.16745" lon="-1.62674">
        <ele>75</ele>
        <time>2022-06-05T08:00:31Z</time>
      </trkpt>
      <trkpt lat="47.16734" lon="-1.62682">
        <ele>75</ele>
        <time>2022-06-05T08:00:33Z</time>
      </trkpt>
      <trkpt lat="47.16724" lon="-1.62689">
        <ele>74</ele>
        <time>2022-06-05T08:00:35Z</time>
      </trkpt>
      <trkpt lat="47.16716" lon="-1.627">
        <ele>74</ele>
        <time>2022-06-05T08:00:37Z</time>
      </trkpt>
      <trkpt lat="47.16718" lon="-1.62715">
        <ele>74</ele>
        <time>2022-06-05T08:00:39Z</time>
      </trkpt>
      <trkpt lat="47.16726" lon="-1.62729">
        <ele>73</ele>
        <time>2022-06-05T08:00:41Z</time>
      </trkpt>
      <trkpt lat="47.16734" lon="-1.62742">
        <ele>71</ele>
        <time>2022-06-05T08:00:43Z</time>
      </trkpt>
      <trkpt lat="47.16744" lon="-1.62755">
        <ele>70</ele>
        <time>2022-06-05T08:00:45Z</time>
      </trkpt>
      <trkpt lat="47.16754" lon="-1.62766">
        <ele>69</ele>
        <time>2022-06-05T08:00:47Z</time>
      </trkpt>
      <trkpt lat="47.16765" lon="-1.62777">
        <ele>69</ele>
        <time>2022-06-05T08:00:49Z</time>
      </trkpt>
      <trkpt lat="47.16777" lon="-1.62787">
        <ele>69</ele>
        <time>2022-06-05T08:00:51Z</time>
      </trkpt>
      <trkpt lat="47.16789" lon="-1.62797">
        <ele>69</ele>
        <time>2022-06-05T08:00:53Z</time>
      </trkpt>
      <trkpt lat="47.168" lon="-1.62807">
        <ele>69</ele>
        <time>2022-06-05T08:00:55Z</time>
      </trkpt>
      <trkpt lat="47.1681" lon="-1.62817">
        <ele>69</ele>
        <time>2022-06-05T08:00:57Z</time>
      </trkpt>
      <trkpt lat="47.1682" lon="-1.62827">
        <ele>69</ele>
        <time>2022-06-05T08:00:59Z</time>
      </trkpt>
      <trkpt lat="47.1683" lon="-1.62836">
        <ele>70</ele>
        <time>2022-06-05T08:01:01Z</time>
      </trkpt>
      <trkpt lat="47.1684" lon="-1.62846">
        <ele>70</ele>
        <time>2022-06-05T08:01:03Z</time>
      </trkpt>
      <trkpt lat="47.1685" lon="-1.62856">
        <ele>71</ele>
        <time>2022-06-05T08:01:05Z</time>
      </trkpt>
      <trkpt lat="47.1686" lon="-1.62866">
        <ele>71</ele>
        <time>2022-06-05T08:01:07Z</time>
      </trkpt>
      <trkpt lat="47.16869" lon="-1.62878">
        <ele>71</ele>
        <time>2022-06-05T08:01:09Z</time>
      </trkpt>
      <trkpt lat="47.16877" lon="-1.62891">
        <ele>71</ele>
        <time>2022-06-05T08:01:11Z</time>
      </trkpt>
      <trkpt lat="47.16883" lon="-1.62906">
        <ele>71</ele>
        <time>2022-06-05T08:01:13Z</time>
      </trkpt>
      <trkpt lat="47.16887" lon="-1.62922">
        <ele>71</ele>
        <time>2022-06-05T08:01:15Z</time>
      </trkpt>
      <trkpt lat="47.16889" lon="-1.62938">
        <ele>71</ele>
        <time>2022-06-05T08:01:17Z</time>
      </trkpt>
      <trkpt lat="47.1689" lon="-1.62955">
        <ele>71</ele>
        <time>2022-06-05T08:01:19Z</time>
      </trkpt>
      <trkpt lat="47.1689" lon="-1.62973">
        <ele>72</ele>
        <time>2022-06-05T08:01:21Z</time>
      </trkpt>
      <trkpt lat="47.16888" lon="-1.6299">
        <ele>73</ele>
        <time>2022-06-05T08:01:23Z</time>
      </trkpt>
      <trkpt lat="47.16886" lon="-1.63008">
        <ele>73</ele>
        <time>2022-06-05T08:01:25Z</time>
      </trkpt>
      <trkpt lat="47.16886" lon="-1.63025">
        <ele>73</ele>
        <time>2022-06-05T08:01:27Z</time>
      </trkpt>
      <trkpt lat="47.16885" lon="-1.63044">
        <ele>73</ele>
        <time>2022-06-05T08:01:29Z</time>
      </trkpt>
      <trkpt lat="47.16886" lon="-1.63061">
        <ele>74</ele>
        <time>2022-06-05T08:01:31Z</time>
      </trkpt>
      <trkpt lat="47.16888" lon="-1.63079">
        <ele>74</ele>
        <time>2022-06-05T08:01:33Z</time>
      </trkpt>
      <trkpt lat="47.16891" lon="-1.63096">
        <ele>74</ele>
        <time>2022-06-05T08:01:35Z</time>
      </trkpt>
      <trkpt lat="47.16894" lon="-1.63112">
        <ele>74</ele>
        <time>2022-06-05T08:01:37Z</time>
      </trkpt>
      <trkpt lat="47.16898" lon="-1.63129">
        <ele>74</ele>
        <time>2022-06-05T08:01:39Z</time>
      </trkpt>
      <trkpt lat="47.16903" lon="-1.63144">
        <ele>75</ele>
        <time>2022-06-05T08:01:41Z</time>
      </trkpt>
      <trkpt lat="47.16909" lon="-1.6316">
        <ele>75</ele>
        <time>2022-06-05T08:01:43Z</time>
      </trkpt>
      <trkpt lat="47.16915" lon="-1.63173">
        <ele>75</ele>
        <time>2022-06-05T08:01:45Z</time>
      </trkpt>
      <trkpt lat="47.16921" lon="-1.63186">
        <ele>75</ele>
        <time>2022-06-05T08:01:47Z</time>
      </trkpt>
      <trkpt lat="47.16929" lon="-1.63199">
        <ele>75</ele>
        <time>2022-06-05T08:01:49Z</time>
      </trkpt>
      <trkpt lat="47.16936" lon="-1.63211">
        <ele>74</ele>
        <time>2022-06-05T08:01:51Z</time>
      </trkpt>
      <trkpt lat="47.16944" lon="-1.63222">
        <ele>75</ele>
        <time>2022-06-05T08:01:53Z</time>
      </trkpt>
      <trkpt lat="47.16952" lon="-1.63233">
        <ele>75</ele>
        <time>2022-06-05T08:01:55Z</time>
      </trkpt>
      <trkpt lat="47.16959" lon="-1.63242">
        <ele>76</ele>
        <time>2022-06-05T08:01:57Z</time>
      </trkpt>
      <trkpt lat="47.16967" lon="-1.63253">
        <ele>76</ele>
        <time>2022-06-05T08:02:00Z</time>
      </trkpt>
      <trkpt lat="47.1696" lon="-1.63269">
        <ele>76</ele>
        <time>2022-06-05T08:02:03Z</time>
      </trkpt>
      <trkpt lat="47.16953" lon="-1.63281">
        <ele>76</ele>
        <time>2022-06-05T08:02:05Z</time>
      </trkpt>
      <trkpt lat="47.16945" lon="-1.63296">
        <ele>76</ele>
        <time>2022-06-05T08:02:07Z</time>
      </trkpt>
      <trkpt lat="47.16936" lon="-1.6331">
        <ele>76</ele>
        <time>2022-06-05T08:02:09Z</time>
      </trkpt>
      <trkpt lat="47.16927" lon="-1.63323">
        <ele>76</ele>
        <time>2022-06-05T08:02:11Z</time>
      </trkpt>
      <trkpt lat="47.16917" lon="-1.63337">
        <ele>77</ele>
        <time>2022-06-05T08:02:13Z</time>
      </trkpt>
      <trkpt lat="47.16908" lon="-1.63349">
        <ele>77</ele>
        <time>2022-06-05T08:02:15Z</time>
      </trkpt>
      <trkpt lat="47.16899" lon="-1.63361">
        <ele>77</ele>
        <time>2022-06-05T08:02:17Z</time>
      </trkpt>
      <trkpt lat="47.1689" lon="-1.63374">
        <ele>77</ele>
        <time>2022-06-05T08:02:19Z</time>
      </trkpt>
      <trkpt lat="47.16882" lon="-1.63388">
        <ele>77</ele>
        <time>2022-06-05T08:02:21Z</time>
      </trkpt>
      <trkpt lat="47.16873" lon="-1.63402">
        <ele>77</ele>
        <time>2022-06-05T08:02:23Z</time>
      </trkpt>
      <trkpt lat="47.16866" lon="-1.63417">
        <ele>77</ele>
        <time>2022-06-05T08:02:25Z</time>
      </trkpt>
      <trkpt lat="47.16858" lon="-1.6343">
        <ele>77</ele>
        <time>2022-06-05T08:02:27Z</time>
      </trkpt>
      <trkpt lat="47.1685" lon="-1.63445">
        <ele>77</ele>
        <time>2022-06-05T08:02:29Z</time>
      </trkpt>
      <trkpt lat="47.16843" lon="-1.63458">
        <ele>78</ele>
        <time>2022-06-05T08:02:31Z</time>
      </trkpt>
      <trkpt lat="47.16834" lon="-1.63471">
        <ele>78</ele>
        <time>2022-06-05T08:02:33Z</time>
      </trkpt>
      <trkpt lat="47.16826" lon="-1.63485">
        <ele>78</ele>
        <time>2022-06-05T08:02:35Z</time>
      </trkpt>
      <trkpt lat="47.16817" lon="-1.63499">
        <ele>78</ele>
        <time>2022-06-05T08:02:37Z</time>
      </trkpt>
      <trkpt lat="47.16809" lon="-1.63512">
        <ele>78</ele>
        <time>2022-06-05T08:02:39Z</time>
      </trkpt>
      <trkpt lat="47.16801" lon="-1.63526">
        <ele>78</ele>
        <time>2022-06-05T08:02:41Z</time>
      </trkpt>
      <trkpt lat="47.16792" lon="-1.63541">
        <ele>78</ele>
        <time>2022-06-05T08:02:43Z</time>
      </trkpt>
      <trkpt lat="47.16784" lon="-1.63554">
        <ele>77</ele>
        <time>2022-06-05T08:02:45Z</time>
      </trkpt>
      <trkpt lat="47.16775" lon="-1.63568">
        <ele>77</ele>
        <time>2022-06-05T08:02:47Z</time>
      </trkpt>
      <trkpt lat="47.16767" lon="-1.63582">
        <ele>77</ele>
        <time>2022-06-05T08:02:49Z</time>
      </trkpt>
      <trkpt lat="47.16759" lon="-1.63596">
        <ele>77</ele>
        <time>2022-06-05T08:02:51Z</time>
      </trkpt>
      <trkpt lat="47.16751" lon="-1.6361">
        <ele>77</ele>
        <time>2022-06-05T08:02:53Z</time>
      </trkpt>
      <trkpt lat="47.16744" lon="-1.63624">
        <ele>77</ele>
        <time>2022-06-05T08:02:55Z</time>
      </trkpt>
      <trkpt lat="47.16743" lon="-1.63641">
        <ele>78</ele>
        <time>2022-06-05T08:02:57Z</time>
      </trkpt>
      <trkpt lat="47.16755" lon="-1.63648">
        <ele>77</ele>
        <time>2022-06-05T08:02:59Z</time>
      </trkpt>
      <trkpt lat="47.16766" lon="-1.63651">
        <ele>77</ele>
        <time>2022-06-05T08:03:01Z</time>
      </trkpt>
      <trkpt lat="47.16778" lon="-1.63655">
        <ele>76</ele>
        <time>2022-06-05T08:03:03Z</time>
      </trkpt>
      <trkpt lat="47.16791" lon="-1.6366">
        <ele>76</ele>
        <time>2022-06-05T08:03:05Z</time>
      </trkpt>
      <trkpt lat="47.16803" lon="-1.63665">
        <ele>76</ele>
        <time>2022-06-05T08:03:07Z</time>
      </trkpt>
      <trkpt lat="47.16816" lon="-1.63669">
        <ele>76</ele>
        <time>2022-06-05T08:03:09Z</time>
      </trkpt>
      <trkpt lat="47.16828" lon="-1.63673">
        <ele>76</ele>
        <time>2022-06-05T08:03:11Z</time>
      </trkpt>
      <trkpt lat="47.1684" lon="-1.63677">
        <ele>77</ele>
        <time>2022-06-05T08:03:13Z</time>
      </trkpt>
      <trkpt lat="47.16853" lon="-1.63681">
        <ele>77</ele>
        <time>2022-06-05T08:03:15Z</time>
      </trkpt>
      <trkpt lat="47.16865" lon="-1.63686">
        <ele>77</ele>
        <time>2022-06-05T08:03:17Z</time>
      </trkpt>
      <trkpt lat="47.16877" lon="-1.63691">
        <ele>77</ele>
        <time>2022-06-05T08:03:19Z</time>
      </trkpt>
      <trkpt lat="47.1689" lon="-1.63695">
        <ele>77</ele>
        <time>2022-06-05T08:03:21Z</time>
      </trkpt>
      <trkpt lat="47.16903" lon="-1.637">
        <ele>77</ele>
        <time>2022-06-05T08:03:23Z</time>
      </trkpt>
      <trkpt lat="47.16917" lon="-1.63706">
        <ele>77</ele>
        <time>2022-06-05T08:03:25Z</time>
      </trkpt>
      <trkpt lat="47.1693" lon="-1.63711">
        <ele>77</ele>
        <time>2022-06-05T08:03:27Z</time>
      </trkpt>
      <trkpt lat="47.16943" lon="-1.63716">
        <ele>77</ele>
        <time>2022-06-05T08:03:29Z</time>
      </trkpt>
      <trkpt lat="47.16956" lon="-1.63721">
        <ele>76</ele>
        <time>2022-06-05T08:03:31Z</time>
      </trkpt>
      <trkpt lat="47.16969" lon="-1.63726">
        <ele>76</ele>
        <time>2022-06-05T08:03:33Z</time>
      </trkpt>
      <trkpt lat="47.16982" lon="-1.6373">
        <ele>76</ele>
        <time>2022-06-05T08:03:35Z</time>
      </trkpt>
      <trkpt lat="47.16994" lon="-1.63736">
        <ele>76</ele>
        <time>2022-06-05T08:03:37Z</time>
      </trkpt>
      <trkpt lat="47.17007" lon="-1.6374">
        <ele>76</ele>
        <time>2022-06-05T08:03:39Z</time>
      </trkpt>
      <trkpt lat="47.17019" lon="-1.63744">
        <ele>76</ele>
        <time>2022-06-05T08:03:41Z</time>
      </trkpt>
      <trkpt lat="47.17032" lon="-1.63749">
        <ele>77</ele>
        <time>2022-06-05T08:03:43Z</time>
      </trkpt>
      <trkpt lat="47.17045" lon="-1.63756">
        <ele>77</ele>
        <time>2022-06-05T08:03:45Z</time>
      </trkpt>
      <trkpt lat="47.17056" lon="-1.63766">
        <ele>77</ele>
        <time>2022-06-05T08:03:47Z</time>
      </trkpt>
      <trkpt lat="47.17064" lon="-1.6378">
        <ele>77</ele>
        <time>2022-06-05T08:03:49Z</time>
      </trkpt>
      <trkpt lat="47.1707" lon="-1.63797">
        <ele>77</ele>
        <time>2022-06-05T08:03:51Z</time>
      </trkpt>
      <trkpt lat="47.17074" lon="-1.63814">
        <ele>78</ele>
        <time>2022-06-05T08:03:53Z</time>
      </trkpt>
      <trkpt lat="47.1708" lon="-1.63831">
        <ele>78</ele>
        <time>2022-06-05T08:03:55Z</time>
      </trkpt>
      <trkpt lat="47.17085" lon="-1.63847">
        <ele>78</ele>
        <time>2022-06-05T08:03:57Z</time>
      </trkpt>
      <trkpt lat="47.17091" lon="-1.63864">
        <ele>78</ele>
        <time>2022-06-05T08:03:59Z</time>
      </trkpt>
      <trkpt lat="47.17097" lon="-1.6388">
        <ele>78</ele>
        <time>2022-06-05T08:04:01Z</time>
      </trkpt>
      <trkpt lat="47.17103" lon="-1.63896">
        <ele>78</ele>
        <time>2022-06-05T08:04:03Z</time>
      </trkpt>
      <trkpt lat="47.17108" lon="-1.63912">
        <ele>78</ele>
        <time>2022-06-05T08:04:05Z</time>
      </trkpt>
      <trkpt lat="47.17113" lon="-1.63925">
        <ele>77</ele>
        <time>2022-06-05T08:04:07Z</time>
      </trkpt>
      <trkpt lat="47.1712" lon="-1.63936">
        <ele>77</ele>
        <time>2022-06-05T08:04:09Z</time>
      </trkpt>
      <trkpt lat="47.17131" lon="-1.63942">
        <ele>77</ele>
        <time>2022-06-05T08:04:12Z</time>
      </trkpt>
      <trkpt lat="47.17137" lon="-1.63959">
        <ele>77</ele>
        <time>2022-06-05T08:04:15Z</time>
      </trkpt>
      <trkpt lat="47.17137" lon="-1.63975">
        <ele>77</ele>
        <time>2022-06-05T08:04:17Z</time>
      </trkpt>
      <trkpt lat="47.17136" lon="-1.63993">
        <ele>77</ele>
        <time>2022-06-05T08:04:19Z</time>
      </trkpt>
      <trkpt lat="47.17135" lon="-1.64012">
        <ele>77</ele>
        <time>2022-06-05T08:04:21Z</time>
      </trkpt>
      <trkpt lat="47.17132" lon="-1.64031">
        <ele>77</ele>
        <time>2022-06-05T08:04:23Z</time>
      </trkpt>
      <trkpt lat="47.17131" lon="-1.6405">
        <ele>78</ele>
        <time>2022-06-05T08:04:25Z</time>
      </trkpt>
      <trkpt lat="47.17129" lon="-1.64069">
        <ele>78</ele>
        <time>2022-06-05T08:04:27Z</time>
      </trkpt>
      <trkpt lat="47.17126" lon="-1.64088">
        <ele>78</ele>
        <time>2022-06-05T08:04:29Z</time>
      </trkpt>
      <trkpt lat="47.17124" lon="-1.64107">
        <ele>78</ele>
        <time>2022-06-05T08:04:31Z</time>
      </trkpt>
      <trkpt lat="47.17121" lon="-1.64126">
        <ele>79</ele>
        <time>2022-06-05T08:04:33Z</time>
      </trkpt>
      <trkpt lat="47.17119" lon="-1.64144">
        <ele>79</ele>
        <time>2022-06-05T08:04:35Z</time>
      </trkpt>
      <trkpt lat="47.17117" lon="-1.64164">
        <ele>79</ele>
        <time>2022-06-05T08:04:37Z</time>
      </trkpt>
      <trkpt lat="47.17115" lon="-1.64184">
        <ele>78</ele>
        <time>2022-06-05T08:04:39Z</time>
      </trkpt>
      <trkpt lat="47.17113" lon="-1.64203">
        <ele>79</ele>
        <time>2022-06-05T08:04:41Z</time>
      </trkpt>
      <trkpt lat="47.17111" lon="-1.64222">
        <ele>79</ele>
        <time>2022-06-05T08:04:43Z</time>
      </trkpt>
      <trkpt lat="47.17109" lon="-1.64241">
        <ele>79</ele>
        <time>2022-06-05T08:04:45Z</time>
      </trkpt>
      <trkpt lat="47.17107" lon="-1.6426">
        <ele>80</ele>
        <time>2022-06-05T08:04:47Z</time>
      </trkpt>
      <trkpt lat="47.17105" lon="-1.64279">
        <ele>79</ele>
        <time>2022-06-05T08:04:49Z</time>
      </trkpt>
      <trkpt lat="47.17103" lon="-1.64298">
        <ele>79</ele>
        <time>2022-06-05T08:04:51Z</time>
      </trkpt>
      <trkpt lat="47.17102" lon="-1.64317">
        <ele>80</ele>
        <time>2022-06-05T08:04:53Z</time>
      </trkpt>
      <trkpt lat="47.171" lon="-1.64337">
        <ele>80</ele>
        <time>2022-06-05T08:04:55Z</time>
      </trkpt>
      <trkpt lat="47.17098" lon="-1.64356">
        <ele>80</ele>
        <time>2022-06-05T08:04:57Z</time>
      </trkpt>
      <trkpt lat="47.17096" lon="-1.64376">
        <ele>79</ele>
        <time>2022-06-05T08:04:59Z</time>
      </trkpt>
      <trkpt lat="47.17094" lon="-1.64395">
        <ele>79</ele>
        <time>2022-06-05T08:05:01Z</time>
      </trkpt>
      <trkpt lat="47.17092" lon="-1.64415">
        <ele>79</ele>
        <time>2022-06-05T08:05:03Z</time>
      </trkpt>
      <trkpt lat="47.17091" lon="-1.64435">
        <ele>79</ele>
        <time>2022-06-05T08:05:05Z</time>
      </trkpt>
      <trkpt lat="47.1709" lon="-1.64455">
        <ele>79</ele>
        <time>2022-06-05T08:05:07Z</time>
      </trkpt>
      <trkpt lat="47.17089" lon="-1.64475">
        <ele>79</ele>
        <time>2022-06-05T08:05:09Z</time>
      </trkpt>
      <trkpt lat="47.17087" lon="-1.64495">
        <ele>79</ele>
        <time>2022-06-05T08:05:11Z</time>
      </trkpt>
      <trkpt lat="47.17087" lon="-1.64516">
        <ele>79</ele>
        <time>2022-06-05T08:05:13Z</time>
      </trkpt>
      <trkpt lat="47.17086" lon="-1.64536">
        <ele>78</ele>
        <time>2022-06-05T08:05:15Z</time>
      </trkpt>
      <trkpt lat="47.17086" lon="-1.64557">
        <ele>78</ele>
        <time>2022-06-05T08:05:17Z</time>
      </trkpt>
      <trkpt lat="47.17085" lon="-1.64578">
        <ele>78</ele>
        <time>2022-06-05T08:05:19Z</time>
      </trkpt>
      <trkpt lat="47.17085" lon="-1.64598">
        <ele>78</ele>
        <time>2022-06-05T08:05:21Z</time>
      </trkpt>
      <trkpt lat="47.17085" lon="-1.64619">
        <ele>78</ele>
        <time>2022-06-05T08:05:23Z</time>
      </trkpt>
      <trkpt lat="47.17085" lon="-1.64639">
        <ele>78</ele>
        <time>2022-06-05T08:05:25Z</time>
      </trkpt>
      <trkpt lat="47.17085" lon="-1.64658">
        <ele>78</ele>
        <time>2022-06-05T08:05:27Z</time>
      </trkpt>
      <trkpt lat="47.17086" lon="-1.64679">
        <ele>78</ele>
        <time>2022-06-05T08:05:29Z</time>
      </trkpt>
      <trkpt lat="47.17086" lon="-1.64699">
        <ele>78</ele>
        <time>2022-06-05T08:05:31Z</time>
      </trkpt>
      <trkpt lat="47.17087" lon="-1.64719">
        <ele>78</ele>
        <time>2022-06-05T08:05:33Z</time>
      </trkpt>
      <trkpt lat="47.17087" lon="-1.64738">
        <ele>79</ele>
        <time>2022-06-05T08:05:35Z</time>
      </trkpt>
      <trkpt lat="47.17087" lon="-1.64757">
        <ele>79</ele>
        <time>2022-06-05T08:05:37Z</time>
      </trkpt>
      <trkpt lat="47.17088" lon="-1.64776">
        <ele>79</ele>
        <time>2022-06-05T08:05:39Z</time>
      </trkpt>
      <trkpt lat="47.17089" lon="-1.64794">
        <ele>79</ele>
        <time>2022-06-05T08:05:41Z</time>
      </trkpt>
      <trkpt lat="47.1709" lon="-1.64814">
        <ele>79</ele>
        <time>2022-06-05T08:05:43Z</time>
      </trkpt>
      <trkpt lat="47.17092" lon="-1.64834">
        <ele>79</ele>
        <time>2022-06-05T08:05:45Z</time>
      </trkpt>
      <trkpt lat="47.17094" lon="-1.64854">
        <ele>79</ele>
        <time>2022-06-05T08:05:47Z</time>
      </trkpt>
      <trkpt lat="47.17095" lon="-1.64875">
        <ele>79</ele>
        <time>2022-06-05T08:05:49Z</time>
      </trkpt>
      <trkpt lat="47.17097" lon="-1.64896">
        <ele>78</ele>
        <time>2022-06-05T08:05:51Z</time>
      </trkpt>
      <trkpt lat="47.17099" lon="-1.64916">
        <ele>78</ele>
        <time>2022-06-05T08:05:53Z</time>
      </trkpt>
      <trkpt lat="47.171" lon="-1.64937">
        <ele>79</ele>
        <time>2022-06-05T08:05:55Z</time>
      </trkpt>
      <trkpt lat="47.17102" lon="-1.64957">
        <ele>78</ele>
        <time>2022-06-05T08:05:57Z</time>
      </trkpt>
      <trkpt lat="47.17104" lon="-1.64978">
        <ele>79</ele>
        <time>2022-06-05T08:05:59Z</time>
      </trkpt>
      <trkpt lat="47.17105" lon="-1.64997">
        <ele>79</ele>
        <time>2022-06-05T08:06:01Z</time>
      </trkpt>
      <trkpt lat="47.17107" lon="-1.65017">
        <ele>79</ele>
        <time>2022-06-05T08:06:03Z</time>
      </trkpt>
      <trkpt lat="47.17108" lon="-1.65037">
        <ele>79</ele>
        <time>2022-06-05T08:06:05Z</time>
      </trkpt>
      <trkpt lat="47.17109" lon="-1.65056">
        <ele>79</ele>
        <time>2022-06-05T08:06:07Z</time>
      </trkpt>
      <trkpt lat="47.17111" lon="-1.65075">
        <ele>80</ele>
        <time>2022-06-05T08:06:09Z</time>
      </trkpt>
      <trkpt lat="47.17112" lon="-1.65094">
        <ele>79</ele>
        <time>2022-06-05T08:06:11Z</time>
      </trkpt>
      <trkpt lat="47.17113" lon="-1.65113">
        <ele>79</ele>
        <time>2022-06-05T08:06:13Z</time>
      </trkpt>
      <trkpt lat="47.17114" lon="-1.65133">
        <ele>79</ele>
        <time>2022-06-05T08:06:15Z</time>
      </trkpt>
      <trkpt lat="47.17116" lon="-1.65151">
        <ele>79</ele>
        <time>2022-06-05T08:06:17Z</time>
      </trkpt>
      <trkpt lat="47.17117" lon="-1.6517">
        <ele>79</ele>
        <time>2022-06-05T08:06:19Z</time>
      </trkpt>
      <trkpt lat="47.17119" lon="-1.65188">
        <ele>79</ele>
        <time>2022-06-05T08:06:21Z</time>
      </trkpt>
      <trkpt lat="47.1712" lon="-1.65206">
        <ele>79</ele>
        <time>2022-06-05T08:06:23Z</time>
      </trkpt>
      <trkpt lat="47.17121" lon="-1.65223">
        <ele>80</ele>
        <time>2022-06-05T08:06:25Z</time>
      </trkpt>
      <trkpt lat="47.17122" lon="-1.65241">
        <ele>80</ele>
        <time>2022-06-05T08:06:27Z</time>
      </trkpt>
      <trkpt lat="47.17124" lon="-1.65258">
        <ele>80</ele>
        <time>2022-06-05T08:06:29Z</time>
      </trkpt>
      <trkpt lat="47.1713" lon="-1.65273">
        <ele>80</ele>
        <time>2022-06-05T08:06:31Z</time>
      </trkpt>
      <trkpt lat="47.17136" lon="-1.65288">
        <ele>81</ele>
        <time>2022-06-05T08:06:33Z</time>
      </trkpt>
      <trkpt lat="47.17139" lon="-1.65305">
        <ele>81</ele>
        <time>2022-06-05T08:06:35Z</time>
      </trkpt>
      <trkpt lat="47.17134" lon="-1.65321">
        <ele>81</ele>
        <time>2022-06-05T08:06:37Z</time>
      </trkpt>
      <trkpt lat="47.17126" lon="-1.65333">
        <ele>81</ele>
        <time>2022-06-05T08:06:39Z</time>
      </trkpt>
      <trkpt lat="47.17118" lon="-1.65348">
        <ele>81</ele>
        <time>2022-06-05T08:06:41Z</time>
      </trkpt>
      <trkpt lat="47.17116" lon="-1.65364">
        <ele>82</ele>
        <time>2022-06-05T08:06:43Z</time>
      </trkpt>
      <trkpt lat="47.17116" lon="-1.65381">
        <ele>82</ele>
        <time>2022-06-05T08:06:45Z</time>
      </trkpt>
      <trkpt lat="47.17116" lon="-1.65398">
        <ele>81</ele>
        <time>2022-06-05T08:06:47Z</time>
      </trkpt>
      <trkpt lat="47.17117" lon="-1.65414">
        <ele>82</ele>
        <time>2022-06-05T08:06:49Z</time>
      </trkpt>
      <trkpt lat="47.17117" lon="-1.65429">
        <ele>82</ele>
        <time>2022-06-05T08:06:51Z</time>
      </trkpt>
      <trkpt lat="47.17117" lon="-1.65444">
        <ele>83</ele>
        <time>2022-06-05T08:06:53Z</time>
      </trkpt>
      <trkpt lat="47.17117" lon="-1.65458">
        <ele>84</ele>
        <time>2022-06-05T08:06:55Z</time>
      </trkpt>
      <trkpt lat="47.17115" lon="-1.65472">
        <ele>84</ele>
        <time>2022-06-05T08:06:57Z</time>
      </trkpt>
      <trkpt lat="47.17113" lon="-1.65486">
        <ele>85</ele>
        <time>2022-06-05T08:06:59Z</time>
      </trkpt>
      <trkpt lat="47.1711" lon="-1.655">
        <ele>85</ele>
        <time>2022-06-05T08:07:01Z</time>
      </trkpt>
      <trkpt lat="47.17106" lon="-1.65514">
        <ele>85</ele>
        <time>2022-06-05T08:07:03Z</time>
      </trkpt>
      <trkpt lat="47.17101" lon="-1.65527">
        <ele>86</ele>
        <time>2022-06-05T08:07:05Z</time>
      </trkpt>
      <trkpt lat="47.17096" lon="-1.65541">
        <ele>86</ele>
        <time>2022-06-05T08:07:07Z</time>
      </trkpt>
      <trkpt lat="47.17089" lon="-1.65554">
        <ele>87</ele>
        <time>2022-06-05T08:07:09Z</time>
      </trkpt>
      <trkpt lat="47.17083" lon="-1.65566">
        <ele>87</ele>
        <time>2022-06-05T08:07:11Z</time>
      </trkpt>
      <trkpt lat="47.17076" lon="-1.65577">
        <ele>87</ele>
        <time>2022-06-05T08:07:13Z</time>
      </trkpt>
      <trkpt lat="47.17069" lon="-1.65589">
        <ele>87</ele>
        <time>2022-06-05T08:07:15Z</time>
      </trkpt>
      <trkpt lat="47.17063" lon="-1.65601">
        <ele>87</ele>
        <time>2022-06-05T08:07:17Z</time>
      </trkpt>
      <trkpt lat="47.17056" lon="-1.65614">
        <ele>87</ele>
        <time>2022-06-05T08:07:19Z</time>
      </trkpt>
      <trkpt lat="47.17048" lon="-1.65627">
        <ele>87</ele>
        <time>2022-06-05T08:07:21Z</time>
      </trkpt>
      <trkpt lat="47.17041" lon="-1.6564">
        <ele>86</ele>
        <time>2022-06-05T08:07:23Z</time>
      </trkpt>
      <trkpt lat="47.17032" lon="-1.65655">
        <ele>85</ele>
        <time>2022-06-05T08:07:25Z</time>
      </trkpt>
      <trkpt lat="47.17024" lon="-1.65671">
        <ele>85</ele>
        <time>2022-06-05T08:07:27Z</time>
      </trkpt>
      <trkpt lat="47.17016" lon="-1.65688">
        <ele>84</ele>
        <time>2022-06-05T08:07:29Z</time>
      </trkpt>
      <trkpt lat="47.17009" lon="-1.65705">
        <ele>84</ele>
        <time>2022-06-05T08:07:31Z</time>
      </trkpt>
      <trkpt lat="47.17004" lon="-1.65723">
        <ele>84</ele>
        <time>2022-06-05T08:07:33Z</time>
      </trkpt>
      <trkpt lat="47.17002" lon="-1.65741">
        <ele>84</ele>
        <time>2022-06-05T08:07:35Z</time>
      </trkpt>
      <trkpt lat="47.16997" lon="-1.65759">
        <ele>84</ele>
        <time>2022-06-05T08:07:37Z</time>
      </trkpt>
      <trkpt lat="47.16986" lon="-1.6577">
        <ele>84</ele>
        <time>2022-06-05T08:07:39Z</time>
      </trkpt>
      <trkpt lat="47.16973" lon="-1.65777">
        <ele>84</ele>
        <time>2022-06-05T08:07:41Z</time>
      </trkpt>
      <trkpt lat="47.16961" lon="-1.65789">
        <ele>84</ele>
        <time>2022-06-05T08:07:43Z</time>
      </trkpt>
      <trkpt lat="47.16951" lon="-1.65804">
        <ele>83</ele>
        <time>2022-06-05T08:07:45Z</time>
      </trkpt>
      <trkpt lat="47.16943" lon="-1.6582">
        <ele>83</ele>
        <time>2022-06-05T08:07:47Z</time>
      </trkpt>
      <trkpt lat="47.16935" lon="-1.65837">
        <ele>83</ele>
        <time>2022-06-05T08:07:49Z</time>
      </trkpt>
      <trkpt lat="47.16926" lon="-1.65854">
        <ele>82</ele>
        <time>2022-06-05T08:07:51Z</time>
      </trkpt>
      <trkpt lat="47.16918" lon="-1.6587">
        <ele>82</ele>
        <time>2022-06-05T08:07:53Z</time>
      </trkpt>
      <trkpt lat="47.1691" lon="-1.65886">
        <ele>81</ele>
        <time>2022-06-05T08:07:55Z</time>
      </trkpt>
      <trkpt lat="47.16902" lon="-1.65903">
        <ele>81</ele>
        <time>2022-06-05T08:07:57Z</time>
      </trkpt>
      <trkpt lat="47.16894" lon="-1.6592">
        <ele>81</ele>
        <time>2022-06-05T08:07:59Z</time>
      </trkpt>
      <trkpt lat="47.16886" lon="-1.65937">
        <ele>81</ele>
        <time>2022-06-05T08:08:01Z</time>
      </trkpt>
      <trkpt lat="47.16878" lon="-1.65953">
        <ele>81</ele>
        <time>2022-06-05T08:08:03Z</time>
      </trkpt>
      <trkpt lat="47.16872" lon="-1.65971">
        <ele>80</ele>
        <time>2022-06-05T08:08:05Z</time>
      </trkpt>
      <trkpt lat="47.16866" lon="-1.65989">
        <ele>81</ele>
        <time>2022-06-05T08:08:07Z</time>
      </trkpt>
      <trkpt lat="47.16861" lon="-1.66007">
        <ele>80</ele>
        <time>2022-06-05T08:08:09Z</time>
      </trkpt>
      <trkpt lat="47.16856" lon="-1.66026">
        <ele>80</ele>
        <time>2022-06-05T08:08:11Z</time>
      </trkpt>
      <trkpt lat="47.16852" lon="-1.66045">
        <ele>80</ele>
        <time>2022-06-05T08:08:13Z</time>
      </trkpt>
      <trkpt lat="47.16849" lon="-1.66064">
        <ele>80</ele>
        <time>2022-06-05T08:08:15Z</time>
      </trkpt>
      <trkpt lat="47.16847" lon="-1.66083">
        <ele>79</ele>
        <time>2022-06-05T08:08:17Z</time>
      </trkpt>
      <trkpt lat="47.16845" lon="-1.66103">
        <ele>79</ele>
        <time>2022-06-05T08:08:19Z</time>
      </trkpt>
      <trkpt lat="47.16844" lon="-1.66123">
        <ele>79</ele>
        <time>2022-06-05T08:08:21Z</time>
      </trkpt>
      <trkpt lat="47.16844" lon="-1.66143">
        <ele>79</ele>
        <time>2022-06-05T08:08:23Z</time>
      </trkpt>
      <trkpt lat="47.16845" lon="-1.66162">
        <ele>79</ele>
        <time>2022-06-05T08:08:25Z</time>
      </trkpt>
      <trkpt lat="47.16846" lon="-1.66181">
        <ele>79</ele>
        <time>2022-06-05T08:08:27Z</time>
      </trkpt>
      <trkpt lat="47.16847" lon="-1.662">
        <ele>80</ele>
        <time>2022-06-05T08:08:29Z</time>
      </trkpt>
      <trkpt lat="47.16848" lon="-1.66219">
        <ele>80</ele>
        <time>2022-06-05T08:08:31Z</time>
      </trkpt>
      <trkpt lat="47.1685" lon="-1.66238">
        <ele>80</ele>
        <time>2022-06-05T08:08:33Z</time>
      </trkpt>
      <trkpt lat="47.16851" lon="-1.66257">
        <ele>80</ele>
        <time>2022-06-05T08:08:35Z</time>
      </trkpt>
      <trkpt lat="47.16852" lon="-1.66276">
        <ele>80</ele>
        <time>2022-06-05T08:08:37Z</time>
      </trkpt>
      <trkpt lat="47.16853" lon="-1.66294">
        <ele>80</ele>
        <time>2022-06-05T08:08:39Z</time>
      </trkpt>
      <trkpt lat="47.16854" lon="-1.66313">
        <ele>81</ele>
        <time>2022-06-05T08:08:41Z</time>
      </trkpt>
      <trkpt lat="47.16856" lon="-1.66332">
        <ele>81</ele>
        <time>2022-06-05T08:08:43Z</time>
      </trkpt>
      <trkpt lat="47.16858" lon="-1.66351">
        <ele>80</ele>
        <time>2022-06-05T08:08:45Z</time>
      </trkpt>
      <trkpt lat="47.16859" lon="-1.66371">
        <ele>80</ele>
        <time>2022-06-05T08:08:47Z</time>
      </trkpt>
      <trkpt lat="47.16861" lon="-1.6639">
        <ele>80</ele>
        <time>2022-06-05T08:08:49Z</time>
      </trkpt>
      <trkpt lat="47.16864" lon="-1.66409">
        <ele>80</ele>
        <time>2022-06-05T08:08:51Z</time>
      </trkpt>
      <trkpt lat="47.16866" lon="-1.66429">
        <ele>80</ele>
        <time>2022-06-05T08:08:53Z</time>
      </trkpt>
      <trkpt lat="47.16868" lon="-1.66448">
        <ele>80</ele>
        <time>2022-06-05T08:08:55Z</time>
      </trkpt>
      <trkpt lat="47.1687" lon="-1.66467">
        <ele>80</ele>
        <time>2022-06-05T08:08:57Z</time>
      </trkpt>
      <trkpt lat="47.16872" lon="-1.66485">
        <ele>80</ele>
        <time>2022-06-05T08:08:59Z</time>
      </trkpt>
      <trkpt lat="47.16875" lon="-1.66502">
        <ele>81</ele>
        <time>2022-06-05T08:09:01Z</time>
      </trkpt>
      <trkpt lat="47.16876" lon="-1.66519">
        <ele>81</ele>
        <time>2022-06-05T08:09:03Z</time>
      </trkpt>
      <trkpt lat="47.16878" lon="-1.66537">
        <ele>82</ele>
        <time>2022-06-05T08:09:05Z</time>
      </trkpt>
      <trkpt lat="47.1688" lon="-1.66557">
        <ele>82</ele>
        <time>2022-06-05T08:09:07Z</time>
      </trkpt>
      <trkpt lat="47.16882" lon="-1.66576">
        <ele>83</ele>
        <time>2022-06-05T08:09:09Z</time>
      </trkpt>
      <trkpt lat="47.16884" lon="-1.66594">
        <ele>83</ele>
        <time>2022-06-05T08:09:11Z</time>
      </trkpt>
      <trkpt lat="47.16886" lon="-1.66613">
        <ele>83</ele>
        <time>2022-06-05T08:09:13Z</time>
      </trkpt>
      <trkpt lat="47.16888" lon="-1.66631">
        <ele>83</ele>
        <time>2022-06-05T08:09:15Z</time>
      </trkpt>
      <trkpt lat="47.16889" lon="-1.6665">
        <ele>82</ele>
        <time>2022-06-05T08:09:17Z</time>
      </trkpt>
      <trkpt lat="47.16889" lon="-1.66668">
        <ele>82</ele>
        <time>2022-06-05T08:09:19Z</time>
      </trkpt>
      <trkpt lat="47.16888" lon="-1.66687">
        <ele>81</ele>
        <time>2022-06-05T08:09:21Z</time>
      </trkpt>
      <trkpt lat="47.16885" lon="-1.66706">
        <ele>81</ele>
        <time>2022-06-05T08:09:23Z</time>
      </trkpt>
      <trkpt lat="47.1688" lon="-1.66723">
        <ele>80</ele>
        <time>2022-06-05T08:09:25Z</time>
      </trkpt>
      <trkpt lat="47.16873" lon="-1.66741">
        <ele>80</ele>
        <time>2022-06-05T08:09:27Z</time>
      </trkpt>
      <trkpt lat="47.16865" lon="-1.66757">
        <ele>81</ele>
        <time>2022-06-05T08:09:29Z</time>
      </trkpt>
      <trkpt lat="47.16858" lon="-1.66773">
        <ele>81</ele>
        <time>2022-06-05T08:09:31Z</time>
      </trkpt>
      <trkpt lat="47.1685" lon="-1.66788">
        <ele>81</ele>
        <time>2022-06-05T08:09:33Z</time>
      </trkpt>
      <trkpt lat="47.16841" lon="-1.66804">
        <ele>81</ele>
        <time>2022-06-05T08:09:35Z</time>
      </trkpt>
      <trkpt lat="47.16833" lon="-1.66819">
        <ele>82</ele>
        <time>2022-06-05T08:09:37Z</time>
      </trkpt>
      <trkpt lat="47.16824" lon="-1.66836">
        <ele>82</ele>
        <time>2022-06-05T08:09:39Z</time>
      </trkpt>
      <trkpt lat="47.16816" lon="-1.66852">
        <ele>81</ele>
        <time>2022-06-05T08:09:41Z</time>
      </trkpt>
      <trkpt lat="47.16807" lon="-1.66867">
        <ele>81</ele>
        <time>2022-06-05T08:09:43Z</time>
      </trkpt>
      <trkpt lat="47.16798" lon="-1.6688">
        <ele>81</ele>
        <time>2022-06-05T08:09:45Z</time>
      </trkpt>
      <trkpt lat="47.16789" lon="-1.66892">
        <ele>81</ele>
        <time>2022-06-05T08:09:47Z</time>
      </trkpt>
      <trkpt lat="47.1678" lon="-1.66901">
        <ele>82</ele>
        <time>2022-06-05T08:09:49Z</time>
      </trkpt>
      <trkpt lat="47.16771" lon="-1.6691">
        <ele>84</ele>
        <time>2022-06-05T08:09:51Z</time>
      </trkpt>
      <trkpt lat="47.16762" lon="-1.66914">
        <ele>85</ele>
        <time>2022-06-05T08:09:53Z</time>
      </trkpt>
      <trkpt lat="47.16753" lon="-1.66918">
        <ele>87</ele>
        <time>2022-06-05T08:09:55Z</time>
      </trkpt>
      <trkpt lat="47.16743" lon="-1.66921">
        <ele>88</ele>
        <time>2022-06-05T08:09:57Z</time>
      </trkpt>
      <trkpt lat="47.16732" lon="-1.66925">
        <ele>88</ele>
        <time>2022-06-05T08:09:59Z</time>
      </trkpt>
      <trkpt lat="47.1672" lon="-1.6693">
        <ele>89</ele>
        <time>2022-06-05T08:10:01Z</time>
      </trkpt>
      <trkpt lat="47.1671" lon="-1.66936">
        <ele>89</ele>
        <time>2022-06-05T08:10:03Z</time>
      </trkpt>
      <trkpt lat="47.16698" lon="-1.66946">
        <ele>90</ele>
        <time>2022-06-05T08:10:05Z</time>
      </trkpt>
      <trkpt lat="47.16686" lon="-1.6696">
        <ele>92</ele>
        <time>2022-06-05T08:10:07Z</time>
      </trkpt>
      <trkpt lat="47.16674" lon="-1.66975">
        <ele>93</ele>
        <time>2022-06-05T08:10:09Z</time>
      </trkpt>
      <trkpt lat="47.16666" lon="-1.66992">
        <ele>92</ele>
        <time>2022-06-05T08:10:11Z</time>
      </trkpt>
      <trkpt lat="47.1666" lon="-1.67012">
        <ele>91</ele>
        <time>2022-06-05T08:10:13Z</time>
      </trkpt>
      <trkpt lat="47.16654" lon="-1.67034">
        <ele>89</ele>
        <time>2022-06-05T08:10:15Z</time>
      </trkpt>
      <trkpt lat="47.16649" lon="-1.67057">
        <ele>87</ele>
        <time>2022-06-05T08:10:17Z</time>
      </trkpt>
      <trkpt lat="47.16645" lon="-1.67077">
        <ele>85</ele>
        <time>2022-06-05T08:10:19Z</time>
      </trkpt>
      <trkpt lat="47.16641" lon="-1.67096">
        <ele>84</ele>
        <time>2022-06-05T08:10:21Z</time>
      </trkpt>
      <trkpt lat="47.16637" lon="-1.67115">
        <ele>83</ele>
        <time>2022-06-05T08:10:23Z</time>
      </trkpt>
      <trkpt lat="47.16633" lon="-1.67134">
        <ele>83</ele>
        <time>2022-06-05T08:10:25Z</time>
      </trkpt>
      <trkpt lat="47.16628" lon="-1.67151">
        <ele>82</ele>
        <time>2022-06-05T08:10:27Z</time>
      </trkpt>
      <trkpt lat="47.16624" lon="-1.6717">
        <ele>82</ele>
        <time>2022-06-05T08:10:29Z</time>
      </trkpt>
      <trkpt lat="47.1662" lon="-1.67188">
        <ele>81</ele>
        <time>2022-06-05T08:10:31Z</time>
      </trkpt>
      <trkpt lat="47.16617" lon="-1.67207">
        <ele>81</ele>
        <time>2022-06-05T08:10:33Z</time>
      </trkpt>
      <trkpt lat="47.16614" lon="-1.67224">
        <ele>81</ele>
        <time>2022-06-05T08:10:35Z</time>
      </trkpt>
      <trkpt lat="47.16611" lon="-1.67239">
        <ele>80</ele>
        <time>2022-06-05T08:10:37Z</time>
      </trkpt>
      <trkpt lat="47.16607" lon="-1.67258">
        <ele>79</ele>
        <time>2022-06-05T08:10:40Z</time>
      </trkpt>
      <trkpt lat="47.166" lon="-1.67276">
        <ele>79</ele>
        <time>2022-06-05T08:10:43Z</time>
      </trkpt>
      <trkpt lat="47.16594" lon="-1.67291">
        <ele>78</ele>
        <time>2022-06-05T08:10:45Z</time>
      </trkpt>
      <trkpt lat="47.16586" lon="-1.67307">
        <ele>78</ele>
        <time>2022-06-05T08:10:47Z</time>
      </trkpt>
      <trkpt lat="47.1658" lon="-1.67323">
        <ele>79</ele>
        <time>2022-06-05T08:10:49Z</time>
      </trkpt>
      <trkpt lat="47.16572" lon="-1.67339">
        <ele>79</ele>
        <time>2022-06-05T08:10:51Z</time>
      </trkpt>
      <trkpt lat="47.16564" lon="-1.67355">
        <ele>79</ele>
        <time>2022-06-05T08:10:53Z</time>
      </trkpt>
      <trkpt lat="47.16555" lon="-1.6737">
        <ele>79</ele>
        <time>2022-06-05T08:10:55Z</time>
      </trkpt>
      <trkpt lat="47.16546" lon="-1.67384">
        <ele>79</ele>
        <time>2022-06-05T08:10:57Z</time>
      </trkpt>
      <trkpt lat="47.16537" lon="-1.67399">
        <ele>79</ele>
        <time>2022-06-05T08:10:59Z</time>
      </trkpt>
      <trkpt lat="47.16528" lon="-1.67412">
        <ele>79</ele>
        <time>2022-06-05T08:11:01Z</time>
      </trkpt>
      <trkpt lat="47.16518" lon="-1.67427">
        <ele>79</ele>
        <time>2022-06-05T08:11:03Z</time>
      </trkpt>
      <trkpt lat="47.16509" lon="-1.67441">
        <ele>79</ele>
        <time>2022-06-05T08:11:05Z</time>
      </trkpt>
      <trkpt lat="47.16501" lon="-1.67456">
        <ele>78</ele>
        <time>2022-06-05T08:11:07Z</time>
      </trkpt>
      <trkpt lat="47.16493" lon="-1.67471">
        <ele>78</ele>
        <time>2022-06-05T08:11:09Z</time>
      </trkpt>
      <trkpt lat="47.16484" lon="-1.67486">
        <ele>78</ele>
        <time>2022-06-05T08:11:11Z</time>
      </trkpt>
      <trkpt lat="47.16476" lon="-1.675">
        <ele>78</ele>
        <time>2022-06-05T08:11:13Z</time>
      </trkpt>
      <trkpt lat="47.16468" lon="-1.67514">
        <ele>78</ele>
        <time>2022-06-05T08:11:15Z</time>
      </trkpt>
      <trkpt lat="47.1646" lon="-1.67529">
        <ele>79</ele>
        <time>2022-06-05T08:11:17Z</time>
      </trkpt>
      <trkpt lat="47.16452" lon="-1.67543">
        <ele>79</ele>
        <time>2022-06-05T08:11:19Z</time>
      </trkpt>
      <trkpt lat="47.16444" lon="-1.67559">
        <ele>79</ele>
        <time>2022-06-05T08:11:21Z</time>
      </trkpt>
      <trkpt lat="47.16436" lon="-1.67574">
        <ele>79</ele>
        <time>2022-06-05T08:11:23Z</time>
      </trkpt>
      <trkpt lat="47.16428" lon="-1.67589">
        <ele>79</ele>
        <time>2022-06-05T08:11:25Z</time>
      </trkpt>
      <trkpt lat="47.16421" lon="-1.67606">
        <ele>78</ele>
        <time>2022-06-05T08:11:27Z</time>
      </trkpt>
      <trkpt lat="47.16413" lon="-1.67621">
        <ele>78</ele>
        <time>2022-06-05T08:11:29Z</time>
      </trkpt>
      <trkpt lat="47.16405" lon="-1.67637">
        <ele>78</ele>
        <time>2022-06-05T08:11:31Z</time>
      </trkpt>
      <trkpt lat="47.16398" lon="-1.67652">
        <ele>78</ele>
        <time>2022-06-05T08:11:33Z</time>
      </trkpt>
      <trkpt lat="47.16391" lon="-1.67668">
        <ele>78</ele>
        <time>2022-06-05T08:11:35Z</time>
      </trkpt>
      <trkpt lat="47.16383" lon="-1.67683">
        <ele>78</ele>
        <time>2022-06-05T08:11:37Z</time>
      </trkpt>
      <trkpt lat="47.16375" lon="-1.67698">
        <ele>78</ele>
        <time>2022-06-05T08:11:39Z</time>
      </trkpt>
      <trkpt lat="47.16366" lon="-1.67713">
        <ele>78</ele>
        <time>2022-06-05T08:11:41Z</time>
      </trkpt>
      <trkpt lat="47.16358" lon="-1.67728">
        <ele>78</ele>
        <time>2022-06-05T08:11:43Z</time>
      </trkpt>
      <trkpt lat="47.16349" lon="-1.67743">
        <ele>78</ele>
        <time>2022-06-05T08:11:45Z</time>
      </trkpt>
      <trkpt lat="47.16341" lon="-1.67759">
        <ele>78</ele>
        <time>2022-06-05T08:11:47Z</time>
      </trkpt>
      <trkpt lat="47.16332" lon="-1.67774">
        <ele>78</ele>
        <time>2022-06-05T08:11:49Z</time>
      </trkpt>
      <trkpt lat="47.16324" lon="-1.67789">
        <ele>78</ele>
        <time>2022-06-05T08:11:51Z</time>
      </trkpt>
      <trkpt lat="47.16316" lon="-1.67804">
        <ele>78</ele>
        <time>2022-06-05T08:11:53Z</time>
      </trkpt>
      <trkpt lat="47.16308" lon="-1.67819">
        <ele>78</ele>
        <time>2022-06-05T08:11:55Z</time>
      </trkpt>
      <trkpt lat="47.163" lon="-1.67833">
        <ele>78</ele>
        <time>2022-06-05T08:11:57Z</time>
      </trkpt>
      <trkpt lat="47.16292" lon="-1.67847">
        <ele>78</ele>
        <time>2022-06-05T08:11:59Z</time>
      </trkpt>
      <trkpt lat="47.16284" lon="-1.67861">
        <ele>78</ele>
        <time>2022-06-05T08:12:01Z</time>
      </trkpt>
      <trkpt lat="47.16276" lon="-1.67875">
        <ele>78</ele>
        <time>2022-06-05T08:12:03Z</time>
      </trkpt>
      <trkpt lat="47.16268" lon="-1.67889">
        <ele>79</ele>
        <time>2022-06-05T08:12:05Z</time>
      </trkpt>
      <trkpt lat="47.16261" lon="-1.67902">
        <ele>79</ele>
        <time>2022-06-05T08:12:07Z</time>
      </trkpt>
      <trkpt lat="47.16253" lon="-1.67916">
        <ele>79</ele>
        <time>2022-06-05T08:12:09Z</time>
      </trkpt>
      <trkpt lat="47.16245" lon="-1.67929">
        <ele>79</ele>
        <time>2022-06-05T08:12:11Z</time>
      </trkpt>
      <trkpt lat="47.16238" lon="-1.67942">
        <ele>79</ele>
        <time>2022-06-05T08:12:13Z</time>
      </trkpt>
      <trkpt lat="47.1623" lon="-1.67955">
        <ele>79</ele>
        <time>2022-06-05T08:12:15Z</time>
      </trkpt>
      <trkpt lat="47.16224" lon="-1.6797">
        <ele>79</ele>
        <time>2022-06-05T08:12:17Z</time>
      </trkpt>
      <trkpt lat="47.16218" lon="-1.67985">
        <ele>79</ele>
        <time>2022-06-05T08:12:19Z</time>
      </trkpt>
      <trkpt lat="47.16207" lon="-1.67995">
        <ele>78</ele>
        <time>2022-06-05T08:12:21Z</time>
      </trkpt>
      <trkpt lat="47.16196" lon="-1.68003">
        <ele>78</ele>
        <time>2022-06-05T08:12:23Z</time>
      </trkpt>
      <trkpt lat="47.16187" lon="-1.68016">
        <ele>78</ele>
        <time>2022-06-05T08:12:25Z</time>
      </trkpt>
      <trkpt lat="47.16178" lon="-1.68029">
        <ele>79</ele>
        <time>2022-06-05T08:12:27Z</time>
      </trkpt>
      <trkpt lat="47.16169" lon="-1.68042">
        <ele>79</ele>
        <time>2022-06-05T08:12:29Z</time>
      </trkpt>
      <trkpt lat="47.1616" lon="-1.68054">
        <ele>79</ele>
        <time>2022-06-05T08:12:31Z</time>
      </trkpt>
      <trkpt lat="47.16152" lon="-1.68068">
        <ele>79</ele>
        <time>2022-06-05T08:12:33Z</time>
      </trkpt>
      <trkpt lat="47.16145" lon="-1.68083">
        <ele>79</ele>
        <time>2022-06-05T08:12:35Z</time>
      </trkpt>
      <trkpt lat="47.1614" lon="-1.681">
        <ele>78</ele>
        <time>2022-06-05T08:12:37Z</time>
      </trkpt>
      <trkpt lat="47.16136" lon="-1.68118">
        <ele>78</ele>
        <time>2022-06-05T08:12:39Z</time>
      </trkpt>
      <trkpt lat="47.16132" lon="-1.68135">
        <ele>77</ele>
        <time>2022-06-05T08:12:41Z</time>
      </trkpt>
      <trkpt lat="47.16128" lon="-1.68153">
        <ele>77</ele>
        <time>2022-06-05T08:12:43Z</time>
      </trkpt>
      <trkpt lat="47.16124" lon="-1.6817">
        <ele>76</ele>
        <time>2022-06-05T08:12:45Z</time>
      </trkpt>
      <trkpt lat="47.16119" lon="-1.68186">
        <ele>75</ele>
        <time>2022-06-05T08:12:47Z</time>
      </trkpt>
      <trkpt lat="47.16115" lon="-1.68204">
        <ele>75</ele>
        <time>2022-06-05T08:12:49Z</time>
      </trkpt>
      <trkpt lat="47.16111" lon="-1.68221">
        <ele>75</ele>
        <time>2022-06-05T08:12:51Z</time>
      </trkpt>
      <trkpt lat="47.16106" lon="-1.68239">
        <ele>74</ele>
        <time>2022-06-05T08:12:53Z</time>
      </trkpt>
      <trkpt lat="47.16101" lon="-1.68257">
        <ele>74</ele>
        <time>2022-06-05T08:12:55Z</time>
      </trkpt>
      <trkpt lat="47.16099" lon="-1.68278">
        <ele>74</ele>
        <time>2022-06-05T08:12:57Z</time>
      </trkpt>
      <trkpt lat="47.16095" lon="-1.68301">
        <ele>74</ele>
        <time>2022-06-05T08:12:59Z</time>
      </trkpt>
      <trkpt lat="47.16092" lon="-1.68322">
        <ele>74</ele>
        <time>2022-06-05T08:13:01Z</time>
      </trkpt>
      <trkpt lat="47.16089" lon="-1.68341">
        <ele>75</ele>
        <time>2022-06-05T08:13:03Z</time>
      </trkpt>
      <trkpt lat="47.16086" lon="-1.68358">
        <ele>75</ele>
        <time>2022-06-05T08:13:05Z</time>
      </trkpt>
      <trkpt lat="47.16083" lon="-1.68376">
        <ele>76</ele>
        <time>2022-06-05T08:13:07Z</time>
      </trkpt>
      <trkpt lat="47.1608" lon="-1.68393">
        <ele>77</ele>
        <time>2022-06-05T08:13:09Z</time>
      </trkpt>
      <trkpt lat="47.16076" lon="-1.6841">
        <ele>77</ele>
        <time>2022-06-05T08:13:11Z</time>
      </trkpt>
      <trkpt lat="47.16073" lon="-1.68428">
        <ele>77</ele>
        <time>2022-06-05T08:13:13Z</time>
      </trkpt>
      <trkpt lat="47.16069" lon="-1.68445">
        <ele>76</ele>
        <time>2022-06-05T08:13:15Z</time>
      </trkpt>
      <trkpt lat="47.16065" lon="-1.68462">
        <ele>76</ele>
        <time>2022-06-05T08:13:17Z</time>
      </trkpt>
      <trkpt lat="47.16062" lon="-1.68479">
        <ele>75</ele>
        <time>2022-06-05T08:13:19Z</time>
      </trkpt>
      <trkpt lat="47.1606" lon="-1.68496">
        <ele>75</ele>
        <time>2022-06-05T08:13:21Z</time>
      </trkpt>
      <trkpt lat="47.16057" lon="-1.68514">
        <ele>75</ele>
        <time>2022-06-05T08:13:23Z</time>
      </trkpt>
      <trkpt lat="47.16054" lon="-1.68532">
        <ele>75</ele>
        <time>2022-06-05T08:13:25Z</time>
      </trkpt>
      <trkpt lat="47.16051" lon="-1.6855">
        <ele>74</ele>
        <time>2022-06-05T08:13:27Z</time>
      </trkpt>
      <trkpt lat="47.16048" lon="-1.68568">
        <ele>74</ele>
        <time>2022-06-05T08:13:29Z</time>
      </trkpt>
      <trkpt lat="47.16046" lon="-1.68585">
        <ele>74</ele>
        <time>2022-06-05T08:13:31Z</time>
      </trkpt>
      <trkpt lat="47.16044" lon="-1.68604">
        <ele>74</ele>
        <time>2022-06-05T08:13:33Z</time>
      </trkpt>
      <trkpt lat="47.16043" lon="-1.68622">
        <ele>74</ele>
        <time>2022-06-05T08:13:35Z</time>
      </trkpt>
      <trkpt lat="47.16041" lon="-1.6864">
        <ele>74</ele>
        <time>2022-06-05T08:13:37Z</time>
      </trkpt>
      <trkpt lat="47.16041" lon="-1.68658">
        <ele>74</ele>
        <time>2022-06-05T08:13:39Z</time>
      </trkpt>
      <trkpt lat="47.16041" lon="-1.68675">
        <ele>74</ele>
        <time>2022-06-05T08:13:41Z</time>
      </trkpt>
      <trkpt lat="47.16042" lon="-1.68691">
        <ele>75</ele>
        <time>2022-06-05T08:13:43Z</time>
      </trkpt>
      <trkpt lat="47.16043" lon="-1.68708">
        <ele>75</ele>
        <time>2022-06-05T08:13:45Z</time>
      </trkpt>
      <trkpt lat="47.16045" lon="-1.68724">
        <ele>75</ele>
        <time>2022-06-05T08:13:47Z</time>
      </trkpt>
      <trkpt lat="47.16048" lon="-1.68741">
        <ele>75</ele>
        <time>2022-06-05T08:13:49Z</time>
      </trkpt>
      <trkpt lat="47.16051" lon="-1.68757">
        <ele>76</ele>
        <time>2022-06-05T08:13:51Z</time>
      </trkpt>
      <trkpt lat="47.16055" lon="-1.68772">
        <ele>76</ele>
        <time>2022-06-05T08:13:53Z</time>
      </trkpt>
      <trkpt lat="47.16059" lon="-1.68788">
        <ele>76</ele>
        <time>2022-06-05T08:13:55Z</time>
      </trkpt>
      <trkpt lat="47.16064" lon="-1.68804">
        <ele>76</ele>
        <time>2022-06-05T08:13:57Z</time>
      </trkpt>
      <trkpt lat="47.16068" lon="-1.68818">
        <ele>76</ele>
        <time>2022-06-05T08:13:59Z</time>
      </trkpt>
      <trkpt lat="47.16073" lon="-1.68833">
        <ele>76</ele>
        <time>2022-06-05T08:14:01Z</time>
      </trkpt>
      <trkpt lat="47.16077" lon="-1.68849">
        <ele>76</ele>
        <time>2022-06-05T08:14:03Z</time>
      </trkpt>
      <trkpt lat="47.16082" lon="-1.68864">
        <ele>76</ele>
        <time>2022-06-05T08:14:05Z</time>
      </trkpt>
      <trkpt lat="47.16086" lon="-1.68881">
        <ele>76</ele>
        <time>2022-06-05T08:14:07Z</time>
      </trkpt>
      <trkpt lat="47.1609" lon="-1.68897">
        <ele>75</ele>
        <time>2022-06-05T08:14:09Z</time>
      </trkpt>
      <trkpt lat="47.16095" lon="-1.68913">
        <ele>75</ele>
        <time>2022-06-05T08:14:11Z</time>
      </trkpt>
      <trkpt lat="47.16099" lon="-1.6893">
        <ele>75</ele>
        <time>2022-06-05T08:14:13Z</time>
      </trkpt>
      <trkpt lat="47.16105" lon="-1.68946">
        <ele>75</ele>
        <time>2022-06-05T08:14:15Z</time>
      </trkpt>
      <trkpt lat="47.1611" lon="-1.68963">
        <ele>74</ele>
        <time>2022-06-05T08:14:17Z</time>
      </trkpt>
      <trkpt lat="47.16115" lon="-1.6898">
        <ele>74</ele>
        <time>2022-06-05T08:14:19Z</time>
      </trkpt>
      <trkpt lat="47.16121" lon="-1.68998">
        <ele>74</ele>
        <time>2022-06-05T08:14:21Z</time>
      </trkpt>
      <trkpt lat="47.16126" lon="-1.69016">
        <ele>73</ele>
        <time>2022-06-05T08:14:23Z</time>
      </trkpt>
      <trkpt lat="47.1613" lon="-1.69034">
        <ele>73</ele>
        <time>2022-06-05T08:14:25Z</time>
      </trkpt>
      <trkpt lat="47.16134" lon="-1.69053">
        <ele>73</ele>
        <time>2022-06-05T08:14:27Z</time>
      </trkpt>
      <trkpt lat="47.16137" lon="-1.69073">
        <ele>73</ele>
        <time>2022-06-05T08:14:29Z</time>
      </trkpt>
      <trkpt lat="47.16139" lon="-1.69092">
        <ele>73</ele>
        <time>2022-06-05T08:14:31Z</time>
      </trkpt>
      <trkpt lat="47.16141" lon="-1.69111">
        <ele>73</ele>
        <time>2022-06-05T08:14:33Z</time>
      </trkpt>
      <trkpt lat="47.16142" lon="-1.6913">
        <ele>73</ele>
        <time>2022-06-05T08:14:35Z</time>
      </trkpt>
      <trkpt lat="47.16142" lon="-1.69149">
        <ele>73</ele>
        <time>2022-06-05T08:14:37Z</time>
      </trkpt>
      <trkpt lat="47.16141" lon="-1.69168">
        <ele>73</ele>
        <time>2022-06-05T08:14:39Z</time>
      </trkpt>
      <trkpt lat="47.1614" lon="-1.69189">
        <ele>73</ele>
        <time>2022-06-05T08:14:41Z</time>
      </trkpt>
      <trkpt lat="47.1614" lon="-1.6921">
        <ele>73</ele>
        <time>2022-06-05T08:14:43Z</time>
      </trkpt>
      <trkpt lat="47.16138" lon="-1.69231">
        <ele>72</ele>
        <time>2022-06-05T08:14:45Z</time>
      </trkpt>
      <trkpt lat="47.16137" lon="-1.6925">
        <ele>73</ele>
        <time>2022-06-05T08:14:47Z</time>
      </trkpt>
      <trkpt lat="47.16134" lon="-1.6927">
        <ele>73</ele>
        <time>2022-06-05T08:14:49Z</time>
      </trkpt>
      <trkpt lat="47.16132" lon="-1.69288">
        <ele>72</ele>
        <time>2022-06-05T08:14:51Z</time>
      </trkpt>
      <trkpt lat="47.1613" lon="-1.69307">
        <ele>73</ele>
        <time>2022-06-05T08:14:53Z</time>
      </trkpt>
      <trkpt lat="47.16127" lon="-1.69325">
        <ele>73</ele>
        <time>2022-06-05T08:14:55Z</time>
      </trkpt>
      <trkpt lat="47.16124" lon="-1.69343">
        <ele>73</ele>
        <time>2022-06-05T08:14:57Z</time>
      </trkpt>
      <trkpt lat="47.16121" lon="-1.69362">
        <ele>73</ele>
        <time>2022-06-05T08:14:59Z</time>
      </trkpt>
      <trkpt lat="47.16119" lon="-1.6938">
        <ele>73</ele>
        <time>2022-06-05T08:15:01Z</time>
      </trkpt>
      <trkpt lat="47.16117" lon="-1.69397">
        <ele>73</ele>
        <time>2022-06-05T08:15:03Z</time>
      </trkpt>
      <trkpt lat="47.16116" lon="-1.69415">
        <ele>73</ele>
        <time>2022-06-05T08:15:05Z</time>
      </trkpt>
      <trkpt lat="47.16115" lon="-1.69432">
        <ele>73</ele>
        <time>2022-06-05T08:15:07Z</time>
      </trkpt>
      <trkpt lat="47.16114" lon="-1.69449">
        <ele>74</ele>
        <time>2022-06-05T08:15:09Z</time>
      </trkpt>
      <trkpt lat="47.16113" lon="-1.69466">
        <ele>74</ele>
        <time>2022-06-05T08:15:11Z</time>
      </trkpt>
      <trkpt lat="47.16112" lon="-1.69484">
        <ele>74</ele>
        <time>2022-06-05T08:15:13Z</time>
      </trkpt>
      <trkpt lat="47.16111" lon="-1.695">
        <ele>74</ele>
        <time>2022-06-05T08:15:15Z</time>
      </trkpt>
      <trkpt lat="47.1611" lon="-1.69516">
        <ele>74</ele>
        <time>2022-06-05T08:15:17Z</time>
      </trkpt>
      <trkpt lat="47.16109" lon="-1.69533">
        <ele>75</ele>
        <time>2022-06-05T08:15:19Z</time>
      </trkpt>
      <trkpt lat="47.16108" lon="-1.6955">
        <ele>75</ele>
        <time>2022-06-05T08:15:21Z</time>
      </trkpt>
      <trkpt lat="47.16106" lon="-1.69567">
        <ele>76</ele>
        <time>2022-06-05T08:15:23Z</time>
      </trkpt>
      <trkpt lat="47.16105" lon="-1.69584">
        <ele>76</ele>
        <time>2022-06-05T08:15:25Z</time>
      </trkpt>
      <trkpt lat="47.16104" lon="-1.69602">
        <ele>76</ele>
        <time>2022-06-05T08:15:27Z</time>
      </trkpt>
      <trkpt lat="47.16103" lon="-1.69619">
        <ele>76</ele>
        <time>2022-06-05T08:15:29Z</time>
      </trkpt>
      <trkpt lat="47.16102" lon="-1.69636">
        <ele>76</ele>
        <time>2022-06-05T08:15:31Z</time>
      </trkpt>
      <trkpt lat="47.16101" lon="-1.69654">
        <ele>76</ele>
        <time>2022-06-05T08:15:33Z</time>
      </trkpt>
      <trkpt lat="47.161" lon="-1.69671">
        <ele>77</ele>
        <time>2022-06-05T08:15:35Z</time>
      </trkpt>
      <trkpt lat="47.16098" lon="-1.69688">
        <ele>77</ele>
        <time>2022-06-05T08:15:37Z</time>
      </trkpt>
      <trkpt lat="47.16097" lon="-1.69706">
        <ele>77</ele>
        <time>2022-06-05T08:15:39Z</time>
      </trkpt>
      <trkpt lat="47.16096" lon="-1.69724">
        <ele>78</ele>
        <time>2022-06-05T08:15:41Z</time>
      </trkpt>
      <trkpt lat="47.16095" lon="-1.69742">
        <ele>78</ele>
        <time>2022-06-05T08:15:43Z</time>
      </trkpt>
      <trkpt lat="47.16093" lon="-1.69759">
        <ele>78</ele>
        <time>2022-06-05T08:15:45Z</time>
      </trkpt>
      <trkpt lat="47.16092" lon="-1.69777">
        <ele>78</ele>
        <time>2022-06-05T08:15:47Z</time>
      </trkpt>
      <trkpt lat="47.16092" lon="-1.69795">
        <ele>78</ele>
        <time>2022-06-05T08:15:49Z</time>
      </trkpt>
      <trkpt lat="47.16091" lon="-1.69813">
        <ele>79</ele>
        <time>2022-06-05T08:15:51Z</time>
      </trkpt>
      <trkpt lat="47.1609" lon="-1.6983">
        <ele>79</ele>
        <time>2022-06-05T08:15:53Z</time>
      </trkpt>
      <trkpt lat="47.16088" lon="-1.69848">
        <ele>79</ele>
        <time>2022-06-05T08:15:55Z</time>
      </trkpt>
      <trkpt lat="47.16087" lon="-1.69866">
        <ele>79</ele>
        <time>2022-06-05T08:15:57Z</time>
      </trkpt>
      <trkpt lat="47.16085" lon="-1.69883">
        <ele>79</ele>
        <time>2022-06-05T08:15:59Z</time>
      </trkpt>
      <trkpt lat="47.16084" lon="-1.699">
        <ele>79</ele>
        <time>2022-06-05T08:16:01Z</time>
      </trkpt>
      <trkpt lat="47.16082" lon="-1.69919">
        <ele>79</ele>
        <time>2022-06-05T08:16:03Z</time>
      </trkpt>
      <trkpt lat="47.16081" lon="-1.69936">
        <ele>79</ele>
        <time>2022-06-05T08:16:05Z</time>
      </trkpt>
      <trkpt lat="47.1608" lon="-1.69955">
        <ele>79</ele>
        <time>2022-06-05T08:16:07Z</time>
      </trkpt>
      <trkpt lat="47.16078" lon="-1.69973">
        <ele>79</ele>
        <time>2022-06-05T08:16:09Z</time>
      </trkpt>
      <trkpt lat="47.16077" lon="-1.69991">
        <ele>80</ele>
        <time>2022-06-05T08:16:11Z</time>
      </trkpt>
      <trkpt lat="47.16075" lon="-1.70009">
        <ele>80</ele>
        <time>2022-06-05T08:16:13Z</time>
      </trkpt>
      <trkpt lat="47.16074" lon="-1.70026">
        <ele>79</ele>
        <time>2022-06-05T08:16:15Z</time>
      </trkpt>
      <trkpt lat="47.16074" lon="-1.70042">
        <ele>79</ele>
        <time>2022-06-05T08:16:17Z</time>
      </trkpt>
      <trkpt lat="47.16072" lon="-1.7006">
        <ele>80</ele>
        <time>2022-06-05T08:16:19Z</time>
      </trkpt>
      <trkpt lat="47.1607" lon="-1.7008">
        <ele>80</ele>
        <time>2022-06-05T08:16:21Z</time>
      </trkpt>
      <trkpt lat="47.16068" lon="-1.70099">
        <ele>80</ele>
        <time>2022-06-05T08:16:23Z</time>
      </trkpt>
      <trkpt lat="47.16065" lon="-1.70118">
        <ele>79</ele>
        <time>2022-06-05T08:16:25Z</time>
      </trkpt>
      <trkpt lat="47.16061" lon="-1.70135">
        <ele>79</ele>
        <time>2022-06-05T08:16:27Z</time>
      </trkpt>
      <trkpt lat="47.16055" lon="-1.70153">
        <ele>79</ele>
        <time>2022-06-05T08:16:29Z</time>
      </trkpt>
      <trkpt lat="47.16048" lon="-1.70169">
        <ele>78</ele>
        <time>2022-06-05T08:16:31Z</time>
      </trkpt>
      <trkpt lat="47.16041" lon="-1.70184">
        <ele>78</ele>
        <time>2022-06-05T08:16:33Z</time>
      </trkpt>
      <trkpt lat="47.16034" lon="-1.702">
        <ele>78</ele>
        <time>2022-06-05T08:16:35Z</time>
      </trkpt>
      <trkpt lat="47.16027" lon="-1.70216">
        <ele>79</ele>
        <time>2022-06-05T08:16:37Z</time>
      </trkpt>
      <trkpt lat="47.1602" lon="-1.70232">
        <ele>79</ele>
        <time>2022-06-05T08:16:39Z</time>
      </trkpt>
      <trkpt lat="47.16014" lon="-1.70249">
        <ele>79</ele>
        <time>2022-06-05T08:16:41Z</time>
      </trkpt>
      <trkpt lat="47.16007" lon="-1.70265">
        <ele>80</ele>
        <time>2022-06-05T08:16:43Z</time>
      </trkpt>
      <trkpt lat="47.16" lon="-1.7028">
        <ele>80</ele>
        <time>2022-06-05T08:16:45Z</time>
      </trkpt>
      <trkpt lat="47.15994" lon="-1.70295">
        <ele>80</ele>
        <time>2022-06-05T08:16:47Z</time>
      </trkpt>
      <trkpt lat="47.15988" lon="-1.70311">
        <ele>80</ele>
        <time>2022-06-05T08:16:49Z</time>
      </trkpt>
      <trkpt lat="47.15981" lon="-1.70328">
        <ele>81</ele>
        <time>2022-06-05T08:16:51Z</time>
      </trkpt>
      <trkpt lat="47.15973" lon="-1.70342">
        <ele>81</ele>
        <time>2022-06-05T08:16:53Z</time>
      </trkpt>
      <trkpt lat="47.15966" lon="-1.70358">
        <ele>81</ele>
        <time>2022-06-05T08:16:55Z</time>
      </trkpt>
      <trkpt lat="47.15958" lon="-1.70376">
        <ele>82</ele>
        <time>2022-06-05T08:16:57Z</time>
      </trkpt>
      <trkpt lat="47.1595" lon="-1.70394">
        <ele>81</ele>
        <time>2022-06-05T08:16:59Z</time>
      </trkpt>
      <trkpt lat="47.15942" lon="-1.70412">
        <ele>81</ele>
        <time>2022-06-05T08:17:01Z</time>
      </trkpt>
      <trkpt lat="47.15935" lon="-1.70429">
        <ele>82</ele>
        <time>2022-06-05T08:17:03Z</time>
      </trkpt>
      <trkpt lat="47.15927" lon="-1.70445">
        <ele>82</ele>
        <time>2022-06-05T08:17:05Z</time>
      </trkpt>
      <trkpt lat="47.15919" lon="-1.70462">
        <ele>82</ele>
        <time>2022-06-05T08:17:07Z</time>
      </trkpt>
      <trkpt lat="47.15911" lon="-1.7048">
        <ele>80</ele>
        <time>2022-06-05T08:17:09Z</time>
      </trkpt>
      <trkpt lat="47.15903" lon="-1.70497">
        <ele>79</ele>
        <time>2022-06-05T08:17:11Z</time>
      </trkpt>
      <trkpt lat="47.15897" lon="-1.70514">
        <ele>78</ele>
        <time>2022-06-05T08:17:13Z</time>
      </trkpt>
      <trkpt lat="47.1589" lon="-1.70532">
        <ele>77</ele>
        <time>2022-06-05T08:17:15Z</time>
      </trkpt>
      <trkpt lat="47.15885" lon="-1.70549">
        <ele>77</ele>
        <time>2022-06-05T08:17:17Z</time>
      </trkpt>
      <trkpt lat="47.1588" lon="-1.70567">
        <ele>77</ele>
        <time>2022-06-05T08:17:19Z</time>
      </trkpt>
      <trkpt lat="47.15875" lon="-1.70584">
        <ele>76</ele>
        <time>2022-06-05T08:17:21Z</time>
      </trkpt>
      <trkpt lat="47.1587" lon="-1.70601">
        <ele>76</ele>
        <time>2022-06-05T08:17:23Z</time>
      </trkpt>
      <trkpt lat="47.15865" lon="-1.70618">
        <ele>76</ele>
        <time>2022-06-05T08:17:25Z</time>
      </trkpt>
      <trkpt lat="47.1586" lon="-1.70635">
        <ele>76</ele>
        <time>2022-06-05T08:17:27Z</time>
      </trkpt>
      <trkpt lat="47.15854" lon="-1.70651">
        <ele>76</ele>
        <time>2022-06-05T08:17:29Z</time>
      </trkpt>
      <trkpt lat="47.15848" lon="-1.70666">
        <ele>76</ele>
        <time>2022-06-05T08:17:31Z</time>
      </trkpt>
      <trkpt lat="47.15842" lon="-1.70681">
        <ele>75</ele>
        <time>2022-06-05T08:17:33Z</time>
      </trkpt>
      <trkpt lat="47.15835" lon="-1.70696">
        <ele>76</ele>
        <time>2022-06-05T08:17:35Z</time>
      </trkpt>
      <trkpt lat="47.15828" lon="-1.70711">
        <ele>75</ele>
        <time>2022-06-05T08:17:37Z</time>
      </trkpt>
      <trkpt lat="47.15821" lon="-1.70726">
        <ele>75</ele>
        <time>2022-06-05T08:17:39Z</time>
      </trkpt>
      <trkpt lat="47.15814" lon="-1.70741">
        <ele>75</ele>
        <time>2022-06-05T08:17:41Z</time>
      </trkpt>
      <trkpt lat="47.15807" lon="-1.70755">
        <ele>75</ele>
        <time>2022-06-05T08:17:43Z</time>
      </trkpt>
      <trkpt lat="47.15801" lon="-1.7077">
        <ele>75</ele>
        <time>2022-06-05T08:17:45Z</time>
      </trkpt>
      <trkpt lat="47.15794" lon="-1.70785">
        <ele>75</ele>
        <time>2022-06-05T08:17:47Z</time>
      </trkpt>
      <trkpt lat="47.15786" lon="-1.708">
        <ele>75</ele>
        <time>2022-06-05T08:17:49Z</time>
      </trkpt>
      <trkpt lat="47.1578" lon="-1.70814">
        <ele>75</ele>
        <time>2022-06-05T08:17:51Z</time>
      </trkpt>
      <trkpt lat="47.15772" lon="-1.70829">
        <ele>75</ele>
        <time>2022-06-05T08:17:53Z</time>
      </trkpt>
      <trkpt lat="47.15765" lon="-1.70843">
        <ele>74</ele>
        <time>2022-06-05T08:17:55Z</time>
      </trkpt>
      <trkpt lat="47.15758" lon="-1.70857">
        <ele>75</ele>
        <time>2022-06-05T08:17:57Z</time>
      </trkpt>
      <trkpt lat="47.1575" lon="-1.70872">
        <ele>75</ele>
        <time>2022-06-05T08:17:59Z</time>
      </trkpt>
      <trkpt lat="47.15742" lon="-1.70886">
        <ele>75</ele>
        <time>2022-06-05T08:18:01Z</time>
      </trkpt>
      <trkpt lat="47.15734" lon="-1.70899">
        <ele>75</ele>
        <time>2022-06-05T08:18:03Z</time>
      </trkpt>
      <trkpt lat="47.15727" lon="-1.70913">
        <ele>75</ele>
        <time>2022-06-05T08:18:05Z</time>
      </trkpt>
      <trkpt lat="47.15719" lon="-1.70927">
        <ele>75</ele>
        <time>2022-06-05T08:18:07Z</time>
      </trkpt>
      <trkpt lat="47.15712" lon="-1.70942">
        <ele>74</ele>
        <time>2022-06-05T08:18:09Z</time>
      </trkpt>
      <trkpt lat="47.15704" lon="-1.70956">
        <ele>75</ele>
        <time>2022-06-05T08:18:11Z</time>
      </trkpt>
      <trkpt lat="47.15698" lon="-1.7097">
        <ele>74</ele>
        <time>2022-06-05T08:18:13Z</time>
      </trkpt>
      <trkpt lat="47.15691" lon="-1.70983">
        <ele>74</ele>
        <time>2022-06-05T08:18:15Z</time>
      </trkpt>
      <trkpt lat="47.15684" lon="-1.70997">
        <ele>75</ele>
        <time>2022-06-05T08:18:17Z</time>
      </trkpt>
      <trkpt lat="47.15678" lon="-1.71012">
        <ele>75</ele>
        <time>2022-06-05T08:18:19Z</time>
      </trkpt>
      <trkpt lat="47.15672" lon="-1.71025">
        <ele>75</ele>
        <time>2022-06-05T08:18:21Z</time>
      </trkpt>
      <trkpt lat="47.15667" lon="-1.71038">
        <ele>75</ele>
        <time>2022-06-05T08:18:23Z</time>
      </trkpt>
      <trkpt lat="47.15659" lon="-1.71053">
        <ele>75</ele>
        <time>2022-06-05T08:18:26Z</time>
      </trkpt>
      <trkpt lat="47.15653" lon="-1.71064">
        <ele>75</ele>
        <time>2022-06-05T08:18:29Z</time>
      </trkpt>
      <trkpt lat="47.15639" lon="-1.71069">
        <ele>75</ele>
        <time>2022-06-05T08:18:32Z</time>
      </trkpt>
      <trkpt lat="47.15629" lon="-1.7108">
        <ele>74</ele>
        <time>2022-06-05T08:18:34Z</time>
      </trkpt>
      <trkpt lat="47.15621" lon="-1.71094">
        <ele>74</ele>
        <time>2022-06-05T08:18:36Z</time>
      </trkpt>
      <trkpt lat="47.15614" lon="-1.71109">
        <ele>74</ele>
        <time>2022-06-05T08:18:38Z</time>
      </trkpt>
      <trkpt lat="47.15606" lon="-1.71124">
        <ele>75</ele>
        <time>2022-06-05T08:18:40Z</time>
      </trkpt>
      <trkpt lat="47.15599" lon="-1.71137">
        <ele>75</ele>
        <time>2022-06-05T08:18:42Z</time>
      </trkpt>
      <trkpt lat="47.15591" lon="-1.7115">
        <ele>75</ele>
        <time>2022-06-05T08:18:44Z</time>
      </trkpt>
      <trkpt lat="47.15584" lon="-1.71164">
        <ele>76</ele>
        <time>2022-06-05T08:18:46Z</time>
      </trkpt>
      <trkpt lat="47.15576" lon="-1.71177">
        <ele>76</ele>
        <time>2022-06-05T08:18:48Z</time>
      </trkpt>
      <trkpt lat="47.15568" lon="-1.71191">
        <ele>75</ele>
        <time>2022-06-05T08:18:50Z</time>
      </trkpt>
      <trkpt lat="47.15559" lon="-1.71205">
        <ele>75</ele>
        <time>2022-06-05T08:18:52Z</time>
      </trkpt>
      <trkpt lat="47.15552" lon="-1.7122">
        <ele>75</ele>
        <time>2022-06-05T08:18:54Z</time>
      </trkpt>
      <trkpt lat="47.15545" lon="-1.71235">
        <ele>76</ele>
        <time>2022-06-05T08:18:56Z</time>
      </trkpt>
      <trkpt lat="47.15539" lon="-1.71251">
        <ele>76</ele>
        <time>2022-06-05T08:18:58Z</time>
      </trkpt>
      <trkpt lat="47.15533" lon="-1.71266">
        <ele>76</ele>
        <time>2022-06-05T08:19:00Z</time>
      </trkpt>
      <trkpt lat="47.15527" lon="-1.71281">
        <ele>76</ele>
        <time>2022-06-05T08:19:02Z</time>
      </trkpt>
      <trkpt lat="47.1552" lon="-1.71297">
        <ele>77</ele>
        <time>2022-06-05T08:19:04Z</time>
      </trkpt>
      <trkpt lat="47.15514" lon="-1.71311">
        <ele>77</ele>
        <time>2022-06-05T08:19:06Z</time>
      </trkpt>
      <trkpt lat="47.15506" lon="-1.71327">
        <ele>78</ele>
        <time>2022-06-05T08:19:08Z</time>
      </trkpt>
      <trkpt lat="47.15499" lon="-1.71341">
        <ele>78</ele>
        <time>2022-06-05T08:19:10Z</time>
      </trkpt>
      <trkpt lat="47.1549" lon="-1.71356">
        <ele>78</ele>
        <time>2022-06-05T08:19:12Z</time>
      </trkpt>
      <trkpt lat="47.15481" lon="-1.71369">
        <ele>78</ele>
        <time>2022-06-05T08:19:14Z</time>
      </trkpt>
      <trkpt lat="47.15471" lon="-1.71382">
        <ele>78</ele>
        <time>2022-06-05T08:19:16Z</time>
      </trkpt>
      <trkpt lat="47.15461" lon="-1.71394">
        <ele>78</ele>
        <time>2022-06-05T08:19:18Z</time>
      </trkpt>
      <trkpt lat="47.1545" lon="-1.71404">
        <ele>77</ele>
        <time>2022-06-05T08:19:20Z</time>
      </trkpt>
      <trkpt lat="47.15439" lon="-1.71415">
        <ele>77</ele>
        <time>2022-06-05T08:19:22Z</time>
      </trkpt>
      <trkpt lat="47.15428" lon="-1.71425">
        <ele>77</ele>
        <time>2022-06-05T08:19:24Z</time>
      </trkpt>
      <trkpt lat="47.15417" lon="-1.71435">
        <ele>77</ele>
        <time>2022-06-05T08:19:26Z</time>
      </trkpt>
      <trkpt lat="47.15405" lon="-1.71445">
        <ele>76</ele>
        <time>2022-06-05T08:19:28Z</time>
      </trkpt>
      <trkpt lat="47.15394" lon="-1.71455">
        <ele>76</ele>
        <time>2022-06-05T08:19:30Z</time>
      </trkpt>
      <trkpt lat="47.15383" lon="-1.71464">
        <ele>75</ele>
        <time>2022-06-05T08:19:32Z</time>
      </trkpt>
      <trkpt lat="47.15372" lon="-1.71474">
        <ele>75</ele>
        <time>2022-06-05T08:19:34Z</time>
      </trkpt>
      <trkpt lat="47.1536" lon="-1.71485">
        <ele>75</ele>
        <time>2022-06-05T08:19:36Z</time>
      </trkpt>
      <trkpt lat="47.15349" lon="-1.71496">
        <ele>74</ele>
        <time>2022-06-05T08:19:38Z</time>
      </trkpt>
      <trkpt lat="47.15339" lon="-1.71507">
        <ele>74</ele>
        <time>2022-06-05T08:19:40Z</time>
      </trkpt>
      <trkpt lat="47.15328" lon="-1.71519">
        <ele>74</ele>
        <time>2022-06-05T08:19:42Z</time>
      </trkpt>
      <trkpt lat="47.15317" lon="-1.71531">
        <ele>74</ele>
        <time>2022-06-05T08:19:44Z</time>
      </trkpt>
      <trkpt lat="47.15306" lon="-1.71543">
        <ele>74</ele>
        <time>2022-06-05T08:19:46Z</time>
      </trkpt>
      <trkpt lat="47.15296" lon="-1.71554">
        <ele>74</ele>
        <time>2022-06-05T08:19:48Z</time>
      </trkpt>
      <trkpt lat="47.15286" lon="-1.71566">
        <ele>73</ele>
        <time>2022-06-05T08:19:50Z</time>
      </trkpt>
      <trkpt lat="47.15275" lon="-1.71577">
        <ele>73</ele>
        <time>2022-06-05T08:19:52Z</time>
      </trkpt>
      <trkpt lat="47.15264" lon="-1.7159">
        <ele>72</ele>
        <time>2022-06-05T08:19:54Z</time>
      </trkpt>
      <trkpt lat="47.15253" lon="-1.71603">
        <ele>72</ele>
        <time>2022-06-05T08:19:56Z</time>
      </trkpt>
      <trkpt lat="47.15244" lon="-1.71616">
        <ele>72</ele>
        <time>2022-06-05T08:19:58Z</time>
      </trkpt>
      <trkpt lat="47.15233" lon="-1.71624">
        <ele>72</ele>
        <time>2022-06-05T08:20:00Z</time>
      </trkpt>
      <trkpt lat="47.1522" lon="-1.71619">
        <ele>72</ele>
        <time>2022-06-05T08:20:02Z</time>
      </trkpt>
      <trkpt lat="47.15209" lon="-1.7161">
        <ele>72</ele>
        <time>2022-06-05T08:20:04Z</time>
      </trkpt>
      <trkpt lat="47.15198" lon="-1.71601">
        <ele>72</ele>
        <time>2022-06-05T08:20:06Z</time>
      </trkpt>
      <trkpt lat="47.15186" lon="-1.71592">
        <ele>72</ele>
        <time>2022-06-05T08:20:08Z</time>
      </trkpt>
      <trkpt lat="47.15175" lon="-1.71583">
        <ele>72</ele>
        <time>2022-06-05T08:20:10Z</time>
      </trkpt>
      <trkpt lat="47.15163" lon="-1.71575">
        <ele>73</ele>
        <time>2022-06-05T08:20:12Z</time>
      </trkpt>
      <trkpt lat="47.15152" lon="-1.71566">
        <ele>73</ele>
        <time>2022-06-05T08:20:14Z</time>
      </trkpt>
      <trkpt lat="47.1514" lon="-1.71556">
        <ele>73</ele>
        <time>2022-06-05T08:20:16Z</time>
      </trkpt>
      <trkpt lat="47.15128" lon="-1.71546">
        <ele>72</ele>
        <time>2022-06-05T08:20:18Z</time>
      </trkpt>
      <trkpt lat="47.15117" lon="-1.71536">
        <ele>72</ele>
        <time>2022-06-05T08:20:20Z</time>
      </trkpt>
      <trkpt lat="47.15105" lon="-1.71528">
        <ele>73</ele>
        <time>2022-06-05T08:20:22Z</time>
      </trkpt>
      <trkpt lat="47.15093" lon="-1.71518">
        <ele>73</ele>
        <time>2022-06-05T08:20:24Z</time>
      </trkpt>
      <trkpt lat="47.15083" lon="-1.71507">
        <ele>73</ele>
        <time>2022-06-05T08:20:26Z</time>
      </trkpt>
      <trkpt lat="47.15071" lon="-1.71496">
        <ele>73</ele>
        <time>2022-06-05T08:20:28Z</time>
      </trkpt>
      <trkpt lat="47.1506" lon="-1.71485">
        <ele>73</ele>
        <time>2022-06-05T08:20:30Z</time>
      </trkpt>
      <trkpt lat="47.15049" lon="-1.71474">
        <ele>73</ele>
        <time>2022-06-05T08:20:32Z</time>
      </trkpt>
      <trkpt lat="47.15038" lon="-1.71462">
        <ele>74</ele>
        <time>2022-06-05T08:20:34Z</time>
      </trkpt>
      <trkpt lat="47.15026" lon="-1.71451">
        <ele>73</ele>
        <time>2022-06-05T08:20:36Z</time>
      </trkpt>
      <trkpt lat="47.15015" lon="-1.71441">
        <ele>73</ele>
        <time>2022-06-05T08:20:38Z</time>
      </trkpt>
      <trkpt lat="47.15004" lon="-1.71429">
        <ele>73</ele>
        <time>2022-06-05T08:20:40Z</time>
      </trkpt>
      <trkpt lat="47.14993" lon="-1.71419">
        <ele>74</ele>
        <time>2022-06-05T08:20:42Z</time>
      </trkpt>
      <trkpt lat="47.14983" lon="-1.71408">
        <ele>74</ele>
        <time>2022-06-05T08:20:44Z</time>
      </trkpt>
      <trkpt lat="47.14972" lon="-1.71397">
        <ele>74</ele>
        <time>2022-06-05T08:20:46Z</time>
      </trkpt>
      <trkpt lat="47.14962" lon="-1.71387">
        <ele>74</ele>
        <time>2022-06-05T08:20:48Z</time>
      </trkpt>
      <trkpt lat="47.14952" lon="-1.71376">
        <ele>74</ele>
        <time>2022-06-05T08:20:50Z</time>
      </trkpt>
      <trkpt lat="47.14941" lon="-1.71365">
        <ele>74</ele>
        <time>2022-06-05T08:20:52Z</time>
      </trkpt>
      <trkpt lat="47.14932" lon="-1.71353">
        <ele>74</ele>
        <time>2022-06-05T08:20:54Z</time>
      </trkpt>
      <trkpt lat="47.14922" lon="-1.71341">
        <ele>75</ele>
        <time>2022-06-05T08:20:56Z</time>
      </trkpt>
      <trkpt lat="47.14913" lon="-1.71329">
        <ele>75</ele>
        <time>2022-06-05T08:20:58Z</time>
      </trkpt>
      <trkpt lat="47.14904" lon="-1.71317">
        <ele>75</ele>
        <time>2022-06-05T08:21:00Z</time>
      </trkpt>
      <trkpt lat="47.14895" lon="-1.71305">
        <ele>75</ele>
        <time>2022-06-05T08:21:02Z</time>
      </trkpt>
      <trkpt lat="47.14885" lon="-1.71294">
        <ele>75</ele>
        <time>2022-06-05T08:21:04Z</time>
      </trkpt>
      <trkpt lat="47.14874" lon="-1.71284">
        <ele>75</ele>
        <time>2022-06-05T08:21:06Z</time>
      </trkpt>
      <trkpt lat="47.14863" lon="-1.71275">
        <ele>75</ele>
        <time>2022-06-05T08:21:08Z</time>
      </trkpt>
      <trkpt lat="47.14853" lon="-1.71261">
        <ele>76</ele>
        <time>2022-06-05T08:21:10Z</time>
      </trkpt>
      <trkpt lat="47.14845" lon="-1.71246">
        <ele>76</ele>
        <time>2022-06-05T08:21:12Z</time>
      </trkpt>
      <trkpt lat="47.14839" lon="-1.7123">
        <ele>76</ele>
        <time>2022-06-05T08:21:14Z</time>
      </trkpt>
      <trkpt lat="47.14832" lon="-1.71212">
        <ele>76</ele>
        <time>2022-06-05T08:21:16Z</time>
      </trkpt>
      <trkpt lat="47.14826" lon="-1.71195">
        <ele>76</ele>
        <time>2022-06-05T08:21:18Z</time>
      </trkpt>
      <trkpt lat="47.14819" lon="-1.71179">
        <ele>76</ele>
        <time>2022-06-05T08:21:20Z</time>
      </trkpt>
      <trkpt lat="47.14813" lon="-1.71161">
        <ele>75</ele>
        <time>2022-06-05T08:21:22Z</time>
      </trkpt>
      <trkpt lat="47.14806" lon="-1.71144">
        <ele>75</ele>
        <time>2022-06-05T08:21:24Z</time>
      </trkpt>
      <trkpt lat="47.148" lon="-1.71128">
        <ele>75</ele>
        <time>2022-06-05T08:21:26Z</time>
      </trkpt>
      <trkpt lat="47.14793" lon="-1.71112">
        <ele>75</ele>
        <time>2022-06-05T08:21:28Z</time>
      </trkpt>
      <trkpt lat="47.14785" lon="-1.71096">
        <ele>75</ele>
        <time>2022-06-05T08:21:30Z</time>
      </trkpt>
      <trkpt lat="47.14778" lon="-1.71079">
        <ele>75</ele>
        <time>2022-06-05T08:21:32Z</time>
      </trkpt>
      <trkpt lat="47.14772" lon="-1.71062">
        <ele>75</ele>
        <time>2022-06-05T08:21:34Z</time>
      </trkpt>
      <trkpt lat="47.14766" lon="-1.71044">
        <ele>74</ele>
        <time>2022-06-05T08:21:36Z</time>
      </trkpt>
      <trkpt lat="47.1476" lon="-1.71026">
        <ele>74</ele>
        <time>2022-06-05T08:21:38Z</time>
      </trkpt>
      <trkpt lat="47.14756" lon="-1.71008">
        <ele>74</ele>
        <time>2022-06-05T08:21:40Z</time>
      </trkpt>
      <trkpt lat="47.14751" lon="-1.70992">
        <ele>74</ele>
        <time>2022-06-05T08:21:42Z</time>
      </trkpt>
      <trkpt lat="47.14742" lon="-1.70981">
        <ele>74</ele>
        <time>2022-06-05T08:21:44Z</time>
      </trkpt>
      <trkpt lat="47.1473" lon="-1.70985">
        <ele>74</ele>
        <time>2022-06-05T08:21:46Z</time>
      </trkpt>
      <trkpt lat="47.14721" lon="-1.70997">
        <ele>74</ele>
        <time>2022-06-05T08:21:48Z</time>
      </trkpt>
      <trkpt lat="47.14714" lon="-1.71013">
        <ele>74</ele>
        <time>2022-06-05T08:21:50Z</time>
      </trkpt>
      <trkpt lat="47.1471" lon="-1.7103">
        <ele>74</ele>
        <time>2022-06-05T08:21:52Z</time>
      </trkpt>
      <trkpt lat="47.1471" lon="-1.71048">
        <ele>74</ele>
        <time>2022-06-05T08:21:54Z</time>
      </trkpt>
      <trkpt lat="47.14712" lon="-1.71066">
        <ele>75</ele>
        <time>2022-06-05T08:21:56Z</time>
      </trkpt>
      <trkpt lat="47.14714" lon="-1.71083">
        <ele>75</ele>
        <time>2022-06-05T08:21:58Z</time>
      </trkpt>
      <trkpt lat="47.14717" lon="-1.711">
        <ele>75</ele>
        <time>2022-06-05T08:22:00Z</time>
      </trkpt>
      <trkpt lat="47.1472" lon="-1.71117">
        <ele>76</ele>
        <time>2022-06-05T08:22:02Z</time>
      </trkpt>
      <trkpt lat="47.14722" lon="-1.71135">
        <ele>76</ele>
        <time>2022-06-05T08:22:04Z</time>
      </trkpt>
      <trkpt lat="47.14726" lon="-1.71153">
        <ele>76</ele>
        <time>2022-06-05T08:22:06Z</time>
      </trkpt>
      <trkpt lat="47.14729" lon="-1.71172">
        <ele>76</ele>
        <time>2022-06-05T08:22:08Z</time>
      </trkpt>
      <trkpt lat="47.14733" lon="-1.71189">
        <ele>76</ele>
        <time>2022-06-05T08:22:10Z</time>
      </trkpt>
      <trkpt lat="47.14737" lon="-1.71206">
        <ele>76</ele>
        <time>2022-06-05T08:22:12Z</time>
      </trkpt>
      <trkpt lat="47.14741" lon="-1.71222">
        <ele>76</ele>
        <time>2022-06-05T08:22:14Z</time>
      </trkpt>
      <trkpt lat="47.14745" lon="-1.71237">
        <ele>77</ele>
        <time>2022-06-05T08:22:16Z</time>
      </trkpt>
      <trkpt lat="47.1475" lon="-1.71254">
        <ele>78</ele>
        <time>2022-06-05T08:22:18Z</time>
      </trkpt>
      <trkpt lat="47.14754" lon="-1.7127">
        <ele>78</ele>
        <time>2022-06-05T08:22:20Z</time>
      </trkpt>
      <trkpt lat="47.14757" lon="-1.71287">
        <ele>78</ele>
        <time>2022-06-05T08:22:22Z</time>
      </trkpt>
      <trkpt lat="47.14761" lon="-1.71304">
        <ele>79</ele>
        <time>2022-06-05T08:22:24Z</time>
      </trkpt>
      <trkpt lat="47.14764" lon="-1.7132">
        <ele>79</ele>
        <time>2022-06-05T08:22:26Z</time>
      </trkpt>
      <trkpt lat="47.14766" lon="-1.71338">
        <ele>80</ele>
        <time>2022-06-05T08:22:28Z</time>
      </trkpt>
      <trkpt lat="47.14768" lon="-1.71356">
        <ele>80</ele>
        <time>2022-06-05T08:22:30Z</time>
      </trkpt>
      <trkpt lat="47.14771" lon="-1.71373">
        <ele>79</ele>
        <time>2022-06-05T08:22:32Z</time>
      </trkpt>
      <trkpt lat="47.14774" lon="-1.7139">
        <ele>79</ele>
        <time>2022-06-05T08:22:34Z</time>
      </trkpt>
      <trkpt lat="47.14777" lon="-1.71407">
        <ele>79</ele>
        <time>2022-06-05T08:22:36Z</time>
      </trkpt>
      <trkpt lat="47.1478" lon="-1.71425">
        <ele>79</ele>
        <time>2022-06-05T08:22:38Z</time>
      </trkpt>
      <trkpt lat="47.14782" lon="-1.71442">
        <ele>78</ele>
        <time>2022-06-05T08:22:40Z</time>
      </trkpt>
      <trkpt lat="47.14785" lon="-1.7146">
        <ele>78</ele>
        <time>2022-06-05T08:22:42Z</time>
      </trkpt>
      <trkpt lat="47.14788" lon="-1.71478">
        <ele>77</ele>
        <time>2022-06-05T08:22:44Z</time>
      </trkpt>
      <trkpt lat="47.1479" lon="-1.71497">
        <ele>77</ele>
        <time>2022-06-05T08:22:46Z</time>
      </trkpt>
      <trkpt lat="47.14792" lon="-1.71516">
        <ele>77</ele>
        <time>2022-06-05T08:22:48Z</time>
      </trkpt>
      <trkpt lat="47.14793" lon="-1.71535">
        <ele>76</ele>
        <time>2022-06-05T08:22:50Z</time>
      </trkpt>
      <trkpt lat="47.14792" lon="-1.71553">
        <ele>77</ele>
        <time>2022-06-05T08:22:52Z</time>
      </trkpt>
      <trkpt lat="47.14791" lon="-1.7157">
        <ele>77</ele>
        <time>2022-06-05T08:22:54Z</time>
      </trkpt>
      <trkpt lat="47.1479" lon="-1.71587">
        <ele>77</ele>
        <time>2022-06-05T08:22:56Z</time>
      </trkpt>
      <trkpt lat="47.14787" lon="-1.71605">
        <ele>77</ele>
        <time>2022-06-05T08:22:58Z</time>
      </trkpt>
      <trkpt lat="47.14785" lon="-1.71622">
        <ele>77</ele>
        <time>2022-06-05T08:23:00Z</time>
      </trkpt>
      <trkpt lat="47.14782" lon="-1.7164">
        <ele>77</ele>
        <time>2022-06-05T08:23:02Z</time>
      </trkpt>
      <trkpt lat="47.14777" lon="-1.71667">
        <ele>78</ele>
        <time>2022-06-05T08:23:05Z</time>
      </trkpt>
      <trkpt lat="47.14773" lon="-1.71693">
        <ele>77</ele>
        <time>2022-06-05T08:23:08Z</time>
      </trkpt>
      <trkpt lat="47.1477" lon="-1.71711">
        <ele>77</ele>
        <time>2022-06-05T08:23:10Z</time>
      </trkpt>
      <trkpt lat="47.14767" lon="-1.71729">
        <ele>77</ele>
        <time>2022-06-05T08:23:12Z</time>
      </trkpt>
      <trkpt lat="47.14763" lon="-1.71746">
        <ele>77</ele>
        <time>2022-06-05T08:23:14Z</time>
      </trkpt>
      <trkpt lat="47.1476" lon="-1.71762">
        <ele>77</ele>
        <time>2022-06-05T08:23:16Z</time>
      </trkpt>
      <trkpt lat="47.14755" lon="-1.71778">
        <ele>77</ele>
        <time>2022-06-05T08:23:18Z</time>
      </trkpt>
      <trkpt lat="47.14747" lon="-1.71793">
        <ele>77</ele>
        <time>2022-06-05T08:23:20Z</time>
      </trkpt>
      <trkpt lat="47.14739" lon="-1.71805">
        <ele>76</ele>
        <time>2022-06-05T08:23:22Z</time>
      </trkpt>
      <trkpt lat="47.14728" lon="-1.71815">
        <ele>77</ele>
        <time>2022-06-05T08:23:24Z</time>
      </trkpt>
      <trkpt lat="47.14716" lon="-1.71823">
        <ele>77</ele>
        <time>2022-06-05T08:23:26Z</time>
      </trkpt>
      <trkpt lat="47.14704" lon="-1.7183">
        <ele>77</ele>
        <time>2022-06-05T08:23:28Z</time>
      </trkpt>
      <trkpt lat="47.14691" lon="-1.71836">
        <ele>77</ele>
        <time>2022-06-05T08:23:30Z</time>
      </trkpt>
      <trkpt lat="47.14679" lon="-1.71842">
        <ele>77</ele>
        <time>2022-06-05T08:23:32Z</time>
      </trkpt>
      <trkpt lat="47.14666" lon="-1.71848">
        <ele>76</ele>
        <time>2022-06-05T08:23:34Z</time>
      </trkpt>
      <trkpt lat="47.14653" lon="-1.71852">
        <ele>76</ele>
        <time>2022-06-05T08:23:36Z</time>
      </trkpt>
      <trkpt lat="47.14639" lon="-1.71854">
        <ele>76</ele>
        <time>2022-06-05T08:23:38Z</time>
      </trkpt>
      <trkpt lat="47.14625" lon="-1.71855">
        <ele>76</ele>
        <time>2022-06-05T08:23:40Z</time>
      </trkpt>
      <trkpt lat="47.14612" lon="-1.71853">
        <ele>76</ele>
        <time>2022-06-05T08:23:42Z</time>
      </trkpt>
      <trkpt lat="47.14598" lon="-1.71849">
        <ele>76</ele>
        <time>2022-06-05T08:23:44Z</time>
      </trkpt>
      <trkpt lat="47.14585" lon="-1.71844">
        <ele>76</ele>
        <time>2022-06-05T08:23:46Z</time>
      </trkpt>
      <trkpt lat="47.14572" lon="-1.71838">
        <ele>75</ele>
        <time>2022-06-05T08:23:48Z</time>
      </trkpt>
      <trkpt lat="47.14559" lon="-1.71832">
        <ele>75</ele>
        <time>2022-06-05T08:23:50Z</time>
      </trkpt>
      <trkpt lat="47.14546" lon="-1.71826">
        <ele>75</ele>
        <time>2022-06-05T08:23:52Z</time>
      </trkpt>
      <trkpt lat="47.14533" lon="-1.7182">
        <ele>75</ele>
        <time>2022-06-05T08:23:54Z</time>
      </trkpt>
      <trkpt lat="47.14521" lon="-1.71814">
        <ele>74</ele>
        <time>2022-06-05T08:23:56Z</time>
      </trkpt>
      <trkpt lat="47.14508" lon="-1.71808">
        <ele>74</ele>
        <time>2022-06-05T08:23:58Z</time>
      </trkpt>
      <trkpt lat="47.14494" lon="-1.71801">
        <ele>74</ele>
        <time>2022-06-05T08:24:00Z</time>
      </trkpt>
      <trkpt lat="47.14481" lon="-1.71795">
        <ele>74</ele>
        <time>2022-06-05T08:24:02Z</time>
      </trkpt>
      <trkpt lat="47.14468" lon="-1.71789">
        <ele>74</ele>
        <time>2022-06-05T08:24:04Z</time>
      </trkpt>
      <trkpt lat="47.14456" lon="-1.71784">
        <ele>74</ele>
        <time>2022-06-05T08:24:06Z</time>
      </trkpt>
      <trkpt lat="47.14442" lon="-1.71781">
        <ele>74</ele>
        <time>2022-06-05T08:24:08Z</time>
      </trkpt>
      <trkpt lat="47.14428" lon="-1.71779">
        <ele>74</ele>
        <time>2022-06-05T08:24:10Z</time>
      </trkpt>
      <trkpt lat="47.14414" lon="-1.71779">
        <ele>73</ele>
        <time>2022-06-05T08:24:12Z</time>
      </trkpt>
      <trkpt lat="47.144" lon="-1.71781">
        <ele>73</ele>
        <time>2022-06-05T08:24:14Z</time>
      </trkpt>
      <trkpt lat="47.14387" lon="-1.71784">
        <ele>73</ele>
        <time>2022-06-05T08:24:16Z</time>
      </trkpt>
      <trkpt lat="47.14373" lon="-1.71788">
        <ele>73</ele>
        <time>2022-06-05T08:24:18Z</time>
      </trkpt>
      <trkpt lat="47.14361" lon="-1.71792">
        <ele>73</ele>
        <time>2022-06-05T08:24:20Z</time>
      </trkpt>
      <trkpt lat="47.14348" lon="-1.71797">
        <ele>73</ele>
        <time>2022-06-05T08:24:22Z</time>
      </trkpt>
      <trkpt lat="47.14335" lon="-1.71801">
        <ele>72</ele>
        <time>2022-06-05T08:24:24Z</time>
      </trkpt>
      <trkpt lat="47.14323" lon="-1.71805">
        <ele>72</ele>
        <time>2022-06-05T08:24:26Z</time>
      </trkpt>
      <trkpt lat="47.1431" lon="-1.7181">
        <ele>72</ele>
        <time>2022-06-05T08:24:28Z</time>
      </trkpt>
      <trkpt lat="47.14298" lon="-1.71813">
        <ele>72</ele>
        <time>2022-06-05T08:24:30Z</time>
      </trkpt>
      <trkpt lat="47.14285" lon="-1.71817">
        <ele>71</ele>
        <time>2022-06-05T08:24:32Z</time>
      </trkpt>
      <trkpt lat="47.14273" lon="-1.71822">
        <ele>71</ele>
        <time>2022-06-05T08:24:34Z</time>
      </trkpt>
      <trkpt lat="47.1426" lon="-1.71827">
        <ele>71</ele>
        <time>2022-06-05T08:24:36Z</time>
      </trkpt>
      <trkpt lat="47.14247" lon="-1.71831">
        <ele>71</ele>
        <time>2022-06-05T08:24:38Z</time>
      </trkpt>
      <trkpt lat="47.14234" lon="-1.71835">
        <ele>71</ele>
        <time>2022-06-05T08:24:40Z</time>
      </trkpt>
      <trkpt lat="47.1422" lon="-1.71839">
        <ele>71</ele>
        <time>2022-06-05T08:24:42Z</time>
      </trkpt>
      <trkpt lat="47.14207" lon="-1.71844">
        <ele>71</ele>
        <time>2022-06-05T08:24:44Z</time>
      </trkpt>
      <trkpt lat="47.14195" lon="-1.71848">
        <ele>70</ele>
        <time>2022-06-05T08:24:46Z</time>
      </trkpt>
      <trkpt lat="47.14182" lon="-1.71853">
        <ele>70</ele>
        <time>2022-06-05T08:24:48Z</time>
      </trkpt>
      <trkpt lat="47.14168" lon="-1.71857">
        <ele>69</ele>
        <time>2022-06-05T08:24:50Z</time>
      </trkpt>
      <trkpt lat="47.14155" lon="-1.71862">
        <ele>69</ele>
        <time>2022-06-05T08:24:52Z</time>
      </trkpt>
      <trkpt lat="47.1414" lon="-1.71867">
        <ele>69</ele>
        <time>2022-06-05T08:24:54Z</time>
      </trkpt>
      <trkpt lat="47.14126" lon="-1.71872">
        <ele>68</ele>
        <time>2022-06-05T08:24:56Z</time>
      </trkpt>
      <trkpt lat="47.14111" lon="-1.71877">
        <ele>67</ele>
        <time>2022-06-05T08:24:58Z</time>
      </trkpt>
      <trkpt lat="47.14096" lon="-1.71881">
        <ele>66</ele>
        <time>2022-06-05T08:25:00Z</time>
      </trkpt>
      <trkpt lat="47.1408" lon="-1.71886">
        <ele>65</ele>
        <time>2022-06-05T08:25:02Z</time>
      </trkpt>
      <trkpt lat="47.14064" lon="-1.71891">
        <ele>65</ele>
        <time>2022-06-05T08:25:04Z</time>
      </trkpt>
      <trkpt lat="47.14048" lon="-1.71897">
        <ele>64</ele>
        <time>2022-06-05T08:25:06Z</time>
      </trkpt>
      <trkpt lat="47.14032" lon="-1.71902">
        <ele>64</ele>
        <time>2022-06-05T08:25:08Z</time>
      </trkpt>
      <trkpt lat="47.14015" lon="-1.71905">
        <ele>62</ele>
        <time>2022-06-05T08:25:10Z</time>
      </trkpt>
      <trkpt lat="47.13997" lon="-1.71901">
        <ele>61</ele>
        <time>2022-06-05T08:25:12Z</time>
      </trkpt>
      <trkpt lat="47.13988" lon="-1.71897">
        <ele>61</ele>
        <time>2022-06-05T08:25:13Z</time>
      </trkpt>
      <trkpt lat="47.13979" lon="-1.71896">
        <ele>60</ele>
        <time>2022-06-05T08:25:14Z</time>
      </trkpt>
      <trkpt lat="47.13966" lon="-1.7191">
        <ele>60</ele>
        <time>2022-06-05T08:25:16Z</time>
      </trkpt>
      <trkpt lat="47.13966" lon="-1.71932">
        <ele>59</ele>
        <time>2022-06-05T08:25:18Z</time>
      </trkpt>
      <trkpt lat="47.13963" lon="-1.71952">
        <ele>59</ele>
        <time>2022-06-05T08:25:20Z</time>
      </trkpt>
      <trkpt lat="47.13955" lon="-1.71967">
        <ele>59</ele>
        <time>2022-06-05T08:25:22Z</time>
      </trkpt>
      <trkpt lat="47.13944" lon="-1.71976">
        <ele>59</ele>
        <time>2022-06-05T08:25:24Z</time>
      </trkpt>
      <trkpt lat="47.13931" lon="-1.71982">
        <ele>59</ele>
        <time>2022-06-05T08:25:26Z</time>
      </trkpt>
      <trkpt lat="47.13919" lon="-1.71987">
        <ele>60</ele>
        <time>2022-06-05T08:25:28Z</time>
      </trkpt>
      <trkpt lat="47.13907" lon="-1.71993">
        <ele>60</ele>
        <time>2022-06-05T08:25:30Z</time>
      </trkpt>
      <trkpt lat="47.13895" lon="-1.72">
        <ele>61</ele>
        <time>2022-06-05T08:25:32Z</time>
      </trkpt>
      <trkpt lat="47.13884" lon="-1.72009">
        <ele>61</ele>
        <time>2022-06-05T08:25:34Z</time>
      </trkpt>
      <trkpt lat="47.13874" lon="-1.72017">
        <ele>62</ele>
        <time>2022-06-05T08:25:36Z</time>
      </trkpt>
      <trkpt lat="47.13866" lon="-1.72028">
        <ele>62</ele>
        <time>2022-06-05T08:25:38Z</time>
      </trkpt>
      <trkpt lat="47.13857" lon="-1.7204">
        <ele>62</ele>
        <time>2022-06-05T08:25:40Z</time>
      </trkpt>
      <trkpt lat="47.13849" lon="-1.72053">
        <ele>62</ele>
        <time>2022-06-05T08:25:42Z</time>
      </trkpt>
      <trkpt lat="47.13841" lon="-1.72066">
        <ele>62</ele>
        <time>2022-06-05T08:25:44Z</time>
      </trkpt>
      <trkpt lat="47.13833" lon="-1.72078">
        <ele>62</ele>
        <time>2022-06-05T08:25:46Z</time>
      </trkpt>
      <trkpt lat="47.13825" lon="-1.7209">
        <ele>63</ele>
        <time>2022-06-05T08:25:48Z</time>
      </trkpt>
      <trkpt lat="47.13817" lon="-1.72102">
        <ele>63</ele>
        <time>2022-06-05T08:25:50Z</time>
      </trkpt>
      <trkpt lat="47.1381" lon="-1.72115">
        <ele>63</ele>
        <time>2022-06-05T08:25:52Z</time>
      </trkpt>
      <trkpt lat="47.13802" lon="-1.72128">
        <ele>64</ele>
        <time>2022-06-05T08:25:54Z</time>
      </trkpt>
      <trkpt lat="47.13795" lon="-1.7214">
        <ele>65</ele>
        <time>2022-06-05T08:25:56Z</time>
      </trkpt>
      <trkpt lat="47.13787" lon="-1.72152">
        <ele>65</ele>
        <time>2022-06-05T08:25:58Z</time>
      </trkpt>
      <trkpt lat="47.1378" lon="-1.72164">
        <ele>65</ele>
        <time>2022-06-05T08:26:00Z</time>
      </trkpt>
      <trkpt lat="47.13774" lon="-1.72177">
        <ele>66</ele>
        <time>2022-06-05T08:26:02Z</time>
      </trkpt>
      <trkpt lat="47.13768" lon="-1.72189">
        <ele>66</ele>
        <time>2022-06-05T08:26:04Z</time>
      </trkpt>
      <trkpt lat="47.13761" lon="-1.722">
        <ele>66</ele>
        <time>2022-06-05T08:26:06Z</time>
      </trkpt>
      <trkpt lat="47.13754" lon="-1.7221">
        <ele>67</ele>
        <time>2022-06-05T08:26:08Z</time>
      </trkpt>
      <trkpt lat="47.13747" lon="-1.72222">
        <ele>67</ele>
        <time>2022-06-05T08:26:10Z</time>
      </trkpt>
      <trkpt lat="47.13742" lon="-1.72235">
        <ele>68</ele>
        <time>2022-06-05T08:26:12Z</time>
      </trkpt>
      <trkpt lat="47.13739" lon="-1.7225">
        <ele>68</ele>
        <time>2022-06-05T08:26:14Z</time>
      </trkpt>
      <trkpt lat="47.13737" lon="-1.72264">
        <ele>68</ele>
        <time>2022-06-05T08:26:16Z</time>
      </trkpt>
      <trkpt lat="47.13735" lon="-1.7228">
        <ele>69</ele>
        <time>2022-06-05T08:26:18Z</time>
      </trkpt>
      <trkpt lat="47.13733" lon="-1.72296">
        <ele>69</ele>
        <time>2022-06-05T08:26:20Z</time>
      </trkpt>
      <trkpt lat="47.13731" lon="-1.72311">
        <ele>69</ele>
        <time>2022-06-05T08:26:22Z</time>
      </trkpt>
      <trkpt lat="47.13729" lon="-1.72326">
        <ele>70</ele>
        <time>2022-06-05T08:26:24Z</time>
      </trkpt>
      <trkpt lat="47.13727" lon="-1.7234">
        <ele>70</ele>
        <time>2022-06-05T08:26:26Z</time>
      </trkpt>
      <trkpt lat="47.13724" lon="-1.72355">
        <ele>71</ele>
        <time>2022-06-05T08:26:28Z</time>
      </trkpt>
      <trkpt lat="47.13721" lon="-1.7237">
        <ele>71</ele>
        <time>2022-06-05T08:26:30Z</time>
      </trkpt>
      <trkpt lat="47.13716" lon="-1.72385">
        <ele>71</ele>
        <time>2022-06-05T08:26:32Z</time>
      </trkpt>
      <trkpt lat="47.13712" lon="-1.724">
        <ele>71</ele>
        <time>2022-06-05T08:26:34Z</time>
      </trkpt>
      <trkpt lat="47.13708" lon="-1.72415">
        <ele>71</ele>
        <time>2022-06-05T08:26:36Z</time>
      </trkpt>
      <trkpt lat="47.13704" lon="-1.72429">
        <ele>71</ele>
        <time>2022-06-05T08:26:38Z</time>
      </trkpt>
      <trkpt lat="47.137" lon="-1.72444">
        <ele>71</ele>
        <time>2022-06-05T08:26:40Z</time>
      </trkpt>
      <trkpt lat="47.13696" lon="-1.72458">
        <ele>71</ele>
        <time>2022-06-05T08:26:42Z</time>
      </trkpt>
      <trkpt lat="47.13692" lon="-1.72474">
        <ele>71</ele>
        <time>2022-06-05T08:26:44Z</time>
      </trkpt>
      <trkpt lat="47.13688" lon="-1.72489">
        <ele>71</ele>
        <time>2022-06-05T08:26:46Z</time>
      </trkpt>
      <trkpt lat="47.13684" lon="-1.72505">
        <ele>72</ele>
        <time>2022-06-05T08:26:48Z</time>
      </trkpt>
      <trkpt lat="47.13681" lon="-1.72521">
        <ele>72</ele>
        <time>2022-06-05T08:26:50Z</time>
      </trkpt>
      <trkpt lat="47.1368" lon="-1.72539">
        <ele>72</ele>
        <time>2022-06-05T08:26:52Z</time>
      </trkpt>
      <trkpt lat="47.13678" lon="-1.72557">
        <ele>72</ele>
        <time>2022-06-05T08:26:54Z</time>
      </trkpt>
      <trkpt lat="47.13677" lon="-1.72573">
        <ele>72</ele>
        <time>2022-06-05T08:26:56Z</time>
      </trkpt>
      <trkpt lat="47.13677" lon="-1.7259">
        <ele>72</ele>
        <time>2022-06-05T08:26:58Z</time>
      </trkpt>
      <trkpt lat="47.13676" lon="-1.72607">
        <ele>72</ele>
        <time>2022-06-05T08:27:00Z</time>
      </trkpt>
      <trkpt lat="47.13674" lon="-1.72623">
        <ele>71</ele>
        <time>2022-06-05T08:27:02Z</time>
      </trkpt>
      <trkpt lat="47.13672" lon="-1.7264">
        <ele>71</ele>
        <time>2022-06-05T08:27:04Z</time>
      </trkpt>
      <trkpt lat="47.13669" lon="-1.72657">
        <ele>72</ele>
        <time>2022-06-05T08:27:06Z</time>
      </trkpt>
      <trkpt lat="47.13666" lon="-1.72673">
        <ele>72</ele>
        <time>2022-06-05T08:27:08Z</time>
      </trkpt>
      <trkpt lat="47.13664" lon="-1.72689">
        <ele>72</ele>
        <time>2022-06-05T08:27:10Z</time>
      </trkpt>
      <trkpt lat="47.13662" lon="-1.72705">
        <ele>72</ele>
        <time>2022-06-05T08:27:12Z</time>
      </trkpt>
      <trkpt lat="47.1366" lon="-1.72721">
        <ele>72</ele>
        <time>2022-06-05T08:27:14Z</time>
      </trkpt>
      <trkpt lat="47.13658" lon="-1.72737">
        <ele>72</ele>
        <time>2022-06-05T08:27:16Z</time>
      </trkpt>
      <trkpt lat="47.13656" lon="-1.72753">
        <ele>72</ele>
        <time>2022-06-05T08:27:18Z</time>
      </trkpt>
      <trkpt lat="47.13656" lon="-1.7277">
        <ele>72</ele>
        <time>2022-06-05T08:27:20Z</time>
      </trkpt>
      <trkpt lat="47.13655" lon="-1.72786">
        <ele>71</ele>
        <time>2022-06-05T08:27:22Z</time>
      </trkpt>
      <trkpt lat="47.13653" lon="-1.72803">
        <ele>71</ele>
        <time>2022-06-05T08:27:24Z</time>
      </trkpt>
      <trkpt lat="47.13652" lon="-1.72819">
        <ele>71</ele>
        <time>2022-06-05T08:27:26Z</time>
      </trkpt>
      <trkpt lat="47.13651" lon="-1.72837">
        <ele>70</ele>
        <time>2022-06-05T08:27:28Z</time>
      </trkpt>
      <trkpt lat="47.13649" lon="-1.72855">
        <ele>70</ele>
        <time>2022-06-05T08:27:30Z</time>
      </trkpt>
      <trkpt lat="47.13647" lon="-1.72873">
        <ele>69</ele>
        <time>2022-06-05T08:27:32Z</time>
      </trkpt>
      <trkpt lat="47.13646" lon="-1.72892">
        <ele>69</ele>
        <time>2022-06-05T08:27:34Z</time>
      </trkpt>
      <trkpt lat="47.13644" lon="-1.72912">
        <ele>68</ele>
        <time>2022-06-05T08:27:36Z</time>
      </trkpt>
      <trkpt lat="47.13642" lon="-1.72932">
        <ele>68</ele>
        <time>2022-06-05T08:27:38Z</time>
      </trkpt>
      <trkpt lat="47.1364" lon="-1.72953">
        <ele>67</ele>
        <time>2022-06-05T08:27:40Z</time>
      </trkpt>
      <trkpt lat="47.13639" lon="-1.72975">
        <ele>66</ele>
        <time>2022-06-05T08:27:42Z</time>
      </trkpt>
      <trkpt lat="47.13638" lon="-1.72996">
        <ele>65</ele>
        <time>2022-06-05T08:27:44Z</time>
      </trkpt>
      <trkpt lat="47.13634" lon="-1.73018">
        <ele>64</ele>
        <time>2022-06-05T08:27:46Z</time>
      </trkpt>
      <trkpt lat="47.13627" lon="-1.73037">
        <ele>63</ele>
        <time>2022-06-05T08:27:48Z</time>
      </trkpt>
      <trkpt lat="47.13616" lon="-1.73051">
        <ele>62</ele>
        <time>2022-06-05T08:27:50Z</time>
      </trkpt>
      <trkpt lat="47.13604" lon="-1.73062">
        <ele>62</ele>
        <time>2022-06-05T08:27:52Z</time>
      </trkpt>
      <trkpt lat="47.13592" lon="-1.73072">
        <ele>62</ele>
        <time>2022-06-05T08:27:54Z</time>
      </trkpt>
      <trkpt lat="47.1358" lon="-1.73082">
        <ele>62</ele>
        <time>2022-06-05T08:27:56Z</time>
      </trkpt>
      <trkpt lat="47.13568" lon="-1.73093">
        <ele>62</ele>
        <time>2022-06-05T08:27:58Z</time>
      </trkpt>
      <trkpt lat="47.13557" lon="-1.73105">
        <ele>62</ele>
        <time>2022-06-05T08:28:00Z</time>
      </trkpt>
      <trkpt lat="47.13546" lon="-1.73116">
        <ele>62</ele>
        <time>2022-06-05T08:28:02Z</time>
      </trkpt>
      <trkpt lat="47.13535" lon="-1.73128">
        <ele>61</ele>
        <time>2022-06-05T08:28:04Z</time>
      </trkpt>
      <trkpt lat="47.13524" lon="-1.73141">
        <ele>61</ele>
        <time>2022-06-05T08:28:06Z</time>
      </trkpt>
      <trkpt lat="47.13515" lon="-1.73158">
        <ele>60</ele>
        <time>2022-06-05T08:28:08Z</time>
      </trkpt>
      <trkpt lat="47.13511" lon="-1.73177">
        <ele>60</ele>
        <time>2022-06-05T08:28:10Z</time>
      </trkpt>
      <trkpt lat="47.13509" lon="-1.73197">
        <ele>61</ele>
        <time>2022-06-05T08:28:12Z</time>
      </trkpt>
      <trkpt lat="47.13507" lon="-1.73217">
        <ele>61</ele>
        <time>2022-06-05T08:28:14Z</time>
      </trkpt>
      <trkpt lat="47.13504" lon="-1.73237">
        <ele>60</ele>
        <time>2022-06-05T08:28:16Z</time>
      </trkpt>
      <trkpt lat="47.13502" lon="-1.73259">
        <ele>60</ele>
        <time>2022-06-05T08:28:18Z</time>
      </trkpt>
      <trkpt lat="47.13501" lon="-1.73279">
        <ele>60</ele>
        <time>2022-06-05T08:28:20Z</time>
      </trkpt>
      <trkpt lat="47.13503" lon="-1.733">
        <ele>60</ele>
        <time>2022-06-05T08:28:22Z</time>
      </trkpt>
      <trkpt lat="47.13508" lon="-1.7332">
        <ele>60</ele>
        <time>2022-06-05T08:28:24Z</time>
      </trkpt>
      <trkpt lat="47.13512" lon="-1.73337">
        <ele>60</ele>
        <time>2022-06-05T08:28:26Z</time>
      </trkpt>
      <trkpt lat="47.13517" lon="-1.73353">
        <ele>60</ele>
        <time>2022-06-05T08:28:28Z</time>
      </trkpt>
      <trkpt lat="47.13521" lon="-1.73368">
        <ele>60</ele>
        <time>2022-06-05T08:28:30Z</time>
      </trkpt>
      <trkpt lat="47.13527" lon="-1.73383">
        <ele>61</ele>
        <time>2022-06-05T08:28:32Z</time>
      </trkpt>
      <trkpt lat="47.13532" lon="-1.73398">
        <ele>61</ele>
        <time>2022-06-05T08:28:34Z</time>
      </trkpt>
      <trkpt lat="47.13536" lon="-1.73413">
        <ele>60</ele>
        <time>2022-06-05T08:28:36Z</time>
      </trkpt>
      <trkpt lat="47.13541" lon="-1.73429">
        <ele>60</ele>
        <time>2022-06-05T08:28:38Z</time>
      </trkpt>
      <trkpt lat="47.13545" lon="-1.73442">
        <ele>60</ele>
        <time>2022-06-05T08:28:40Z</time>
      </trkpt>
      <trkpt lat="47.13549" lon="-1.73456">
        <ele>61</ele>
        <time>2022-06-05T08:28:42Z</time>
      </trkpt>
      <trkpt lat="47.13553" lon="-1.73471">
        <ele>61</ele>
        <time>2022-06-05T08:28:44Z</time>
      </trkpt>
      <trkpt lat="47.13558" lon="-1.73487">
        <ele>61</ele>
        <time>2022-06-05T08:28:46Z</time>
      </trkpt>
      <trkpt lat="47.13562" lon="-1.73503">
        <ele>61</ele>
        <time>2022-06-05T08:28:48Z</time>
      </trkpt>
      <trkpt lat="47.13566" lon="-1.73519">
        <ele>60</ele>
        <time>2022-06-05T08:28:50Z</time>
      </trkpt>
      <trkpt lat="47.13571" lon="-1.73536">
        <ele>60</ele>
        <time>2022-06-05T08:28:52Z</time>
      </trkpt>
      <trkpt lat="47.13576" lon="-1.73554">
        <ele>59</ele>
        <time>2022-06-05T08:28:54Z</time>
      </trkpt>
      <trkpt lat="47.13581" lon="-1.73571">
        <ele>59</ele>
        <time>2022-06-05T08:28:56Z</time>
      </trkpt>
      <trkpt lat="47.13587" lon="-1.73587">
        <ele>59</ele>
        <time>2022-06-05T08:28:58Z</time>
      </trkpt>
      <trkpt lat="47.13595" lon="-1.73603">
        <ele>58</ele>
        <time>2022-06-05T08:29:00Z</time>
      </trkpt>
      <trkpt lat="47.13601" lon="-1.7362">
        <ele>58</ele>
        <time>2022-06-05T08:29:02Z</time>
      </trkpt>
      <trkpt lat="47.13606" lon="-1.73636">
        <ele>58</ele>
        <time>2022-06-05T08:29:04Z</time>
      </trkpt>
      <trkpt lat="47.13612" lon="-1.73653">
        <ele>58</ele>
        <time>2022-06-05T08:29:06Z</time>
      </trkpt>
      <trkpt lat="47.13618" lon="-1.73669">
        <ele>58</ele>
        <time>2022-06-05T08:29:08Z</time>
      </trkpt>
      <trkpt lat="47.13623" lon="-1.73686">
        <ele>58</ele>
        <time>2022-06-05T08:29:10Z</time>
      </trkpt>
      <trkpt lat="47.13627" lon="-1.73704">
        <ele>58</ele>
        <time>2022-06-05T08:29:12Z</time>
      </trkpt>
      <trkpt lat="47.1363" lon="-1.73722">
        <ele>58</ele>
        <time>2022-06-05T08:29:14Z</time>
      </trkpt>
      <trkpt lat="47.13632" lon="-1.73739">
        <ele>58</ele>
        <time>2022-06-05T08:29:16Z</time>
      </trkpt>
      <trkpt lat="47.13634" lon="-1.73758">
        <ele>58</ele>
        <time>2022-06-05T08:29:18Z</time>
      </trkpt>
      <trkpt lat="47.13635" lon="-1.73778">
        <ele>59</ele>
        <time>2022-06-05T08:29:20Z</time>
      </trkpt>
      <trkpt lat="47.13637" lon="-1.73799">
        <ele>59</ele>
        <time>2022-06-05T08:29:22Z</time>
      </trkpt>
      <trkpt lat="47.13639" lon="-1.73821">
        <ele>60</ele>
        <time>2022-06-05T08:29:24Z</time>
      </trkpt>
      <trkpt lat="47.13641" lon="-1.73844">
        <ele>60</ele>
        <time>2022-06-05T08:29:26Z</time>
      </trkpt>
      <trkpt lat="47.13643" lon="-1.73865">
        <ele>61</ele>
        <time>2022-06-05T08:29:28Z</time>
      </trkpt>
      <trkpt lat="47.13644" lon="-1.73885">
        <ele>62</ele>
        <time>2022-06-05T08:29:30Z</time>
      </trkpt>
      <trkpt lat="47.13645" lon="-1.73904">
        <ele>61</ele>
        <time>2022-06-05T08:29:32Z</time>
      </trkpt>
      <trkpt lat="47.13646" lon="-1.73922">
        <ele>61</ele>
        <time>2022-06-05T08:29:34Z</time>
      </trkpt>
      <trkpt lat="47.13648" lon="-1.73938">
        <ele>62</ele>
        <time>2022-06-05T08:29:36Z</time>
      </trkpt>
      <trkpt lat="47.13648" lon="-1.73953">
        <ele>62</ele>
        <time>2022-06-05T08:29:38Z</time>
      </trkpt>
      <trkpt lat="47.13648" lon="-1.73967">
        <ele>62</ele>
        <time>2022-06-05T08:29:40Z</time>
      </trkpt>
      <trkpt lat="47.13648" lon="-1.73981">
        <ele>62</ele>
        <time>2022-06-05T08:29:42Z</time>
      </trkpt>
      <trkpt lat="47.13646" lon="-1.73995">
        <ele>62</ele>
        <time>2022-06-05T08:29:44Z</time>
      </trkpt>
      <trkpt lat="47.13645" lon="-1.74009">
        <ele>62</ele>
        <time>2022-06-05T08:29:46Z</time>
      </trkpt>
      <trkpt lat="47.13643" lon="-1.74024">
        <ele>62</ele>
        <time>2022-06-05T08:29:48Z</time>
      </trkpt>
      <trkpt lat="47.13642" lon="-1.74039">
        <ele>62</ele>
        <time>2022-06-05T08:29:50Z</time>
      </trkpt>
      <trkpt lat="47.1364" lon="-1.74053">
        <ele>63</ele>
        <time>2022-06-05T08:29:52Z</time>
      </trkpt>
      <trkpt lat="47.13639" lon="-1.74068">
        <ele>63</ele>
        <time>2022-06-05T08:29:54Z</time>
      </trkpt>
      <trkpt lat="47.13639" lon="-1.74083">
        <ele>63</ele>
        <time>2022-06-05T08:29:56Z</time>
      </trkpt>
      <trkpt lat="47.1364" lon="-1.74097">
        <ele>63</ele>
        <time>2022-06-05T08:29:58Z</time>
      </trkpt>
      <trkpt lat="47.13641" lon="-1.74112">
        <ele>63</ele>
        <time>2022-06-05T08:30:00Z</time>
      </trkpt>
      <trkpt lat="47.13643" lon="-1.74127">
        <ele>63</ele>
        <time>2022-06-05T08:30:02Z</time>
      </trkpt>
      <trkpt lat="47.13645" lon="-1.74142">
        <ele>63</ele>
        <time>2022-06-05T08:30:04Z</time>
      </trkpt>
      <trkpt lat="47.13647" lon="-1.74157">
        <ele>63</ele>
        <time>2022-06-05T08:30:06Z</time>
      </trkpt>
      <trkpt lat="47.13651" lon="-1.74171">
        <ele>63</ele>
        <time>2022-06-05T08:30:08Z</time>
      </trkpt>
      <trkpt lat="47.13654" lon="-1.74187">
        <ele>63</ele>
        <time>2022-06-05T08:30:10Z</time>
      </trkpt>
      <trkpt lat="47.13657" lon="-1.74202">
        <ele>63</ele>
        <time>2022-06-05T08:30:12Z</time>
      </trkpt>
      <trkpt lat="47.13661" lon="-1.74217">
        <ele>63</ele>
        <time>2022-06-05T08:30:14Z</time>
      </trkpt>
      <trkpt lat="47.13665" lon="-1.74232">
        <ele>63</ele>
        <time>2022-06-05T08:30:16Z</time>
      </trkpt>
      <trkpt lat="47.13669" lon="-1.74246">
        <ele>63</ele>
        <time>2022-06-05T08:30:18Z</time>
      </trkpt>
      <trkpt lat="47.13673" lon="-1.74262">
        <ele>62</ele>
        <time>2022-06-05T08:30:20Z</time>
      </trkpt>
      <trkpt lat="47.13678" lon="-1.74278">
        <ele>62</ele>
        <time>2022-06-05T08:30:22Z</time>
      </trkpt>
      <trkpt lat="47.13684" lon="-1.74295">
        <ele>62</ele>
        <time>2022-06-05T08:30:24Z</time>
      </trkpt>
      <trkpt lat="47.13689" lon="-1.74312">
        <ele>61</ele>
        <time>2022-06-05T08:30:26Z</time>
      </trkpt>
      <trkpt lat="47.13692" lon="-1.74332">
        <ele>60</ele>
        <time>2022-06-05T08:30:28Z</time>
      </trkpt>
      <trkpt lat="47.13693" lon="-1.74352">
        <ele>59</ele>
        <time>2022-06-05T08:30:30Z</time>
      </trkpt>
      <trkpt lat="47.13693" lon="-1.74374">
        <ele>59</ele>
        <time>2022-06-05T08:30:32Z</time>
      </trkpt>
      <trkpt lat="47.13694" lon="-1.74396">
        <ele>58</ele>
        <time>2022-06-05T08:30:34Z</time>
      </trkpt>
      <trkpt lat="47.13694" lon="-1.74418">
        <ele>58</ele>
        <time>2022-06-05T08:30:36Z</time>
      </trkpt>
      <trkpt lat="47.13694" lon="-1.74441">
        <ele>57</ele>
        <time>2022-06-05T08:30:38Z</time>
      </trkpt>
      <trkpt lat="47.13687" lon="-1.74462">
        <ele>57</ele>
        <time>2022-06-05T08:30:40Z</time>
      </trkpt>
      <trkpt lat="47.13674" lon="-1.74477">
        <ele>56</ele>
        <time>2022-06-05T08:30:42Z</time>
      </trkpt>
      <trkpt lat="47.13661" lon="-1.74491">
        <ele>55</ele>
        <time>2022-06-05T08:30:44Z</time>
      </trkpt>
      <trkpt lat="47.13649" lon="-1.74503">
        <ele>56</ele>
        <time>2022-06-05T08:30:46Z</time>
      </trkpt>
      <trkpt lat="47.13638" lon="-1.74513">
        <ele>56</ele>
        <time>2022-06-05T08:30:48Z</time>
      </trkpt>
      <trkpt lat="47.13629" lon="-1.74523">
        <ele>56</ele>
        <time>2022-06-05T08:30:50Z</time>
      </trkpt>
      <trkpt lat="47.13619" lon="-1.74534">
        <ele>56</ele>
        <time>2022-06-05T08:30:52Z</time>
      </trkpt>
      <trkpt lat="47.13608" lon="-1.74544">
        <ele>56</ele>
        <time>2022-06-05T08:30:54Z</time>
      </trkpt>
      <trkpt lat="47.13597" lon="-1.74557">
        <ele>55</ele>
        <time>2022-06-05T08:30:56Z</time>
      </trkpt>
      <trkpt lat="47.13585" lon="-1.74569">
        <ele>55</ele>
        <time>2022-06-05T08:30:58Z</time>
      </trkpt>
      <trkpt lat="47.13572" lon="-1.7458">
        <ele>55</ele>
        <time>2022-06-05T08:31:00Z</time>
      </trkpt>
      <trkpt lat="47.1356" lon="-1.74593">
        <ele>55</ele>
        <time>2022-06-05T08:31:02Z</time>
      </trkpt>
      <trkpt lat="47.13548" lon="-1.74605">
        <ele>55</ele>
        <time>2022-06-05T08:31:04Z</time>
      </trkpt>
      <trkpt lat="47.13536" lon="-1.74617">
        <ele>55</ele>
        <time>2022-06-05T08:31:06Z</time>
      </trkpt>
      <trkpt lat="47.13525" lon="-1.74627">
        <ele>56</ele>
        <time>2022-06-05T08:31:08Z</time>
      </trkpt>
      <trkpt lat="47.13515" lon="-1.74638">
        <ele>56</ele>
        <time>2022-06-05T08:31:10Z</time>
      </trkpt>
      <trkpt lat="47.13506" lon="-1.74648">
        <ele>57</ele>
        <time>2022-06-05T08:31:12Z</time>
      </trkpt>
      <trkpt lat="47.13498" lon="-1.7466">
        <ele>58</ele>
        <time>2022-06-05T08:31:14Z</time>
      </trkpt>
      <trkpt lat="47.13492" lon="-1.74674">
        <ele>58</ele>
        <time>2022-06-05T08:31:16Z</time>
      </trkpt>
      <trkpt lat="47.13487" lon="-1.74688">
        <ele>59</ele>
        <time>2022-06-05T08:31:18Z</time>
      </trkpt>
      <trkpt lat="47.13484" lon="-1.74702">
        <ele>60</ele>
        <time>2022-06-05T08:31:20Z</time>
      </trkpt>
      <trkpt lat="47.13476" lon="-1.74718">
        <ele>61</ele>
        <time>2022-06-05T08:31:23Z</time>
      </trkpt>
      <trkpt lat="47.1347" lon="-1.74729">
        <ele>62</ele>
        <time>2022-06-05T08:31:26Z</time>
      </trkpt>
      <trkpt lat="47.13459" lon="-1.74741">
        <ele>62</ele>
        <time>2022-06-05T08:31:29Z</time>
      </trkpt>
      <trkpt lat="47.13451" lon="-1.74749">
        <ele>62</ele>
        <time>2022-06-05T08:31:31Z</time>
      </trkpt>
      <trkpt lat="47.13441" lon="-1.74756">
        <ele>62</ele>
        <time>2022-06-05T08:31:33Z</time>
      </trkpt>
      <trkpt lat="47.13431" lon="-1.74762">
        <ele>62</ele>
        <time>2022-06-05T08:31:35Z</time>
      </trkpt>
      <trkpt lat="47.13422" lon="-1.74769">
        <ele>62</ele>
        <time>2022-06-05T08:31:37Z</time>
      </trkpt>
      <trkpt lat="47.13413" lon="-1.74776">
        <ele>62</ele>
        <time>2022-06-05T08:31:39Z</time>
      </trkpt>
      <trkpt lat="47.13404" lon="-1.74785">
        <ele>62</ele>
        <time>2022-06-05T08:31:41Z</time>
      </trkpt>
      <trkpt lat="47.13396" lon="-1.74794">
        <ele>63</ele>
        <time>2022-06-05T08:31:43Z</time>
      </trkpt>
      <trkpt lat="47.13388" lon="-1.74805">
        <ele>63</ele>
        <time>2022-06-05T08:31:45Z</time>
      </trkpt>
      <trkpt lat="47.13382" lon="-1.74818">
        <ele>63</ele>
        <time>2022-06-05T08:31:47Z</time>
      </trkpt>
      <trkpt lat="47.13378" lon="-1.74832">
        <ele>63</ele>
        <time>2022-06-05T08:31:49Z</time>
      </trkpt>
      <trkpt lat="47.13375" lon="-1.74846">
        <ele>64</ele>
        <time>2022-06-05T08:31:51Z</time>
      </trkpt>
      <trkpt lat="47.13371" lon="-1.74859">
        <ele>64</ele>
        <time>2022-06-05T08:31:53Z</time>
      </trkpt>
      <trkpt lat="47.13368" lon="-1.74874">
        <ele>64</ele>
        <time>2022-06-05T08:31:55Z</time>
      </trkpt>
      <trkpt lat="47.13364" lon="-1.74887">
        <ele>65</ele>
        <time>2022-06-05T08:31:57Z</time>
      </trkpt>
      <trkpt lat="47.1336" lon="-1.74901">
        <ele>64</ele>
        <time>2022-06-05T08:31:59Z</time>
      </trkpt>
      <trkpt lat="47.13356" lon="-1.74916">
        <ele>65</ele>
        <time>2022-06-05T08:32:01Z</time>
      </trkpt>
      <trkpt lat="47.1335" lon="-1.74929">
        <ele>65</ele>
        <time>2022-06-05T08:32:03Z</time>
      </trkpt>
      <trkpt lat="47.13345" lon="-1.74942">
        <ele>66</ele>
        <time>2022-06-05T08:32:05Z</time>
      </trkpt>
      <trkpt lat="47.13339" lon="-1.74954">
        <ele>66</ele>
        <time>2022-06-05T08:32:07Z</time>
      </trkpt>
      <trkpt lat="47.13333" lon="-1.74967">
        <ele>66</ele>
        <time>2022-06-05T08:32:09Z</time>
      </trkpt>
      <trkpt lat="47.13327" lon="-1.74978">
        <ele>66</ele>
        <time>2022-06-05T08:32:11Z</time>
      </trkpt>
      <trkpt lat="47.13319" lon="-1.74989">
        <ele>67</ele>
        <time>2022-06-05T08:32:13Z</time>
      </trkpt>
      <trkpt lat="47.13311" lon="-1.74998">
        <ele>67</ele>
        <time>2022-06-05T08:32:15Z</time>
      </trkpt>
      <trkpt lat="47.13302" lon="-1.75008">
        <ele>67</ele>
        <time>2022-06-05T08:32:17Z</time>
      </trkpt>
      <trkpt lat="47.13293" lon="-1.75015">
        <ele>68</ele>
        <time>2022-06-05T08:32:19Z</time>
      </trkpt>
      <trkpt lat="47.13284" lon="-1.75023">
        <ele>68</ele>
        <time>2022-06-05T08:32:21Z</time>
      </trkpt>
      <trkpt lat="47.13275" lon="-1.75031">
        <ele>68</ele>
        <time>2022-06-05T08:32:23Z</time>
      </trkpt>
      <trkpt lat="47.13265" lon="-1.75038">
        <ele>69</ele>
        <time>2022-06-05T08:32:25Z</time>
      </trkpt>
      <trkpt lat="47.13256" lon="-1.75044">
        <ele>69</ele>
        <time>2022-06-05T08:32:27Z</time>
      </trkpt>
      <trkpt lat="47.13248" lon="-1.75052">
        <ele>69</ele>
        <time>2022-06-05T08:32:29Z</time>
      </trkpt>
      <trkpt lat="47.13238" lon="-1.7506">
        <ele>69</ele>
        <time>2022-06-05T08:32:31Z</time>
      </trkpt>
      <trkpt lat="47.1323" lon="-1.75068">
        <ele>70</ele>
        <time>2022-06-05T08:32:33Z</time>
      </trkpt>
      <trkpt lat="47.13222" lon="-1.75077">
        <ele>70</ele>
        <time>2022-06-05T08:32:35Z</time>
      </trkpt>
      <trkpt lat="47.13214" lon="-1.75088">
        <ele>70</ele>
        <time>2022-06-05T08:32:37Z</time>
      </trkpt>
      <trkpt lat="47.13206" lon="-1.751">
        <ele>70</ele>
        <time>2022-06-05T08:32:39Z</time>
      </trkpt>
      <trkpt lat="47.132" lon="-1.75111">
        <ele>70</ele>
        <time>2022-06-05T08:32:41Z</time>
      </trkpt>
      <trkpt lat="47.13192" lon="-1.75122">
        <ele>70</ele>
        <time>2022-06-05T08:32:43Z</time>
      </trkpt>
      <trkpt lat="47.13186" lon="-1.75135">
        <ele>70</ele>
        <time>2022-06-05T08:32:45Z</time>
      </trkpt>
      <trkpt lat="47.1318" lon="-1.75148">
        <ele>70</ele>
        <time>2022-06-05T08:32:47Z</time>
      </trkpt>
      <trkpt lat="47.13174" lon="-1.75161">
        <ele>70</ele>
        <time>2022-06-05T08:32:49Z</time>
      </trkpt>
      <trkpt lat="47.13168" lon="-1.75175">
        <ele>70</ele>
        <time>2022-06-05T08:32:51Z</time>
      </trkpt>
      <trkpt lat="47.13163" lon="-1.7519">
        <ele>70</ele>
        <time>2022-06-05T08:32:53Z</time>
      </trkpt>
      <trkpt lat="47.13157" lon="-1.75213">
        <ele>70</ele>
        <time>2022-06-05T08:32:56Z</time>
      </trkpt>
      <trkpt lat="47.13154" lon="-1.75228">
        <ele>70</ele>
        <time>2022-06-05T08:32:58Z</time>
      </trkpt>
      <trkpt lat="47.13151" lon="-1.75244">
        <ele>70</ele>
        <time>2022-06-05T08:33:00Z</time>
      </trkpt>
      <trkpt lat="47.13149" lon="-1.7526">
        <ele>70</ele>
        <time>2022-06-05T08:33:02Z</time>
      </trkpt>
      <trkpt lat="47.13147" lon="-1.75276">
        <ele>70</ele>
        <time>2022-06-05T08:33:04Z</time>
      </trkpt>
      <trkpt lat="47.13146" lon="-1.75291">
        <ele>69</ele>
        <time>2022-06-05T08:33:06Z</time>
      </trkpt>
      <trkpt lat="47.13142" lon="-1.75306">
        <ele>69</ele>
        <time>2022-06-05T08:33:08Z</time>
      </trkpt>
      <trkpt lat="47.13137" lon="-1.7532">
        <ele>70</ele>
        <time>2022-06-05T08:33:10Z</time>
      </trkpt>
      <trkpt lat="47.13133" lon="-1.75335">
        <ele>70</ele>
        <time>2022-06-05T08:33:12Z</time>
      </trkpt>
      <trkpt lat="47.1313" lon="-1.75349">
        <ele>70</ele>
        <time>2022-06-05T08:33:14Z</time>
      </trkpt>
      <trkpt lat="47.13127" lon="-1.75364">
        <ele>70</ele>
        <time>2022-06-05T08:33:16Z</time>
      </trkpt>
      <trkpt lat="47.13124" lon="-1.75378">
        <ele>71</ele>
        <time>2022-06-05T08:33:18Z</time>
      </trkpt>
      <trkpt lat="47.13122" lon="-1.75392">
        <ele>71</ele>
        <time>2022-06-05T08:33:20Z</time>
      </trkpt>
      <trkpt lat="47.13118" lon="-1.75404">
        <ele>72</ele>
        <time>2022-06-05T08:33:22Z</time>
      </trkpt>
      <trkpt lat="47.13114" lon="-1.75419">
        <ele>72</ele>
        <time>2022-06-05T08:33:25Z</time>
      </trkpt>
      <trkpt lat="47.13114" lon="-1.75436">
        <ele>73</ele>
        <time>2022-06-05T08:33:28Z</time>
      </trkpt>
      <trkpt lat="47.13111" lon="-1.75451">
        <ele>73</ele>
        <time>2022-06-05T08:33:30Z</time>
      </trkpt>
      <trkpt lat="47.13107" lon="-1.75465">
        <ele>74</ele>
        <time>2022-06-05T08:33:32Z</time>
      </trkpt>
      <trkpt lat="47.13106" lon="-1.7548">
        <ele>74</ele>
        <time>2022-06-05T08:33:34Z</time>
      </trkpt>
      <trkpt lat="47.13105" lon="-1.75495">
        <ele>75</ele>
        <time>2022-06-05T08:33:36Z</time>
      </trkpt>
      <trkpt lat="47.13103" lon="-1.7551">
        <ele>75</ele>
        <time>2022-06-05T08:33:38Z</time>
      </trkpt>
      <trkpt lat="47.13101" lon="-1.75524">
        <ele>75</ele>
        <time>2022-06-05T08:33:40Z</time>
      </trkpt>
      <trkpt lat="47.13099" lon="-1.75539">
        <ele>75</ele>
        <time>2022-06-05T08:33:42Z</time>
      </trkpt>
      <trkpt lat="47.13096" lon="-1.75553">
        <ele>76</ele>
        <time>2022-06-05T08:33:44Z</time>
      </trkpt>
      <trkpt lat="47.13093" lon="-1.75567">
        <ele>76</ele>
        <time>2022-06-05T08:33:46Z</time>
      </trkpt>
      <trkpt lat="47.13091" lon="-1.7558">
        <ele>76</ele>
        <time>2022-06-05T08:33:48Z</time>
      </trkpt>
      <trkpt lat="47.13088" lon="-1.75594">
        <ele>76</ele>
        <time>2022-06-05T08:33:50Z</time>
      </trkpt>
      <trkpt lat="47.13085" lon="-1.75608">
        <ele>76</ele>
        <time>2022-06-05T08:33:52Z</time>
      </trkpt>
      <trkpt lat="47.13083" lon="-1.75622">
        <ele>76</ele>
        <time>2022-06-05T08:33:54Z</time>
      </trkpt>
      <trkpt lat="47.13081" lon="-1.75637">
        <ele>76</ele>
        <time>2022-06-05T08:33:56Z</time>
      </trkpt>
      <trkpt lat="47.13078" lon="-1.75651">
        <ele>77</ele>
        <time>2022-06-05T08:33:58Z</time>
      </trkpt>
      <trkpt lat="47.13075" lon="-1.75666">
        <ele>77</ele>
        <time>2022-06-05T08:34:00Z</time>
      </trkpt>
      <trkpt lat="47.13072" lon="-1.7568">
        <ele>77</ele>
        <time>2022-06-05T08:34:02Z</time>
      </trkpt>
      <trkpt lat="47.1307" lon="-1.75695">
        <ele>77</ele>
        <time>2022-06-05T08:34:04Z</time>
      </trkpt>
      <trkpt lat="47.13066" lon="-1.75709">
        <ele>77</ele>
        <time>2022-06-05T08:34:06Z</time>
      </trkpt>
      <trkpt lat="47.13062" lon="-1.75722">
        <ele>78</ele>
        <time>2022-06-05T08:34:08Z</time>
      </trkpt>
      <trkpt lat="47.13057" lon="-1.75734">
        <ele>78</ele>
        <time>2022-06-05T08:34:10Z</time>
      </trkpt>
      <trkpt lat="47.13051" lon="-1.75746">
        <ele>78</ele>
        <time>2022-06-05T08:34:12Z</time>
      </trkpt>
      <trkpt lat="47.13044" lon="-1.75758">
        <ele>78</ele>
        <time>2022-06-05T08:34:14Z</time>
      </trkpt>
      <trkpt lat="47.13037" lon="-1.75769">
        <ele>79</ele>
        <time>2022-06-05T08:34:16Z</time>
      </trkpt>
      <trkpt lat="47.1303" lon="-1.75781">
        <ele>79</ele>
        <time>2022-06-05T08:34:18Z</time>
      </trkpt>
      <trkpt lat="47.13023" lon="-1.75792">
        <ele>79</ele>
        <time>2022-06-05T08:34:20Z</time>
      </trkpt>
      <trkpt lat="47.13016" lon="-1.75804">
        <ele>79</ele>
        <time>2022-06-05T08:34:22Z</time>
      </trkpt>
      <trkpt lat="47.13009" lon="-1.75816">
        <ele>79</ele>
        <time>2022-06-05T08:34:24Z</time>
      </trkpt>
      <trkpt lat="47.13006" lon="-1.75831">
        <ele>79</ele>
        <time>2022-06-05T08:34:26Z</time>
      </trkpt>
      <trkpt lat="47.13006" lon="-1.75846">
        <ele>79</ele>
        <time>2022-06-05T08:34:28Z</time>
      </trkpt>
      <trkpt lat="47.13008" lon="-1.75862">
        <ele>79</ele>
        <time>2022-06-05T08:34:30Z</time>
      </trkpt>
      <trkpt lat="47.13008" lon="-1.75878">
        <ele>79</ele>
        <time>2022-06-05T08:34:32Z</time>
      </trkpt>
      <trkpt lat="47.13007" lon="-1.75893">
        <ele>79</ele>
        <time>2022-06-05T08:34:34Z</time>
      </trkpt>
      <trkpt lat="47.13003" lon="-1.75907">
        <ele>79</ele>
        <time>2022-06-05T08:34:36Z</time>
      </trkpt>
      <trkpt lat="47.13" lon="-1.75921">
        <ele>79</ele>
        <time>2022-06-05T08:34:38Z</time>
      </trkpt>
      <trkpt lat="47.12997" lon="-1.75934">
        <ele>79</ele>
        <time>2022-06-05T08:34:40Z</time>
      </trkpt>
      <trkpt lat="47.12994" lon="-1.75948">
        <ele>79</ele>
        <time>2022-06-05T08:34:42Z</time>
      </trkpt>
      <trkpt lat="47.12991" lon="-1.75961">
        <ele>79</ele>
        <time>2022-06-05T08:34:44Z</time>
      </trkpt>
      <trkpt lat="47.12989" lon="-1.75976">
        <ele>79</ele>
        <time>2022-06-05T08:34:46Z</time>
      </trkpt>
      <trkpt lat="47.12987" lon="-1.7599">
        <ele>79</ele>
        <time>2022-06-05T08:34:48Z</time>
      </trkpt>
      <trkpt lat="47.12985" lon="-1.76005">
        <ele>79</ele>
        <time>2022-06-05T08:34:50Z</time>
      </trkpt>
      <trkpt lat="47.12983" lon="-1.7602">
        <ele>79</ele>
        <time>2022-06-05T08:34:52Z</time>
      </trkpt>
      <trkpt lat="47.12982" lon="-1.76035">
        <ele>79</ele>
        <time>2022-06-05T08:34:54Z</time>
      </trkpt>
      <trkpt lat="47.12982" lon="-1.7605">
        <ele>80</ele>
        <time>2022-06-05T08:34:56Z</time>
      </trkpt>
      <trkpt lat="47.12981" lon="-1.76064">
        <ele>80</ele>
        <time>2022-06-05T08:34:58Z</time>
      </trkpt>
      <trkpt lat="47.12982" lon="-1.76079">
        <ele>80</ele>
        <time>2022-06-05T08:35:00Z</time>
      </trkpt>
      <trkpt lat="47.12982" lon="-1.76094">
        <ele>80</ele>
        <time>2022-06-05T08:35:02Z</time>
      </trkpt>
      <trkpt lat="47.12984" lon="-1.76108">
        <ele>82</ele>
        <time>2022-06-05T08:35:04Z</time>
      </trkpt>
      <trkpt lat="47.12987" lon="-1.76122">
        <ele>82</ele>
        <time>2022-06-05T08:35:06Z</time>
      </trkpt>
      <trkpt lat="47.1299" lon="-1.76136">
        <ele>82</ele>
        <time>2022-06-05T08:35:08Z</time>
      </trkpt>
      <trkpt lat="47.12994" lon="-1.7615">
        <ele>82</ele>
        <time>2022-06-05T08:35:10Z</time>
      </trkpt>
      <trkpt lat="47.12997" lon="-1.76164">
        <ele>82</ele>
        <time>2022-06-05T08:35:12Z</time>
      </trkpt>
      <trkpt lat="47.13001" lon="-1.76178">
        <ele>82</ele>
        <time>2022-06-05T08:35:14Z</time>
      </trkpt>
      <trkpt lat="47.13005" lon="-1.76192">
        <ele>82</ele>
        <time>2022-06-05T08:35:16Z</time>
      </trkpt>
      <trkpt lat="47.13009" lon="-1.76207">
        <ele>83</ele>
        <time>2022-06-05T08:35:18Z</time>
      </trkpt>
      <trkpt lat="47.13013" lon="-1.76221">
        <ele>83</ele>
        <time>2022-06-05T08:35:20Z</time>
      </trkpt>
      <trkpt lat="47.13016" lon="-1.76236">
        <ele>83</ele>
        <time>2022-06-05T08:35:22Z</time>
      </trkpt>
      <trkpt lat="47.1302" lon="-1.7625">
        <ele>82</ele>
        <time>2022-06-05T08:35:24Z</time>
      </trkpt>
      <trkpt lat="47.13024" lon="-1.76265">
        <ele>82</ele>
        <time>2022-06-05T08:35:26Z</time>
      </trkpt>
      <trkpt lat="47.13027" lon="-1.76279">
        <ele>81</ele>
        <time>2022-06-05T08:35:28Z</time>
      </trkpt>
      <trkpt lat="47.13029" lon="-1.76294">
        <ele>81</ele>
        <time>2022-06-05T08:35:30Z</time>
      </trkpt>
      <trkpt lat="47.13032" lon="-1.76309">
        <ele>81</ele>
        <time>2022-06-05T08:35:32Z</time>
      </trkpt>
      <trkpt lat="47.13035" lon="-1.76325">
        <ele>80</ele>
        <time>2022-06-05T08:35:34Z</time>
      </trkpt>
      <trkpt lat="47.13039" lon="-1.76341">
        <ele>80</ele>
        <time>2022-06-05T08:35:36Z</time>
      </trkpt>
      <trkpt lat="47.13042" lon="-1.76356">
        <ele>80</ele>
        <time>2022-06-05T08:35:38Z</time>
      </trkpt>
      <trkpt lat="47.13045" lon="-1.76372">
        <ele>80</ele>
        <time>2022-06-05T08:35:40Z</time>
      </trkpt>
      <trkpt lat="47.13047" lon="-1.76389">
        <ele>80</ele>
        <time>2022-06-05T08:35:42Z</time>
      </trkpt>
      <trkpt lat="47.13049" lon="-1.76406">
        <ele>79</ele>
        <time>2022-06-05T08:35:44Z</time>
      </trkpt>
      <trkpt lat="47.1305" lon="-1.76423">
        <ele>79</ele>
        <time>2022-06-05T08:35:46Z</time>
      </trkpt>
      <trkpt lat="47.13052" lon="-1.76439">
        <ele>79</ele>
        <time>2022-06-05T08:35:48Z</time>
      </trkpt>
      <trkpt lat="47.13053" lon="-1.76455">
        <ele>80</ele>
        <time>2022-06-05T08:35:50Z</time>
      </trkpt>
      <trkpt lat="47.13054" lon="-1.76472">
        <ele>80</ele>
        <time>2022-06-05T08:35:52Z</time>
      </trkpt>
      <trkpt lat="47.13055" lon="-1.76489">
        <ele>79</ele>
        <time>2022-06-05T08:35:54Z</time>
      </trkpt>
      <trkpt lat="47.13056" lon="-1.76505">
        <ele>79</ele>
        <time>2022-06-05T08:35:56Z</time>
      </trkpt>
      <trkpt lat="47.13056" lon="-1.76523">
        <ele>80</ele>
        <time>2022-06-05T08:35:58Z</time>
      </trkpt>
      <trkpt lat="47.13057" lon="-1.76541">
        <ele>79</ele>
        <time>2022-06-05T08:36:00Z</time>
      </trkpt>
      <trkpt lat="47.13059" lon="-1.76559">
        <ele>79</ele>
        <time>2022-06-05T08:36:02Z</time>
      </trkpt>
      <trkpt lat="47.1306" lon="-1.76576">
        <ele>79</ele>
        <time>2022-06-05T08:36:04Z</time>
      </trkpt>
      <trkpt lat="47.13061" lon="-1.76593">
        <ele>79</ele>
        <time>2022-06-05T08:36:06Z</time>
      </trkpt>
      <trkpt lat="47.13062" lon="-1.76609">
        <ele>79</ele>
        <time>2022-06-05T08:36:08Z</time>
      </trkpt>
      <trkpt lat="47.13063" lon="-1.76625">
        <ele>79</ele>
        <time>2022-06-05T08:36:10Z</time>
      </trkpt>
      <trkpt lat="47.13065" lon="-1.7664">
        <ele>79</ele>
        <time>2022-06-05T08:36:12Z</time>
      </trkpt>
      <trkpt lat="47.13067" lon="-1.76656">
        <ele>79</ele>
        <time>2022-06-05T08:36:14Z</time>
      </trkpt>
      <trkpt lat="47.13069" lon="-1.76672">
        <ele>79</ele>
        <time>2022-06-05T08:36:16Z</time>
      </trkpt>
      <trkpt lat="47.13069" lon="-1.76688">
        <ele>79</ele>
        <time>2022-06-05T08:36:18Z</time>
      </trkpt>
      <trkpt lat="47.13067" lon="-1.76705">
        <ele>79</ele>
        <time>2022-06-05T08:36:20Z</time>
      </trkpt>
      <trkpt lat="47.13064" lon="-1.7672">
        <ele>79</ele>
        <time>2022-06-05T08:36:22Z</time>
      </trkpt>
      <trkpt lat="47.13063" lon="-1.76735">
        <ele>79</ele>
        <time>2022-06-05T08:36:24Z</time>
      </trkpt>
      <trkpt lat="47.13061" lon="-1.76751">
        <ele>79</ele>
        <time>2022-06-05T08:36:26Z</time>
      </trkpt>
      <trkpt lat="47.13059" lon="-1.76767">
        <ele>79</ele>
        <time>2022-06-05T08:36:28Z</time>
      </trkpt>
      <trkpt lat="47.13057" lon="-1.76782">
        <ele>79</ele>
        <time>2022-06-05T08:36:30Z</time>
      </trkpt>
      <trkpt lat="47.13054" lon="-1.76798">
        <ele>79</ele>
        <time>2022-06-05T08:36:32Z</time>
      </trkpt>
      <trkpt lat="47.13052" lon="-1.76815">
        <ele>79</ele>
        <time>2022-06-05T08:36:34Z</time>
      </trkpt>
      <trkpt lat="47.13051" lon="-1.76831">
        <ele>80</ele>
        <time>2022-06-05T08:36:36Z</time>
      </trkpt>
      <trkpt lat="47.13049" lon="-1.76848">
        <ele>80</ele>
        <time>2022-06-05T08:36:38Z</time>
      </trkpt>
      <trkpt lat="47.13047" lon="-1.76864">
        <ele>80</ele>
        <time>2022-06-05T08:36:40Z</time>
      </trkpt>
      <trkpt lat="47.13045" lon="-1.76881">
        <ele>80</ele>
        <time>2022-06-05T08:36:42Z</time>
      </trkpt>
      <trkpt lat="47.13043" lon="-1.76897">
        <ele>80</ele>
        <time>2022-06-05T08:36:44Z</time>
      </trkpt>
      <trkpt lat="47.13042" lon="-1.76912">
        <ele>80</ele>
        <time>2022-06-05T08:36:46Z</time>
      </trkpt>
      <trkpt lat="47.13041" lon="-1.76927">
        <ele>80</ele>
        <time>2022-06-05T08:36:48Z</time>
      </trkpt>
      <trkpt lat="47.1304" lon="-1.76942">
        <ele>81</ele>
        <time>2022-06-05T08:36:50Z</time>
      </trkpt>
      <trkpt lat="47.13039" lon="-1.76958">
        <ele>81</ele>
        <time>2022-06-05T08:36:52Z</time>
      </trkpt>
      <trkpt lat="47.13038" lon="-1.76974">
        <ele>81</ele>
        <time>2022-06-05T08:36:54Z</time>
      </trkpt>
      <trkpt lat="47.13037" lon="-1.76989">
        <ele>81</ele>
        <time>2022-06-05T08:36:56Z</time>
      </trkpt>
      <trkpt lat="47.13037" lon="-1.77004">
        <ele>81</ele>
        <time>2022-06-05T08:36:58Z</time>
      </trkpt>
      <trkpt lat="47.13036" lon="-1.77018">
        <ele>82</ele>
        <time>2022-06-05T08:37:00Z</time>
      </trkpt>
      <trkpt lat="47.13036" lon="-1.77032">
        <ele>82</ele>
        <time>2022-06-05T08:37:02Z</time>
      </trkpt>
      <trkpt lat="47.13034" lon="-1.77048">
        <ele>83</ele>
        <time>2022-06-05T08:37:04Z</time>
      </trkpt>
      <trkpt lat="47.13032" lon="-1.77063">
        <ele>83</ele>
        <time>2022-06-05T08:37:06Z</time>
      </trkpt>
      <trkpt lat="47.13031" lon="-1.77078">
        <ele>83</ele>
        <time>2022-06-05T08:37:08Z</time>
      </trkpt>
      <trkpt lat="47.13029" lon="-1.77094">
        <ele>83</ele>
        <time>2022-06-05T08:37:10Z</time>
      </trkpt>
      <trkpt lat="47.13027" lon="-1.77109">
        <ele>82</ele>
        <time>2022-06-05T08:37:12Z</time>
      </trkpt>
      <trkpt lat="47.13026" lon="-1.77124">
        <ele>83</ele>
        <time>2022-06-05T08:37:14Z</time>
      </trkpt>
      <trkpt lat="47.13022" lon="-1.77148">
        <ele>83</ele>
        <time>2022-06-05T08:37:17Z</time>
      </trkpt>
      <trkpt lat="47.13019" lon="-1.77163">
        <ele>83</ele>
        <time>2022-06-05T08:37:19Z</time>
      </trkpt>
      <trkpt lat="47.13016" lon="-1.77177">
        <ele>84</ele>
        <time>2022-06-05T08:37:21Z</time>
      </trkpt>
      <trkpt lat="47.13013" lon="-1.77192">
        <ele>84</ele>
        <time>2022-06-05T08:37:23Z</time>
      </trkpt>
      <trkpt lat="47.13009" lon="-1.77208">
        <ele>84</ele>
        <time>2022-06-05T08:37:25Z</time>
      </trkpt>
      <trkpt lat="47.13005" lon="-1.77225">
        <ele>84</ele>
        <time>2022-06-05T08:37:27Z</time>
      </trkpt>
      <trkpt lat="47.13001" lon="-1.77241">
        <ele>84</ele>
        <time>2022-06-05T08:37:29Z</time>
      </trkpt>
      <trkpt lat="47.12997" lon="-1.77256">
        <ele>84</ele>
        <time>2022-06-05T08:37:31Z</time>
      </trkpt>
      <trkpt lat="47.12992" lon="-1.77271">
        <ele>85</ele>
        <time>2022-06-05T08:37:33Z</time>
      </trkpt>
      <trkpt lat="47.12987" lon="-1.77287">
        <ele>85</ele>
        <time>2022-06-05T08:37:35Z</time>
      </trkpt>
      <trkpt lat="47.12982" lon="-1.77303">
        <ele>84</ele>
        <time>2022-06-05T08:37:37Z</time>
      </trkpt>
      <trkpt lat="47.12976" lon="-1.77318">
        <ele>84</ele>
        <time>2022-06-05T08:37:39Z</time>
      </trkpt>
      <trkpt lat="47.1297" lon="-1.77333">
        <ele>84</ele>
        <time>2022-06-05T08:37:41Z</time>
      </trkpt>
      <trkpt lat="47.12964" lon="-1.77349">
        <ele>85</ele>
        <time>2022-06-05T08:37:43Z</time>
      </trkpt>
      <trkpt lat="47.12958" lon="-1.77364">
        <ele>84</ele>
        <time>2022-06-05T08:37:45Z</time>
      </trkpt>
      <trkpt lat="47.12952" lon="-1.7738">
        <ele>84</ele>
        <time>2022-06-05T08:37:47Z</time>
      </trkpt>
      <trkpt lat="47.12945" lon="-1.77395">
        <ele>84</ele>
        <time>2022-06-05T08:37:49Z</time>
      </trkpt>
      <trkpt lat="47.12939" lon="-1.7741">
        <ele>84</ele>
        <time>2022-06-05T08:37:51Z</time>
      </trkpt>
      <trkpt lat="47.12932" lon="-1.77425">
        <ele>84</ele>
        <time>2022-06-05T08:37:53Z</time>
      </trkpt>
      <trkpt lat="47.12926" lon="-1.77441">
        <ele>84</ele>
        <time>2022-06-05T08:37:55Z</time>
      </trkpt>
      <trkpt lat="47.12921" lon="-1.77458">
        <ele>83</ele>
        <time>2022-06-05T08:37:57Z</time>
      </trkpt>
      <trkpt lat="47.12916" lon="-1.77475">
        <ele>83</ele>
        <time>2022-06-05T08:37:59Z</time>
      </trkpt>
      <trkpt lat="47.12911" lon="-1.7749">
        <ele>83</ele>
        <time>2022-06-05T08:38:01Z</time>
      </trkpt>
      <trkpt lat="47.12908" lon="-1.77507">
        <ele>83</ele>
        <time>2022-06-05T08:38:03Z</time>
      </trkpt>
      <trkpt lat="47.12904" lon="-1.77522">
        <ele>83</ele>
        <time>2022-06-05T08:38:05Z</time>
      </trkpt>
      <trkpt lat="47.129" lon="-1.77538">
        <ele>83</ele>
        <time>2022-06-05T08:38:07Z</time>
      </trkpt>
      <trkpt lat="47.12896" lon="-1.77553">
        <ele>83</ele>
        <time>2022-06-05T08:38:09Z</time>
      </trkpt>
      <trkpt lat="47.12892" lon="-1.77568">
        <ele>84</ele>
        <time>2022-06-05T08:38:11Z</time>
      </trkpt>
      <trkpt lat="47.12887" lon="-1.77583">
        <ele>84</ele>
        <time>2022-06-05T08:38:13Z</time>
      </trkpt>
      <trkpt lat="47.12883" lon="-1.77599">
        <ele>84</ele>
        <time>2022-06-05T08:38:15Z</time>
      </trkpt>
      <trkpt lat="47.12879" lon="-1.77614">
        <ele>85</ele>
        <time>2022-06-05T08:38:17Z</time>
      </trkpt>
      <trkpt lat="47.12875" lon="-1.77629">
        <ele>86</ele>
        <time>2022-06-05T08:38:19Z</time>
      </trkpt>
      <trkpt lat="47.12872" lon="-1.77646">
        <ele>86</ele>
        <time>2022-06-05T08:38:21Z</time>
      </trkpt>
      <trkpt lat="47.12868" lon="-1.7766">
        <ele>87</ele>
        <time>2022-06-05T08:38:23Z</time>
      </trkpt>
      <trkpt lat="47.12866" lon="-1.77674">
        <ele>87</ele>
        <time>2022-06-05T08:38:25Z</time>
      </trkpt>
      <trkpt lat="47.12862" lon="-1.77689">
        <ele>87</ele>
        <time>2022-06-05T08:38:27Z</time>
      </trkpt>
      <trkpt lat="47.12858" lon="-1.77706">
        <ele>90</ele>
        <time>2022-06-05T08:38:29Z</time>
      </trkpt>
      <trkpt lat="47.12855" lon="-1.77724">
        <ele>91</ele>
        <time>2022-06-05T08:38:31Z</time>
      </trkpt>
      <trkpt lat="47.1285" lon="-1.77741">
        <ele>91</ele>
        <time>2022-06-05T08:38:33Z</time>
      </trkpt>
      <trkpt lat="47.12845" lon="-1.77759">
        <ele>91</ele>
        <time>2022-06-05T08:38:35Z</time>
      </trkpt>
      <trkpt lat="47.12839" lon="-1.77776">
        <ele>90</ele>
        <time>2022-06-05T08:38:37Z</time>
      </trkpt>
      <trkpt lat="47.12832" lon="-1.77792">
        <ele>90</ele>
        <time>2022-06-05T08:38:39Z</time>
      </trkpt>
      <trkpt lat="47.12825" lon="-1.77809">
        <ele>89</ele>
        <time>2022-06-05T08:38:41Z</time>
      </trkpt>
      <trkpt lat="47.12819" lon="-1.77825">
        <ele>89</ele>
        <time>2022-06-05T08:38:43Z</time>
      </trkpt>
      <trkpt lat="47.12813" lon="-1.77841">
        <ele>88</ele>
        <time>2022-06-05T08:38:45Z</time>
      </trkpt>
      <trkpt lat="47.12807" lon="-1.77857">
        <ele>88</ele>
        <time>2022-06-05T08:38:47Z</time>
      </trkpt>
      <trkpt lat="47.12801" lon="-1.77873">
        <ele>87</ele>
        <time>2022-06-05T08:38:49Z</time>
      </trkpt>
      <trkpt lat="47.12795" lon="-1.77891">
        <ele>87</ele>
        <time>2022-06-05T08:38:51Z</time>
      </trkpt>
      <trkpt lat="47.1279" lon="-1.77908">
        <ele>86</ele>
        <time>2022-06-05T08:38:53Z</time>
      </trkpt>
      <trkpt lat="47.12785" lon="-1.77925">
        <ele>85</ele>
        <time>2022-06-05T08:38:55Z</time>
      </trkpt>
      <trkpt lat="47.1278" lon="-1.77942">
        <ele>84</ele>
        <time>2022-06-05T08:38:57Z</time>
      </trkpt>
      <trkpt lat="47.12775" lon="-1.77959">
        <ele>84</ele>
        <time>2022-06-05T08:38:59Z</time>
      </trkpt>
      <trkpt lat="47.1277" lon="-1.77976">
        <ele>84</ele>
        <time>2022-06-05T08:39:01Z</time>
      </trkpt>
      <trkpt lat="47.12765" lon="-1.77993">
        <ele>84</ele>
        <time>2022-06-05T08:39:03Z</time>
      </trkpt>
      <trkpt lat="47.12761" lon="-1.7801">
        <ele>83</ele>
        <time>2022-06-05T08:39:05Z</time>
      </trkpt>
      <trkpt lat="47.12755" lon="-1.78026">
        <ele>83</ele>
        <time>2022-06-05T08:39:07Z</time>
      </trkpt>
      <trkpt lat="47.1275" lon="-1.78042">
        <ele>83</ele>
        <time>2022-06-05T08:39:09Z</time>
      </trkpt>
      <trkpt lat="47.12743" lon="-1.78055">
        <ele>83</ele>
        <time>2022-06-05T08:39:11Z</time>
      </trkpt>
      <trkpt lat="47.12734" lon="-1.78067">
        <ele>83</ele>
        <time>2022-06-05T08:39:13Z</time>
      </trkpt>
      <trkpt lat="47.12726" lon="-1.7808">
        <ele>83</ele>
        <time>2022-06-05T08:39:15Z</time>
      </trkpt>
      <trkpt lat="47.12716" lon="-1.78093">
        <ele>83</ele>
        <time>2022-06-05T08:39:17Z</time>
      </trkpt>
      <trkpt lat="47.12707" lon="-1.78107">
        <ele>83</ele>
        <time>2022-06-05T08:39:19Z</time>
      </trkpt>
      <trkpt lat="47.12699" lon="-1.78119">
        <ele>83</ele>
        <time>2022-06-05T08:39:21Z</time>
      </trkpt>
      <trkpt lat="47.1269" lon="-1.78132">
        <ele>83</ele>
        <time>2022-06-05T08:39:23Z</time>
      </trkpt>
      <trkpt lat="47.12681" lon="-1.78144">
        <ele>83</ele>
        <time>2022-06-05T08:39:25Z</time>
      </trkpt>
      <trkpt lat="47.12672" lon="-1.78156">
        <ele>84</ele>
        <time>2022-06-05T08:39:27Z</time>
      </trkpt>
      <trkpt lat="47.12664" lon="-1.78168">
        <ele>84</ele>
        <time>2022-06-05T08:39:29Z</time>
      </trkpt>
      <trkpt lat="47.12654" lon="-1.78181">
        <ele>84</ele>
        <time>2022-06-05T08:39:31Z</time>
      </trkpt>
      <trkpt lat="47.12646" lon="-1.78194">
        <ele>83</ele>
        <time>2022-06-05T08:39:33Z</time>
      </trkpt>
      <trkpt lat="47.12637" lon="-1.78207">
        <ele>83</ele>
        <time>2022-06-05T08:39:35Z</time>
      </trkpt>
      <trkpt lat="47.12629" lon="-1.78221">
        <ele>83</ele>
        <time>2022-06-05T08:39:37Z</time>
      </trkpt>
      <trkpt lat="47.12623" lon="-1.78237">
        <ele>84</ele>
        <time>2022-06-05T08:39:39Z</time>
      </trkpt>
      <trkpt lat="47.12618" lon="-1.78253">
        <ele>84</ele>
        <time>2022-06-05T08:39:41Z</time>
      </trkpt>
      <trkpt lat="47.12614" lon="-1.7827">
        <ele>84</ele>
        <time>2022-06-05T08:39:43Z</time>
      </trkpt>
      <trkpt lat="47.1261" lon="-1.78287">
        <ele>83</ele>
        <time>2022-06-05T08:39:45Z</time>
      </trkpt>
      <trkpt lat="47.12606" lon="-1.78304">
        <ele>83</ele>
        <time>2022-06-05T08:39:47Z</time>
      </trkpt>
      <trkpt lat="47.12602" lon="-1.7832">
        <ele>83</ele>
        <time>2022-06-05T08:39:49Z</time>
      </trkpt>
      <trkpt lat="47.12599" lon="-1.78337">
        <ele>83</ele>
        <time>2022-06-05T08:39:51Z</time>
      </trkpt>
      <trkpt lat="47.12594" lon="-1.78354">
        <ele>83</ele>
        <time>2022-06-05T08:39:53Z</time>
      </trkpt>
      <trkpt lat="47.1259" lon="-1.78372">
        <ele>82</ele>
        <time>2022-06-05T08:39:55Z</time>
      </trkpt>
      <trkpt lat="47.12586" lon="-1.78388">
        <ele>82</ele>
        <time>2022-06-05T08:39:57Z</time>
      </trkpt>
      <trkpt lat="47.12582" lon="-1.78405">
        <ele>82</ele>
        <time>2022-06-05T08:39:59Z</time>
      </trkpt>
      <trkpt lat="47.12578" lon="-1.78422">
        <ele>82</ele>
        <time>2022-06-05T08:40:01Z</time>
      </trkpt>
      <trkpt lat="47.12574" lon="-1.7844">
        <ele>82</ele>
        <time>2022-06-05T08:40:03Z</time>
      </trkpt>
      <trkpt lat="47.12569" lon="-1.78457">
        <ele>81</ele>
        <time>2022-06-05T08:40:05Z</time>
      </trkpt>
      <trkpt lat="47.12566" lon="-1.78475">
        <ele>81</ele>
        <time>2022-06-05T08:40:07Z</time>
      </trkpt>
      <trkpt lat="47.12561" lon="-1.78491">
        <ele>81</ele>
        <time>2022-06-05T08:40:09Z</time>
      </trkpt>
      <trkpt lat="47.12557" lon="-1.78509">
        <ele>80</ele>
        <time>2022-06-05T08:40:11Z</time>
      </trkpt>
      <trkpt lat="47.12553" lon="-1.78526">
        <ele>80</ele>
        <time>2022-06-05T08:40:13Z</time>
      </trkpt>
      <trkpt lat="47.12549" lon="-1.78543">
        <ele>80</ele>
        <time>2022-06-05T08:40:15Z</time>
      </trkpt>
      <trkpt lat="47.12545" lon="-1.78559">
        <ele>80</ele>
        <time>2022-06-05T08:40:17Z</time>
      </trkpt>
      <trkpt lat="47.12541" lon="-1.78575">
        <ele>80</ele>
        <time>2022-06-05T08:40:19Z</time>
      </trkpt>
      <trkpt lat="47.12537" lon="-1.78592">
        <ele>80</ele>
        <time>2022-06-05T08:40:21Z</time>
      </trkpt>
      <trkpt lat="47.12532" lon="-1.78609">
        <ele>80</ele>
        <time>2022-06-05T08:40:23Z</time>
      </trkpt>
      <trkpt lat="47.12528" lon="-1.78625">
        <ele>80</ele>
        <time>2022-06-05T08:40:25Z</time>
      </trkpt>
      <trkpt lat="47.12523" lon="-1.78642">
        <ele>80</ele>
        <time>2022-06-05T08:40:27Z</time>
      </trkpt>
      <trkpt lat="47.12517" lon="-1.78657">
        <ele>80</ele>
        <time>2022-06-05T08:40:29Z</time>
      </trkpt>
      <trkpt lat="47.12511" lon="-1.78673">
        <ele>80</ele>
        <time>2022-06-05T08:40:31Z</time>
      </trkpt>
      <trkpt lat="47.12504" lon="-1.7869">
        <ele>80</ele>
        <time>2022-06-05T08:40:33Z</time>
      </trkpt>
      <trkpt lat="47.12499" lon="-1.78707">
        <ele>79</ele>
        <time>2022-06-05T08:40:35Z</time>
      </trkpt>
      <trkpt lat="47.12494" lon="-1.78726">
        <ele>79</ele>
        <time>2022-06-05T08:40:37Z</time>
      </trkpt>
      <trkpt lat="47.12489" lon="-1.78743">
        <ele>79</ele>
        <time>2022-06-05T08:40:39Z</time>
      </trkpt>
      <trkpt lat="47.12485" lon="-1.78762">
        <ele>79</ele>
        <time>2022-06-05T08:40:41Z</time>
      </trkpt>
      <trkpt lat="47.12481" lon="-1.78779">
        <ele>80</ele>
        <time>2022-06-05T08:40:43Z</time>
      </trkpt>
      <trkpt lat="47.12476" lon="-1.78797">
        <ele>80</ele>
        <time>2022-06-05T08:40:45Z</time>
      </trkpt>
      <trkpt lat="47.12473" lon="-1.78816">
        <ele>79</ele>
        <time>2022-06-05T08:40:47Z</time>
      </trkpt>
      <trkpt lat="47.1247" lon="-1.78834">
        <ele>79</ele>
        <time>2022-06-05T08:40:49Z</time>
      </trkpt>
      <trkpt lat="47.12468" lon="-1.78854">
        <ele>79</ele>
        <time>2022-06-05T08:40:51Z</time>
      </trkpt>
      <trkpt lat="47.12466" lon="-1.78874">
        <ele>79</ele>
        <time>2022-06-05T08:40:53Z</time>
      </trkpt>
      <trkpt lat="47.12465" lon="-1.78893">
        <ele>79</ele>
        <time>2022-06-05T08:40:55Z</time>
      </trkpt>
      <trkpt lat="47.12463" lon="-1.78912">
        <ele>79</ele>
        <time>2022-06-05T08:40:57Z</time>
      </trkpt>
      <trkpt lat="47.1246" lon="-1.7893">
        <ele>79</ele>
        <time>2022-06-05T08:40:59Z</time>
      </trkpt>
      <trkpt lat="47.12456" lon="-1.78949">
        <ele>78</ele>
        <time>2022-06-05T08:41:01Z</time>
      </trkpt>
      <trkpt lat="47.12452" lon="-1.78968">
        <ele>78</ele>
        <time>2022-06-05T08:41:03Z</time>
      </trkpt>
      <trkpt lat="47.12447" lon="-1.78986">
        <ele>78</ele>
        <time>2022-06-05T08:41:05Z</time>
      </trkpt>
      <trkpt lat="47.12442" lon="-1.79004">
        <ele>78</ele>
        <time>2022-06-05T08:41:07Z</time>
      </trkpt>
      <trkpt lat="47.12437" lon="-1.79021">
        <ele>78</ele>
        <time>2022-06-05T08:41:09Z</time>
      </trkpt>
      <trkpt lat="47.12433" lon="-1.79038">
        <ele>79</ele>
        <time>2022-06-05T08:41:11Z</time>
      </trkpt>
      <trkpt lat="47.12429" lon="-1.79056">
        <ele>79</ele>
        <time>2022-06-05T08:41:13Z</time>
      </trkpt>
      <trkpt lat="47.12425" lon="-1.79074">
        <ele>80</ele>
        <time>2022-06-05T08:41:15Z</time>
      </trkpt>
      <trkpt lat="47.12422" lon="-1.79093">
        <ele>80</ele>
        <time>2022-06-05T08:41:17Z</time>
      </trkpt>
      <trkpt lat="47.12419" lon="-1.79111">
        <ele>80</ele>
        <time>2022-06-05T08:41:19Z</time>
      </trkpt>
      <trkpt lat="47.12417" lon="-1.79129">
        <ele>80</ele>
        <time>2022-06-05T08:41:21Z</time>
      </trkpt>
      <trkpt lat="47.12417" lon="-1.79147">
        <ele>80</ele>
        <time>2022-06-05T08:41:23Z</time>
      </trkpt>
      <trkpt lat="47.12418" lon="-1.79166">
        <ele>80</ele>
        <time>2022-06-05T08:41:25Z</time>
      </trkpt>
      <trkpt lat="47.12419" lon="-1.79184">
        <ele>80</ele>
        <time>2022-06-05T08:41:27Z</time>
      </trkpt>
      <trkpt lat="47.12421" lon="-1.79202">
        <ele>80</ele>
        <time>2022-06-05T08:41:29Z</time>
      </trkpt>
      <trkpt lat="47.12423" lon="-1.79221">
        <ele>79</ele>
        <time>2022-06-05T08:41:31Z</time>
      </trkpt>
      <trkpt lat="47.12423" lon="-1.79239">
        <ele>79</ele>
        <time>2022-06-05T08:41:33Z</time>
      </trkpt>
      <trkpt lat="47.12422" lon="-1.79257">
        <ele>80</ele>
        <time>2022-06-05T08:41:35Z</time>
      </trkpt>
      <trkpt lat="47.12418" lon="-1.79274">
        <ele>80</ele>
        <time>2022-06-05T08:41:37Z</time>
      </trkpt>
      <trkpt lat="47.12412" lon="-1.7929">
        <ele>80</ele>
        <time>2022-06-05T08:41:39Z</time>
      </trkpt>
      <trkpt lat="47.12405" lon="-1.79307">
        <ele>80</ele>
        <time>2022-06-05T08:41:41Z</time>
      </trkpt>
      <trkpt lat="47.12397" lon="-1.79323">
        <ele>79</ele>
        <time>2022-06-05T08:41:43Z</time>
      </trkpt>
      <trkpt lat="47.12391" lon="-1.79338">
        <ele>80</ele>
        <time>2022-06-05T08:41:45Z</time>
      </trkpt>
      <trkpt lat="47.12383" lon="-1.79353">
        <ele>80</ele>
        <time>2022-06-05T08:41:47Z</time>
      </trkpt>
      <trkpt lat="47.12377" lon="-1.79368">
        <ele>80</ele>
        <time>2022-06-05T08:41:49Z</time>
      </trkpt>
      <trkpt lat="47.1237" lon="-1.79383">
        <ele>80</ele>
        <time>2022-06-05T08:41:51Z</time>
      </trkpt>
      <trkpt lat="47.12364" lon="-1.79398">
        <ele>80</ele>
        <time>2022-06-05T08:41:53Z</time>
      </trkpt>
      <trkpt lat="47.12359" lon="-1.79413">
        <ele>80</ele>
        <time>2022-06-05T08:41:55Z</time>
      </trkpt>
      <trkpt lat="47.12354" lon="-1.7943">
        <ele>79</ele>
        <time>2022-06-05T08:41:57Z</time>
      </trkpt>
      <trkpt lat="47.1235" lon="-1.79449">
        <ele>79</ele>
        <time>2022-06-05T08:41:59Z</time>
      </trkpt>
      <trkpt lat="47.12347" lon="-1.79467">
        <ele>79</ele>
        <time>2022-06-05T08:42:01Z</time>
      </trkpt>
      <trkpt lat="47.12344" lon="-1.79484">
        <ele>79</ele>
        <time>2022-06-05T08:42:03Z</time>
      </trkpt>
      <trkpt lat="47.12341" lon="-1.79502">
        <ele>79</ele>
        <time>2022-06-05T08:42:05Z</time>
      </trkpt>
      <trkpt lat="47.12338" lon="-1.7952">
        <ele>79</ele>
        <time>2022-06-05T08:42:07Z</time>
      </trkpt>
      <trkpt lat="47.12336" lon="-1.79537">
        <ele>80</ele>
        <time>2022-06-05T08:42:09Z</time>
      </trkpt>
      <trkpt lat="47.12334" lon="-1.79555">
        <ele>80</ele>
        <time>2022-06-05T08:42:11Z</time>
      </trkpt>
      <trkpt lat="47.1233" lon="-1.79572">
        <ele>80</ele>
        <time>2022-06-05T08:42:13Z</time>
      </trkpt>
      <trkpt lat="47.12323" lon="-1.79586">
        <ele>80</ele>
        <time>2022-06-05T08:42:15Z</time>
      </trkpt>
      <trkpt lat="47.12311" lon="-1.79594">
        <ele>80</ele>
        <time>2022-06-05T08:42:17Z</time>
      </trkpt>
      <trkpt lat="47.12293" lon="-1.79596">
        <ele>80</ele>
        <time>2022-06-05T08:42:20Z</time>
      </trkpt>
      <trkpt lat="47.1228" lon="-1.79596">
        <ele>81</ele>
        <time>2022-06-05T08:42:22Z</time>
      </trkpt>
      <trkpt lat="47.12267" lon="-1.79596">
        <ele>81</ele>
        <time>2022-06-05T08:42:24Z</time>
      </trkpt>
      <trkpt lat="47.12254" lon="-1.79595">
        <ele>81</ele>
        <time>2022-06-05T08:42:26Z</time>
      </trkpt>
      <trkpt lat="47.12242" lon="-1.79595">
        <ele>81</ele>
        <time>2022-06-05T08:42:28Z</time>
      </trkpt>
      <trkpt lat="47.12229" lon="-1.79595">
        <ele>80</ele>
        <time>2022-06-05T08:42:30Z</time>
      </trkpt>
      <trkpt lat="47.12217" lon="-1.79595">
        <ele>80</ele>
        <time>2022-06-05T08:42:32Z</time>
      </trkpt>
      <trkpt lat="47.12204" lon="-1.79595">
        <ele>80</ele>
        <time>2022-06-05T08:42:34Z</time>
      </trkpt>
      <trkpt lat="47.12192" lon="-1.79595">
        <ele>80</ele>
        <time>2022-06-05T08:42:36Z</time>
      </trkpt>
      <trkpt lat="47.12179" lon="-1.79595">
        <ele>80</ele>
        <time>2022-06-05T08:42:38Z</time>
      </trkpt>
      <trkpt lat="47.12166" lon="-1.79594">
        <ele>80</ele>
        <time>2022-06-05T08:42:40Z</time>
      </trkpt>
      <trkpt lat="47.12154" lon="-1.79594">
        <ele>79</ele>
        <time>2022-06-05T08:42:42Z</time>
      </trkpt>
      <trkpt lat="47.1214" lon="-1.79595">
        <ele>79</ele>
        <time>2022-06-05T08:42:44Z</time>
      </trkpt>
      <trkpt lat="47.12128" lon="-1.79596">
        <ele>79</ele>
        <time>2022-06-05T08:42:46Z</time>
      </trkpt>
      <trkpt lat="47.12115" lon="-1.79597">
        <ele>78</ele>
        <time>2022-06-05T08:42:48Z</time>
      </trkpt>
      <trkpt lat="47.12101" lon="-1.79599">
        <ele>78</ele>
        <time>2022-06-05T08:42:50Z</time>
      </trkpt>
      <trkpt lat="47.12089" lon="-1.79604">
        <ele>77</ele>
        <time>2022-06-05T08:42:52Z</time>
      </trkpt>
      <trkpt lat="47.12077" lon="-1.79614">
        <ele>76</ele>
        <time>2022-06-05T08:42:54Z</time>
      </trkpt>
      <trkpt lat="47.12067" lon="-1.79625">
        <ele>76</ele>
        <time>2022-06-05T08:42:56Z</time>
      </trkpt>
      <trkpt lat="47.12056" lon="-1.79636">
        <ele>76</ele>
        <time>2022-06-05T08:42:58Z</time>
      </trkpt>
      <trkpt lat="47.12045" lon="-1.79647">
        <ele>76</ele>
        <time>2022-06-05T08:43:00Z</time>
      </trkpt>
      <trkpt lat="47.12034" lon="-1.79658">
        <ele>76</ele>
        <time>2022-06-05T08:43:02Z</time>
      </trkpt>
      <trkpt lat="47.12024" lon="-1.79669">
        <ele>75</ele>
        <time>2022-06-05T08:43:04Z</time>
      </trkpt>
      <trkpt lat="47.12013" lon="-1.79679">
        <ele>75</ele>
        <time>2022-06-05T08:43:06Z</time>
      </trkpt>
      <trkpt lat="47.12002" lon="-1.79689">
        <ele>75</ele>
        <time>2022-06-05T08:43:08Z</time>
      </trkpt>
      <trkpt lat="47.11992" lon="-1.797">
        <ele>75</ele>
        <time>2022-06-05T08:43:10Z</time>
      </trkpt>
      <trkpt lat="47.11982" lon="-1.7971">
        <ele>74</ele>
        <time>2022-06-05T08:43:12Z</time>
      </trkpt>
      <trkpt lat="47.11971" lon="-1.79721">
        <ele>74</ele>
        <time>2022-06-05T08:43:14Z</time>
      </trkpt>
      <trkpt lat="47.11962" lon="-1.79733">
        <ele>74</ele>
        <time>2022-06-05T08:43:16Z</time>
      </trkpt>
      <trkpt lat="47.11952" lon="-1.79745">
        <ele>74</ele>
        <time>2022-06-05T08:43:18Z</time>
      </trkpt>
      <trkpt lat="47.11942" lon="-1.79757">
        <ele>74</ele>
        <time>2022-06-05T08:43:20Z</time>
      </trkpt>
      <trkpt lat="47.11933" lon="-1.79769">
        <ele>74</ele>
        <time>2022-06-05T08:43:22Z</time>
      </trkpt>
      <trkpt lat="47.11923" lon="-1.79781">
        <ele>74</ele>
        <time>2022-06-05T08:43:24Z</time>
      </trkpt>
      <trkpt lat="47.11914" lon="-1.79794">
        <ele>74</ele>
        <time>2022-06-05T08:43:26Z</time>
      </trkpt>
      <trkpt lat="47.11904" lon="-1.79806">
        <ele>74</ele>
        <time>2022-06-05T08:43:28Z</time>
      </trkpt>
      <trkpt lat="47.11894" lon="-1.79817">
        <ele>73</ele>
        <time>2022-06-05T08:43:30Z</time>
      </trkpt>
      <trkpt lat="47.11885" lon="-1.79829">
        <ele>74</ele>
        <time>2022-06-05T08:43:32Z</time>
      </trkpt>
      <trkpt lat="47.11874" lon="-1.7984">
        <ele>73</ele>
        <time>2022-06-05T08:43:34Z</time>
      </trkpt>
      <trkpt lat="47.11865" lon="-1.79852">
        <ele>74</ele>
        <time>2022-06-05T08:43:36Z</time>
      </trkpt>
      <trkpt lat="47.11855" lon="-1.79863">
        <ele>73</ele>
        <time>2022-06-05T08:43:38Z</time>
      </trkpt>
      <trkpt lat="47.11845" lon="-1.79874">
        <ele>73</ele>
        <time>2022-06-05T08:43:40Z</time>
      </trkpt>
      <trkpt lat="47.11835" lon="-1.79885">
        <ele>73</ele>
        <time>2022-06-05T08:43:42Z</time>
      </trkpt>
      <trkpt lat="47.11825" lon="-1.79896">
        <ele>73</ele>
        <time>2022-06-05T08:43:44Z</time>
      </trkpt>
      <trkpt lat="47.11815" lon="-1.79906">
        <ele>72</ele>
        <time>2022-06-05T08:43:46Z</time>
      </trkpt>
      <trkpt lat="47.11805" lon="-1.79917">
        <ele>73</ele>
        <time>2022-06-05T08:43:48Z</time>
      </trkpt>
      <trkpt lat="47.11795" lon="-1.79928">
        <ele>72</ele>
        <time>2022-06-05T08:43:50Z</time>
      </trkpt>
      <trkpt lat="47.11786" lon="-1.79938">
        <ele>72</ele>
        <time>2022-06-05T08:43:52Z</time>
      </trkpt>
      <trkpt lat="47.11778" lon="-1.79947">
        <ele>73</ele>
        <time>2022-06-05T08:43:54Z</time>
      </trkpt>
      <trkpt lat="47.1177" lon="-1.79955">
        <ele>73</ele>
        <time>2022-06-05T08:43:56Z</time>
      </trkpt>
      <trkpt lat="47.11762" lon="-1.7997">
        <ele>73</ele>
        <time>2022-06-05T08:43:59Z</time>
      </trkpt>
      <trkpt lat="47.11754" lon="-1.79976">
        <ele>73</ele>
        <time>2022-06-05T08:44:01Z</time>
      </trkpt>
      <trkpt lat="47.11741" lon="-1.79977">
        <ele>73</ele>
        <time>2022-06-05T08:44:03Z</time>
      </trkpt>
      <trkpt lat="47.11728" lon="-1.79975">
        <ele>74</ele>
        <time>2022-06-05T08:44:05Z</time>
      </trkpt>
      <trkpt lat="47.11716" lon="-1.79973">
        <ele>74</ele>
        <time>2022-06-05T08:44:07Z</time>
      </trkpt>
      <trkpt lat="47.11703" lon="-1.79972">
        <ele>75</ele>
        <time>2022-06-05T08:44:09Z</time>
      </trkpt>
      <trkpt lat="47.11691" lon="-1.7997">
        <ele>75</ele>
        <time>2022-06-05T08:44:11Z</time>
      </trkpt>
      <trkpt lat="47.11679" lon="-1.79968">
        <ele>75</ele>
        <time>2022-06-05T08:44:13Z</time>
      </trkpt>
      <trkpt lat="47.11666" lon="-1.79967">
        <ele>75</ele>
        <time>2022-06-05T08:44:15Z</time>
      </trkpt>
      <trkpt lat="47.11654" lon="-1.79965">
        <ele>75</ele>
        <time>2022-06-05T08:44:17Z</time>
      </trkpt>
      <trkpt lat="47.11642" lon="-1.79963">
        <ele>76</ele>
        <time>2022-06-05T08:44:19Z</time>
      </trkpt>
      <trkpt lat="47.11629" lon="-1.79961">
        <ele>76</ele>
        <time>2022-06-05T08:44:21Z</time>
      </trkpt>
      <trkpt lat="47.11616" lon="-1.79959">
        <ele>76</ele>
        <time>2022-06-05T08:44:23Z</time>
      </trkpt>
      <trkpt lat="47.11604" lon="-1.79957">
        <ele>76</ele>
        <time>2022-06-05T08:44:25Z</time>
      </trkpt>
      <trkpt lat="47.11591" lon="-1.79954">
        <ele>76</ele>
        <time>2022-06-05T08:44:27Z</time>
      </trkpt>
      <trkpt lat="47.11579" lon="-1.79954">
        <ele>76</ele>
        <time>2022-06-05T08:44:29Z</time>
      </trkpt>
      <trkpt lat="47.11566" lon="-1.79954">
        <ele>75</ele>
        <time>2022-06-05T08:44:31Z</time>
      </trkpt>
      <trkpt lat="47.11553" lon="-1.79958">
        <ele>75</ele>
        <time>2022-06-05T08:44:33Z</time>
      </trkpt>
      <trkpt lat="47.11541" lon="-1.79965">
        <ele>75</ele>
        <time>2022-06-05T08:44:35Z</time>
      </trkpt>
      <trkpt lat="47.11529" lon="-1.79975">
        <ele>74</ele>
        <time>2022-06-05T08:44:37Z</time>
      </trkpt>
      <trkpt lat="47.11519" lon="-1.79985">
        <ele>73</ele>
        <time>2022-06-05T08:44:39Z</time>
      </trkpt>
      <trkpt lat="47.11509" lon="-1.79998">
        <ele>73</ele>
        <time>2022-06-05T08:44:41Z</time>
      </trkpt>
      <trkpt lat="47.11499" lon="-1.80011">
        <ele>73</ele>
        <time>2022-06-05T08:44:43Z</time>
      </trkpt>
      <trkpt lat="47.1149" lon="-1.80023">
        <ele>72</ele>
        <time>2022-06-05T08:44:45Z</time>
      </trkpt>
      <trkpt lat="47.1148" lon="-1.80035">
        <ele>72</ele>
        <time>2022-06-05T08:44:47Z</time>
      </trkpt>
      <trkpt lat="47.11471" lon="-1.80047">
        <ele>72</ele>
        <time>2022-06-05T08:44:49Z</time>
      </trkpt>
      <trkpt lat="47.11462" lon="-1.80059">
        <ele>71</ele>
        <time>2022-06-05T08:44:51Z</time>
      </trkpt>
      <trkpt lat="47.11452" lon="-1.80072">
        <ele>71</ele>
        <time>2022-06-05T08:44:53Z</time>
      </trkpt>
      <trkpt lat="47.11442" lon="-1.80084">
        <ele>71</ele>
        <time>2022-06-05T08:44:55Z</time>
      </trkpt>
      <trkpt lat="47.11432" lon="-1.80097">
        <ele>70</ele>
        <time>2022-06-05T08:44:57Z</time>
      </trkpt>
      <trkpt lat="47.11423" lon="-1.8011">
        <ele>70</ele>
        <time>2022-06-05T08:44:59Z</time>
      </trkpt>
      <trkpt lat="47.11413" lon="-1.80124">
        <ele>70</ele>
        <time>2022-06-05T08:45:01Z</time>
      </trkpt>
      <trkpt lat="47.11403" lon="-1.80137">
        <ele>69</ele>
        <time>2022-06-05T08:45:03Z</time>
      </trkpt>
      <trkpt lat="47.11393" lon="-1.80149">
        <ele>69</ele>
        <time>2022-06-05T08:45:05Z</time>
      </trkpt>
      <trkpt lat="47.11385" lon="-1.80159">
        <ele>69</ele>
        <time>2022-06-05T08:45:08Z</time>
      </trkpt>
      <trkpt lat="47.11382" lon="-1.80155">
        <ele>68</ele>
        <time>2022-06-05T08:47:09Z</time>
      </trkpt>
      <trkpt lat="47.11378" lon="-1.80169">
        <ele>70</ele>
        <time>2022-06-05T08:48:56Z</time>
      </trkpt>
      <trkpt lat="47.11371" lon="-1.80179">
        <ele>69</ele>
        <time>2022-06-05T08:48:58Z</time>
      </trkpt>
      <trkpt lat="47.11363" lon="-1.8019">
        <ele>69</ele>
        <time>2022-06-05T08:49:00Z</time>
      </trkpt>
      <trkpt lat="47.11354" lon="-1.80201">
        <ele>68</ele>
        <time>2022-06-05T08:49:02Z</time>
      </trkpt>
      <trkpt lat="47.11345" lon="-1.80214">
        <ele>68</ele>
        <time>2022-06-05T08:49:04Z</time>
      </trkpt>
      <trkpt lat="47.11335" lon="-1.80228">
        <ele>68</ele>
        <time>2022-06-05T08:49:06Z</time>
      </trkpt>
      <trkpt lat="47.11326" lon="-1.80242">
        <ele>67</ele>
        <time>2022-06-05T08:49:08Z</time>
      </trkpt>
      <trkpt lat="47.11317" lon="-1.80257">
        <ele>67</ele>
        <time>2022-06-05T08:49:10Z</time>
      </trkpt>
      <trkpt lat="47.11307" lon="-1.80271">
        <ele>67</ele>
        <time>2022-06-05T08:49:12Z</time>
      </trkpt>
      <trkpt lat="47.11297" lon="-1.80284">
        <ele>67</ele>
        <time>2022-06-05T08:49:14Z</time>
      </trkpt>
      <trkpt lat="47.11287" lon="-1.80297">
        <ele>66</ele>
        <time>2022-06-05T08:49:16Z</time>
      </trkpt>
      <trkpt lat="47.11277" lon="-1.80311">
        <ele>65</ele>
        <time>2022-06-05T08:49:18Z</time>
      </trkpt>
      <trkpt lat="47.11267" lon="-1.80325">
        <ele>65</ele>
        <time>2022-06-05T08:49:20Z</time>
      </trkpt>
      <trkpt lat="47.11257" lon="-1.80339">
        <ele>65</ele>
        <time>2022-06-05T08:49:22Z</time>
      </trkpt>
      <trkpt lat="47.11247" lon="-1.80352">
        <ele>65</ele>
        <time>2022-06-05T08:49:24Z</time>
      </trkpt>
      <trkpt lat="47.11237" lon="-1.80364">
        <ele>65</ele>
        <time>2022-06-05T08:49:26Z</time>
      </trkpt>
      <trkpt lat="47.11227" lon="-1.80377">
        <ele>65</ele>
        <time>2022-06-05T08:49:28Z</time>
      </trkpt>
      <trkpt lat="47.11217" lon="-1.80389">
        <ele>65</ele>
        <time>2022-06-05T08:49:30Z</time>
      </trkpt>
      <trkpt lat="47.11207" lon="-1.80401">
        <ele>65</ele>
        <time>2022-06-05T08:49:32Z</time>
      </trkpt>
      <trkpt lat="47.11196" lon="-1.80412">
        <ele>65</ele>
        <time>2022-06-05T08:49:34Z</time>
      </trkpt>
      <trkpt lat="47.11185" lon="-1.80422">
        <ele>65</ele>
        <time>2022-06-05T08:49:36Z</time>
      </trkpt>
      <trkpt lat="47.11173" lon="-1.80431">
        <ele>65</ele>
        <time>2022-06-05T08:49:38Z</time>
      </trkpt>
      <trkpt lat="47.11161" lon="-1.8044">
        <ele>65</ele>
        <time>2022-06-05T08:49:40Z</time>
      </trkpt>
      <trkpt lat="47.11149" lon="-1.80448">
        <ele>66</ele>
        <time>2022-06-05T08:49:42Z</time>
      </trkpt>
      <trkpt lat="47.11136" lon="-1.80456">
        <ele>66</ele>
        <time>2022-06-05T08:49:44Z</time>
      </trkpt>
      <trkpt lat="47.11124" lon="-1.80464">
        <ele>66</ele>
        <time>2022-06-05T08:49:46Z</time>
      </trkpt>
      <trkpt lat="47.11112" lon="-1.80473">
        <ele>66</ele>
        <time>2022-06-05T08:49:48Z</time>
      </trkpt>
      <trkpt lat="47.11101" lon="-1.80481">
        <ele>66</ele>
        <time>2022-06-05T08:49:50Z</time>
      </trkpt>
      <trkpt lat="47.11089" lon="-1.80489">
        <ele>66</ele>
        <time>2022-06-05T08:49:52Z</time>
      </trkpt>
      <trkpt lat="47.11077" lon="-1.80497">
        <ele>67</ele>
        <time>2022-06-05T08:49:54Z</time>
      </trkpt>
      <trkpt lat="47.11065" lon="-1.80504">
        <ele>67</ele>
        <time>2022-06-05T08:49:56Z</time>
      </trkpt>
      <trkpt lat="47.11054" lon="-1.80512">
        <ele>67</ele>
        <time>2022-06-05T08:49:58Z</time>
      </trkpt>
      <trkpt lat="47.11042" lon="-1.8052">
        <ele>67</ele>
        <time>2022-06-05T08:50:00Z</time>
      </trkpt>
      <trkpt lat="47.1103" lon="-1.80528">
        <ele>66</ele>
        <time>2022-06-05T08:50:02Z</time>
      </trkpt>
      <trkpt lat="47.11019" lon="-1.80535">
        <ele>65</ele>
        <time>2022-06-05T08:50:04Z</time>
      </trkpt>
      <trkpt lat="47.11008" lon="-1.80543">
        <ele>65</ele>
        <time>2022-06-05T08:50:06Z</time>
      </trkpt>
      <trkpt lat="47.10996" lon="-1.80551">
        <ele>65</ele>
        <time>2022-06-05T08:50:08Z</time>
      </trkpt>
      <trkpt lat="47.10985" lon="-1.80558">
        <ele>65</ele>
        <time>2022-06-05T08:50:10Z</time>
      </trkpt>
      <trkpt lat="47.10973" lon="-1.80566">
        <ele>65</ele>
        <time>2022-06-05T08:50:12Z</time>
      </trkpt>
      <trkpt lat="47.10961" lon="-1.80574">
        <ele>65</ele>
        <time>2022-06-05T08:50:14Z</time>
      </trkpt>
      <trkpt lat="47.10948" lon="-1.80583">
        <ele>65</ele>
        <time>2022-06-05T08:50:16Z</time>
      </trkpt>
      <trkpt lat="47.10936" lon="-1.80591">
        <ele>65</ele>
        <time>2022-06-05T08:50:18Z</time>
      </trkpt>
      <trkpt lat="47.10924" lon="-1.80598">
        <ele>66</ele>
        <time>2022-06-05T08:50:20Z</time>
      </trkpt>
      <trkpt lat="47.10912" lon="-1.80606">
        <ele>66</ele>
        <time>2022-06-05T08:50:22Z</time>
      </trkpt>
      <trkpt lat="47.109" lon="-1.80614">
        <ele>66</ele>
        <time>2022-06-05T08:50:24Z</time>
      </trkpt>
      <trkpt lat="47.10888" lon="-1.80621">
        <ele>65</ele>
        <time>2022-06-05T08:50:26Z</time>
      </trkpt>
      <trkpt lat="47.10877" lon="-1.80629">
        <ele>65</ele>
        <time>2022-06-05T08:50:28Z</time>
      </trkpt>
      <trkpt lat="47.10865" lon="-1.80636">
        <ele>66</ele>
        <time>2022-06-05T08:50:30Z</time>
      </trkpt>
      <trkpt lat="47.10853" lon="-1.80642">
        <ele>65</ele>
        <time>2022-06-05T08:50:32Z</time>
      </trkpt>
      <trkpt lat="47.10841" lon="-1.80647">
        <ele>66</ele>
        <time>2022-06-05T08:50:34Z</time>
      </trkpt>
      <trkpt lat="47.10829" lon="-1.80653">
        <ele>65</ele>
        <time>2022-06-05T08:50:36Z</time>
      </trkpt>
      <trkpt lat="47.10815" lon="-1.80659">
        <ele>65</ele>
        <time>2022-06-05T08:50:38Z</time>
      </trkpt>
      <trkpt lat="47.10801" lon="-1.80662">
        <ele>65</ele>
        <time>2022-06-05T08:50:40Z</time>
      </trkpt>
      <trkpt lat="47.10787" lon="-1.80666">
        <ele>65</ele>
        <time>2022-06-05T08:50:42Z</time>
      </trkpt>
      <trkpt lat="47.10773" lon="-1.8067">
        <ele>65</ele>
        <time>2022-06-05T08:50:44Z</time>
      </trkpt>
      <trkpt lat="47.10759" lon="-1.80676">
        <ele>65</ele>
        <time>2022-06-05T08:50:46Z</time>
      </trkpt>
      <trkpt lat="47.10745" lon="-1.80681">
        <ele>65</ele>
        <time>2022-06-05T08:50:48Z</time>
      </trkpt>
      <trkpt lat="47.10731" lon="-1.80683">
        <ele>65</ele>
        <time>2022-06-05T08:50:50Z</time>
      </trkpt>
      <trkpt lat="47.10717" lon="-1.80686">
        <ele>65</ele>
        <time>2022-06-05T08:50:52Z</time>
      </trkpt>
      <trkpt lat="47.10703" lon="-1.80687">
        <ele>66</ele>
        <time>2022-06-05T08:50:54Z</time>
      </trkpt>
      <trkpt lat="47.1069" lon="-1.80688">
        <ele>66</ele>
        <time>2022-06-05T08:50:56Z</time>
      </trkpt>
      <trkpt lat="47.10676" lon="-1.80688">
        <ele>67</ele>
        <time>2022-06-05T08:50:58Z</time>
      </trkpt>
      <trkpt lat="47.10663" lon="-1.80689">
        <ele>67</ele>
        <time>2022-06-05T08:51:00Z</time>
      </trkpt>
      <trkpt lat="47.1065" lon="-1.80691">
        <ele>67</ele>
        <time>2022-06-05T08:51:02Z</time>
      </trkpt>
      <trkpt lat="47.10637" lon="-1.80693">
        <ele>67</ele>
        <time>2022-06-05T08:51:04Z</time>
      </trkpt>
      <trkpt lat="47.10623" lon="-1.80696">
        <ele>66</ele>
        <time>2022-06-05T08:51:06Z</time>
      </trkpt>
      <trkpt lat="47.10611" lon="-1.80701">
        <ele>66</ele>
        <time>2022-06-05T08:51:08Z</time>
      </trkpt>
      <trkpt lat="47.10598" lon="-1.80706">
        <ele>65</ele>
        <time>2022-06-05T08:51:10Z</time>
      </trkpt>
      <trkpt lat="47.10585" lon="-1.80714">
        <ele>65</ele>
        <time>2022-06-05T08:51:12Z</time>
      </trkpt>
      <trkpt lat="47.10573" lon="-1.80724">
        <ele>65</ele>
        <time>2022-06-05T08:51:14Z</time>
      </trkpt>
      <trkpt lat="47.10563" lon="-1.80735">
        <ele>65</ele>
        <time>2022-06-05T08:51:16Z</time>
      </trkpt>
      <trkpt lat="47.10553" lon="-1.80747">
        <ele>65</ele>
        <time>2022-06-05T08:51:18Z</time>
      </trkpt>
      <trkpt lat="47.10543" lon="-1.80759">
        <ele>65</ele>
        <time>2022-06-05T08:51:20Z</time>
      </trkpt>
      <trkpt lat="47.10534" lon="-1.8077">
        <ele>65</ele>
        <time>2022-06-05T08:51:22Z</time>
      </trkpt>
      <trkpt lat="47.10524" lon="-1.80782">
        <ele>65</ele>
        <time>2022-06-05T08:51:24Z</time>
      </trkpt>
      <trkpt lat="47.10515" lon="-1.80796">
        <ele>65</ele>
        <time>2022-06-05T08:51:26Z</time>
      </trkpt>
      <trkpt lat="47.10504" lon="-1.80807">
        <ele>65</ele>
        <time>2022-06-05T08:51:28Z</time>
      </trkpt>
      <trkpt lat="47.10492" lon="-1.80817">
        <ele>63</ele>
        <time>2022-06-05T08:51:30Z</time>
      </trkpt>
      <trkpt lat="47.10481" lon="-1.80829">
        <ele>62</ele>
        <time>2022-06-05T08:51:32Z</time>
      </trkpt>
      <trkpt lat="47.1047" lon="-1.80843">
        <ele>63</ele>
        <time>2022-06-05T08:51:34Z</time>
      </trkpt>
      <trkpt lat="47.10462" lon="-1.80857">
        <ele>63</ele>
        <time>2022-06-05T08:51:36Z</time>
      </trkpt>
      <trkpt lat="47.10453" lon="-1.80871">
        <ele>63</ele>
        <time>2022-06-05T08:51:38Z</time>
      </trkpt>
      <trkpt lat="47.10445" lon="-1.80886">
        <ele>63</ele>
        <time>2022-06-05T08:51:40Z</time>
      </trkpt>
      <trkpt lat="47.10437" lon="-1.809">
        <ele>63</ele>
        <time>2022-06-05T08:51:42Z</time>
      </trkpt>
      <trkpt lat="47.10429" lon="-1.80913">
        <ele>63</ele>
        <time>2022-06-05T08:51:44Z</time>
      </trkpt>
      <trkpt lat="47.1042" lon="-1.80925">
        <ele>63</ele>
        <time>2022-06-05T08:51:46Z</time>
      </trkpt>
      <trkpt lat="47.10413" lon="-1.80938">
        <ele>64</ele>
        <time>2022-06-05T08:51:48Z</time>
      </trkpt>
      <trkpt lat="47.10405" lon="-1.80951">
        <ele>64</ele>
        <time>2022-06-05T08:51:50Z</time>
      </trkpt>
      <trkpt lat="47.10398" lon="-1.80964">
        <ele>65</ele>
        <time>2022-06-05T08:51:52Z</time>
      </trkpt>
      <trkpt lat="47.10391" lon="-1.80976">
        <ele>65</ele>
        <time>2022-06-05T08:51:54Z</time>
      </trkpt>
      <trkpt lat="47.10383" lon="-1.80992">
        <ele>65</ele>
        <time>2022-06-05T08:51:57Z</time>
      </trkpt>
      <trkpt lat="47.10377" lon="-1.81004">
        <ele>65</ele>
        <time>2022-06-05T08:51:59Z</time>
      </trkpt>
      <trkpt lat="47.10371" lon="-1.81018">
        <ele>66</ele>
        <time>2022-06-05T08:52:01Z</time>
      </trkpt>
      <trkpt lat="47.10365" lon="-1.81032">
        <ele>66</ele>
        <time>2022-06-05T08:52:03Z</time>
      </trkpt>
      <trkpt lat="47.10359" lon="-1.81047">
        <ele>66</ele>
        <time>2022-06-05T08:52:06Z</time>
      </trkpt>
      <trkpt lat="47.10348" lon="-1.81034">
        <ele>68</ele>
        <time>2022-06-05T08:52:10Z</time>
      </trkpt>
      <trkpt lat="47.10339" lon="-1.8102">
        <ele>69</ele>
        <time>2022-06-05T08:52:12Z</time>
      </trkpt>
      <trkpt lat="47.10321" lon="-1.81012">
        <ele>68</ele>
        <time>2022-06-05T08:52:15Z</time>
      </trkpt>
      <trkpt lat="47.10308" lon="-1.8101">
        <ele>67</ele>
        <time>2022-06-05T08:52:17Z</time>
      </trkpt>
      <trkpt lat="47.10295" lon="-1.81008">
        <ele>67</ele>
        <time>2022-06-05T08:52:19Z</time>
      </trkpt>
      <trkpt lat="47.1028" lon="-1.81007">
        <ele>66</ele>
        <time>2022-06-05T08:52:21Z</time>
      </trkpt>
      <trkpt lat="47.10265" lon="-1.81006">
        <ele>66</ele>
        <time>2022-06-05T08:52:23Z</time>
      </trkpt>
      <trkpt lat="47.10242" lon="-1.81009">
        <ele>66</ele>
        <time>2022-06-05T08:52:26Z</time>
      </trkpt>
      <trkpt lat="47.10228" lon="-1.81009">
        <ele>66</ele>
        <time>2022-06-05T08:52:28Z</time>
      </trkpt>
      <trkpt lat="47.10213" lon="-1.81005">
        <ele>66</ele>
        <time>2022-06-05T08:52:30Z</time>
      </trkpt>
      <trkpt lat="47.10199" lon="-1.80999">
        <ele>67</ele>
        <time>2022-06-05T08:52:32Z</time>
      </trkpt>
      <trkpt lat="47.10186" lon="-1.80993">
        <ele>67</ele>
        <time>2022-06-05T08:52:34Z</time>
      </trkpt>
      <trkpt lat="47.10172" lon="-1.80987">
        <ele>66</ele>
        <time>2022-06-05T08:52:36Z</time>
      </trkpt>
      <trkpt lat="47.10158" lon="-1.8098">
        <ele>65</ele>
        <time>2022-06-05T08:52:38Z</time>
      </trkpt>
      <trkpt lat="47.10145" lon="-1.80973">
        <ele>65</ele>
        <time>2022-06-05T08:52:40Z</time>
      </trkpt>
      <trkpt lat="47.10132" lon="-1.8097">
        <ele>64</ele>
        <time>2022-06-05T08:52:42Z</time>
      </trkpt>
      <trkpt lat="47.10118" lon="-1.8097">
        <ele>63</ele>
        <time>2022-06-05T08:52:44Z</time>
      </trkpt>
      <trkpt lat="47.10104" lon="-1.80971">
        <ele>63</ele>
        <time>2022-06-05T08:52:46Z</time>
      </trkpt>
      <trkpt lat="47.1009" lon="-1.80972">
        <ele>63</ele>
        <time>2022-06-05T08:52:48Z</time>
      </trkpt>
      <trkpt lat="47.10077" lon="-1.80973">
        <ele>64</ele>
        <time>2022-06-05T08:52:50Z</time>
      </trkpt>
      <trkpt lat="47.10064" lon="-1.80973">
        <ele>64</ele>
        <time>2022-06-05T08:52:52Z</time>
      </trkpt>
      <trkpt lat="47.10052" lon="-1.80973">
        <ele>65</ele>
        <time>2022-06-05T08:52:54Z</time>
      </trkpt>
      <trkpt lat="47.10039" lon="-1.80975">
        <ele>65</ele>
        <time>2022-06-05T08:52:56Z</time>
      </trkpt>
      <trkpt lat="47.10027" lon="-1.80976">
        <ele>66</ele>
        <time>2022-06-05T08:52:58Z</time>
      </trkpt>
      <trkpt lat="47.10015" lon="-1.80978">
        <ele>66</ele>
        <time>2022-06-05T08:53:00Z</time>
      </trkpt>
      <trkpt lat="47.10002" lon="-1.80979">
        <ele>67</ele>
        <time>2022-06-05T08:53:02Z</time>
      </trkpt>
      <trkpt lat="47.0999" lon="-1.8098">
        <ele>67</ele>
        <time>2022-06-05T08:53:04Z</time>
      </trkpt>
      <trkpt lat="47.09978" lon="-1.80981">
        <ele>67</ele>
        <time>2022-06-05T08:53:06Z</time>
      </trkpt>
      <trkpt lat="47.09965" lon="-1.8098">
        <ele>67</ele>
        <time>2022-06-05T08:53:08Z</time>
      </trkpt>
      <trkpt lat="47.09952" lon="-1.80981">
        <ele>67</ele>
        <time>2022-06-05T08:53:10Z</time>
      </trkpt>
      <trkpt lat="47.09939" lon="-1.80983">
        <ele>67</ele>
        <time>2022-06-05T08:53:12Z</time>
      </trkpt>
      <trkpt lat="47.09927" lon="-1.80985">
        <ele>67</ele>
        <time>2022-06-05T08:53:14Z</time>
      </trkpt>
      <trkpt lat="47.09914" lon="-1.80985">
        <ele>67</ele>
        <time>2022-06-05T08:53:16Z</time>
      </trkpt>
      <trkpt lat="47.09902" lon="-1.80986">
        <ele>68</ele>
        <time>2022-06-05T08:53:18Z</time>
      </trkpt>
      <trkpt lat="47.0989" lon="-1.80987">
        <ele>68</ele>
        <time>2022-06-05T08:53:20Z</time>
      </trkpt>
      <trkpt lat="47.09877" lon="-1.80987">
        <ele>68</ele>
        <time>2022-06-05T08:53:22Z</time>
      </trkpt>
      <trkpt lat="47.09865" lon="-1.80988">
        <ele>69</ele>
        <time>2022-06-05T08:53:24Z</time>
      </trkpt>
      <trkpt lat="47.09853" lon="-1.80989">
        <ele>69</ele>
        <time>2022-06-05T08:53:26Z</time>
      </trkpt>
      <trkpt lat="47.09841" lon="-1.8099">
        <ele>69</ele>
        <time>2022-06-05T08:53:28Z</time>
      </trkpt>
      <trkpt lat="47.09829" lon="-1.8099">
        <ele>69</ele>
        <time>2022-06-05T08:53:30Z</time>
      </trkpt>
      <trkpt lat="47.09817" lon="-1.80991">
        <ele>70</ele>
        <time>2022-06-05T08:53:32Z</time>
      </trkpt>
      <trkpt lat="47.09805" lon="-1.80991">
        <ele>70</ele>
        <time>2022-06-05T08:53:34Z</time>
      </trkpt>
      <trkpt lat="47.09793" lon="-1.8099">
        <ele>69</ele>
        <time>2022-06-05T08:53:36Z</time>
      </trkpt>
      <trkpt lat="47.0978" lon="-1.80989">
        <ele>70</ele>
        <time>2022-06-05T08:53:38Z</time>
      </trkpt>
      <trkpt lat="47.09767" lon="-1.80988">
        <ele>70</ele>
        <time>2022-06-05T08:53:40Z</time>
      </trkpt>
      <trkpt lat="47.09754" lon="-1.80985">
        <ele>70</ele>
        <time>2022-06-05T08:53:42Z</time>
      </trkpt>
      <trkpt lat="47.09741" lon="-1.80982">
        <ele>69</ele>
        <time>2022-06-05T08:53:44Z</time>
      </trkpt>
      <trkpt lat="47.09728" lon="-1.8098">
        <ele>69</ele>
        <time>2022-06-05T08:53:46Z</time>
      </trkpt>
      <trkpt lat="47.09714" lon="-1.80978">
        <ele>68</ele>
        <time>2022-06-05T08:53:48Z</time>
      </trkpt>
      <trkpt lat="47.09701" lon="-1.80974">
        <ele>67</ele>
        <time>2022-06-05T08:53:50Z</time>
      </trkpt>
      <trkpt lat="47.09687" lon="-1.80971">
        <ele>66</ele>
        <time>2022-06-05T08:53:52Z</time>
      </trkpt>
      <trkpt lat="47.09673" lon="-1.80968">
        <ele>66</ele>
        <time>2022-06-05T08:53:54Z</time>
      </trkpt>
      <trkpt lat="47.0966" lon="-1.80965">
        <ele>66</ele>
        <time>2022-06-05T08:53:56Z</time>
      </trkpt>
      <trkpt lat="47.09645" lon="-1.80962">
        <ele>65</ele>
        <time>2022-06-05T08:53:58Z</time>
      </trkpt>
      <trkpt lat="47.09632" lon="-1.80958">
        <ele>65</ele>
        <time>2022-06-05T08:54:00Z</time>
      </trkpt>
      <trkpt lat="47.09619" lon="-1.80953">
        <ele>65</ele>
        <time>2022-06-05T08:54:02Z</time>
      </trkpt>
      <trkpt lat="47.09606" lon="-1.80952">
        <ele>65</ele>
        <time>2022-06-05T08:54:04Z</time>
      </trkpt>
      <trkpt lat="47.09593" lon="-1.80948">
        <ele>65</ele>
        <time>2022-06-05T08:54:06Z</time>
      </trkpt>
      <trkpt lat="47.0958" lon="-1.80943">
        <ele>64</ele>
        <time>2022-06-05T08:54:08Z</time>
      </trkpt>
      <trkpt lat="47.09566" lon="-1.80941">
        <ele>64</ele>
        <time>2022-06-05T08:54:10Z</time>
      </trkpt>
      <trkpt lat="47.09552" lon="-1.80938">
        <ele>63</ele>
        <time>2022-06-05T08:54:12Z</time>
      </trkpt>
      <trkpt lat="47.09539" lon="-1.80935">
        <ele>63</ele>
        <time>2022-06-05T08:54:14Z</time>
      </trkpt>
      <trkpt lat="47.09526" lon="-1.80931">
        <ele>63</ele>
        <time>2022-06-05T08:54:16Z</time>
      </trkpt>
      <trkpt lat="47.09513" lon="-1.80928">
        <ele>64</ele>
        <time>2022-06-05T08:54:18Z</time>
      </trkpt>
      <trkpt lat="47.095" lon="-1.80926">
        <ele>64</ele>
        <time>2022-06-05T08:54:20Z</time>
      </trkpt>
      <trkpt lat="47.09487" lon="-1.80926">
        <ele>63</ele>
        <time>2022-06-05T08:54:22Z</time>
      </trkpt>
      <trkpt lat="47.09474" lon="-1.80931">
        <ele>64</ele>
        <time>2022-06-05T08:54:24Z</time>
      </trkpt>
      <trkpt lat="47.09461" lon="-1.80938">
        <ele>64</ele>
        <time>2022-06-05T08:54:26Z</time>
      </trkpt>
      <trkpt lat="47.09448" lon="-1.80945">
        <ele>64</ele>
        <time>2022-06-05T08:54:28Z</time>
      </trkpt>
      <trkpt lat="47.09436" lon="-1.80952">
        <ele>64</ele>
        <time>2022-06-05T08:54:30Z</time>
      </trkpt>
      <trkpt lat="47.09425" lon="-1.8096">
        <ele>63</ele>
        <time>2022-06-05T08:54:32Z</time>
      </trkpt>
      <trkpt lat="47.09412" lon="-1.80967">
        <ele>62</ele>
        <time>2022-06-05T08:54:34Z</time>
      </trkpt>
      <trkpt lat="47.094" lon="-1.80974">
        <ele>63</ele>
        <time>2022-06-05T08:54:36Z</time>
      </trkpt>
      <trkpt lat="47.09388" lon="-1.80982">
        <ele>63</ele>
        <time>2022-06-05T08:54:38Z</time>
      </trkpt>
      <trkpt lat="47.09375" lon="-1.80989">
        <ele>63</ele>
        <time>2022-06-05T08:54:40Z</time>
      </trkpt>
      <trkpt lat="47.09362" lon="-1.80997">
        <ele>62</ele>
        <time>2022-06-05T08:54:42Z</time>
      </trkpt>
      <trkpt lat="47.0935" lon="-1.81005">
        <ele>60</ele>
        <time>2022-06-05T08:54:44Z</time>
      </trkpt>
      <trkpt lat="47.09336" lon="-1.81012">
        <ele>59</ele>
        <time>2022-06-05T08:54:46Z</time>
      </trkpt>
      <trkpt lat="47.09316" lon="-1.81023">
        <ele>59</ele>
        <time>2022-06-05T08:54:49Z</time>
      </trkpt>
      <trkpt lat="47.09303" lon="-1.81031">
        <ele>59</ele>
        <time>2022-06-05T08:54:51Z</time>
      </trkpt>
      <trkpt lat="47.09289" lon="-1.81039">
        <ele>59</ele>
        <time>2022-06-05T08:54:53Z</time>
      </trkpt>
      <trkpt lat="47.09276" lon="-1.81048">
        <ele>58</ele>
        <time>2022-06-05T08:54:55Z</time>
      </trkpt>
      <trkpt lat="47.09263" lon="-1.81055">
        <ele>58</ele>
        <time>2022-06-05T08:54:57Z</time>
      </trkpt>
      <trkpt lat="47.0925" lon="-1.81063">
        <ele>58</ele>
        <time>2022-06-05T08:54:59Z</time>
      </trkpt>
      <trkpt lat="47.09239" lon="-1.81071">
        <ele>58</ele>
        <time>2022-06-05T08:55:01Z</time>
      </trkpt>
      <trkpt lat="47.0923" lon="-1.81081">
        <ele>58</ele>
        <time>2022-06-05T08:55:03Z</time>
      </trkpt>
      <trkpt lat="47.09222" lon="-1.81089">
        <ele>58</ele>
        <time>2022-06-05T08:55:11Z</time>
      </trkpt>
      <trkpt lat="47.0921" lon="-1.81085">
        <ele>58</ele>
        <time>2022-06-05T08:55:14Z</time>
      </trkpt>
      <trkpt lat="47.09201" lon="-1.81076">
        <ele>58</ele>
        <time>2022-06-05T08:55:16Z</time>
      </trkpt>
      <trkpt lat="47.09192" lon="-1.81068">
        <ele>58</ele>
        <time>2022-06-05T08:55:18Z</time>
      </trkpt>
      <trkpt lat="47.09182" lon="-1.8106">
        <ele>58</ele>
        <time>2022-06-05T08:55:20Z</time>
      </trkpt>
      <trkpt lat="47.09173" lon="-1.81054">
        <ele>59</ele>
        <time>2022-06-05T08:55:22Z</time>
      </trkpt>
      <trkpt lat="47.09164" lon="-1.81059">
        <ele>58</ele>
        <time>2022-06-05T08:55:24Z</time>
      </trkpt>
      <trkpt lat="47.09156" lon="-1.81074">
        <ele>57</ele>
        <time>2022-06-05T08:55:26Z</time>
      </trkpt>
      <trkpt lat="47.09147" lon="-1.81089">
        <ele>57</ele>
        <time>2022-06-05T08:55:28Z</time>
      </trkpt>
      <trkpt lat="47.09136" lon="-1.81102">
        <ele>57</ele>
        <time>2022-06-05T08:55:30Z</time>
      </trkpt>
      <trkpt lat="47.09125" lon="-1.81112">
        <ele>57</ele>
        <time>2022-06-05T08:55:32Z</time>
      </trkpt>
      <trkpt lat="47.09112" lon="-1.81116">
        <ele>58</ele>
        <time>2022-06-05T08:55:34Z</time>
      </trkpt>
      <trkpt lat="47.09098" lon="-1.81117">
        <ele>58</ele>
        <time>2022-06-05T08:55:36Z</time>
      </trkpt>
      <trkpt lat="47.09084" lon="-1.81119">
        <ele>57</ele>
        <time>2022-06-05T08:55:38Z</time>
      </trkpt>
      <trkpt lat="47.09071" lon="-1.81124">
        <ele>56</ele>
        <time>2022-06-05T08:55:40Z</time>
      </trkpt>
      <trkpt lat="47.09061" lon="-1.81134">
        <ele>56</ele>
        <time>2022-06-05T08:55:42Z</time>
      </trkpt>
      <trkpt lat="47.09052" lon="-1.81147">
        <ele>56</ele>
        <time>2022-06-05T08:55:44Z</time>
      </trkpt>
      <trkpt lat="47.09045" lon="-1.81162">
        <ele>56</ele>
        <time>2022-06-05T08:55:46Z</time>
      </trkpt>
      <trkpt lat="47.0904" lon="-1.81178">
        <ele>57</ele>
        <time>2022-06-05T08:55:48Z</time>
      </trkpt>
      <trkpt lat="47.09036" lon="-1.81194">
        <ele>58</ele>
        <time>2022-06-05T08:55:50Z</time>
      </trkpt>
      <trkpt lat="47.09031" lon="-1.81211">
        <ele>58</ele>
        <time>2022-06-05T08:55:52Z</time>
      </trkpt>
      <trkpt lat="47.09026" lon="-1.81227">
        <ele>58</ele>
        <time>2022-06-05T08:55:54Z</time>
      </trkpt>
      <trkpt lat="47.0902" lon="-1.81241">
        <ele>58</ele>
        <time>2022-06-05T08:55:56Z</time>
      </trkpt>
      <trkpt lat="47.09013" lon="-1.81255">
        <ele>58</ele>
        <time>2022-06-05T08:55:58Z</time>
      </trkpt>
      <trkpt lat="47.09005" lon="-1.81267">
        <ele>59</ele>
        <time>2022-06-05T08:56:00Z</time>
      </trkpt>
      <trkpt lat="47.08997" lon="-1.81279">
        <ele>59</ele>
        <time>2022-06-05T08:56:02Z</time>
      </trkpt>
      <trkpt lat="47.08987" lon="-1.81292">
        <ele>59</ele>
        <time>2022-06-05T08:56:04Z</time>
      </trkpt>
      <trkpt lat="47.08978" lon="-1.81304">
        <ele>59</ele>
        <time>2022-06-05T08:56:06Z</time>
      </trkpt>
      <trkpt lat="47.08969" lon="-1.81316">
        <ele>60</ele>
        <time>2022-06-05T08:56:08Z</time>
      </trkpt>
      <trkpt lat="47.0896" lon="-1.81328">
        <ele>60</ele>
        <time>2022-06-05T08:56:10Z</time>
      </trkpt>
      <trkpt lat="47.08951" lon="-1.81341">
        <ele>60</ele>
        <time>2022-06-05T08:56:12Z</time>
      </trkpt>
      <trkpt lat="47.08941" lon="-1.81353">
        <ele>60</ele>
        <time>2022-06-05T08:56:14Z</time>
      </trkpt>
      <trkpt lat="47.08932" lon="-1.81363">
        <ele>60</ele>
        <time>2022-06-05T08:56:16Z</time>
      </trkpt>
      <trkpt lat="47.08922" lon="-1.81374">
        <ele>60</ele>
        <time>2022-06-05T08:56:18Z</time>
      </trkpt>
      <trkpt lat="47.08912" lon="-1.81384">
        <ele>60</ele>
        <time>2022-06-05T08:56:20Z</time>
      </trkpt>
      <trkpt lat="47.08902" lon="-1.81394">
        <ele>61</ele>
        <time>2022-06-05T08:56:22Z</time>
      </trkpt>
      <trkpt lat="47.08893" lon="-1.81404">
        <ele>62</ele>
        <time>2022-06-05T08:56:24Z</time>
      </trkpt>
      <trkpt lat="47.08884" lon="-1.81416">
        <ele>62</ele>
        <time>2022-06-05T08:56:26Z</time>
      </trkpt>
      <trkpt lat="47.08875" lon="-1.81427">
        <ele>61</ele>
        <time>2022-06-05T08:56:28Z</time>
      </trkpt>
      <trkpt lat="47.08866" lon="-1.81438">
        <ele>60</ele>
        <time>2022-06-05T08:56:30Z</time>
      </trkpt>
      <trkpt lat="47.08857" lon="-1.81448">
        <ele>60</ele>
        <time>2022-06-05T08:56:32Z</time>
      </trkpt>
      <trkpt lat="47.08848" lon="-1.81458">
        <ele>61</ele>
        <time>2022-06-05T08:56:34Z</time>
      </trkpt>
      <trkpt lat="47.08838" lon="-1.81467">
        <ele>60</ele>
        <time>2022-06-05T08:56:36Z</time>
      </trkpt>
      <trkpt lat="47.08828" lon="-1.81476">
        <ele>61</ele>
        <time>2022-06-05T08:56:38Z</time>
      </trkpt>
      <trkpt lat="47.08818" lon="-1.81484">
        <ele>62</ele>
        <time>2022-06-05T08:56:40Z</time>
      </trkpt>
      <trkpt lat="47.08808" lon="-1.81491">
        <ele>62</ele>
        <time>2022-06-05T08:56:42Z</time>
      </trkpt>
      <trkpt lat="47.088" lon="-1.81499">
        <ele>63</ele>
        <time>2022-06-05T08:56:44Z</time>
      </trkpt>
      <trkpt lat="47.08791" lon="-1.81507">
        <ele>63</ele>
        <time>2022-06-05T08:56:46Z</time>
      </trkpt>
      <trkpt lat="47.08782" lon="-1.81514">
        <ele>65</ele>
        <time>2022-06-05T08:56:48Z</time>
      </trkpt>
      <trkpt lat="47.08772" lon="-1.81523">
        <ele>65</ele>
        <time>2022-06-05T08:56:50Z</time>
      </trkpt>
      <trkpt lat="47.08762" lon="-1.81531">
        <ele>65</ele>
        <time>2022-06-05T08:56:52Z</time>
      </trkpt>
      <trkpt lat="47.08753" lon="-1.81538">
        <ele>65</ele>
        <time>2022-06-05T08:56:54Z</time>
      </trkpt>
      <trkpt lat="47.08744" lon="-1.81547">
        <ele>66</ele>
        <time>2022-06-05T08:56:56Z</time>
      </trkpt>
      <trkpt lat="47.08737" lon="-1.81556">
        <ele>66</ele>
        <time>2022-06-05T08:56:58Z</time>
      </trkpt>
      <trkpt lat="47.0873" lon="-1.81568">
        <ele>66</ele>
        <time>2022-06-05T08:57:00Z</time>
      </trkpt>
      <trkpt lat="47.08723" lon="-1.8158">
        <ele>66</ele>
        <time>2022-06-05T08:57:02Z</time>
      </trkpt>
      <trkpt lat="47.08718" lon="-1.81593">
        <ele>67</ele>
        <time>2022-06-05T08:57:04Z</time>
      </trkpt>
      <trkpt lat="47.08713" lon="-1.81609">
        <ele>67</ele>
        <time>2022-06-05T08:57:06Z</time>
      </trkpt>
      <trkpt lat="47.08707" lon="-1.81623">
        <ele>67</ele>
        <time>2022-06-05T08:57:08Z</time>
      </trkpt>
      <trkpt lat="47.08702" lon="-1.81636">
        <ele>67</ele>
        <time>2022-06-05T08:57:10Z</time>
      </trkpt>
      <trkpt lat="47.08698" lon="-1.8165">
        <ele>67</ele>
        <time>2022-06-05T08:57:12Z</time>
      </trkpt>
      <trkpt lat="47.08693" lon="-1.81664">
        <ele>67</ele>
        <time>2022-06-05T08:57:14Z</time>
      </trkpt>
      <trkpt lat="47.08686" lon="-1.81677">
        <ele>67</ele>
        <time>2022-06-05T08:57:16Z</time>
      </trkpt>
      <trkpt lat="47.08676" lon="-1.81686">
        <ele>66</ele>
        <time>2022-06-05T08:57:18Z</time>
      </trkpt>
      <trkpt lat="47.08665" lon="-1.81691">
        <ele>67</ele>
        <time>2022-06-05T08:57:20Z</time>
      </trkpt>
      <trkpt lat="47.08654" lon="-1.81695">
        <ele>66</ele>
        <time>2022-06-05T08:57:22Z</time>
      </trkpt>
      <trkpt lat="47.08643" lon="-1.81695">
        <ele>67</ele>
        <time>2022-06-05T08:57:24Z</time>
      </trkpt>
      <trkpt lat="47.08631" lon="-1.81692">
        <ele>67</ele>
        <time>2022-06-05T08:57:26Z</time>
      </trkpt>
      <trkpt lat="47.08619" lon="-1.81689">
        <ele>67</ele>
        <time>2022-06-05T08:57:28Z</time>
      </trkpt>
      <trkpt lat="47.08606" lon="-1.81687">
        <ele>68</ele>
        <time>2022-06-05T08:57:30Z</time>
      </trkpt>
      <trkpt lat="47.08594" lon="-1.81684">
        <ele>68</ele>
        <time>2022-06-05T08:57:32Z</time>
      </trkpt>
      <trkpt lat="47.08582" lon="-1.81681">
        <ele>68</ele>
        <time>2022-06-05T08:57:34Z</time>
      </trkpt>
      <trkpt lat="47.0857" lon="-1.81679">
        <ele>68</ele>
        <time>2022-06-05T08:57:36Z</time>
      </trkpt>
      <trkpt lat="47.08558" lon="-1.81675">
        <ele>68</ele>
        <time>2022-06-05T08:57:38Z</time>
      </trkpt>
      <trkpt lat="47.08546" lon="-1.81673">
        <ele>68</ele>
        <time>2022-06-05T08:57:40Z</time>
      </trkpt>
      <trkpt lat="47.08534" lon="-1.8167">
        <ele>69</ele>
        <time>2022-06-05T08:57:42Z</time>
      </trkpt>
      <trkpt lat="47.08522" lon="-1.81668">
        <ele>69</ele>
        <time>2022-06-05T08:57:44Z</time>
      </trkpt>
      <trkpt lat="47.0851" lon="-1.81665">
        <ele>69</ele>
        <time>2022-06-05T08:57:46Z</time>
      </trkpt>
      <trkpt lat="47.08497" lon="-1.81663">
        <ele>69</ele>
        <time>2022-06-05T08:57:48Z</time>
      </trkpt>
      <trkpt lat="47.08484" lon="-1.81661">
        <ele>69</ele>
        <time>2022-06-05T08:57:50Z</time>
      </trkpt>
      <trkpt lat="47.08471" lon="-1.81659">
        <ele>70</ele>
        <time>2022-06-05T08:57:52Z</time>
      </trkpt>
      <trkpt lat="47.08459" lon="-1.81658">
        <ele>70</ele>
        <time>2022-06-05T08:57:54Z</time>
      </trkpt>
      <trkpt lat="47.08447" lon="-1.81656">
        <ele>70</ele>
        <time>2022-06-05T08:57:56Z</time>
      </trkpt>
      <trkpt lat="47.08435" lon="-1.81653">
        <ele>71</ele>
        <time>2022-06-05T08:57:58Z</time>
      </trkpt>
      <trkpt lat="47.08422" lon="-1.81651">
        <ele>71</ele>
        <time>2022-06-05T08:58:00Z</time>
      </trkpt>
      <trkpt lat="47.08403" lon="-1.8165">
        <ele>72</ele>
        <time>2022-06-05T08:58:03Z</time>
      </trkpt>
      <trkpt lat="47.08384" lon="-1.81648">
        <ele>71</ele>
        <time>2022-06-05T08:58:06Z</time>
      </trkpt>
      <trkpt lat="47.08366" lon="-1.81645">
        <ele>70</ele>
        <time>2022-06-05T08:58:09Z</time>
      </trkpt>
      <trkpt lat="47.08354" lon="-1.81644">
        <ele>70</ele>
        <time>2022-06-05T08:58:11Z</time>
      </trkpt>
      <trkpt lat="47.08341" lon="-1.81642">
        <ele>71</ele>
        <time>2022-06-05T08:58:13Z</time>
      </trkpt>
      <trkpt lat="47.08329" lon="-1.8164">
        <ele>71</ele>
        <time>2022-06-05T08:58:15Z</time>
      </trkpt>
      <trkpt lat="47.08317" lon="-1.81639">
        <ele>71</ele>
        <time>2022-06-05T08:58:17Z</time>
      </trkpt>
      <trkpt lat="47.08306" lon="-1.81636">
        <ele>71</ele>
        <time>2022-06-05T08:58:19Z</time>
      </trkpt>
      <trkpt lat="47.08295" lon="-1.81635">
        <ele>70</ele>
        <time>2022-06-05T08:58:21Z</time>
      </trkpt>
      <trkpt lat="47.08282" lon="-1.81636">
        <ele>70</ele>
        <time>2022-06-05T08:58:23Z</time>
      </trkpt>
      <trkpt lat="47.0827" lon="-1.81635">
        <ele>70</ele>
        <time>2022-06-05T08:58:25Z</time>
      </trkpt>
      <trkpt lat="47.08258" lon="-1.81635">
        <ele>70</ele>
        <time>2022-06-05T08:58:27Z</time>
      </trkpt>
      <trkpt lat="47.08245" lon="-1.81635">
        <ele>70</ele>
        <time>2022-06-05T08:58:29Z</time>
      </trkpt>
      <trkpt lat="47.08232" lon="-1.81634">
        <ele>70</ele>
        <time>2022-06-05T08:58:31Z</time>
      </trkpt>
      <trkpt lat="47.08219" lon="-1.81633">
        <ele>70</ele>
        <time>2022-06-05T08:58:33Z</time>
      </trkpt>
      <trkpt lat="47.08206" lon="-1.81632">
        <ele>69</ele>
        <time>2022-06-05T08:58:35Z</time>
      </trkpt>
      <trkpt lat="47.08193" lon="-1.81632">
        <ele>70</ele>
        <time>2022-06-05T08:58:37Z</time>
      </trkpt>
      <trkpt lat="47.0818" lon="-1.81631">
        <ele>70</ele>
        <time>2022-06-05T08:58:39Z</time>
      </trkpt>
      <trkpt lat="47.08167" lon="-1.8163">
        <ele>70</ele>
        <time>2022-06-05T08:58:41Z</time>
      </trkpt>
      <trkpt lat="47.08155" lon="-1.8163">
        <ele>71</ele>
        <time>2022-06-05T08:58:43Z</time>
      </trkpt>
      <trkpt lat="47.08142" lon="-1.81628">
        <ele>70</ele>
        <time>2022-06-05T08:58:45Z</time>
      </trkpt>
      <trkpt lat="47.0813" lon="-1.81627">
        <ele>70</ele>
        <time>2022-06-05T08:58:47Z</time>
      </trkpt>
      <trkpt lat="47.08117" lon="-1.81626">
        <ele>71</ele>
        <time>2022-06-05T08:58:49Z</time>
      </trkpt>
      <trkpt lat="47.08104" lon="-1.81623">
        <ele>71</ele>
        <time>2022-06-05T08:58:51Z</time>
      </trkpt>
      <trkpt lat="47.08091" lon="-1.8162">
        <ele>71</ele>
        <time>2022-06-05T08:58:53Z</time>
      </trkpt>
      <trkpt lat="47.08079" lon="-1.81615">
        <ele>71</ele>
        <time>2022-06-05T08:58:55Z</time>
      </trkpt>
      <trkpt lat="47.08067" lon="-1.8161">
        <ele>72</ele>
        <time>2022-06-05T08:58:57Z</time>
      </trkpt>
      <trkpt lat="47.08055" lon="-1.81605">
        <ele>72</ele>
        <time>2022-06-05T08:58:59Z</time>
      </trkpt>
      <trkpt lat="47.08044" lon="-1.81597">
        <ele>72</ele>
        <time>2022-06-05T08:59:01Z</time>
      </trkpt>
      <trkpt lat="47.08032" lon="-1.8159">
        <ele>72</ele>
        <time>2022-06-05T08:59:03Z</time>
      </trkpt>
      <trkpt lat="47.0802" lon="-1.81584">
        <ele>72</ele>
        <time>2022-06-05T08:59:05Z</time>
      </trkpt>
      <trkpt lat="47.08009" lon="-1.81578">
        <ele>73</ele>
        <time>2022-06-05T08:59:07Z</time>
      </trkpt>
      <trkpt lat="47.07997" lon="-1.81571">
        <ele>74</ele>
        <time>2022-06-05T08:59:09Z</time>
      </trkpt>
      <trkpt lat="47.07985" lon="-1.81566">
        <ele>74</ele>
        <time>2022-06-05T08:59:11Z</time>
      </trkpt>
      <trkpt lat="47.07973" lon="-1.8156">
        <ele>73</ele>
        <time>2022-06-05T08:59:13Z</time>
      </trkpt>
      <trkpt lat="47.07961" lon="-1.81557">
        <ele>73</ele>
        <time>2022-06-05T08:59:15Z</time>
      </trkpt>
      <trkpt lat="47.07947" lon="-1.81556">
        <ele>73</ele>
        <time>2022-06-05T08:59:17Z</time>
      </trkpt>
      <trkpt lat="47.07934" lon="-1.81558">
        <ele>72</ele>
        <time>2022-06-05T08:59:19Z</time>
      </trkpt>
      <trkpt lat="47.07921" lon="-1.81559">
        <ele>71</ele>
        <time>2022-06-05T08:59:21Z</time>
      </trkpt>
      <trkpt lat="47.0791" lon="-1.8156">
        <ele>71</ele>
        <time>2022-06-05T08:59:23Z</time>
      </trkpt>
      <trkpt lat="47.07898" lon="-1.8156">
        <ele>70</ele>
        <time>2022-06-05T08:59:25Z</time>
      </trkpt>
      <trkpt lat="47.07885" lon="-1.81561">
        <ele>70</ele>
        <time>2022-06-05T08:59:27Z</time>
      </trkpt>
      <trkpt lat="47.07873" lon="-1.81562">
        <ele>70</ele>
        <time>2022-06-05T08:59:29Z</time>
      </trkpt>
      <trkpt lat="47.07861" lon="-1.81562">
        <ele>70</ele>
        <time>2022-06-05T08:59:31Z</time>
      </trkpt>
      <trkpt lat="47.07848" lon="-1.81561">
        <ele>69</ele>
        <time>2022-06-05T08:59:33Z</time>
      </trkpt>
      <trkpt lat="47.07836" lon="-1.8156">
        <ele>69</ele>
        <time>2022-06-05T08:59:35Z</time>
      </trkpt>
      <trkpt lat="47.07824" lon="-1.81558">
        <ele>70</ele>
        <time>2022-06-05T08:59:37Z</time>
      </trkpt>
      <trkpt lat="47.07811" lon="-1.81555">
        <ele>70</ele>
        <time>2022-06-05T08:59:39Z</time>
      </trkpt>
      <trkpt lat="47.07798" lon="-1.81553">
        <ele>70</ele>
        <time>2022-06-05T08:59:41Z</time>
      </trkpt>
      <trkpt lat="47.07786" lon="-1.8155">
        <ele>70</ele>
        <time>2022-06-05T08:59:43Z</time>
      </trkpt>
      <trkpt lat="47.07773" lon="-1.81549">
        <ele>71</ele>
        <time>2022-06-05T08:59:45Z</time>
      </trkpt>
      <trkpt lat="47.0776" lon="-1.81549">
        <ele>71</ele>
        <time>2022-06-05T08:59:47Z</time>
      </trkpt>
      <trkpt lat="47.07748" lon="-1.81548">
        <ele>71</ele>
        <time>2022-06-05T08:59:49Z</time>
      </trkpt>
      <trkpt lat="47.07736" lon="-1.81548">
        <ele>71</ele>
        <time>2022-06-05T08:59:51Z</time>
      </trkpt>
      <trkpt lat="47.07724" lon="-1.81547">
        <ele>71</ele>
        <time>2022-06-05T08:59:53Z</time>
      </trkpt>
      <trkpt lat="47.07712" lon="-1.81547">
        <ele>72</ele>
        <time>2022-06-05T08:59:55Z</time>
      </trkpt>
      <trkpt lat="47.077" lon="-1.81546">
        <ele>72</ele>
        <time>2022-06-05T08:59:57Z</time>
      </trkpt>
      <trkpt lat="47.07687" lon="-1.81546">
        <ele>72</ele>
        <time>2022-06-05T08:59:59Z</time>
      </trkpt>
      <trkpt lat="47.07675" lon="-1.81544">
        <ele>72</ele>
        <time>2022-06-05T09:00:01Z</time>
      </trkpt>
      <trkpt lat="47.07663" lon="-1.81543">
        <ele>71</ele>
        <time>2022-06-05T09:00:03Z</time>
      </trkpt>
      <trkpt lat="47.0765" lon="-1.81541">
        <ele>71</ele>
        <time>2022-06-05T09:00:05Z</time>
      </trkpt>
      <trkpt lat="47.07638" lon="-1.81537">
        <ele>72</ele>
        <time>2022-06-05T09:00:07Z</time>
      </trkpt>
      <trkpt lat="47.07627" lon="-1.81531">
        <ele>72</ele>
        <time>2022-06-05T09:00:09Z</time>
      </trkpt>
      <trkpt lat="47.07617" lon="-1.81521">
        <ele>72</ele>
        <time>2022-06-05T09:00:11Z</time>
      </trkpt>
      <trkpt lat="47.07606" lon="-1.81511">
        <ele>72</ele>
        <time>2022-06-05T09:00:13Z</time>
      </trkpt>
      <trkpt lat="47.07596" lon="-1.81501">
        <ele>72</ele>
        <time>2022-06-05T09:00:15Z</time>
      </trkpt>
      <trkpt lat="47.07586" lon="-1.81491">
        <ele>72</ele>
        <time>2022-06-05T09:00:17Z</time>
      </trkpt>
      <trkpt lat="47.07575" lon="-1.8148">
        <ele>72</ele>
        <time>2022-06-05T09:00:19Z</time>
      </trkpt>
      <trkpt lat="47.07565" lon="-1.8147">
        <ele>72</ele>
        <time>2022-06-05T09:00:21Z</time>
      </trkpt>
      <trkpt lat="47.07555" lon="-1.8146">
        <ele>72</ele>
        <time>2022-06-05T09:00:23Z</time>
      </trkpt>
      <trkpt lat="47.07544" lon="-1.81451">
        <ele>72</ele>
        <time>2022-06-05T09:00:25Z</time>
      </trkpt>
      <trkpt lat="47.07533" lon="-1.81444">
        <ele>72</ele>
        <time>2022-06-05T09:00:27Z</time>
      </trkpt>
      <trkpt lat="47.0752" lon="-1.81444">
        <ele>72</ele>
        <time>2022-06-05T09:00:29Z</time>
      </trkpt>
      <trkpt lat="47.07507" lon="-1.81448">
        <ele>71</ele>
        <time>2022-06-05T09:00:31Z</time>
      </trkpt>
      <trkpt lat="47.07496" lon="-1.81456">
        <ele>71</ele>
        <time>2022-06-05T09:00:33Z</time>
      </trkpt>
      <trkpt lat="47.07485" lon="-1.81462">
        <ele>72</ele>
        <time>2022-06-05T09:00:35Z</time>
      </trkpt>
      <trkpt lat="47.07473" lon="-1.81469">
        <ele>71</ele>
        <time>2022-06-05T09:00:37Z</time>
      </trkpt>
      <trkpt lat="47.07462" lon="-1.81476">
        <ele>72</ele>
        <time>2022-06-05T09:00:39Z</time>
      </trkpt>
      <trkpt lat="47.07449" lon="-1.8148">
        <ele>72</ele>
        <time>2022-06-05T09:00:41Z</time>
      </trkpt>
      <trkpt lat="47.07436" lon="-1.81483">
        <ele>72</ele>
        <time>2022-06-05T09:00:43Z</time>
      </trkpt>
      <trkpt lat="47.07423" lon="-1.81485">
        <ele>72</ele>
        <time>2022-06-05T09:00:45Z</time>
      </trkpt>
      <trkpt lat="47.0741" lon="-1.81485">
        <ele>72</ele>
        <time>2022-06-05T09:00:47Z</time>
      </trkpt>
      <trkpt lat="47.07398" lon="-1.81486">
        <ele>72</ele>
        <time>2022-06-05T09:00:49Z</time>
      </trkpt>
      <trkpt lat="47.07385" lon="-1.81486">
        <ele>73</ele>
        <time>2022-06-05T09:00:51Z</time>
      </trkpt>
      <trkpt lat="47.07375" lon="-1.81485">
        <ele>73</ele>
        <time>2022-06-05T09:00:53Z</time>
      </trkpt>
      <trkpt lat="47.07363" lon="-1.81481">
        <ele>73</ele>
        <time>2022-06-05T09:00:55Z</time>
      </trkpt>
      <trkpt lat="47.0735" lon="-1.81477">
        <ele>74</ele>
        <time>2022-06-05T09:00:57Z</time>
      </trkpt>
      <trkpt lat="47.07337" lon="-1.81472">
        <ele>74</ele>
        <time>2022-06-05T09:00:59Z</time>
      </trkpt>
      <trkpt lat="47.07324" lon="-1.81466">
        <ele>73</ele>
        <time>2022-06-05T09:01:01Z</time>
      </trkpt>
      <trkpt lat="47.07312" lon="-1.81461">
        <ele>73</ele>
        <time>2022-06-05T09:01:03Z</time>
      </trkpt>
      <trkpt lat="47.073" lon="-1.81454">
        <ele>73</ele>
        <time>2022-06-05T09:01:05Z</time>
      </trkpt>
      <trkpt lat="47.0729" lon="-1.81446">
        <ele>72</ele>
        <time>2022-06-05T09:01:07Z</time>
      </trkpt>
      <trkpt lat="47.0728" lon="-1.81436">
        <ele>73</ele>
        <time>2022-06-05T09:01:09Z</time>
      </trkpt>
      <trkpt lat="47.07269" lon="-1.81426">
        <ele>74</ele>
        <time>2022-06-05T09:01:11Z</time>
      </trkpt>
      <trkpt lat="47.0726" lon="-1.81416">
        <ele>74</ele>
        <time>2022-06-05T09:01:13Z</time>
      </trkpt>
      <trkpt lat="47.07249" lon="-1.81407">
        <ele>74</ele>
        <time>2022-06-05T09:01:15Z</time>
      </trkpt>
      <trkpt lat="47.0724" lon="-1.81397">
        <ele>74</ele>
        <time>2022-06-05T09:01:17Z</time>
      </trkpt>
      <trkpt lat="47.0723" lon="-1.81388">
        <ele>75</ele>
        <time>2022-06-05T09:01:19Z</time>
      </trkpt>
      <trkpt lat="47.07219" lon="-1.81378">
        <ele>75</ele>
        <time>2022-06-05T09:01:21Z</time>
      </trkpt>
      <trkpt lat="47.07208" lon="-1.81367">
        <ele>76</ele>
        <time>2022-06-05T09:01:23Z</time>
      </trkpt>
      <trkpt lat="47.07197" lon="-1.81357">
        <ele>76</ele>
        <time>2022-06-05T09:01:25Z</time>
      </trkpt>
      <trkpt lat="47.07186" lon="-1.81349">
        <ele>76</ele>
        <time>2022-06-05T09:01:27Z</time>
      </trkpt>
      <trkpt lat="47.07173" lon="-1.81346">
        <ele>75</ele>
        <time>2022-06-05T09:01:29Z</time>
      </trkpt>
      <trkpt lat="47.07161" lon="-1.81351">
        <ele>74</ele>
        <time>2022-06-05T09:01:31Z</time>
      </trkpt>
      <trkpt lat="47.07152" lon="-1.81362">
        <ele>74</ele>
        <time>2022-06-05T09:01:33Z</time>
      </trkpt>
      <trkpt lat="47.07142" lon="-1.81372">
        <ele>74</ele>
        <time>2022-06-05T09:01:35Z</time>
      </trkpt>
      <trkpt lat="47.07132" lon="-1.81382">
        <ele>74</ele>
        <time>2022-06-05T09:01:37Z</time>
      </trkpt>
      <trkpt lat="47.07123" lon="-1.81393">
        <ele>74</ele>
        <time>2022-06-05T09:01:39Z</time>
      </trkpt>
      <trkpt lat="47.07113" lon="-1.81404">
        <ele>75</ele>
        <time>2022-06-05T09:01:41Z</time>
      </trkpt>
      <trkpt lat="47.07104" lon="-1.81416">
        <ele>75</ele>
        <time>2022-06-05T09:01:43Z</time>
      </trkpt>
      <trkpt lat="47.07095" lon="-1.81429">
        <ele>75</ele>
        <time>2022-06-05T09:01:45Z</time>
      </trkpt>
      <trkpt lat="47.07087" lon="-1.81441">
        <ele>76</ele>
        <time>2022-06-05T09:01:47Z</time>
      </trkpt>
      <trkpt lat="47.07079" lon="-1.81453">
        <ele>76</ele>
        <time>2022-06-05T09:01:49Z</time>
      </trkpt>
      <trkpt lat="47.07072" lon="-1.81466">
        <ele>76</ele>
        <time>2022-06-05T09:01:51Z</time>
      </trkpt>
      <trkpt lat="47.07065" lon="-1.81478">
        <ele>75</ele>
        <time>2022-06-05T09:01:53Z</time>
      </trkpt>
      <trkpt lat="47.07057" lon="-1.81492">
        <ele>75</ele>
        <time>2022-06-05T09:01:55Z</time>
      </trkpt>
      <trkpt lat="47.07051" lon="-1.81506">
        <ele>75</ele>
        <time>2022-06-05T09:01:57Z</time>
      </trkpt>
      <trkpt lat="47.07045" lon="-1.81521">
        <ele>75</ele>
        <time>2022-06-05T09:01:59Z</time>
      </trkpt>
      <trkpt lat="47.07038" lon="-1.81534">
        <ele>76</ele>
        <time>2022-06-05T09:02:01Z</time>
      </trkpt>
      <trkpt lat="47.07032" lon="-1.81549">
        <ele>75</ele>
        <time>2022-06-05T09:02:03Z</time>
      </trkpt>
      <trkpt lat="47.07026" lon="-1.81564">
        <ele>75</ele>
        <time>2022-06-05T09:02:05Z</time>
      </trkpt>
      <trkpt lat="47.07021" lon="-1.81579">
        <ele>75</ele>
        <time>2022-06-05T09:02:07Z</time>
      </trkpt>
      <trkpt lat="47.07017" lon="-1.81595">
        <ele>75</ele>
        <time>2022-06-05T09:02:09Z</time>
      </trkpt>
      <trkpt lat="47.07012" lon="-1.8161">
        <ele>76</ele>
        <time>2022-06-05T09:02:11Z</time>
      </trkpt>
      <trkpt lat="47.07008" lon="-1.81625">
        <ele>76</ele>
        <time>2022-06-05T09:02:13Z</time>
      </trkpt>
      <trkpt lat="47.07004" lon="-1.8164">
        <ele>76</ele>
        <time>2022-06-05T09:02:15Z</time>
      </trkpt>
      <trkpt lat="47.06999" lon="-1.81655">
        <ele>76</ele>
        <time>2022-06-05T09:02:17Z</time>
      </trkpt>
      <trkpt lat="47.06995" lon="-1.8167">
        <ele>76</ele>
        <time>2022-06-05T09:02:19Z</time>
      </trkpt>
      <trkpt lat="47.0699" lon="-1.81686">
        <ele>77</ele>
        <time>2022-06-05T09:02:21Z</time>
      </trkpt>
      <trkpt lat="47.06985" lon="-1.81701">
        <ele>77</ele>
        <time>2022-06-05T09:02:23Z</time>
      </trkpt>
      <trkpt lat="47.0698" lon="-1.81716">
        <ele>77</ele>
        <time>2022-06-05T09:02:25Z</time>
      </trkpt>
      <trkpt lat="47.06975" lon="-1.8173">
        <ele>77</ele>
        <time>2022-06-05T09:02:27Z</time>
      </trkpt>
      <trkpt lat="47.06969" lon="-1.81744">
        <ele>77</ele>
        <time>2022-06-05T09:02:29Z</time>
      </trkpt>
      <trkpt lat="47.06963" lon="-1.81759">
        <ele>77</ele>
        <time>2022-06-05T09:02:31Z</time>
      </trkpt>
      <trkpt lat="47.06957" lon="-1.81772">
        <ele>77</ele>
        <time>2022-06-05T09:02:33Z</time>
      </trkpt>
      <trkpt lat="47.06952" lon="-1.81785">
        <ele>77</ele>
        <time>2022-06-05T09:02:35Z</time>
      </trkpt>
      <trkpt lat="47.06945" lon="-1.81799">
        <ele>77</ele>
        <time>2022-06-05T09:02:37Z</time>
      </trkpt>
      <trkpt lat="47.06939" lon="-1.81814">
        <ele>76</ele>
        <time>2022-06-05T09:02:39Z</time>
      </trkpt>
      <trkpt lat="47.06934" lon="-1.81828">
        <ele>77</ele>
        <time>2022-06-05T09:02:41Z</time>
      </trkpt>
      <trkpt lat="47.06928" lon="-1.81842">
        <ele>77</ele>
        <time>2022-06-05T09:02:43Z</time>
      </trkpt>
      <trkpt lat="47.06922" lon="-1.81855">
        <ele>78</ele>
        <time>2022-06-05T09:02:45Z</time>
      </trkpt>
      <trkpt lat="47.06917" lon="-1.81868">
        <ele>78</ele>
        <time>2022-06-05T09:02:47Z</time>
      </trkpt>
      <trkpt lat="47.06911" lon="-1.81882">
        <ele>79</ele>
        <time>2022-06-05T09:02:49Z</time>
      </trkpt>
      <trkpt lat="47.06906" lon="-1.81896">
        <ele>79</ele>
        <time>2022-06-05T09:02:51Z</time>
      </trkpt>
      <trkpt lat="47.069" lon="-1.81909">
        <ele>79</ele>
        <time>2022-06-05T09:02:53Z</time>
      </trkpt>
      <trkpt lat="47.06895" lon="-1.81924">
        <ele>80</ele>
        <time>2022-06-05T09:02:55Z</time>
      </trkpt>
      <trkpt lat="47.06892" lon="-1.81939">
        <ele>80</ele>
        <time>2022-06-05T09:02:57Z</time>
      </trkpt>
      <trkpt lat="47.0689" lon="-1.81956">
        <ele>80</ele>
        <time>2022-06-05T09:02:59Z</time>
      </trkpt>
      <trkpt lat="47.0689" lon="-1.81972">
        <ele>80</ele>
        <time>2022-06-05T09:03:01Z</time>
      </trkpt>
      <trkpt lat="47.06892" lon="-1.81989">
        <ele>81</ele>
        <time>2022-06-05T09:03:03Z</time>
      </trkpt>
      <trkpt lat="47.06894" lon="-1.82005">
        <ele>81</ele>
        <time>2022-06-05T09:03:05Z</time>
      </trkpt>
      <trkpt lat="47.06895" lon="-1.82021">
        <ele>81</ele>
        <time>2022-06-05T09:03:07Z</time>
      </trkpt>
      <trkpt lat="47.06897" lon="-1.82037">
        <ele>81</ele>
        <time>2022-06-05T09:03:09Z</time>
      </trkpt>
      <trkpt lat="47.06898" lon="-1.82053">
        <ele>81</ele>
        <time>2022-06-05T09:03:11Z</time>
      </trkpt>
      <trkpt lat="47.06899" lon="-1.82069">
        <ele>82</ele>
        <time>2022-06-05T09:03:13Z</time>
      </trkpt>
      <trkpt lat="47.06901" lon="-1.82086">
        <ele>82</ele>
        <time>2022-06-05T09:03:15Z</time>
      </trkpt>
      <trkpt lat="47.06902" lon="-1.82103">
        <ele>82</ele>
        <time>2022-06-05T09:03:17Z</time>
      </trkpt>
      <trkpt lat="47.06903" lon="-1.82118">
        <ele>82</ele>
        <time>2022-06-05T09:03:19Z</time>
      </trkpt>
      <trkpt lat="47.06902" lon="-1.82135">
        <ele>82</ele>
        <time>2022-06-05T09:03:21Z</time>
      </trkpt>
      <trkpt lat="47.06902" lon="-1.82152">
        <ele>83</ele>
        <time>2022-06-05T09:03:23Z</time>
      </trkpt>
      <trkpt lat="47.06902" lon="-1.82169">
        <ele>83</ele>
        <time>2022-06-05T09:03:25Z</time>
      </trkpt>
      <trkpt lat="47.06901" lon="-1.82186">
        <ele>83</ele>
        <time>2022-06-05T09:03:27Z</time>
      </trkpt>
      <trkpt lat="47.06901" lon="-1.82203">
        <ele>83</ele>
        <time>2022-06-05T09:03:29Z</time>
      </trkpt>
      <trkpt lat="47.06901" lon="-1.8222">
        <ele>83</ele>
        <time>2022-06-05T09:03:31Z</time>
      </trkpt>
      <trkpt lat="47.06901" lon="-1.82236">
        <ele>84</ele>
        <time>2022-06-05T09:03:33Z</time>
      </trkpt>
      <trkpt lat="47.06901" lon="-1.82254">
        <ele>84</ele>
        <time>2022-06-05T09:03:35Z</time>
      </trkpt>
      <trkpt lat="47.069" lon="-1.82271">
        <ele>84</ele>
        <time>2022-06-05T09:03:37Z</time>
      </trkpt>
      <trkpt lat="47.06899" lon="-1.82289">
        <ele>85</ele>
        <time>2022-06-05T09:03:39Z</time>
      </trkpt>
      <trkpt lat="47.06898" lon="-1.82306">
        <ele>85</ele>
        <time>2022-06-05T09:03:41Z</time>
      </trkpt>
      <trkpt lat="47.06896" lon="-1.82323">
        <ele>85</ele>
        <time>2022-06-05T09:03:43Z</time>
      </trkpt>
      <trkpt lat="47.06895" lon="-1.8234">
        <ele>85</ele>
        <time>2022-06-05T09:03:45Z</time>
      </trkpt>
      <trkpt lat="47.06893" lon="-1.82357">
        <ele>85</ele>
        <time>2022-06-05T09:03:47Z</time>
      </trkpt>
      <trkpt lat="47.0689" lon="-1.82373">
        <ele>85</ele>
        <time>2022-06-05T09:03:49Z</time>
      </trkpt>
      <trkpt lat="47.06888" lon="-1.82389">
        <ele>86</ele>
        <time>2022-06-05T09:03:51Z</time>
      </trkpt>
      <trkpt lat="47.06885" lon="-1.82404">
        <ele>87</ele>
        <time>2022-06-05T09:03:53Z</time>
      </trkpt>
      <trkpt lat="47.06883" lon="-1.82419">
        <ele>87</ele>
        <time>2022-06-05T09:03:55Z</time>
      </trkpt>
      <trkpt lat="47.06882" lon="-1.82434">
        <ele>88</ele>
        <time>2022-06-05T09:03:57Z</time>
      </trkpt>
      <trkpt lat="47.0688" lon="-1.82449">
        <ele>88</ele>
        <time>2022-06-05T09:03:59Z</time>
      </trkpt>
      <trkpt lat="47.06879" lon="-1.82466">
        <ele>88</ele>
        <time>2022-06-05T09:04:01Z</time>
      </trkpt>
      <trkpt lat="47.06879" lon="-1.82485">
        <ele>88</ele>
        <time>2022-06-05T09:04:03Z</time>
      </trkpt>
      <trkpt lat="47.0688" lon="-1.82503">
        <ele>88</ele>
        <time>2022-06-05T09:04:05Z</time>
      </trkpt>
      <trkpt lat="47.06881" lon="-1.82523">
        <ele>89</ele>
        <time>2022-06-05T09:04:07Z</time>
      </trkpt>
      <trkpt lat="47.06883" lon="-1.82541">
        <ele>89</ele>
        <time>2022-06-05T09:04:09Z</time>
      </trkpt>
      <trkpt lat="47.06884" lon="-1.82559">
        <ele>89</ele>
        <time>2022-06-05T09:04:11Z</time>
      </trkpt>
      <trkpt lat="47.06885" lon="-1.82576">
        <ele>89</ele>
        <time>2022-06-05T09:04:13Z</time>
      </trkpt>
      <trkpt lat="47.06887" lon="-1.82595">
        <ele>88</ele>
        <time>2022-06-05T09:04:15Z</time>
      </trkpt>
      <trkpt lat="47.06889" lon="-1.82613">
        <ele>87</ele>
        <time>2022-06-05T09:04:17Z</time>
      </trkpt>
      <trkpt lat="47.0689" lon="-1.8263">
        <ele>87</ele>
        <time>2022-06-05T09:04:19Z</time>
      </trkpt>
      <trkpt lat="47.06892" lon="-1.82648">
        <ele>87</ele>
        <time>2022-06-05T09:04:21Z</time>
      </trkpt>
      <trkpt lat="47.06893" lon="-1.82665">
        <ele>87</ele>
        <time>2022-06-05T09:04:23Z</time>
      </trkpt>
      <trkpt lat="47.06893" lon="-1.8268">
        <ele>88</ele>
        <time>2022-06-05T09:04:25Z</time>
      </trkpt>
      <trkpt lat="47.06893" lon="-1.82697">
        <ele>88</ele>
        <time>2022-06-05T09:04:27Z</time>
      </trkpt>
      <trkpt lat="47.06892" lon="-1.82716">
        <ele>88</ele>
        <time>2022-06-05T09:04:29Z</time>
      </trkpt>
      <trkpt lat="47.06892" lon="-1.82735">
        <ele>87</ele>
        <time>2022-06-05T09:04:31Z</time>
      </trkpt>
      <trkpt lat="47.06892" lon="-1.82753">
        <ele>87</ele>
        <time>2022-06-05T09:04:33Z</time>
      </trkpt>
      <trkpt lat="47.06893" lon="-1.8277">
        <ele>87</ele>
        <time>2022-06-05T09:04:35Z</time>
      </trkpt>
      <trkpt lat="47.06893" lon="-1.82787">
        <ele>87</ele>
        <time>2022-06-05T09:04:37Z</time>
      </trkpt>
      <trkpt lat="47.06894" lon="-1.82804">
        <ele>86</ele>
        <time>2022-06-05T09:04:39Z</time>
      </trkpt>
      <trkpt lat="47.06895" lon="-1.8282">
        <ele>86</ele>
        <time>2022-06-05T09:04:41Z</time>
      </trkpt>
      <trkpt lat="47.06896" lon="-1.82837">
        <ele>87</ele>
        <time>2022-06-05T09:04:43Z</time>
      </trkpt>
      <trkpt lat="47.06897" lon="-1.82855">
        <ele>87</ele>
        <time>2022-06-05T09:04:45Z</time>
      </trkpt>
      <trkpt lat="47.06898" lon="-1.82872">
        <ele>86</ele>
        <time>2022-06-05T09:04:47Z</time>
      </trkpt>
      <trkpt lat="47.06899" lon="-1.8289">
        <ele>86</ele>
        <time>2022-06-05T09:04:49Z</time>
      </trkpt>
      <trkpt lat="47.069" lon="-1.82906">
        <ele>86</ele>
        <time>2022-06-05T09:04:51Z</time>
      </trkpt>
      <trkpt lat="47.06901" lon="-1.82923">
        <ele>86</ele>
        <time>2022-06-05T09:04:53Z</time>
      </trkpt>
      <trkpt lat="47.06902" lon="-1.8294">
        <ele>86</ele>
        <time>2022-06-05T09:04:55Z</time>
      </trkpt>
      <trkpt lat="47.06903" lon="-1.82957">
        <ele>86</ele>
        <time>2022-06-05T09:04:57Z</time>
      </trkpt>
      <trkpt lat="47.06904" lon="-1.82974">
        <ele>86</ele>
        <time>2022-06-05T09:04:59Z</time>
      </trkpt>
      <trkpt lat="47.06905" lon="-1.8299">
        <ele>85</ele>
        <time>2022-06-05T09:05:01Z</time>
      </trkpt>
      <trkpt lat="47.06907" lon="-1.83006">
        <ele>85</ele>
        <time>2022-06-05T09:05:03Z</time>
      </trkpt>
      <trkpt lat="47.06911" lon="-1.83021">
        <ele>85</ele>
        <time>2022-06-05T09:05:05Z</time>
      </trkpt>
      <trkpt lat="47.06914" lon="-1.83034">
        <ele>84</ele>
        <time>2022-06-05T09:05:07Z</time>
      </trkpt>
      <trkpt lat="47.06906" lon="-1.83043">
        <ele>84</ele>
        <time>2022-06-05T09:05:09Z</time>
      </trkpt>
      <trkpt lat="47.06894" lon="-1.83042">
        <ele>84</ele>
        <time>2022-06-05T09:05:11Z</time>
      </trkpt>
      <trkpt lat="47.06881" lon="-1.8304">
        <ele>84</ele>
        <time>2022-06-05T09:05:13Z</time>
      </trkpt>
      <trkpt lat="47.06869" lon="-1.83039">
        <ele>83</ele>
        <time>2022-06-05T09:05:15Z</time>
      </trkpt>
      <trkpt lat="47.06856" lon="-1.83037">
        <ele>83</ele>
        <time>2022-06-05T09:05:17Z</time>
      </trkpt>
      <trkpt lat="47.06843" lon="-1.83035">
        <ele>84</ele>
        <time>2022-06-05T09:05:19Z</time>
      </trkpt>
      <trkpt lat="47.0683" lon="-1.83034">
        <ele>83</ele>
        <time>2022-06-05T09:05:21Z</time>
      </trkpt>
      <trkpt lat="47.06818" lon="-1.83035">
        <ele>84</ele>
        <time>2022-06-05T09:05:23Z</time>
      </trkpt>
      <trkpt lat="47.06805" lon="-1.83036">
        <ele>84</ele>
        <time>2022-06-05T09:05:25Z</time>
      </trkpt>
      <trkpt lat="47.06791" lon="-1.83038">
        <ele>83</ele>
        <time>2022-06-05T09:05:27Z</time>
      </trkpt>
      <trkpt lat="47.06777" lon="-1.8304">
        <ele>83</ele>
        <time>2022-06-05T09:05:29Z</time>
      </trkpt>
      <trkpt lat="47.06764" lon="-1.83042">
        <ele>83</ele>
        <time>2022-06-05T09:05:31Z</time>
      </trkpt>
      <trkpt lat="47.06751" lon="-1.83044">
        <ele>83</ele>
        <time>2022-06-05T09:05:33Z</time>
      </trkpt>
      <trkpt lat="47.06737" lon="-1.83046">
        <ele>83</ele>
        <time>2022-06-05T09:05:35Z</time>
      </trkpt>
      <trkpt lat="47.06723" lon="-1.83048">
        <ele>83</ele>
        <time>2022-06-05T09:05:37Z</time>
      </trkpt>
      <trkpt lat="47.0671" lon="-1.83051">
        <ele>83</ele>
        <time>2022-06-05T09:05:39Z</time>
      </trkpt>
      <trkpt lat="47.06696" lon="-1.83053">
        <ele>83</ele>
        <time>2022-06-05T09:05:41Z</time>
      </trkpt>
      <trkpt lat="47.06681" lon="-1.83057">
        <ele>83</ele>
        <time>2022-06-05T09:05:43Z</time>
      </trkpt>
      <trkpt lat="47.06668" lon="-1.83059">
        <ele>83</ele>
        <time>2022-06-05T09:05:45Z</time>
      </trkpt>
      <trkpt lat="47.06654" lon="-1.83063">
        <ele>82</ele>
        <time>2022-06-05T09:05:47Z</time>
      </trkpt>
      <trkpt lat="47.0664" lon="-1.83066">
        <ele>82</ele>
        <time>2022-06-05T09:05:49Z</time>
      </trkpt>
      <trkpt lat="47.06626" lon="-1.83069">
        <ele>82</ele>
        <time>2022-06-05T09:05:51Z</time>
      </trkpt>
      <trkpt lat="47.06613" lon="-1.83073">
        <ele>83</ele>
        <time>2022-06-05T09:05:53Z</time>
      </trkpt>
      <trkpt lat="47.066" lon="-1.83077">
        <ele>83</ele>
        <time>2022-06-05T09:05:55Z</time>
      </trkpt>
      <trkpt lat="47.06586" lon="-1.83081">
        <ele>83</ele>
        <time>2022-06-05T09:05:57Z</time>
      </trkpt>
      <trkpt lat="47.06573" lon="-1.83084">
        <ele>83</ele>
        <time>2022-06-05T09:05:59Z</time>
      </trkpt>
      <trkpt lat="47.06559" lon="-1.83088">
        <ele>83</ele>
        <time>2022-06-05T09:06:01Z</time>
      </trkpt>
      <trkpt lat="47.06546" lon="-1.83092">
        <ele>82</ele>
        <time>2022-06-05T09:06:03Z</time>
      </trkpt>
      <trkpt lat="47.06533" lon="-1.83098">
        <ele>82</ele>
        <time>2022-06-05T09:06:05Z</time>
      </trkpt>
      <trkpt lat="47.0652" lon="-1.83103">
        <ele>82</ele>
        <time>2022-06-05T09:06:07Z</time>
      </trkpt>
      <trkpt lat="47.06508" lon="-1.83109">
        <ele>82</ele>
        <time>2022-06-05T09:06:09Z</time>
      </trkpt>
      <trkpt lat="47.06495" lon="-1.83114">
        <ele>82</ele>
        <time>2022-06-05T09:06:11Z</time>
      </trkpt>
      <trkpt lat="47.06483" lon="-1.83119">
        <ele>82</ele>
        <time>2022-06-05T09:06:13Z</time>
      </trkpt>
      <trkpt lat="47.06471" lon="-1.83124">
        <ele>82</ele>
        <time>2022-06-05T09:06:15Z</time>
      </trkpt>
      <trkpt lat="47.06458" lon="-1.83129">
        <ele>82</ele>
        <time>2022-06-05T09:06:17Z</time>
      </trkpt>
      <trkpt lat="47.06446" lon="-1.83135">
        <ele>81</ele>
        <time>2022-06-05T09:06:19Z</time>
      </trkpt>
      <trkpt lat="47.06433" lon="-1.8314">
        <ele>81</ele>
        <time>2022-06-05T09:06:21Z</time>
      </trkpt>
      <trkpt lat="47.06421" lon="-1.83145">
        <ele>81</ele>
        <time>2022-06-05T09:06:23Z</time>
      </trkpt>
      <trkpt lat="47.06409" lon="-1.83151">
        <ele>81</ele>
        <time>2022-06-05T09:06:25Z</time>
      </trkpt>
      <trkpt lat="47.06397" lon="-1.83156">
        <ele>81</ele>
        <time>2022-06-05T09:06:27Z</time>
      </trkpt>
      <trkpt lat="47.06384" lon="-1.83161">
        <ele>81</ele>
        <time>2022-06-05T09:06:29Z</time>
      </trkpt>
      <trkpt lat="47.06373" lon="-1.83166">
        <ele>82</ele>
        <time>2022-06-05T09:06:31Z</time>
      </trkpt>
      <trkpt lat="47.06361" lon="-1.83172">
        <ele>82</ele>
        <time>2022-06-05T09:06:33Z</time>
      </trkpt>
      <trkpt lat="47.06349" lon="-1.83177">
        <ele>82</ele>
        <time>2022-06-05T09:06:35Z</time>
      </trkpt>
      <trkpt lat="47.06336" lon="-1.83182">
        <ele>82</ele>
        <time>2022-06-05T09:06:37Z</time>
      </trkpt>
      <trkpt lat="47.06324" lon="-1.83187">
        <ele>82</ele>
        <time>2022-06-05T09:06:39Z</time>
      </trkpt>
      <trkpt lat="47.06313" lon="-1.83192">
        <ele>82</ele>
        <time>2022-06-05T09:06:41Z</time>
      </trkpt>
      <trkpt lat="47.06301" lon="-1.83195">
        <ele>82</ele>
        <time>2022-06-05T09:06:43Z</time>
      </trkpt>
      <trkpt lat="47.0629" lon="-1.83198">
        <ele>82</ele>
        <time>2022-06-05T09:06:45Z</time>
      </trkpt>
      <trkpt lat="47.06278" lon="-1.83201">
        <ele>83</ele>
        <time>2022-06-05T09:06:47Z</time>
      </trkpt>
      <trkpt lat="47.06265" lon="-1.83203">
        <ele>83</ele>
        <time>2022-06-05T09:06:49Z</time>
      </trkpt>
      <trkpt lat="47.06253" lon="-1.83204">
        <ele>83</ele>
        <time>2022-06-05T09:06:51Z</time>
      </trkpt>
      <trkpt lat="47.06241" lon="-1.83204">
        <ele>83</ele>
        <time>2022-06-05T09:06:53Z</time>
      </trkpt>
      <trkpt lat="47.06228" lon="-1.83205">
        <ele>84</ele>
        <time>2022-06-05T09:06:55Z</time>
      </trkpt>
      <trkpt lat="47.06215" lon="-1.83205">
        <ele>84</ele>
        <time>2022-06-05T09:06:57Z</time>
      </trkpt>
      <trkpt lat="47.06203" lon="-1.83206">
        <ele>84</ele>
        <time>2022-06-05T09:06:59Z</time>
      </trkpt>
      <trkpt lat="47.0619" lon="-1.83207">
        <ele>85</ele>
        <time>2022-06-05T09:07:01Z</time>
      </trkpt>
      <trkpt lat="47.06177" lon="-1.83207">
        <ele>85</ele>
        <time>2022-06-05T09:07:03Z</time>
      </trkpt>
      <trkpt lat="47.06163" lon="-1.83208">
        <ele>85</ele>
        <time>2022-06-05T09:07:05Z</time>
      </trkpt>
      <trkpt lat="47.0615" lon="-1.83209">
        <ele>85</ele>
        <time>2022-06-05T09:07:07Z</time>
      </trkpt>
      <trkpt lat="47.06137" lon="-1.8321">
        <ele>86</ele>
        <time>2022-06-05T09:07:09Z</time>
      </trkpt>
      <trkpt lat="47.06123" lon="-1.83211">
        <ele>86</ele>
        <time>2022-06-05T09:07:11Z</time>
      </trkpt>
      <trkpt lat="47.06109" lon="-1.83212">
        <ele>86</ele>
        <time>2022-06-05T09:07:13Z</time>
      </trkpt>
      <trkpt lat="47.06095" lon="-1.83213">
        <ele>86</ele>
        <time>2022-06-05T09:07:15Z</time>
      </trkpt>
      <trkpt lat="47.0608" lon="-1.83214">
        <ele>86</ele>
        <time>2022-06-05T09:07:17Z</time>
      </trkpt>
      <trkpt lat="47.06066" lon="-1.83215">
        <ele>86</ele>
        <time>2022-06-05T09:07:19Z</time>
      </trkpt>
      <trkpt lat="47.06052" lon="-1.83215">
        <ele>87</ele>
        <time>2022-06-05T09:07:21Z</time>
      </trkpt>
      <trkpt lat="47.06038" lon="-1.83216">
        <ele>87</ele>
        <time>2022-06-05T09:07:23Z</time>
      </trkpt>
      <trkpt lat="47.06024" lon="-1.83217">
        <ele>87</ele>
        <time>2022-06-05T09:07:25Z</time>
      </trkpt>
      <trkpt lat="47.06011" lon="-1.83218">
        <ele>87</ele>
        <time>2022-06-05T09:07:27Z</time>
      </trkpt>
      <trkpt lat="47.05997" lon="-1.83218">
        <ele>87</ele>
        <time>2022-06-05T09:07:29Z</time>
      </trkpt>
      <trkpt lat="47.05983" lon="-1.8322">
        <ele>87</ele>
        <time>2022-06-05T09:07:31Z</time>
      </trkpt>
      <trkpt lat="47.0597" lon="-1.83227">
        <ele>86</ele>
        <time>2022-06-05T09:07:33Z</time>
      </trkpt>
      <trkpt lat="47.05959" lon="-1.83238">
        <ele>86</ele>
        <time>2022-06-05T09:07:35Z</time>
      </trkpt>
      <trkpt lat="47.05945" lon="-1.8326">
        <ele>85</ele>
        <time>2022-06-05T09:07:38Z</time>
      </trkpt>
      <trkpt lat="47.05936" lon="-1.83274">
        <ele>84</ele>
        <time>2022-06-05T09:07:40Z</time>
      </trkpt>
      <trkpt lat="47.05926" lon="-1.83288">
        <ele>84</ele>
        <time>2022-06-05T09:07:42Z</time>
      </trkpt>
      <trkpt lat="47.05912" lon="-1.83309">
        <ele>84</ele>
        <time>2022-06-05T09:07:45Z</time>
      </trkpt>
      <trkpt lat="47.05903" lon="-1.83322">
        <ele>84</ele>
        <time>2022-06-05T09:07:47Z</time>
      </trkpt>
      <trkpt lat="47.0589" lon="-1.83343">
        <ele>84</ele>
        <time>2022-06-05T09:07:50Z</time>
      </trkpt>
      <trkpt lat="47.0588" lon="-1.83356">
        <ele>84</ele>
        <time>2022-06-05T09:07:52Z</time>
      </trkpt>
      <trkpt lat="47.05866" lon="-1.83376">
        <ele>84</ele>
        <time>2022-06-05T09:07:55Z</time>
      </trkpt>
      <trkpt lat="47.05858" lon="-1.8339">
        <ele>84</ele>
        <time>2022-06-05T09:07:57Z</time>
      </trkpt>
      <trkpt lat="47.05849" lon="-1.83403">
        <ele>84</ele>
        <time>2022-06-05T09:07:59Z</time>
      </trkpt>
      <trkpt lat="47.0584" lon="-1.83416">
        <ele>84</ele>
        <time>2022-06-05T09:08:01Z</time>
      </trkpt>
      <trkpt lat="47.05832" lon="-1.83428">
        <ele>84</ele>
        <time>2022-06-05T09:08:03Z</time>
      </trkpt>
      <trkpt lat="47.05823" lon="-1.83442">
        <ele>84</ele>
        <time>2022-06-05T09:08:05Z</time>
      </trkpt>
      <trkpt lat="47.05814" lon="-1.83454">
        <ele>85</ele>
        <time>2022-06-05T09:08:07Z</time>
      </trkpt>
      <trkpt lat="47.05805" lon="-1.83467">
        <ele>85</ele>
        <time>2022-06-05T09:08:09Z</time>
      </trkpt>
      <trkpt lat="47.05796" lon="-1.83479">
        <ele>85</ele>
        <time>2022-06-05T09:08:11Z</time>
      </trkpt>
      <trkpt lat="47.05786" lon="-1.83491">
        <ele>84</ele>
        <time>2022-06-05T09:08:13Z</time>
      </trkpt>
      <trkpt lat="47.05776" lon="-1.83502">
        <ele>84</ele>
        <time>2022-06-05T09:08:15Z</time>
      </trkpt>
      <trkpt lat="47.05766" lon="-1.83514">
        <ele>84</ele>
        <time>2022-06-05T09:08:17Z</time>
      </trkpt>
      <trkpt lat="47.05756" lon="-1.83526">
        <ele>84</ele>
        <time>2022-06-05T09:08:19Z</time>
      </trkpt>
      <trkpt lat="47.05746" lon="-1.83537">
        <ele>84</ele>
        <time>2022-06-05T09:08:21Z</time>
      </trkpt>
      <trkpt lat="47.05737" lon="-1.83549">
        <ele>85</ele>
        <time>2022-06-05T09:08:23Z</time>
      </trkpt>
      <trkpt lat="47.05728" lon="-1.83561">
        <ele>84</ele>
        <time>2022-06-05T09:08:25Z</time>
      </trkpt>
      <trkpt lat="47.05719" lon="-1.83574">
        <ele>85</ele>
        <time>2022-06-05T09:08:27Z</time>
      </trkpt>
      <trkpt lat="47.05712" lon="-1.83588">
        <ele>85</ele>
        <time>2022-06-05T09:08:29Z</time>
      </trkpt>
      <trkpt lat="47.05704" lon="-1.83602">
        <ele>85</ele>
        <time>2022-06-05T09:08:31Z</time>
      </trkpt>
      <trkpt lat="47.05696" lon="-1.83616">
        <ele>85</ele>
        <time>2022-06-05T09:08:33Z</time>
      </trkpt>
      <trkpt lat="47.05688" lon="-1.83629">
        <ele>86</ele>
        <time>2022-06-05T09:08:35Z</time>
      </trkpt>
      <trkpt lat="47.0568" lon="-1.83643">
        <ele>86</ele>
        <time>2022-06-05T09:08:37Z</time>
      </trkpt>
      <trkpt lat="47.05672" lon="-1.83657">
        <ele>86</ele>
        <time>2022-06-05T09:08:39Z</time>
      </trkpt>
      <trkpt lat="47.05664" lon="-1.83672">
        <ele>86</ele>
        <time>2022-06-05T09:08:41Z</time>
      </trkpt>
      <trkpt lat="47.05656" lon="-1.83686">
        <ele>86</ele>
        <time>2022-06-05T09:08:43Z</time>
      </trkpt>
      <trkpt lat="47.05649" lon="-1.83701">
        <ele>87</ele>
        <time>2022-06-05T09:08:45Z</time>
      </trkpt>
      <trkpt lat="47.05641" lon="-1.83715">
        <ele>86</ele>
        <time>2022-06-05T09:08:47Z</time>
      </trkpt>
      <trkpt lat="47.05633" lon="-1.83728">
        <ele>87</ele>
        <time>2022-06-05T09:08:49Z</time>
      </trkpt>
      <trkpt lat="47.05625" lon="-1.83742">
        <ele>86</ele>
        <time>2022-06-05T09:08:51Z</time>
      </trkpt>
      <trkpt lat="47.05617" lon="-1.83757">
        <ele>85</ele>
        <time>2022-06-05T09:08:53Z</time>
      </trkpt>
      <trkpt lat="47.05609" lon="-1.83771">
        <ele>86</ele>
        <time>2022-06-05T09:08:55Z</time>
      </trkpt>
      <trkpt lat="47.05601" lon="-1.83786">
        <ele>86</ele>
        <time>2022-06-05T09:08:57Z</time>
      </trkpt>
      <trkpt lat="47.05594" lon="-1.838">
        <ele>86</ele>
        <time>2022-06-05T09:08:59Z</time>
      </trkpt>
      <trkpt lat="47.05586" lon="-1.83815">
        <ele>86</ele>
        <time>2022-06-05T09:09:01Z</time>
      </trkpt>
      <trkpt lat="47.05578" lon="-1.83829">
        <ele>86</ele>
        <time>2022-06-05T09:09:03Z</time>
      </trkpt>
      <trkpt lat="47.05569" lon="-1.83843">
        <ele>86</ele>
        <time>2022-06-05T09:09:05Z</time>
      </trkpt>
      <trkpt lat="47.05561" lon="-1.83858">
        <ele>86</ele>
        <time>2022-06-05T09:09:07Z</time>
      </trkpt>
      <trkpt lat="47.05553" lon="-1.83872">
        <ele>86</ele>
        <time>2022-06-05T09:09:09Z</time>
      </trkpt>
      <trkpt lat="47.05545" lon="-1.83886">
        <ele>86</ele>
        <time>2022-06-05T09:09:11Z</time>
      </trkpt>
      <trkpt lat="47.05537" lon="-1.83901">
        <ele>86</ele>
        <time>2022-06-05T09:09:13Z</time>
      </trkpt>
      <trkpt lat="47.0553" lon="-1.83915">
        <ele>86</ele>
        <time>2022-06-05T09:09:15Z</time>
      </trkpt>
      <trkpt lat="47.05521" lon="-1.8393">
        <ele>86</ele>
        <time>2022-06-05T09:09:17Z</time>
      </trkpt>
      <trkpt lat="47.05514" lon="-1.83944">
        <ele>87</ele>
        <time>2022-06-05T09:09:19Z</time>
      </trkpt>
      <trkpt lat="47.05506" lon="-1.83958">
        <ele>87</ele>
        <time>2022-06-05T09:09:21Z</time>
      </trkpt>
      <trkpt lat="47.05498" lon="-1.83972">
        <ele>87</ele>
        <time>2022-06-05T09:09:23Z</time>
      </trkpt>
      <trkpt lat="47.05491" lon="-1.83987">
        <ele>87</ele>
        <time>2022-06-05T09:09:25Z</time>
      </trkpt>
      <trkpt lat="47.05484" lon="-1.84001">
        <ele>87</ele>
        <time>2022-06-05T09:09:27Z</time>
      </trkpt>
      <trkpt lat="47.05476" lon="-1.84016">
        <ele>87</ele>
        <time>2022-06-05T09:09:29Z</time>
      </trkpt>
      <trkpt lat="47.05469" lon="-1.84031">
        <ele>87</ele>
        <time>2022-06-05T09:09:31Z</time>
      </trkpt>
      <trkpt lat="47.05461" lon="-1.84046">
        <ele>87</ele>
        <time>2022-06-05T09:09:33Z</time>
      </trkpt>
      <trkpt lat="47.05453" lon="-1.84061">
        <ele>87</ele>
        <time>2022-06-05T09:09:35Z</time>
      </trkpt>
      <trkpt lat="47.05446" lon="-1.84076">
        <ele>87</ele>
        <time>2022-06-05T09:09:37Z</time>
      </trkpt>
      <trkpt lat="47.05438" lon="-1.84091">
        <ele>87</ele>
        <time>2022-06-05T09:09:39Z</time>
      </trkpt>
      <trkpt lat="47.0543" lon="-1.84106">
        <ele>87</ele>
        <time>2022-06-05T09:09:41Z</time>
      </trkpt>
      <trkpt lat="47.05423" lon="-1.84121">
        <ele>87</ele>
        <time>2022-06-05T09:09:43Z</time>
      </trkpt>
      <trkpt lat="47.05415" lon="-1.84137">
        <ele>87</ele>
        <time>2022-06-05T09:09:45Z</time>
      </trkpt>
      <trkpt lat="47.05408" lon="-1.84151">
        <ele>87</ele>
        <time>2022-06-05T09:09:47Z</time>
      </trkpt>
      <trkpt lat="47.054" lon="-1.84166">
        <ele>87</ele>
        <time>2022-06-05T09:09:49Z</time>
      </trkpt>
      <trkpt lat="47.05392" lon="-1.84181">
        <ele>87</ele>
        <time>2022-06-05T09:09:51Z</time>
      </trkpt>
      <trkpt lat="47.05385" lon="-1.84196">
        <ele>87</ele>
        <time>2022-06-05T09:09:53Z</time>
      </trkpt>
      <trkpt lat="47.05377" lon="-1.84211">
        <ele>87</ele>
        <time>2022-06-05T09:09:55Z</time>
      </trkpt>
      <trkpt lat="47.05369" lon="-1.84226">
        <ele>87</ele>
        <time>2022-06-05T09:09:57Z</time>
      </trkpt>
      <trkpt lat="47.05362" lon="-1.84241">
        <ele>87</ele>
        <time>2022-06-05T09:09:59Z</time>
      </trkpt>
      <trkpt lat="47.05355" lon="-1.84256">
        <ele>87</ele>
        <time>2022-06-05T09:10:01Z</time>
      </trkpt>
      <trkpt lat="47.05347" lon="-1.84271">
        <ele>87</ele>
        <time>2022-06-05T09:10:03Z</time>
      </trkpt>
      <trkpt lat="47.05339" lon="-1.84286">
        <ele>87</ele>
        <time>2022-06-05T09:10:05Z</time>
      </trkpt>
      <trkpt lat="47.05332" lon="-1.84301">
        <ele>87</ele>
        <time>2022-06-05T09:10:07Z</time>
      </trkpt>
      <trkpt lat="47.05325" lon="-1.84317">
        <ele>87</ele>
        <time>2022-06-05T09:10:09Z</time>
      </trkpt>
      <trkpt lat="47.05317" lon="-1.84332">
        <ele>87</ele>
        <time>2022-06-05T09:10:11Z</time>
      </trkpt>
      <trkpt lat="47.05309" lon="-1.84347">
        <ele>87</ele>
        <time>2022-06-05T09:10:13Z</time>
      </trkpt>
      <trkpt lat="47.05301" lon="-1.84362">
        <ele>87</ele>
        <time>2022-06-05T09:10:15Z</time>
      </trkpt>
      <trkpt lat="47.05294" lon="-1.84377">
        <ele>87</ele>
        <time>2022-06-05T09:10:17Z</time>
      </trkpt>
      <trkpt lat="47.05286" lon="-1.84392">
        <ele>87</ele>
        <time>2022-06-05T09:10:19Z</time>
      </trkpt>
      <trkpt lat="47.05279" lon="-1.84407">
        <ele>88</ele>
        <time>2022-06-05T09:10:21Z</time>
      </trkpt>
      <trkpt lat="47.05272" lon="-1.84422">
        <ele>87</ele>
        <time>2022-06-05T09:10:23Z</time>
      </trkpt>
      <trkpt lat="47.05265" lon="-1.84436">
        <ele>88</ele>
        <time>2022-06-05T09:10:25Z</time>
      </trkpt>
      <trkpt lat="47.05258" lon="-1.8445">
        <ele>87</ele>
        <time>2022-06-05T09:10:27Z</time>
      </trkpt>
      <trkpt lat="47.05251" lon="-1.84464">
        <ele>88</ele>
        <time>2022-06-05T09:10:29Z</time>
      </trkpt>
      <trkpt lat="47.05245" lon="-1.84477">
        <ele>88</ele>
        <time>2022-06-05T09:10:31Z</time>
      </trkpt>
      <trkpt lat="47.05238" lon="-1.8449">
        <ele>88</ele>
        <time>2022-06-05T09:10:33Z</time>
      </trkpt>
      <trkpt lat="47.05231" lon="-1.84503">
        <ele>88</ele>
        <time>2022-06-05T09:10:35Z</time>
      </trkpt>
      <trkpt lat="47.05224" lon="-1.84516">
        <ele>88</ele>
        <time>2022-06-05T09:10:37Z</time>
      </trkpt>
      <trkpt lat="47.05218" lon="-1.84529">
        <ele>89</ele>
        <time>2022-06-05T09:10:39Z</time>
      </trkpt>
      <trkpt lat="47.05211" lon="-1.84541">
        <ele>89</ele>
        <time>2022-06-05T09:10:41Z</time>
      </trkpt>
      <trkpt lat="47.05198" lon="-1.84542">
        <ele>90</ele>
        <time>2022-06-05T09:10:44Z</time>
      </trkpt>
      <trkpt lat="47.0519" lon="-1.84531">
        <ele>90</ele>
        <time>2022-06-05T09:10:46Z</time>
      </trkpt>
      <trkpt lat="47.05182" lon="-1.8452">
        <ele>90</ele>
        <time>2022-06-05T09:10:48Z</time>
      </trkpt>
      <trkpt lat="47.05172" lon="-1.84509">
        <ele>90</ele>
        <time>2022-06-05T09:10:50Z</time>
      </trkpt>
      <trkpt lat="47.05164" lon="-1.84496">
        <ele>90</ele>
        <time>2022-06-05T09:10:52Z</time>
      </trkpt>
      <trkpt lat="47.05155" lon="-1.84484">
        <ele>90</ele>
        <time>2022-06-05T09:10:54Z</time>
      </trkpt>
      <trkpt lat="47.05146" lon="-1.84472">
        <ele>91</ele>
        <time>2022-06-05T09:10:56Z</time>
      </trkpt>
      <trkpt lat="47.05138" lon="-1.84459">
        <ele>91</ele>
        <time>2022-06-05T09:10:58Z</time>
      </trkpt>
      <trkpt lat="47.0513" lon="-1.84446">
        <ele>91</ele>
        <time>2022-06-05T09:11:00Z</time>
      </trkpt>
      <trkpt lat="47.05121" lon="-1.84433">
        <ele>91</ele>
        <time>2022-06-05T09:11:02Z</time>
      </trkpt>
      <trkpt lat="47.05112" lon="-1.84421">
        <ele>92</ele>
        <time>2022-06-05T09:11:04Z</time>
      </trkpt>
      <trkpt lat="47.05102" lon="-1.8441">
        <ele>92</ele>
        <time>2022-06-05T09:11:06Z</time>
      </trkpt>
      <trkpt lat="47.05092" lon="-1.84398">
        <ele>92</ele>
        <time>2022-06-05T09:11:08Z</time>
      </trkpt>
      <trkpt lat="47.05081" lon="-1.84386">
        <ele>92</ele>
        <time>2022-06-05T09:11:10Z</time>
      </trkpt>
      <trkpt lat="47.05071" lon="-1.84375">
        <ele>92</ele>
        <time>2022-06-05T09:11:12Z</time>
      </trkpt>
      <trkpt lat="47.05061" lon="-1.84363">
        <ele>93</ele>
        <time>2022-06-05T09:11:14Z</time>
      </trkpt>
      <trkpt lat="47.05051" lon="-1.84352">
        <ele>92</ele>
        <time>2022-06-05T09:11:16Z</time>
      </trkpt>
      <trkpt lat="47.05041" lon="-1.84341">
        <ele>92</ele>
        <time>2022-06-05T09:11:18Z</time>
      </trkpt>
      <trkpt lat="47.05031" lon="-1.84331">
        <ele>92</ele>
        <time>2022-06-05T09:11:20Z</time>
      </trkpt>
      <trkpt lat="47.0502" lon="-1.84322">
        <ele>92</ele>
        <time>2022-06-05T09:11:22Z</time>
      </trkpt>
      <trkpt lat="47.0501" lon="-1.84313">
        <ele>92</ele>
        <time>2022-06-05T09:11:24Z</time>
      </trkpt>
      <trkpt lat="47.04999" lon="-1.84305">
        <ele>92</ele>
        <time>2022-06-05T09:11:26Z</time>
      </trkpt>
      <trkpt lat="47.04988" lon="-1.84295">
        <ele>91</ele>
        <time>2022-06-05T09:11:28Z</time>
      </trkpt>
      <trkpt lat="47.04978" lon="-1.84286">
        <ele>92</ele>
        <time>2022-06-05T09:11:30Z</time>
      </trkpt>
      <trkpt lat="47.04968" lon="-1.84276">
        <ele>92</ele>
        <time>2022-06-05T09:11:32Z</time>
      </trkpt>
      <trkpt lat="47.04956" lon="-1.84266">
        <ele>93</ele>
        <time>2022-06-05T09:11:34Z</time>
      </trkpt>
      <trkpt lat="47.04945" lon="-1.84257">
        <ele>93</ele>
        <time>2022-06-05T09:11:36Z</time>
      </trkpt>
      <trkpt lat="47.04935" lon="-1.84247">
        <ele>93</ele>
        <time>2022-06-05T09:11:38Z</time>
      </trkpt>
      <trkpt lat="47.04925" lon="-1.84236">
        <ele>94</ele>
        <time>2022-06-05T09:11:40Z</time>
      </trkpt>
      <trkpt lat="47.04914" lon="-1.84226">
        <ele>94</ele>
        <time>2022-06-05T09:11:42Z</time>
      </trkpt>
      <trkpt lat="47.04904" lon="-1.84216">
        <ele>93</ele>
        <time>2022-06-05T09:11:44Z</time>
      </trkpt>
      <trkpt lat="47.04893" lon="-1.84205">
        <ele>94</ele>
        <time>2022-06-05T09:11:46Z</time>
      </trkpt>
      <trkpt lat="47.04882" lon="-1.84195">
        <ele>94</ele>
        <time>2022-06-05T09:11:48Z</time>
      </trkpt>
      <trkpt lat="47.04872" lon="-1.84184">
        <ele>94</ele>
        <time>2022-06-05T09:11:50Z</time>
      </trkpt>
      <trkpt lat="47.04861" lon="-1.84172">
        <ele>94</ele>
        <time>2022-06-05T09:11:52Z</time>
      </trkpt>
      <trkpt lat="47.04851" lon="-1.84161">
        <ele>93</ele>
        <time>2022-06-05T09:11:54Z</time>
      </trkpt>
      <trkpt lat="47.04841" lon="-1.8415">
        <ele>93</ele>
        <time>2022-06-05T09:11:56Z</time>
      </trkpt>
      <trkpt lat="47.04831" lon="-1.84138">
        <ele>93</ele>
        <time>2022-06-05T09:11:58Z</time>
      </trkpt>
      <trkpt lat="47.04821" lon="-1.84126">
        <ele>93</ele>
        <time>2022-06-05T09:12:00Z</time>
      </trkpt>
      <trkpt lat="47.04811" lon="-1.84113">
        <ele>92</ele>
        <time>2022-06-05T09:12:02Z</time>
      </trkpt>
      <trkpt lat="47.04801" lon="-1.841">
        <ele>92</ele>
        <time>2022-06-05T09:12:04Z</time>
      </trkpt>
      <trkpt lat="47.04791" lon="-1.84088">
        <ele>92</ele>
        <time>2022-06-05T09:12:06Z</time>
      </trkpt>
      <trkpt lat="47.04781" lon="-1.84075">
        <ele>91</ele>
        <time>2022-06-05T09:12:08Z</time>
      </trkpt>
      <trkpt lat="47.04771" lon="-1.84062">
        <ele>91</ele>
        <time>2022-06-05T09:12:10Z</time>
      </trkpt>
      <trkpt lat="47.04761" lon="-1.84049">
        <ele>90</ele>
        <time>2022-06-05T09:12:12Z</time>
      </trkpt>
      <trkpt lat="47.04751" lon="-1.84036">
        <ele>90</ele>
        <time>2022-06-05T09:12:14Z</time>
      </trkpt>
      <trkpt lat="47.04741" lon="-1.84022">
        <ele>89</ele>
        <time>2022-06-05T09:12:16Z</time>
      </trkpt>
      <trkpt lat="47.04731" lon="-1.84009">
        <ele>89</ele>
        <time>2022-06-05T09:12:18Z</time>
      </trkpt>
      <trkpt lat="47.0472" lon="-1.83997">
        <ele>90</ele>
        <time>2022-06-05T09:12:20Z</time>
      </trkpt>
      <trkpt lat="47.0471" lon="-1.83984">
        <ele>89</ele>
        <time>2022-06-05T09:12:22Z</time>
      </trkpt>
      <trkpt lat="47.04699" lon="-1.83971">
        <ele>89</ele>
        <time>2022-06-05T09:12:24Z</time>
      </trkpt>
      <trkpt lat="47.04689" lon="-1.83959">
        <ele>89</ele>
        <time>2022-06-05T09:12:26Z</time>
      </trkpt>
      <trkpt lat="47.04678" lon="-1.83947">
        <ele>89</ele>
        <time>2022-06-05T09:12:28Z</time>
      </trkpt>
      <trkpt lat="47.04668" lon="-1.83934">
        <ele>89</ele>
        <time>2022-06-05T09:12:30Z</time>
      </trkpt>
      <trkpt lat="47.04658" lon="-1.83922">
        <ele>89</ele>
        <time>2022-06-05T09:12:32Z</time>
      </trkpt>
      <trkpt lat="47.04648" lon="-1.83909">
        <ele>89</ele>
        <time>2022-06-05T09:12:34Z</time>
      </trkpt>
      <trkpt lat="47.04639" lon="-1.83896">
        <ele>89</ele>
        <time>2022-06-05T09:12:36Z</time>
      </trkpt>
      <trkpt lat="47.0463" lon="-1.83882">
        <ele>89</ele>
        <time>2022-06-05T09:12:38Z</time>
      </trkpt>
      <trkpt lat="47.0462" lon="-1.83868">
        <ele>89</ele>
        <time>2022-06-05T09:12:40Z</time>
      </trkpt>
      <trkpt lat="47.04611" lon="-1.83855">
        <ele>89</ele>
        <time>2022-06-05T09:12:42Z</time>
      </trkpt>
      <trkpt lat="47.046" lon="-1.83844">
        <ele>89</ele>
        <time>2022-06-05T09:12:44Z</time>
      </trkpt>
      <trkpt lat="47.04589" lon="-1.83833">
        <ele>90</ele>
        <time>2022-06-05T09:12:46Z</time>
      </trkpt>
      <trkpt lat="47.04577" lon="-1.83824">
        <ele>89</ele>
        <time>2022-06-05T09:12:48Z</time>
      </trkpt>
      <trkpt lat="47.04566" lon="-1.83816">
        <ele>89</ele>
        <time>2022-06-05T09:12:50Z</time>
      </trkpt>
      <trkpt lat="47.04554" lon="-1.83808">
        <ele>89</ele>
        <time>2022-06-05T09:12:52Z</time>
      </trkpt>
      <trkpt lat="47.04542" lon="-1.83799">
        <ele>89</ele>
        <time>2022-06-05T09:12:54Z</time>
      </trkpt>
      <trkpt lat="47.04531" lon="-1.83791">
        <ele>89</ele>
        <time>2022-06-05T09:12:56Z</time>
      </trkpt>
      <trkpt lat="47.04519" lon="-1.83783">
        <ele>88</ele>
        <time>2022-06-05T09:12:58Z</time>
      </trkpt>
      <trkpt lat="47.04508" lon="-1.83775">
        <ele>88</ele>
        <time>2022-06-05T09:13:00Z</time>
      </trkpt>
      <trkpt lat="47.04496" lon="-1.83766">
        <ele>89</ele>
        <time>2022-06-05T09:13:02Z</time>
      </trkpt>
      <trkpt lat="47.04484" lon="-1.83757">
        <ele>89</ele>
        <time>2022-06-05T09:13:04Z</time>
      </trkpt>
      <trkpt lat="47.04472" lon="-1.83748">
        <ele>89</ele>
        <time>2022-06-05T09:13:06Z</time>
      </trkpt>
      <trkpt lat="47.04462" lon="-1.83739">
        <ele>89</ele>
        <time>2022-06-05T09:13:08Z</time>
      </trkpt>
      <trkpt lat="47.04451" lon="-1.83729">
        <ele>89</ele>
        <time>2022-06-05T09:13:10Z</time>
      </trkpt>
      <trkpt lat="47.0444" lon="-1.83719">
        <ele>88</ele>
        <time>2022-06-05T09:13:12Z</time>
      </trkpt>
      <trkpt lat="47.04429" lon="-1.83711">
        <ele>89</ele>
        <time>2022-06-05T09:13:14Z</time>
      </trkpt>
      <trkpt lat="47.04417" lon="-1.83703">
        <ele>89</ele>
        <time>2022-06-05T09:13:16Z</time>
      </trkpt>
      <trkpt lat="47.04405" lon="-1.83695">
        <ele>89</ele>
        <time>2022-06-05T09:13:18Z</time>
      </trkpt>
      <trkpt lat="47.04392" lon="-1.83686">
        <ele>89</ele>
        <time>2022-06-05T09:13:20Z</time>
      </trkpt>
      <trkpt lat="47.0438" lon="-1.83678">
        <ele>88</ele>
        <time>2022-06-05T09:13:22Z</time>
      </trkpt>
      <trkpt lat="47.04367" lon="-1.83673">
        <ele>87</ele>
        <time>2022-06-05T09:13:24Z</time>
      </trkpt>
      <trkpt lat="47.04353" lon="-1.83669">
        <ele>87</ele>
        <time>2022-06-05T09:13:26Z</time>
      </trkpt>
      <trkpt lat="47.04339" lon="-1.83665">
        <ele>87</ele>
        <time>2022-06-05T09:13:28Z</time>
      </trkpt>
      <trkpt lat="47.04325" lon="-1.83662">
        <ele>87</ele>
        <time>2022-06-05T09:13:30Z</time>
      </trkpt>
      <trkpt lat="47.04312" lon="-1.83659">
        <ele>88</ele>
        <time>2022-06-05T09:13:32Z</time>
      </trkpt>
      <trkpt lat="47.04299" lon="-1.83655">
        <ele>88</ele>
        <time>2022-06-05T09:13:34Z</time>
      </trkpt>
      <trkpt lat="47.04285" lon="-1.83652">
        <ele>88</ele>
        <time>2022-06-05T09:13:36Z</time>
      </trkpt>
      <trkpt lat="47.04271" lon="-1.83649">
        <ele>88</ele>
        <time>2022-06-05T09:13:38Z</time>
      </trkpt>
      <trkpt lat="47.04258" lon="-1.83645">
        <ele>88</ele>
        <time>2022-06-05T09:13:40Z</time>
      </trkpt>
      <trkpt lat="47.04244" lon="-1.83641">
        <ele>87</ele>
        <time>2022-06-05T09:13:42Z</time>
      </trkpt>
      <trkpt lat="47.04231" lon="-1.83638">
        <ele>86</ele>
        <time>2022-06-05T09:13:44Z</time>
      </trkpt>
      <trkpt lat="47.04219" lon="-1.83631">
        <ele>86</ele>
        <time>2022-06-05T09:13:46Z</time>
      </trkpt>
      <trkpt lat="47.04207" lon="-1.83621">
        <ele>85</ele>
        <time>2022-06-05T09:13:48Z</time>
      </trkpt>
      <trkpt lat="47.04195" lon="-1.83618">
        <ele>86</ele>
        <time>2022-06-05T09:13:50Z</time>
      </trkpt>
      <trkpt lat="47.04183" lon="-1.83617">
        <ele>86</ele>
        <time>2022-06-05T09:13:52Z</time>
      </trkpt>
      <trkpt lat="47.0417" lon="-1.83614">
        <ele>86</ele>
        <time>2022-06-05T09:13:54Z</time>
      </trkpt>
      <trkpt lat="47.04158" lon="-1.83608">
        <ele>86</ele>
        <time>2022-06-05T09:13:56Z</time>
      </trkpt>
      <trkpt lat="47.04146" lon="-1.83603">
        <ele>86</ele>
        <time>2022-06-05T09:13:58Z</time>
      </trkpt>
      <trkpt lat="47.04134" lon="-1.83597">
        <ele>87</ele>
        <time>2022-06-05T09:14:00Z</time>
      </trkpt>
      <trkpt lat="47.04122" lon="-1.83591">
        <ele>87</ele>
        <time>2022-06-05T09:14:02Z</time>
      </trkpt>
      <trkpt lat="47.0411" lon="-1.83586">
        <ele>87</ele>
        <time>2022-06-05T09:14:04Z</time>
      </trkpt>
      <trkpt lat="47.04098" lon="-1.83582">
        <ele>88</ele>
        <time>2022-06-05T09:14:06Z</time>
      </trkpt>
      <trkpt lat="47.04086" lon="-1.83578">
        <ele>87</ele>
        <time>2022-06-05T09:14:08Z</time>
      </trkpt>
      <trkpt lat="47.04074" lon="-1.83574">
        <ele>87</ele>
        <time>2022-06-05T09:14:10Z</time>
      </trkpt>
      <trkpt lat="47.04062" lon="-1.83571">
        <ele>87</ele>
        <time>2022-06-05T09:14:12Z</time>
      </trkpt>
      <trkpt lat="47.0405" lon="-1.83569">
        <ele>87</ele>
        <time>2022-06-05T09:14:14Z</time>
      </trkpt>
      <trkpt lat="47.04038" lon="-1.83568">
        <ele>87</ele>
        <time>2022-06-05T09:14:16Z</time>
      </trkpt>
      <trkpt lat="47.04025" lon="-1.83566">
        <ele>87</ele>
        <time>2022-06-05T09:14:18Z</time>
      </trkpt>
      <trkpt lat="47.04013" lon="-1.83565">
        <ele>88</ele>
        <time>2022-06-05T09:14:20Z</time>
      </trkpt>
      <trkpt lat="47.04001" lon="-1.83563">
        <ele>88</ele>
        <time>2022-06-05T09:14:22Z</time>
      </trkpt>
      <trkpt lat="47.03987" lon="-1.83562">
        <ele>88</ele>
        <time>2022-06-05T09:14:24Z</time>
      </trkpt>
      <trkpt lat="47.03974" lon="-1.8356">
        <ele>87</ele>
        <time>2022-06-05T09:14:26Z</time>
      </trkpt>
      <trkpt lat="47.03961" lon="-1.83558">
        <ele>87</ele>
        <time>2022-06-05T09:14:28Z</time>
      </trkpt>
      <trkpt lat="47.03949" lon="-1.83556">
        <ele>87</ele>
        <time>2022-06-05T09:14:30Z</time>
      </trkpt>
      <trkpt lat="47.03936" lon="-1.83554">
        <ele>87</ele>
        <time>2022-06-05T09:14:32Z</time>
      </trkpt>
      <trkpt lat="47.03924" lon="-1.83553">
        <ele>87</ele>
        <time>2022-06-05T09:14:34Z</time>
      </trkpt>
      <trkpt lat="47.03911" lon="-1.8355">
        <ele>87</ele>
        <time>2022-06-05T09:14:36Z</time>
      </trkpt>
      <trkpt lat="47.03898" lon="-1.83549">
        <ele>87</ele>
        <time>2022-06-05T09:14:38Z</time>
      </trkpt>
      <trkpt lat="47.03884" lon="-1.83547">
        <ele>86</ele>
        <time>2022-06-05T09:14:40Z</time>
      </trkpt>
      <trkpt lat="47.03871" lon="-1.83545">
        <ele>86</ele>
        <time>2022-06-05T09:14:42Z</time>
      </trkpt>
      <trkpt lat="47.03859" lon="-1.83543">
        <ele>86</ele>
        <time>2022-06-05T09:14:44Z</time>
      </trkpt>
      <trkpt lat="47.03846" lon="-1.83541">
        <ele>86</ele>
        <time>2022-06-05T09:14:46Z</time>
      </trkpt>
      <trkpt lat="47.03833" lon="-1.8354">
        <ele>86</ele>
        <time>2022-06-05T09:14:48Z</time>
      </trkpt>
      <trkpt lat="47.0382" lon="-1.83538">
        <ele>85</ele>
        <time>2022-06-05T09:14:50Z</time>
      </trkpt>
      <trkpt lat="47.03807" lon="-1.83537">
        <ele>85</ele>
        <time>2022-06-05T09:14:52Z</time>
      </trkpt>
      <trkpt lat="47.03794" lon="-1.83535">
        <ele>85</ele>
        <time>2022-06-05T09:14:54Z</time>
      </trkpt>
      <trkpt lat="47.03781" lon="-1.83535">
        <ele>85</ele>
        <time>2022-06-05T09:14:56Z</time>
      </trkpt>
      <trkpt lat="47.03768" lon="-1.83536">
        <ele>84</ele>
        <time>2022-06-05T09:14:58Z</time>
      </trkpt>
      <trkpt lat="47.03754" lon="-1.83535">
        <ele>85</ele>
        <time>2022-06-05T09:15:00Z</time>
      </trkpt>
      <trkpt lat="47.03741" lon="-1.83535">
        <ele>85</ele>
        <time>2022-06-05T09:15:02Z</time>
      </trkpt>
      <trkpt lat="47.03728" lon="-1.83536">
        <ele>85</ele>
        <time>2022-06-05T09:15:04Z</time>
      </trkpt>
      <trkpt lat="47.03715" lon="-1.83536">
        <ele>85</ele>
        <time>2022-06-05T09:15:06Z</time>
      </trkpt>
      <trkpt lat="47.03703" lon="-1.83537">
        <ele>85</ele>
        <time>2022-06-05T09:15:08Z</time>
      </trkpt>
      <trkpt lat="47.0369" lon="-1.83538">
        <ele>85</ele>
        <time>2022-06-05T09:15:10Z</time>
      </trkpt>
      <trkpt lat="47.03677" lon="-1.83538">
        <ele>85</ele>
        <time>2022-06-05T09:15:12Z</time>
      </trkpt>
      <trkpt lat="47.03664" lon="-1.83538">
        <ele>85</ele>
        <time>2022-06-05T09:15:14Z</time>
      </trkpt>
      <trkpt lat="47.0365" lon="-1.83539">
        <ele>85</ele>
        <time>2022-06-05T09:15:16Z</time>
      </trkpt>
      <trkpt lat="47.03636" lon="-1.83539">
        <ele>85</ele>
        <time>2022-06-05T09:15:18Z</time>
      </trkpt>
      <trkpt lat="47.03623" lon="-1.83539">
        <ele>85</ele>
        <time>2022-06-05T09:15:20Z</time>
      </trkpt>
      <trkpt lat="47.0361" lon="-1.83539">
        <ele>85</ele>
        <time>2022-06-05T09:15:22Z</time>
      </trkpt>
      <trkpt lat="47.03597" lon="-1.8354">
        <ele>85</ele>
        <time>2022-06-05T09:15:24Z</time>
      </trkpt>
      <trkpt lat="47.03584" lon="-1.83541">
        <ele>85</ele>
        <time>2022-06-05T09:15:26Z</time>
      </trkpt>
      <trkpt lat="47.03571" lon="-1.83541">
        <ele>85</ele>
        <time>2022-06-05T09:15:28Z</time>
      </trkpt>
      <trkpt lat="47.03557" lon="-1.83541">
        <ele>84</ele>
        <time>2022-06-05T09:15:30Z</time>
      </trkpt>
      <trkpt lat="47.03545" lon="-1.8354">
        <ele>84</ele>
        <time>2022-06-05T09:15:32Z</time>
      </trkpt>
      <trkpt lat="47.03532" lon="-1.8354">
        <ele>84</ele>
        <time>2022-06-05T09:15:34Z</time>
      </trkpt>
      <trkpt lat="47.03518" lon="-1.83539">
        <ele>84</ele>
        <time>2022-06-05T09:15:36Z</time>
      </trkpt>
      <trkpt lat="47.03505" lon="-1.83538">
        <ele>84</ele>
        <time>2022-06-05T09:15:38Z</time>
      </trkpt>
      <trkpt lat="47.03492" lon="-1.83536">
        <ele>84</ele>
        <time>2022-06-05T09:15:40Z</time>
      </trkpt>
      <trkpt lat="47.03478" lon="-1.83533">
        <ele>83</ele>
        <time>2022-06-05T09:15:42Z</time>
      </trkpt>
      <trkpt lat="47.03464" lon="-1.83531">
        <ele>83</ele>
        <time>2022-06-05T09:15:44Z</time>
      </trkpt>
      <trkpt lat="47.03451" lon="-1.83527">
        <ele>83</ele>
        <time>2022-06-05T09:15:46Z</time>
      </trkpt>
      <trkpt lat="47.03437" lon="-1.83523">
        <ele>83</ele>
        <time>2022-06-05T09:15:48Z</time>
      </trkpt>
      <trkpt lat="47.03423" lon="-1.83519">
        <ele>83</ele>
        <time>2022-06-05T09:15:50Z</time>
      </trkpt>
      <trkpt lat="47.03409" lon="-1.83515">
        <ele>82</ele>
        <time>2022-06-05T09:15:52Z</time>
      </trkpt>
      <trkpt lat="47.03395" lon="-1.83511">
        <ele>82</ele>
        <time>2022-06-05T09:15:54Z</time>
      </trkpt>
      <trkpt lat="47.03381" lon="-1.83507">
        <ele>82</ele>
        <time>2022-06-05T09:15:56Z</time>
      </trkpt>
      <trkpt lat="47.03368" lon="-1.83503">
        <ele>82</ele>
        <time>2022-06-05T09:15:58Z</time>
      </trkpt>
      <trkpt lat="47.03354" lon="-1.835">
        <ele>82</ele>
        <time>2022-06-05T09:16:00Z</time>
      </trkpt>
      <trkpt lat="47.0334" lon="-1.83496">
        <ele>82</ele>
        <time>2022-06-05T09:16:02Z</time>
      </trkpt>
      <trkpt lat="47.03326" lon="-1.83492">
        <ele>82</ele>
        <time>2022-06-05T09:16:04Z</time>
      </trkpt>
      <trkpt lat="47.03312" lon="-1.83488">
        <ele>82</ele>
        <time>2022-06-05T09:16:06Z</time>
      </trkpt>
      <trkpt lat="47.03298" lon="-1.83484">
        <ele>82</ele>
        <time>2022-06-05T09:16:08Z</time>
      </trkpt>
      <trkpt lat="47.03284" lon="-1.83481">
        <ele>83</ele>
        <time>2022-06-05T09:16:10Z</time>
      </trkpt>
      <trkpt lat="47.03271" lon="-1.83477">
        <ele>83</ele>
        <time>2022-06-05T09:16:12Z</time>
      </trkpt>
      <trkpt lat="47.03258" lon="-1.83474">
        <ele>83</ele>
        <time>2022-06-05T09:16:14Z</time>
      </trkpt>
      <trkpt lat="47.03245" lon="-1.83471">
        <ele>83</ele>
        <time>2022-06-05T09:16:16Z</time>
      </trkpt>
      <trkpt lat="47.03232" lon="-1.83467">
        <ele>83</ele>
        <time>2022-06-05T09:16:18Z</time>
      </trkpt>
      <trkpt lat="47.03218" lon="-1.83463">
        <ele>84</ele>
        <time>2022-06-05T09:16:20Z</time>
      </trkpt>
      <trkpt lat="47.03205" lon="-1.83459">
        <ele>84</ele>
        <time>2022-06-05T09:16:22Z</time>
      </trkpt>
      <trkpt lat="47.03191" lon="-1.83456">
        <ele>83</ele>
        <time>2022-06-05T09:16:24Z</time>
      </trkpt>
      <trkpt lat="47.03179" lon="-1.83453">
        <ele>83</ele>
        <time>2022-06-05T09:16:26Z</time>
      </trkpt>
      <trkpt lat="47.03168" lon="-1.83453">
        <ele>82</ele>
        <time>2022-06-05T09:16:28Z</time>
      </trkpt>
      <trkpt lat="47.03162" lon="-1.83465">
        <ele>81</ele>
        <time>2022-06-05T09:16:30Z</time>
      </trkpt>
      <trkpt lat="47.03157" lon="-1.83478">
        <ele>81</ele>
        <time>2022-06-05T09:16:32Z</time>
      </trkpt>
      <trkpt lat="47.03146" lon="-1.83486">
        <ele>80</ele>
        <time>2022-06-05T09:16:34Z</time>
      </trkpt>
      <trkpt lat="47.03133" lon="-1.83488">
        <ele>80</ele>
        <time>2022-06-05T09:16:36Z</time>
      </trkpt>
      <trkpt lat="47.0312" lon="-1.8349">
        <ele>79</ele>
        <time>2022-06-05T09:16:38Z</time>
      </trkpt>
      <trkpt lat="47.03106" lon="-1.83492">
        <ele>79</ele>
        <time>2022-06-05T09:16:40Z</time>
      </trkpt>
      <trkpt lat="47.03093" lon="-1.83493">
        <ele>78</ele>
        <time>2022-06-05T09:16:42Z</time>
      </trkpt>
      <trkpt lat="47.03079" lon="-1.83495">
        <ele>78</ele>
        <time>2022-06-05T09:16:44Z</time>
      </trkpt>
      <trkpt lat="47.03065" lon="-1.83496">
        <ele>78</ele>
        <time>2022-06-05T09:16:46Z</time>
      </trkpt>
      <trkpt lat="47.03051" lon="-1.83498">
        <ele>77</ele>
        <time>2022-06-05T09:16:48Z</time>
      </trkpt>
      <trkpt lat="47.03038" lon="-1.835">
        <ele>77</ele>
        <time>2022-06-05T09:16:50Z</time>
      </trkpt>
      <trkpt lat="47.03024" lon="-1.83501">
        <ele>77</ele>
        <time>2022-06-05T09:16:52Z</time>
      </trkpt>
      <trkpt lat="47.03001" lon="-1.83503">
        <ele>77</ele>
        <time>2022-06-05T09:16:55Z</time>
      </trkpt>
      <trkpt lat="47.02987" lon="-1.83504">
        <ele>77</ele>
        <time>2022-06-05T09:16:57Z</time>
      </trkpt>
      <trkpt lat="47.02971" lon="-1.83507">
        <ele>77</ele>
        <time>2022-06-05T09:16:59Z</time>
      </trkpt>
      <trkpt lat="47.02957" lon="-1.83508">
        <ele>77</ele>
        <time>2022-06-05T09:17:01Z</time>
      </trkpt>
      <trkpt lat="47.02942" lon="-1.8351">
        <ele>77</ele>
        <time>2022-06-05T09:17:03Z</time>
      </trkpt>
      <trkpt lat="47.02928" lon="-1.83513">
        <ele>77</ele>
        <time>2022-06-05T09:17:05Z</time>
      </trkpt>
      <trkpt lat="47.02913" lon="-1.83516">
        <ele>77</ele>
        <time>2022-06-05T09:17:07Z</time>
      </trkpt>
      <trkpt lat="47.02899" lon="-1.8352">
        <ele>77</ele>
        <time>2022-06-05T09:17:09Z</time>
      </trkpt>
      <trkpt lat="47.02885" lon="-1.83523">
        <ele>77</ele>
        <time>2022-06-05T09:17:11Z</time>
      </trkpt>
      <trkpt lat="47.02871" lon="-1.83528">
        <ele>77</ele>
        <time>2022-06-05T09:17:13Z</time>
      </trkpt>
      <trkpt lat="47.02852" lon="-1.83534">
        <ele>78</ele>
        <time>2022-06-05T09:17:16Z</time>
      </trkpt>
      <trkpt lat="47.02832" lon="-1.83546">
        <ele>77</ele>
        <time>2022-06-05T09:17:19Z</time>
      </trkpt>
      <trkpt lat="47.02821" lon="-1.83555">
        <ele>77</ele>
        <time>2022-06-05T09:17:21Z</time>
      </trkpt>
      <trkpt lat="47.0281" lon="-1.83567">
        <ele>77</ele>
        <time>2022-06-05T09:17:23Z</time>
      </trkpt>
      <trkpt lat="47.02799" lon="-1.83578">
        <ele>77</ele>
        <time>2022-06-05T09:17:25Z</time>
      </trkpt>
      <trkpt lat="47.02782" lon="-1.83594">
        <ele>76</ele>
        <time>2022-06-05T09:17:28Z</time>
      </trkpt>
      <trkpt lat="47.0277" lon="-1.83602">
        <ele>76</ele>
        <time>2022-06-05T09:17:30Z</time>
      </trkpt>
      <trkpt lat="47.02757" lon="-1.83609">
        <ele>76</ele>
        <time>2022-06-05T09:17:32Z</time>
      </trkpt>
      <trkpt lat="47.02743" lon="-1.83614">
        <ele>76</ele>
        <time>2022-06-05T09:17:34Z</time>
      </trkpt>
      <trkpt lat="47.0273" lon="-1.83616">
        <ele>76</ele>
        <time>2022-06-05T09:17:36Z</time>
      </trkpt>
      <trkpt lat="47.02715" lon="-1.83618">
        <ele>76</ele>
        <time>2022-06-05T09:17:38Z</time>
      </trkpt>
      <trkpt lat="47.02701" lon="-1.83619">
        <ele>76</ele>
        <time>2022-06-05T09:17:40Z</time>
      </trkpt>
      <trkpt lat="47.02687" lon="-1.83619">
        <ele>76</ele>
        <time>2022-06-05T09:17:42Z</time>
      </trkpt>
      <trkpt lat="47.02673" lon="-1.83621">
        <ele>76</ele>
        <time>2022-06-05T09:17:44Z</time>
      </trkpt>
      <trkpt lat="47.02659" lon="-1.83621">
        <ele>77</ele>
        <time>2022-06-05T09:17:46Z</time>
      </trkpt>
      <trkpt lat="47.02645" lon="-1.83622">
        <ele>77</ele>
        <time>2022-06-05T09:17:48Z</time>
      </trkpt>
      <trkpt lat="47.02631" lon="-1.83623">
        <ele>78</ele>
        <time>2022-06-05T09:17:50Z</time>
      </trkpt>
      <trkpt lat="47.02617" lon="-1.83624">
        <ele>78</ele>
        <time>2022-06-05T09:17:52Z</time>
      </trkpt>
      <trkpt lat="47.02603" lon="-1.83625">
        <ele>78</ele>
        <time>2022-06-05T09:17:54Z</time>
      </trkpt>
      <trkpt lat="47.02588" lon="-1.83626">
        <ele>78</ele>
        <time>2022-06-05T09:17:56Z</time>
      </trkpt>
      <trkpt lat="47.02574" lon="-1.83628">
        <ele>78</ele>
        <time>2022-06-05T09:17:58Z</time>
      </trkpt>
      <trkpt lat="47.0256" lon="-1.83629">
        <ele>77</ele>
        <time>2022-06-05T09:18:00Z</time>
      </trkpt>
      <trkpt lat="47.02546" lon="-1.8363">
        <ele>76</ele>
        <time>2022-06-05T09:18:02Z</time>
      </trkpt>
      <trkpt lat="47.02532" lon="-1.83632">
        <ele>76</ele>
        <time>2022-06-05T09:18:04Z</time>
      </trkpt>
      <trkpt lat="47.02518" lon="-1.83634">
        <ele>76</ele>
        <time>2022-06-05T09:18:06Z</time>
      </trkpt>
      <trkpt lat="47.02504" lon="-1.83637">
        <ele>76</ele>
        <time>2022-06-05T09:18:08Z</time>
      </trkpt>
      <trkpt lat="47.0249" lon="-1.8364">
        <ele>76</ele>
        <time>2022-06-05T09:18:10Z</time>
      </trkpt>
      <trkpt lat="47.02477" lon="-1.83643">
        <ele>76</ele>
        <time>2022-06-05T09:18:12Z</time>
      </trkpt>
      <trkpt lat="47.02463" lon="-1.83647">
        <ele>76</ele>
        <time>2022-06-05T09:18:14Z</time>
      </trkpt>
      <trkpt lat="47.02449" lon="-1.8365">
        <ele>76</ele>
        <time>2022-06-05T09:18:16Z</time>
      </trkpt>
      <trkpt lat="47.02435" lon="-1.83653">
        <ele>76</ele>
        <time>2022-06-05T09:18:18Z</time>
      </trkpt>
      <trkpt lat="47.02421" lon="-1.83656">
        <ele>76</ele>
        <time>2022-06-05T09:18:20Z</time>
      </trkpt>
      <trkpt lat="47.02407" lon="-1.83659">
        <ele>76</ele>
        <time>2022-06-05T09:18:22Z</time>
      </trkpt>
      <trkpt lat="47.02393" lon="-1.83659">
        <ele>76</ele>
        <time>2022-06-05T09:18:24Z</time>
      </trkpt>
      <trkpt lat="47.02379" lon="-1.83659">
        <ele>76</ele>
        <time>2022-06-05T09:18:26Z</time>
      </trkpt>
      <trkpt lat="47.02365" lon="-1.83659">
        <ele>76</ele>
        <time>2022-06-05T09:18:28Z</time>
      </trkpt>
      <trkpt lat="47.02352" lon="-1.83658">
        <ele>76</ele>
        <time>2022-06-05T09:18:30Z</time>
      </trkpt>
      <trkpt lat="47.02338" lon="-1.83657">
        <ele>76</ele>
        <time>2022-06-05T09:18:32Z</time>
      </trkpt>
      <trkpt lat="47.02324" lon="-1.83656">
        <ele>75</ele>
        <time>2022-06-05T09:18:34Z</time>
      </trkpt>
      <trkpt lat="47.0231" lon="-1.83655">
        <ele>75</ele>
        <time>2022-06-05T09:18:36Z</time>
      </trkpt>
      <trkpt lat="47.02295" lon="-1.83654">
        <ele>75</ele>
        <time>2022-06-05T09:18:38Z</time>
      </trkpt>
      <trkpt lat="47.02281" lon="-1.83653">
        <ele>76</ele>
        <time>2022-06-05T09:18:40Z</time>
      </trkpt>
      <trkpt lat="47.02267" lon="-1.83653">
        <ele>76</ele>
        <time>2022-06-05T09:18:42Z</time>
      </trkpt>
      <trkpt lat="47.02252" lon="-1.83652">
        <ele>76</ele>
        <time>2022-06-05T09:18:44Z</time>
      </trkpt>
      <trkpt lat="47.02238" lon="-1.83651">
        <ele>76</ele>
        <time>2022-06-05T09:18:46Z</time>
      </trkpt>
      <trkpt lat="47.02223" lon="-1.83649">
        <ele>76</ele>
        <time>2022-06-05T09:18:48Z</time>
      </trkpt>
      <trkpt lat="47.02209" lon="-1.83647">
        <ele>76</ele>
        <time>2022-06-05T09:18:50Z</time>
      </trkpt>
      <trkpt lat="47.02196" lon="-1.83642">
        <ele>76</ele>
        <time>2022-06-05T09:18:52Z</time>
      </trkpt>
      <trkpt lat="47.02182" lon="-1.83638">
        <ele>75</ele>
        <time>2022-06-05T09:18:54Z</time>
      </trkpt>
      <trkpt lat="47.02168" lon="-1.83631">
        <ele>75</ele>
        <time>2022-06-05T09:18:56Z</time>
      </trkpt>
      <trkpt lat="47.02154" lon="-1.83623">
        <ele>75</ele>
        <time>2022-06-05T09:18:58Z</time>
      </trkpt>
      <trkpt lat="47.0214" lon="-1.83615">
        <ele>75</ele>
        <time>2022-06-05T09:19:00Z</time>
      </trkpt>
      <trkpt lat="47.02127" lon="-1.83607">
        <ele>75</ele>
        <time>2022-06-05T09:19:02Z</time>
      </trkpt>
      <trkpt lat="47.02114" lon="-1.83599">
        <ele>75</ele>
        <time>2022-06-05T09:19:04Z</time>
      </trkpt>
      <trkpt lat="47.02101" lon="-1.83591">
        <ele>75</ele>
        <time>2022-06-05T09:19:06Z</time>
      </trkpt>
      <trkpt lat="47.02088" lon="-1.83583">
        <ele>75</ele>
        <time>2022-06-05T09:19:08Z</time>
      </trkpt>
      <trkpt lat="47.02074" lon="-1.83576">
        <ele>74</ele>
        <time>2022-06-05T09:19:10Z</time>
      </trkpt>
      <trkpt lat="47.0206" lon="-1.83568">
        <ele>74</ele>
        <time>2022-06-05T09:19:12Z</time>
      </trkpt>
      <trkpt lat="47.02047" lon="-1.8356">
        <ele>74</ele>
        <time>2022-06-05T09:19:14Z</time>
      </trkpt>
      <trkpt lat="47.02035" lon="-1.83552">
        <ele>73</ele>
        <time>2022-06-05T09:19:16Z</time>
      </trkpt>
      <trkpt lat="47.02021" lon="-1.83544">
        <ele>73</ele>
        <time>2022-06-05T09:19:18Z</time>
      </trkpt>
      <trkpt lat="47.02009" lon="-1.83536">
        <ele>74</ele>
        <time>2022-06-05T09:19:20Z</time>
      </trkpt>
      <trkpt lat="47.01995" lon="-1.83528">
        <ele>74</ele>
        <time>2022-06-05T09:19:22Z</time>
      </trkpt>
      <trkpt lat="47.01982" lon="-1.8352">
        <ele>73</ele>
        <time>2022-06-05T09:19:24Z</time>
      </trkpt>
      <trkpt lat="47.01969" lon="-1.83513">
        <ele>73</ele>
        <time>2022-06-05T09:19:26Z</time>
      </trkpt>
      <trkpt lat="47.01956" lon="-1.83506">
        <ele>72</ele>
        <time>2022-06-05T09:19:28Z</time>
      </trkpt>
      <trkpt lat="47.01942" lon="-1.83501">
        <ele>72</ele>
        <time>2022-06-05T09:19:30Z</time>
      </trkpt>
      <trkpt lat="47.01927" lon="-1.835">
        <ele>71</ele>
        <time>2022-06-05T09:19:32Z</time>
      </trkpt>
      <trkpt lat="47.01912" lon="-1.83501">
        <ele>71</ele>
        <time>2022-06-05T09:19:34Z</time>
      </trkpt>
      <trkpt lat="47.01897" lon="-1.83504">
        <ele>70</ele>
        <time>2022-06-05T09:19:36Z</time>
      </trkpt>
      <trkpt lat="47.01881" lon="-1.83508">
        <ele>69</ele>
        <time>2022-06-05T09:19:38Z</time>
      </trkpt>
      <trkpt lat="47.01865" lon="-1.83511">
        <ele>68</ele>
        <time>2022-06-05T09:19:40Z</time>
      </trkpt>
      <trkpt lat="47.0185" lon="-1.83514">
        <ele>67</ele>
        <time>2022-06-05T09:19:42Z</time>
      </trkpt>
      <trkpt lat="47.01834" lon="-1.83518">
        <ele>66</ele>
        <time>2022-06-05T09:19:44Z</time>
      </trkpt>
      <trkpt lat="47.01819" lon="-1.83522">
        <ele>66</ele>
        <time>2022-06-05T09:19:46Z</time>
      </trkpt>
      <trkpt lat="47.01804" lon="-1.83526">
        <ele>66</ele>
        <time>2022-06-05T09:19:48Z</time>
      </trkpt>
      <trkpt lat="47.01789" lon="-1.83529">
        <ele>65</ele>
        <time>2022-06-05T09:19:50Z</time>
      </trkpt>
      <trkpt lat="47.01774" lon="-1.83534">
        <ele>65</ele>
        <time>2022-06-05T09:19:52Z</time>
      </trkpt>
      <trkpt lat="47.0176" lon="-1.83541">
        <ele>65</ele>
        <time>2022-06-05T09:19:54Z</time>
      </trkpt>
      <trkpt lat="47.01747" lon="-1.83549">
        <ele>65</ele>
        <time>2022-06-05T09:19:56Z</time>
      </trkpt>
      <trkpt lat="47.01736" lon="-1.83563">
        <ele>65</ele>
        <time>2022-06-05T09:19:58Z</time>
      </trkpt>
      <trkpt lat="47.01727" lon="-1.83577">
        <ele>64</ele>
        <time>2022-06-05T09:20:00Z</time>
      </trkpt>
      <trkpt lat="47.0172" lon="-1.83593">
        <ele>63</ele>
        <time>2022-06-05T09:20:02Z</time>
      </trkpt>
      <trkpt lat="47.01713" lon="-1.83609">
        <ele>63</ele>
        <time>2022-06-05T09:20:04Z</time>
      </trkpt>
      <trkpt lat="47.01705" lon="-1.83625">
        <ele>63</ele>
        <time>2022-06-05T09:20:06Z</time>
      </trkpt>
      <trkpt lat="47.01697" lon="-1.83639">
        <ele>64</ele>
        <time>2022-06-05T09:20:08Z</time>
      </trkpt>
      <trkpt lat="47.01688" lon="-1.83654">
        <ele>64</ele>
        <time>2022-06-05T09:20:10Z</time>
      </trkpt>
      <trkpt lat="47.01679" lon="-1.83667">
        <ele>64</ele>
        <time>2022-06-05T09:20:12Z</time>
      </trkpt>
      <trkpt lat="47.01669" lon="-1.8368">
        <ele>64</ele>
        <time>2022-06-05T09:20:14Z</time>
      </trkpt>
      <trkpt lat="47.0166" lon="-1.83693">
        <ele>64</ele>
        <time>2022-06-05T09:20:16Z</time>
      </trkpt>
      <trkpt lat="47.01649" lon="-1.83706">
        <ele>63</ele>
        <time>2022-06-05T09:20:18Z</time>
      </trkpt>
      <trkpt lat="47.01638" lon="-1.83719">
        <ele>63</ele>
        <time>2022-06-05T09:20:20Z</time>
      </trkpt>
      <trkpt lat="47.01627" lon="-1.8373">
        <ele>62</ele>
        <time>2022-06-05T09:20:22Z</time>
      </trkpt>
      <trkpt lat="47.01617" lon="-1.83742">
        <ele>62</ele>
        <time>2022-06-05T09:20:24Z</time>
      </trkpt>
      <trkpt lat="47.01607" lon="-1.83754">
        <ele>61</ele>
        <time>2022-06-05T09:20:26Z</time>
      </trkpt>
      <trkpt lat="47.01596" lon="-1.83767">
        <ele>61</ele>
        <time>2022-06-05T09:20:28Z</time>
      </trkpt>
      <trkpt lat="47.01586" lon="-1.83779">
        <ele>61</ele>
        <time>2022-06-05T09:20:30Z</time>
      </trkpt>
      <trkpt lat="47.01576" lon="-1.83792">
        <ele>61</ele>
        <time>2022-06-05T09:20:32Z</time>
      </trkpt>
      <trkpt lat="47.01565" lon="-1.83805">
        <ele>60</ele>
        <time>2022-06-05T09:20:34Z</time>
      </trkpt>
      <trkpt lat="47.01555" lon="-1.83819">
        <ele>61</ele>
        <time>2022-06-05T09:20:36Z</time>
      </trkpt>
      <trkpt lat="47.01544" lon="-1.83833">
        <ele>60</ele>
        <time>2022-06-05T09:20:38Z</time>
      </trkpt>
      <trkpt lat="47.01534" lon="-1.83847">
        <ele>60</ele>
        <time>2022-06-05T09:20:40Z</time>
      </trkpt>
      <trkpt lat="47.01524" lon="-1.83862">
        <ele>60</ele>
        <time>2022-06-05T09:20:42Z</time>
      </trkpt>
      <trkpt lat="47.01514" lon="-1.83876">
        <ele>60</ele>
        <time>2022-06-05T09:20:44Z</time>
      </trkpt>
      <trkpt lat="47.01505" lon="-1.83893">
        <ele>59</ele>
        <time>2022-06-05T09:20:46Z</time>
      </trkpt>
      <trkpt lat="47.01495" lon="-1.83907">
        <ele>59</ele>
        <time>2022-06-05T09:20:48Z</time>
      </trkpt>
      <trkpt lat="47.01485" lon="-1.83922">
        <ele>59</ele>
        <time>2022-06-05T09:20:50Z</time>
      </trkpt>
      <trkpt lat="47.01475" lon="-1.83937">
        <ele>58</ele>
        <time>2022-06-05T09:20:52Z</time>
      </trkpt>
      <trkpt lat="47.01464" lon="-1.83952">
        <ele>58</ele>
        <time>2022-06-05T09:20:54Z</time>
      </trkpt>
      <trkpt lat="47.01454" lon="-1.83968">
        <ele>58</ele>
        <time>2022-06-05T09:20:56Z</time>
      </trkpt>
      <trkpt lat="47.01444" lon="-1.83984">
        <ele>57</ele>
        <time>2022-06-05T09:20:58Z</time>
      </trkpt>
      <trkpt lat="47.01434" lon="-1.83999">
        <ele>57</ele>
        <time>2022-06-05T09:21:00Z</time>
      </trkpt>
      <trkpt lat="47.01424" lon="-1.84015">
        <ele>57</ele>
        <time>2022-06-05T09:21:02Z</time>
      </trkpt>
      <trkpt lat="47.01413" lon="-1.8403">
        <ele>57</ele>
        <time>2022-06-05T09:21:04Z</time>
      </trkpt>
      <trkpt lat="47.01403" lon="-1.84045">
        <ele>57</ele>
        <time>2022-06-05T09:21:06Z</time>
      </trkpt>
      <trkpt lat="47.01393" lon="-1.84059">
        <ele>56</ele>
        <time>2022-06-05T09:21:08Z</time>
      </trkpt>
      <trkpt lat="47.01383" lon="-1.84073">
        <ele>56</ele>
        <time>2022-06-05T09:21:10Z</time>
      </trkpt>
      <trkpt lat="47.01372" lon="-1.84086">
        <ele>56</ele>
        <time>2022-06-05T09:21:12Z</time>
      </trkpt>
      <trkpt lat="47.0136" lon="-1.841">
        <ele>55</ele>
        <time>2022-06-05T09:21:14Z</time>
      </trkpt>
      <trkpt lat="47.01349" lon="-1.84112">
        <ele>55</ele>
        <time>2022-06-05T09:21:16Z</time>
      </trkpt>
      <trkpt lat="47.01337" lon="-1.84125">
        <ele>55</ele>
        <time>2022-06-05T09:21:18Z</time>
      </trkpt>
      <trkpt lat="47.01325" lon="-1.84138">
        <ele>55</ele>
        <time>2022-06-05T09:21:20Z</time>
      </trkpt>
      <trkpt lat="47.01315" lon="-1.8415">
        <ele>54</ele>
        <time>2022-06-05T09:21:22Z</time>
      </trkpt>
      <trkpt lat="47.01303" lon="-1.84163">
        <ele>55</ele>
        <time>2022-06-05T09:21:24Z</time>
      </trkpt>
      <trkpt lat="47.01293" lon="-1.84176">
        <ele>54</ele>
        <time>2022-06-05T09:21:26Z</time>
      </trkpt>
      <trkpt lat="47.01282" lon="-1.84188">
        <ele>55</ele>
        <time>2022-06-05T09:21:28Z</time>
      </trkpt>
      <trkpt lat="47.01271" lon="-1.842">
        <ele>54</ele>
        <time>2022-06-05T09:21:30Z</time>
      </trkpt>
      <trkpt lat="47.01261" lon="-1.84211">
        <ele>54</ele>
        <time>2022-06-05T09:21:32Z</time>
      </trkpt>
      <trkpt lat="47.0125" lon="-1.84222">
        <ele>54</ele>
        <time>2022-06-05T09:21:34Z</time>
      </trkpt>
      <trkpt lat="47.01239" lon="-1.84234">
        <ele>54</ele>
        <time>2022-06-05T09:21:36Z</time>
      </trkpt>
      <trkpt lat="47.01228" lon="-1.84245">
        <ele>54</ele>
        <time>2022-06-05T09:21:38Z</time>
      </trkpt>
      <trkpt lat="47.01218" lon="-1.84256">
        <ele>54</ele>
        <time>2022-06-05T09:21:40Z</time>
      </trkpt>
      <trkpt lat="47.01208" lon="-1.84268">
        <ele>54</ele>
        <time>2022-06-05T09:21:42Z</time>
      </trkpt>
      <trkpt lat="47.01198" lon="-1.84281">
        <ele>54</ele>
        <time>2022-06-05T09:21:44Z</time>
      </trkpt>
      <trkpt lat="47.01189" lon="-1.84296">
        <ele>54</ele>
        <time>2022-06-05T09:21:46Z</time>
      </trkpt>
      <trkpt lat="47.01181" lon="-1.84312">
        <ele>55</ele>
        <time>2022-06-05T09:21:48Z</time>
      </trkpt>
      <trkpt lat="47.01174" lon="-1.84329">
        <ele>55</ele>
        <time>2022-06-05T09:21:50Z</time>
      </trkpt>
      <trkpt lat="47.01169" lon="-1.84348">
        <ele>55</ele>
        <time>2022-06-05T09:21:52Z</time>
      </trkpt>
      <trkpt lat="47.01165" lon="-1.84366">
        <ele>55</ele>
        <time>2022-06-05T09:21:54Z</time>
      </trkpt>
      <trkpt lat="47.0116" lon="-1.84384">
        <ele>55</ele>
        <time>2022-06-05T09:21:56Z</time>
      </trkpt>
      <trkpt lat="47.01156" lon="-1.84403">
        <ele>55</ele>
        <time>2022-06-05T09:21:58Z</time>
      </trkpt>
      <trkpt lat="47.01151" lon="-1.84422">
        <ele>55</ele>
        <time>2022-06-05T09:22:00Z</time>
      </trkpt>
      <trkpt lat="47.01146" lon="-1.84441">
        <ele>55</ele>
        <time>2022-06-05T09:22:02Z</time>
      </trkpt>
      <trkpt lat="47.01142" lon="-1.8446">
        <ele>55</ele>
        <time>2022-06-05T09:22:04Z</time>
      </trkpt>
      <trkpt lat="47.01137" lon="-1.84479">
        <ele>55</ele>
        <time>2022-06-05T09:22:06Z</time>
      </trkpt>
      <trkpt lat="47.01132" lon="-1.84497">
        <ele>55</ele>
        <time>2022-06-05T09:22:08Z</time>
      </trkpt>
      <trkpt lat="47.01128" lon="-1.84515">
        <ele>55</ele>
        <time>2022-06-05T09:22:10Z</time>
      </trkpt>
      <trkpt lat="47.01122" lon="-1.84531">
        <ele>55</ele>
        <time>2022-06-05T09:22:12Z</time>
      </trkpt>
      <trkpt lat="47.01115" lon="-1.84546">
        <ele>55</ele>
        <time>2022-06-05T09:22:14Z</time>
      </trkpt>
      <trkpt lat="47.01106" lon="-1.8456">
        <ele>55</ele>
        <time>2022-06-05T09:22:16Z</time>
      </trkpt>
      <trkpt lat="47.01095" lon="-1.84572">
        <ele>55</ele>
        <time>2022-06-05T09:22:18Z</time>
      </trkpt>
      <trkpt lat="47.01085" lon="-1.84583">
        <ele>55</ele>
        <time>2022-06-05T09:22:20Z</time>
      </trkpt>
      <trkpt lat="47.01075" lon="-1.84596">
        <ele>55</ele>
        <time>2022-06-05T09:22:22Z</time>
      </trkpt>
      <trkpt lat="47.01065" lon="-1.84608">
        <ele>55</ele>
        <time>2022-06-05T09:22:24Z</time>
      </trkpt>
      <trkpt lat="47.01055" lon="-1.8462">
        <ele>55</ele>
        <time>2022-06-05T09:22:26Z</time>
      </trkpt>
      <trkpt lat="47.01044" lon="-1.84632">
        <ele>54</ele>
        <time>2022-06-05T09:22:28Z</time>
      </trkpt>
      <trkpt lat="47.01034" lon="-1.84644">
        <ele>54</ele>
        <time>2022-06-05T09:22:30Z</time>
      </trkpt>
      <trkpt lat="47.01023" lon="-1.84655">
        <ele>55</ele>
        <time>2022-06-05T09:22:32Z</time>
      </trkpt>
      <trkpt lat="47.01011" lon="-1.84664">
        <ele>55</ele>
        <time>2022-06-05T09:22:34Z</time>
      </trkpt>
      <trkpt lat="47.00999" lon="-1.84671">
        <ele>55</ele>
        <time>2022-06-05T09:22:36Z</time>
      </trkpt>
      <trkpt lat="47.00986" lon="-1.84678">
        <ele>55</ele>
        <time>2022-06-05T09:22:38Z</time>
      </trkpt>
      <trkpt lat="47.00973" lon="-1.84685">
        <ele>55</ele>
        <time>2022-06-05T09:22:40Z</time>
      </trkpt>
      <trkpt lat="47.0096" lon="-1.84693">
        <ele>54</ele>
        <time>2022-06-05T09:22:42Z</time>
      </trkpt>
      <trkpt lat="47.00947" lon="-1.847">
        <ele>54</ele>
        <time>2022-06-05T09:22:44Z</time>
      </trkpt>
      <trkpt lat="47.00934" lon="-1.84706">
        <ele>53</ele>
        <time>2022-06-05T09:22:46Z</time>
      </trkpt>
      <trkpt lat="47.00923" lon="-1.84712">
        <ele>53</ele>
        <time>2022-06-05T09:22:48Z</time>
      </trkpt>
      <trkpt lat="47.00911" lon="-1.84717">
        <ele>53</ele>
        <time>2022-06-05T09:22:50Z</time>
      </trkpt>
      <trkpt lat="47.00902" lon="-1.84723">
        <ele>53</ele>
        <time>2022-06-05T09:22:52Z</time>
      </trkpt>
      <trkpt lat="47.00892" lon="-1.8473">
        <ele>53</ele>
        <time>2022-06-05T09:22:55Z</time>
      </trkpt>
      <trkpt lat="47.00883" lon="-1.84741">
        <ele>53</ele>
        <time>2022-06-05T09:22:59Z</time>
      </trkpt>
      <trkpt lat="47.00875" lon="-1.84748">
        <ele>53</ele>
        <time>2022-06-05T09:23:01Z</time>
      </trkpt>
      <trkpt lat="47.00864" lon="-1.84756">
        <ele>53</ele>
        <time>2022-06-05T09:23:03Z</time>
      </trkpt>
      <trkpt lat="47.00853" lon="-1.84764">
        <ele>53</ele>
        <time>2022-06-05T09:23:05Z</time>
      </trkpt>
      <trkpt lat="47.00841" lon="-1.84772">
        <ele>53</ele>
        <time>2022-06-05T09:23:07Z</time>
      </trkpt>
      <trkpt lat="47.0083" lon="-1.84779">
        <ele>53</ele>
        <time>2022-06-05T09:23:09Z</time>
      </trkpt>
      <trkpt lat="47.00818" lon="-1.84786">
        <ele>53</ele>
        <time>2022-06-05T09:23:11Z</time>
      </trkpt>
      <trkpt lat="47.00807" lon="-1.84793">
        <ele>53</ele>
        <time>2022-06-05T09:23:13Z</time>
      </trkpt>
      <trkpt lat="47.00796" lon="-1.84799">
        <ele>53</ele>
        <time>2022-06-05T09:23:15Z</time>
      </trkpt>
      <trkpt lat="47.00784" lon="-1.84805">
        <ele>53</ele>
        <time>2022-06-05T09:23:17Z</time>
      </trkpt>
      <trkpt lat="47.00773" lon="-1.84811">
        <ele>53</ele>
        <time>2022-06-05T09:23:19Z</time>
      </trkpt>
      <trkpt lat="47.00761" lon="-1.84817">
        <ele>54</ele>
        <time>2022-06-05T09:23:21Z</time>
      </trkpt>
      <trkpt lat="47.0075" lon="-1.84823">
        <ele>54</ele>
        <time>2022-06-05T09:23:23Z</time>
      </trkpt>
      <trkpt lat="47.00738" lon="-1.84829">
        <ele>54</ele>
        <time>2022-06-05T09:23:25Z</time>
      </trkpt>
      <trkpt lat="47.00726" lon="-1.84835">
        <ele>54</ele>
        <time>2022-06-05T09:23:27Z</time>
      </trkpt>
      <trkpt lat="47.00714" lon="-1.84841">
        <ele>54</ele>
        <time>2022-06-05T09:23:29Z</time>
      </trkpt>
      <trkpt lat="47.00703" lon="-1.84847">
        <ele>54</ele>
        <time>2022-06-05T09:23:31Z</time>
      </trkpt>
      <trkpt lat="47.00691" lon="-1.84853">
        <ele>53</ele>
        <time>2022-06-05T09:23:33Z</time>
      </trkpt>
      <trkpt lat="47.0068" lon="-1.8486">
        <ele>53</ele>
        <time>2022-06-05T09:23:35Z</time>
      </trkpt>
      <trkpt lat="47.00668" lon="-1.84866">
        <ele>53</ele>
        <time>2022-06-05T09:23:37Z</time>
      </trkpt>
      <trkpt lat="47.00656" lon="-1.84872">
        <ele>53</ele>
        <time>2022-06-05T09:23:39Z</time>
      </trkpt>
      <trkpt lat="47.00644" lon="-1.84878">
        <ele>53</ele>
        <time>2022-06-05T09:23:41Z</time>
      </trkpt>
      <trkpt lat="47.00632" lon="-1.84885">
        <ele>53</ele>
        <time>2022-06-05T09:23:43Z</time>
      </trkpt>
      <trkpt lat="47.0062" lon="-1.84893">
        <ele>53</ele>
        <time>2022-06-05T09:23:45Z</time>
      </trkpt>
      <trkpt lat="47.00609" lon="-1.84903">
        <ele>53</ele>
        <time>2022-06-05T09:23:47Z</time>
      </trkpt>
      <trkpt lat="47.006" lon="-1.84914">
        <ele>53</ele>
        <time>2022-06-05T09:23:49Z</time>
      </trkpt>
      <trkpt lat="47.00589" lon="-1.84925">
        <ele>53</ele>
        <time>2022-06-05T09:23:51Z</time>
      </trkpt>
      <trkpt lat="47.0058" lon="-1.84938">
        <ele>53</ele>
        <time>2022-06-05T09:23:53Z</time>
      </trkpt>
      <trkpt lat="47.00571" lon="-1.8495">
        <ele>53</ele>
        <time>2022-06-05T09:23:55Z</time>
      </trkpt>
      <trkpt lat="47.00562" lon="-1.84963">
        <ele>53</ele>
        <time>2022-06-05T09:23:57Z</time>
      </trkpt>
      <trkpt lat="47.00552" lon="-1.84975">
        <ele>53</ele>
        <time>2022-06-05T09:23:59Z</time>
      </trkpt>
      <trkpt lat="47.00543" lon="-1.84988">
        <ele>53</ele>
        <time>2022-06-05T09:24:01Z</time>
      </trkpt>
      <trkpt lat="47.00534" lon="-1.85001">
        <ele>52</ele>
        <time>2022-06-05T09:24:03Z</time>
      </trkpt>
      <trkpt lat="47.00524" lon="-1.85013">
        <ele>52</ele>
        <time>2022-06-05T09:24:05Z</time>
      </trkpt>
      <trkpt lat="47.00514" lon="-1.85025">
        <ele>53</ele>
        <time>2022-06-05T09:24:07Z</time>
      </trkpt>
      <trkpt lat="47.00504" lon="-1.85036">
        <ele>53</ele>
        <time>2022-06-05T09:24:09Z</time>
      </trkpt>
      <trkpt lat="47.00495" lon="-1.85047">
        <ele>53</ele>
        <time>2022-06-05T09:24:11Z</time>
      </trkpt>
      <trkpt lat="47.00485" lon="-1.85059">
        <ele>53</ele>
        <time>2022-06-05T09:24:13Z</time>
      </trkpt>
      <trkpt lat="47.00474" lon="-1.85069">
        <ele>52</ele>
        <time>2022-06-05T09:24:15Z</time>
      </trkpt>
      <trkpt lat="47.00462" lon="-1.85078">
        <ele>53</ele>
        <time>2022-06-05T09:24:17Z</time>
      </trkpt>
      <trkpt lat="47.00452" lon="-1.85088">
        <ele>53</ele>
        <time>2022-06-05T09:24:19Z</time>
      </trkpt>
      <trkpt lat="47.00441" lon="-1.85096">
        <ele>53</ele>
        <time>2022-06-05T09:24:21Z</time>
      </trkpt>
      <trkpt lat="47.0043" lon="-1.85105">
        <ele>53</ele>
        <time>2022-06-05T09:24:23Z</time>
      </trkpt>
      <trkpt lat="47.00419" lon="-1.85115">
        <ele>53</ele>
        <time>2022-06-05T09:24:25Z</time>
      </trkpt>
      <trkpt lat="47.00408" lon="-1.85124">
        <ele>53</ele>
        <time>2022-06-05T09:24:27Z</time>
      </trkpt>
      <trkpt lat="47.00396" lon="-1.85133">
        <ele>53</ele>
        <time>2022-06-05T09:24:29Z</time>
      </trkpt>
      <trkpt lat="47.00385" lon="-1.85142">
        <ele>53</ele>
        <time>2022-06-05T09:24:31Z</time>
      </trkpt>
      <trkpt lat="47.00375" lon="-1.85151">
        <ele>53</ele>
        <time>2022-06-05T09:24:33Z</time>
      </trkpt>
      <trkpt lat="47.00364" lon="-1.8516">
        <ele>53</ele>
        <time>2022-06-05T09:24:35Z</time>
      </trkpt>
      <trkpt lat="47.00354" lon="-1.85169">
        <ele>53</ele>
        <time>2022-06-05T09:24:37Z</time>
      </trkpt>
      <trkpt lat="47.00343" lon="-1.85178">
        <ele>53</ele>
        <time>2022-06-05T09:24:39Z</time>
      </trkpt>
      <trkpt lat="47.00332" lon="-1.85187">
        <ele>53</ele>
        <time>2022-06-05T09:24:41Z</time>
      </trkpt>
      <trkpt lat="47.00322" lon="-1.85196">
        <ele>53</ele>
        <time>2022-06-05T09:24:43Z</time>
      </trkpt>
      <trkpt lat="47.00311" lon="-1.85205">
        <ele>53</ele>
        <time>2022-06-05T09:24:45Z</time>
      </trkpt>
      <trkpt lat="47.003" lon="-1.85214">
        <ele>54</ele>
        <time>2022-06-05T09:24:47Z</time>
      </trkpt>
      <trkpt lat="47.0029" lon="-1.85223">
        <ele>54</ele>
        <time>2022-06-05T09:24:49Z</time>
      </trkpt>
      <trkpt lat="47.00279" lon="-1.85232">
        <ele>54</ele>
        <time>2022-06-05T09:24:51Z</time>
      </trkpt>
      <trkpt lat="47.00268" lon="-1.85241">
        <ele>54</ele>
        <time>2022-06-05T09:24:53Z</time>
      </trkpt>
      <trkpt lat="47.00257" lon="-1.85251">
        <ele>54</ele>
        <time>2022-06-05T09:24:55Z</time>
      </trkpt>
      <trkpt lat="47.00247" lon="-1.85261">
        <ele>54</ele>
        <time>2022-06-05T09:24:57Z</time>
      </trkpt>
      <trkpt lat="47.00236" lon="-1.85271">
        <ele>53</ele>
        <time>2022-06-05T09:24:59Z</time>
      </trkpt>
      <trkpt lat="47.00225" lon="-1.85283">
        <ele>53</ele>
        <time>2022-06-05T09:25:01Z</time>
      </trkpt>
      <trkpt lat="47.00215" lon="-1.85296">
        <ele>53</ele>
        <time>2022-06-05T09:25:03Z</time>
      </trkpt>
      <trkpt lat="47.00207" lon="-1.8531">
        <ele>53</ele>
        <time>2022-06-05T09:25:05Z</time>
      </trkpt>
      <trkpt lat="47.00199" lon="-1.85326">
        <ele>53</ele>
        <time>2022-06-05T09:25:07Z</time>
      </trkpt>
      <trkpt lat="47.00192" lon="-1.85342">
        <ele>53</ele>
        <time>2022-06-05T09:25:09Z</time>
      </trkpt>
      <trkpt lat="47.00185" lon="-1.85357">
        <ele>53</ele>
        <time>2022-06-05T09:25:11Z</time>
      </trkpt>
      <trkpt lat="47.00178" lon="-1.85372">
        <ele>53</ele>
        <time>2022-06-05T09:25:13Z</time>
      </trkpt>
      <trkpt lat="47.0017" lon="-1.85388">
        <ele>53</ele>
        <time>2022-06-05T09:25:15Z</time>
      </trkpt>
      <trkpt lat="47.00163" lon="-1.85403">
        <ele>53</ele>
        <time>2022-06-05T09:25:17Z</time>
      </trkpt>
      <trkpt lat="47.00155" lon="-1.85418">
        <ele>53</ele>
        <time>2022-06-05T09:25:19Z</time>
      </trkpt>
      <trkpt lat="47.00145" lon="-1.85431">
        <ele>53</ele>
        <time>2022-06-05T09:25:21Z</time>
      </trkpt>
      <trkpt lat="47.00134" lon="-1.85441">
        <ele>53</ele>
        <time>2022-06-05T09:25:23Z</time>
      </trkpt>
      <trkpt lat="47.00122" lon="-1.8545">
        <ele>53</ele>
        <time>2022-06-05T09:25:25Z</time>
      </trkpt>
      <trkpt lat="47.00108" lon="-1.85451">
        <ele>53</ele>
        <time>2022-06-05T09:25:27Z</time>
      </trkpt>
      <trkpt lat="47.00095" lon="-1.85444">
        <ele>54</ele>
        <time>2022-06-05T09:25:29Z</time>
      </trkpt>
      <trkpt lat="47.00084" lon="-1.85433">
        <ele>54</ele>
        <time>2022-06-05T09:25:31Z</time>
      </trkpt>
      <trkpt lat="47.00074" lon="-1.8542">
        <ele>54</ele>
        <time>2022-06-05T09:25:33Z</time>
      </trkpt>
      <trkpt lat="47.00064" lon="-1.85407">
        <ele>54</ele>
        <time>2022-06-05T09:25:35Z</time>
      </trkpt>
      <trkpt lat="47.00055" lon="-1.85395">
        <ele>54</ele>
        <time>2022-06-05T09:25:37Z</time>
      </trkpt>
      <trkpt lat="47.00045" lon="-1.85384">
        <ele>55</ele>
        <time>2022-06-05T09:25:39Z</time>
      </trkpt>
      <trkpt lat="47.00035" lon="-1.85375">
        <ele>55</ele>
        <time>2022-06-05T09:25:41Z</time>
      </trkpt>
      <trkpt lat="47.00023" lon="-1.8537">
        <ele>55</ele>
        <time>2022-06-05T09:25:43Z</time>
      </trkpt>
      <trkpt lat="47.0001" lon="-1.85368">
        <ele>55</ele>
        <time>2022-06-05T09:25:45Z</time>
      </trkpt>
      <trkpt lat="46.99996" lon="-1.85367">
        <ele>55</ele>
        <time>2022-06-05T09:25:47Z</time>
      </trkpt>
      <trkpt lat="46.99983" lon="-1.85359">
        <ele>55</ele>
        <time>2022-06-05T09:25:49Z</time>
      </trkpt>
      <trkpt lat="46.99974" lon="-1.85343">
        <ele>55</ele>
        <time>2022-06-05T09:25:51Z</time>
      </trkpt>
      <trkpt lat="46.99967" lon="-1.85328">
        <ele>55</ele>
        <time>2022-06-05T09:25:53Z</time>
      </trkpt>
      <trkpt lat="46.9996" lon="-1.85312">
        <ele>56</ele>
        <time>2022-06-05T09:25:55Z</time>
      </trkpt>
      <trkpt lat="46.99951" lon="-1.85297">
        <ele>56</ele>
        <time>2022-06-05T09:25:57Z</time>
      </trkpt>
      <trkpt lat="46.99943" lon="-1.85281">
        <ele>57</ele>
        <time>2022-06-05T09:25:59Z</time>
      </trkpt>
      <trkpt lat="46.99935" lon="-1.85264">
        <ele>57</ele>
        <time>2022-06-05T09:26:01Z</time>
      </trkpt>
      <trkpt lat="46.99927" lon="-1.85247">
        <ele>57</ele>
        <time>2022-06-05T09:26:03Z</time>
      </trkpt>
      <trkpt lat="46.9992" lon="-1.85229">
        <ele>57</ele>
        <time>2022-06-05T09:26:05Z</time>
      </trkpt>
      <trkpt lat="46.99916" lon="-1.85208">
        <ele>57</ele>
        <time>2022-06-05T09:26:07Z</time>
      </trkpt>
      <trkpt lat="46.99913" lon="-1.85188">
        <ele>58</ele>
        <time>2022-06-05T09:26:09Z</time>
      </trkpt>
      <trkpt lat="46.9991" lon="-1.85168">
        <ele>58</ele>
        <time>2022-06-05T09:26:11Z</time>
      </trkpt>
      <trkpt lat="46.99907" lon="-1.85149">
        <ele>58</ele>
        <time>2022-06-05T09:26:13Z</time>
      </trkpt>
      <trkpt lat="46.99904" lon="-1.85129">
        <ele>58</ele>
        <time>2022-06-05T09:26:15Z</time>
      </trkpt>
      <trkpt lat="46.99902" lon="-1.85108">
        <ele>58</ele>
        <time>2022-06-05T09:26:17Z</time>
      </trkpt>
      <trkpt lat="46.99899" lon="-1.85088">
        <ele>58</ele>
        <time>2022-06-05T09:26:19Z</time>
      </trkpt>
      <trkpt lat="46.99898" lon="-1.85069">
        <ele>58</ele>
        <time>2022-06-05T09:26:21Z</time>
      </trkpt>
      <trkpt lat="46.99896" lon="-1.85048">
        <ele>58</ele>
        <time>2022-06-05T09:26:23Z</time>
      </trkpt>
      <trkpt lat="46.99895" lon="-1.85028">
        <ele>58</ele>
        <time>2022-06-05T09:26:25Z</time>
      </trkpt>
      <trkpt lat="46.99894" lon="-1.85008">
        <ele>58</ele>
        <time>2022-06-05T09:26:27Z</time>
      </trkpt>
      <trkpt lat="46.99893" lon="-1.84988">
        <ele>58</ele>
        <time>2022-06-05T09:26:29Z</time>
      </trkpt>
      <trkpt lat="46.99892" lon="-1.84969">
        <ele>58</ele>
        <time>2022-06-05T09:26:31Z</time>
      </trkpt>
      <trkpt lat="46.99891" lon="-1.8495">
        <ele>59</ele>
        <time>2022-06-05T09:26:33Z</time>
      </trkpt>
      <trkpt lat="46.99891" lon="-1.84931">
        <ele>59</ele>
        <time>2022-06-05T09:26:35Z</time>
      </trkpt>
      <trkpt lat="46.9989" lon="-1.84912">
        <ele>59</ele>
        <time>2022-06-05T09:26:37Z</time>
      </trkpt>
      <trkpt lat="46.99889" lon="-1.84893">
        <ele>59</ele>
        <time>2022-06-05T09:26:39Z</time>
      </trkpt>
      <trkpt lat="46.99887" lon="-1.84874">
        <ele>59</ele>
        <time>2022-06-05T09:26:41Z</time>
      </trkpt>
      <trkpt lat="46.99885" lon="-1.84854">
        <ele>59</ele>
        <time>2022-06-05T09:26:43Z</time>
      </trkpt>
      <trkpt lat="46.99881" lon="-1.84836">
        <ele>59</ele>
        <time>2022-06-05T09:26:45Z</time>
      </trkpt>
      <trkpt lat="46.99878" lon="-1.84818">
        <ele>59</ele>
        <time>2022-06-05T09:26:47Z</time>
      </trkpt>
      <trkpt lat="46.99873" lon="-1.848">
        <ele>59</ele>
        <time>2022-06-05T09:26:49Z</time>
      </trkpt>
      <trkpt lat="46.99868" lon="-1.84782">
        <ele>59</ele>
        <time>2022-06-05T09:26:51Z</time>
      </trkpt>
      <trkpt lat="46.99858" lon="-1.84756">
        <ele>59</ele>
        <time>2022-06-05T09:26:54Z</time>
      </trkpt>
      <trkpt lat="46.99852" lon="-1.84739">
        <ele>59</ele>
        <time>2022-06-05T09:26:56Z</time>
      </trkpt>
      <trkpt lat="46.99845" lon="-1.84723">
        <ele>59</ele>
        <time>2022-06-05T09:26:58Z</time>
      </trkpt>
      <trkpt lat="46.99838" lon="-1.84707">
        <ele>59</ele>
        <time>2022-06-05T09:27:00Z</time>
      </trkpt>
      <trkpt lat="46.99832" lon="-1.84689">
        <ele>59</ele>
        <time>2022-06-05T09:27:02Z</time>
      </trkpt>
      <trkpt lat="46.99825" lon="-1.84671">
        <ele>59</ele>
        <time>2022-06-05T09:27:04Z</time>
      </trkpt>
      <trkpt lat="46.9982" lon="-1.84653">
        <ele>58</ele>
        <time>2022-06-05T09:27:06Z</time>
      </trkpt>
      <trkpt lat="46.99814" lon="-1.84635">
        <ele>58</ele>
        <time>2022-06-05T09:27:08Z</time>
      </trkpt>
      <trkpt lat="46.99809" lon="-1.84617">
        <ele>58</ele>
        <time>2022-06-05T09:27:10Z</time>
      </trkpt>
      <trkpt lat="46.99804" lon="-1.84599">
        <ele>58</ele>
        <time>2022-06-05T09:27:12Z</time>
      </trkpt>
      <trkpt lat="46.998" lon="-1.84581">
        <ele>58</ele>
        <time>2022-06-05T09:27:14Z</time>
      </trkpt>
      <trkpt lat="46.99796" lon="-1.84561">
        <ele>57</ele>
        <time>2022-06-05T09:27:16Z</time>
      </trkpt>
      <trkpt lat="46.99792" lon="-1.84541">
        <ele>58</ele>
        <time>2022-06-05T09:27:18Z</time>
      </trkpt>
      <trkpt lat="46.99788" lon="-1.84521">
        <ele>58</ele>
        <time>2022-06-05T09:27:20Z</time>
      </trkpt>
      <trkpt lat="46.99785" lon="-1.84501">
        <ele>58</ele>
        <time>2022-06-05T09:27:22Z</time>
      </trkpt>
      <trkpt lat="46.99782" lon="-1.8448">
        <ele>58</ele>
        <time>2022-06-05T09:27:24Z</time>
      </trkpt>
      <trkpt lat="46.99778" lon="-1.8446">
        <ele>58</ele>
        <time>2022-06-05T09:27:26Z</time>
      </trkpt>
      <trkpt lat="46.99774" lon="-1.84439">
        <ele>58</ele>
        <time>2022-06-05T09:27:28Z</time>
      </trkpt>
      <trkpt lat="46.99771" lon="-1.84418">
        <ele>58</ele>
        <time>2022-06-05T09:27:30Z</time>
      </trkpt>
      <trkpt lat="46.99767" lon="-1.84397">
        <ele>58</ele>
        <time>2022-06-05T09:27:32Z</time>
      </trkpt>
      <trkpt lat="46.99763" lon="-1.84376">
        <ele>58</ele>
        <time>2022-06-05T09:27:34Z</time>
      </trkpt>
      <trkpt lat="46.99759" lon="-1.84355">
        <ele>58</ele>
        <time>2022-06-05T09:27:36Z</time>
      </trkpt>
      <trkpt lat="46.99756" lon="-1.84335">
        <ele>58</ele>
        <time>2022-06-05T09:27:38Z</time>
      </trkpt>
      <trkpt lat="46.99754" lon="-1.84314">
        <ele>58</ele>
        <time>2022-06-05T09:27:40Z</time>
      </trkpt>
      <trkpt lat="46.99751" lon="-1.84292">
        <ele>58</ele>
        <time>2022-06-05T09:27:42Z</time>
      </trkpt>
      <trkpt lat="46.99749" lon="-1.84271">
        <ele>58</ele>
        <time>2022-06-05T09:27:44Z</time>
      </trkpt>
      <trkpt lat="46.99747" lon="-1.84251">
        <ele>57</ele>
        <time>2022-06-05T09:27:46Z</time>
      </trkpt>
      <trkpt lat="46.99744" lon="-1.84231">
        <ele>58</ele>
        <time>2022-06-05T09:27:48Z</time>
      </trkpt>
      <trkpt lat="46.99741" lon="-1.84211">
        <ele>58</ele>
        <time>2022-06-05T09:27:50Z</time>
      </trkpt>
      <trkpt lat="46.99734" lon="-1.84194">
        <ele>58</ele>
        <time>2022-06-05T09:27:52Z</time>
      </trkpt>
      <trkpt lat="46.99723" lon="-1.84182">
        <ele>58</ele>
        <time>2022-06-05T09:27:54Z</time>
      </trkpt>
      <trkpt lat="46.9971" lon="-1.84175">
        <ele>57</ele>
        <time>2022-06-05T09:27:56Z</time>
      </trkpt>
      <trkpt lat="46.99696" lon="-1.84168">
        <ele>57</ele>
        <time>2022-06-05T09:27:58Z</time>
      </trkpt>
      <trkpt lat="46.99683" lon="-1.84159">
        <ele>57</ele>
        <time>2022-06-05T09:28:00Z</time>
      </trkpt>
      <trkpt lat="46.99671" lon="-1.84148">
        <ele>57</ele>
        <time>2022-06-05T09:28:02Z</time>
      </trkpt>
      <trkpt lat="46.9966" lon="-1.84135">
        <ele>57</ele>
        <time>2022-06-05T09:28:04Z</time>
      </trkpt>
      <trkpt lat="46.9965" lon="-1.84122">
        <ele>57</ele>
        <time>2022-06-05T09:28:06Z</time>
      </trkpt>
      <trkpt lat="46.99641" lon="-1.84107">
        <ele>57</ele>
        <time>2022-06-05T09:28:08Z</time>
      </trkpt>
      <trkpt lat="46.99633" lon="-1.8409">
        <ele>58</ele>
        <time>2022-06-05T09:28:10Z</time>
      </trkpt>
      <trkpt lat="46.99626" lon="-1.84074">
        <ele>57</ele>
        <time>2022-06-05T09:28:12Z</time>
      </trkpt>
      <trkpt lat="46.99621" lon="-1.84056">
        <ele>57</ele>
        <time>2022-06-05T09:28:14Z</time>
      </trkpt>
      <trkpt lat="46.99617" lon="-1.84037">
        <ele>57</ele>
        <time>2022-06-05T09:28:16Z</time>
      </trkpt>
      <trkpt lat="46.99613" lon="-1.84016">
        <ele>57</ele>
        <time>2022-06-05T09:28:18Z</time>
      </trkpt>
      <trkpt lat="46.9961" lon="-1.83997">
        <ele>57</ele>
        <time>2022-06-05T09:28:20Z</time>
      </trkpt>
      <trkpt lat="46.99606" lon="-1.83977">
        <ele>56</ele>
        <time>2022-06-05T09:28:22Z</time>
      </trkpt>
      <trkpt lat="46.99602" lon="-1.83958">
        <ele>57</ele>
        <time>2022-06-05T09:28:24Z</time>
      </trkpt>
      <trkpt lat="46.99596" lon="-1.83941">
        <ele>57</ele>
        <time>2022-06-05T09:28:26Z</time>
      </trkpt>
      <trkpt lat="46.99586" lon="-1.83927">
        <ele>57</ele>
        <time>2022-06-05T09:28:28Z</time>
      </trkpt>
      <trkpt lat="46.99575" lon="-1.83918">
        <ele>57</ele>
        <time>2022-06-05T09:28:30Z</time>
      </trkpt>
      <trkpt lat="46.99562" lon="-1.83912">
        <ele>57</ele>
        <time>2022-06-05T09:28:32Z</time>
      </trkpt>
      <trkpt lat="46.99549" lon="-1.83906">
        <ele>58</ele>
        <time>2022-06-05T09:28:34Z</time>
      </trkpt>
      <trkpt lat="46.99537" lon="-1.83899">
        <ele>58</ele>
        <time>2022-06-05T09:28:36Z</time>
      </trkpt>
      <trkpt lat="46.99526" lon="-1.83894">
        <ele>58</ele>
        <time>2022-06-05T09:28:38Z</time>
      </trkpt>
      <trkpt lat="46.99513" lon="-1.83887">
        <ele>59</ele>
        <time>2022-06-05T09:28:40Z</time>
      </trkpt>
      <trkpt lat="46.99502" lon="-1.83879">
        <ele>59</ele>
        <time>2022-06-05T09:28:42Z</time>
      </trkpt>
      <trkpt lat="46.99489" lon="-1.8387">
        <ele>59</ele>
        <time>2022-06-05T09:28:44Z</time>
      </trkpt>
      <trkpt lat="46.99479" lon="-1.83857">
        <ele>59</ele>
        <time>2022-06-05T09:28:46Z</time>
      </trkpt>
      <trkpt lat="46.99471" lon="-1.83842">
        <ele>59</ele>
        <time>2022-06-05T09:28:48Z</time>
      </trkpt>
      <trkpt lat="46.99464" lon="-1.83827">
        <ele>59</ele>
        <time>2022-06-05T09:28:50Z</time>
      </trkpt>
      <trkpt lat="46.99457" lon="-1.8381">
        <ele>59</ele>
        <time>2022-06-05T09:28:52Z</time>
      </trkpt>
      <trkpt lat="46.9945" lon="-1.83794">
        <ele>59</ele>
        <time>2022-06-05T09:28:54Z</time>
      </trkpt>
      <trkpt lat="46.99441" lon="-1.83781">
        <ele>59</ele>
        <time>2022-06-05T09:28:56Z</time>
      </trkpt>
      <trkpt lat="46.9943" lon="-1.83771">
        <ele>59</ele>
        <time>2022-06-05T09:28:58Z</time>
      </trkpt>
      <trkpt lat="46.99418" lon="-1.83764">
        <ele>59</ele>
        <time>2022-06-05T09:29:00Z</time>
      </trkpt>
      <trkpt lat="46.99405" lon="-1.83757">
        <ele>59</ele>
        <time>2022-06-05T09:29:02Z</time>
      </trkpt>
      <trkpt lat="46.99392" lon="-1.83749">
        <ele>59</ele>
        <time>2022-06-05T09:29:04Z</time>
      </trkpt>
      <trkpt lat="46.9938" lon="-1.83742">
        <ele>59</ele>
        <time>2022-06-05T09:29:06Z</time>
      </trkpt>
      <trkpt lat="46.99367" lon="-1.83734">
        <ele>59</ele>
        <time>2022-06-05T09:29:08Z</time>
      </trkpt>
      <trkpt lat="46.99355" lon="-1.83727">
        <ele>58</ele>
        <time>2022-06-05T09:29:10Z</time>
      </trkpt>
      <trkpt lat="46.99343" lon="-1.8372">
        <ele>59</ele>
        <time>2022-06-05T09:29:12Z</time>
      </trkpt>
      <trkpt lat="46.99331" lon="-1.83712">
        <ele>59</ele>
        <time>2022-06-05T09:29:14Z</time>
      </trkpt>
      <trkpt lat="46.99319" lon="-1.83704">
        <ele>59</ele>
        <time>2022-06-05T09:29:16Z</time>
      </trkpt>
      <trkpt lat="46.99307" lon="-1.83695">
        <ele>59</ele>
        <time>2022-06-05T09:29:18Z</time>
      </trkpt>
      <trkpt lat="46.99295" lon="-1.83686">
        <ele>60</ele>
        <time>2022-06-05T09:29:20Z</time>
      </trkpt>
      <trkpt lat="46.99284" lon="-1.83676">
        <ele>61</ele>
        <time>2022-06-05T09:29:22Z</time>
      </trkpt>
      <trkpt lat="46.99274" lon="-1.83664">
        <ele>61</ele>
        <time>2022-06-05T09:29:24Z</time>
      </trkpt>
      <trkpt lat="46.99263" lon="-1.83653">
        <ele>61</ele>
        <time>2022-06-05T09:29:26Z</time>
      </trkpt>
      <trkpt lat="46.99253" lon="-1.83641">
        <ele>61</ele>
        <time>2022-06-05T09:29:28Z</time>
      </trkpt>
      <trkpt lat="46.99244" lon="-1.83628">
        <ele>61</ele>
        <time>2022-06-05T09:29:30Z</time>
      </trkpt>
      <trkpt lat="46.99234" lon="-1.83616">
        <ele>61</ele>
        <time>2022-06-05T09:29:32Z</time>
      </trkpt>
      <trkpt lat="46.99225" lon="-1.83604">
        <ele>61</ele>
        <time>2022-06-05T09:29:34Z</time>
      </trkpt>
      <trkpt lat="46.99215" lon="-1.83592">
        <ele>60</ele>
        <time>2022-06-05T09:29:36Z</time>
      </trkpt>
      <trkpt lat="46.99206" lon="-1.8358">
        <ele>60</ele>
        <time>2022-06-05T09:29:38Z</time>
      </trkpt>
      <trkpt lat="46.99196" lon="-1.83568">
        <ele>60</ele>
        <time>2022-06-05T09:29:40Z</time>
      </trkpt>
      <trkpt lat="46.99186" lon="-1.83557">
        <ele>60</ele>
        <time>2022-06-05T09:29:42Z</time>
      </trkpt>
      <trkpt lat="46.99178" lon="-1.83545">
        <ele>59</ele>
        <time>2022-06-05T09:29:44Z</time>
      </trkpt>
      <trkpt lat="46.99169" lon="-1.83534">
        <ele>59</ele>
        <time>2022-06-05T09:29:46Z</time>
      </trkpt>
      <trkpt lat="46.99159" lon="-1.83524">
        <ele>59</ele>
        <time>2022-06-05T09:29:48Z</time>
      </trkpt>
      <trkpt lat="46.99148" lon="-1.83519">
        <ele>59</ele>
        <time>2022-06-05T09:29:50Z</time>
      </trkpt>
      <trkpt lat="46.99142" lon="-1.83505">
        <ele>58</ele>
        <time>2022-06-05T09:29:52Z</time>
      </trkpt>
      <trkpt lat="46.99149" lon="-1.83487">
        <ele>59</ele>
        <time>2022-06-05T09:29:54Z</time>
      </trkpt>
      <trkpt lat="46.99155" lon="-1.83469">
        <ele>58</ele>
        <time>2022-06-05T09:29:56Z</time>
      </trkpt>
      <trkpt lat="46.9916" lon="-1.83449">
        <ele>58</ele>
        <time>2022-06-05T09:29:58Z</time>
      </trkpt>
      <trkpt lat="46.99164" lon="-1.83429">
        <ele>58</ele>
        <time>2022-06-05T09:30:00Z</time>
      </trkpt>
      <trkpt lat="46.99169" lon="-1.83409">
        <ele>58</ele>
        <time>2022-06-05T09:30:02Z</time>
      </trkpt>
      <trkpt lat="46.99173" lon="-1.83389">
        <ele>58</ele>
        <time>2022-06-05T09:30:04Z</time>
      </trkpt>
      <trkpt lat="46.99178" lon="-1.83368">
        <ele>58</ele>
        <time>2022-06-05T09:30:06Z</time>
      </trkpt>
      <trkpt lat="46.99183" lon="-1.83347">
        <ele>58</ele>
        <time>2022-06-05T09:30:08Z</time>
      </trkpt>
      <trkpt lat="46.99187" lon="-1.83326">
        <ele>59</ele>
        <time>2022-06-05T09:30:10Z</time>
      </trkpt>
      <trkpt lat="46.99192" lon="-1.83304">
        <ele>59</ele>
        <time>2022-06-05T09:30:12Z</time>
      </trkpt>
      <trkpt lat="46.99196" lon="-1.83283">
        <ele>59</ele>
        <time>2022-06-05T09:30:14Z</time>
      </trkpt>
      <trkpt lat="46.99201" lon="-1.83263">
        <ele>58</ele>
        <time>2022-06-05T09:30:16Z</time>
      </trkpt>
      <trkpt lat="46.99206" lon="-1.83242">
        <ele>58</ele>
        <time>2022-06-05T09:30:18Z</time>
      </trkpt>
      <trkpt lat="46.9921" lon="-1.83221">
        <ele>58</ele>
        <time>2022-06-05T09:30:20Z</time>
      </trkpt>
      <trkpt lat="46.99214" lon="-1.832">
        <ele>58</ele>
        <time>2022-06-05T09:30:22Z</time>
      </trkpt>
      <trkpt lat="46.99219" lon="-1.83179">
        <ele>58</ele>
        <time>2022-06-05T09:30:24Z</time>
      </trkpt>
      <trkpt lat="46.99224" lon="-1.83159">
        <ele>58</ele>
        <time>2022-06-05T09:30:26Z</time>
      </trkpt>
      <trkpt lat="46.99228" lon="-1.83138">
        <ele>58</ele>
        <time>2022-06-05T09:30:28Z</time>
      </trkpt>
      <trkpt lat="46.99233" lon="-1.83118">
        <ele>58</ele>
        <time>2022-06-05T09:30:30Z</time>
      </trkpt>
      <trkpt lat="46.99238" lon="-1.83098">
        <ele>57</ele>
        <time>2022-06-05T09:30:32Z</time>
      </trkpt>
      <trkpt lat="46.99242" lon="-1.83077">
        <ele>57</ele>
        <time>2022-06-05T09:30:34Z</time>
      </trkpt>
      <trkpt lat="46.99247" lon="-1.83056">
        <ele>57</ele>
        <time>2022-06-05T09:30:36Z</time>
      </trkpt>
      <trkpt lat="46.99252" lon="-1.83035">
        <ele>57</ele>
        <time>2022-06-05T09:30:38Z</time>
      </trkpt>
      <trkpt lat="46.99256" lon="-1.83014">
        <ele>57</ele>
        <time>2022-06-05T09:30:40Z</time>
      </trkpt>
      <trkpt lat="46.99261" lon="-1.82994">
        <ele>57</ele>
        <time>2022-06-05T09:30:42Z</time>
      </trkpt>
      <trkpt lat="46.99266" lon="-1.82973">
        <ele>57</ele>
        <time>2022-06-05T09:30:44Z</time>
      </trkpt>
      <trkpt lat="46.99271" lon="-1.82952">
        <ele>57</ele>
        <time>2022-06-05T09:30:46Z</time>
      </trkpt>
      <trkpt lat="46.99275" lon="-1.82931">
        <ele>57</ele>
        <time>2022-06-05T09:30:48Z</time>
      </trkpt>
      <trkpt lat="46.99279" lon="-1.82909">
        <ele>57</ele>
        <time>2022-06-05T09:30:50Z</time>
      </trkpt>
      <trkpt lat="46.99284" lon="-1.82888">
        <ele>57</ele>
        <time>2022-06-05T09:30:52Z</time>
      </trkpt>
      <trkpt lat="46.99289" lon="-1.82867">
        <ele>58</ele>
        <time>2022-06-05T09:30:54Z</time>
      </trkpt>
      <trkpt lat="46.99293" lon="-1.82846">
        <ele>58</ele>
        <time>2022-06-05T09:30:56Z</time>
      </trkpt>
      <trkpt lat="46.99299" lon="-1.82823">
        <ele>58</ele>
        <time>2022-06-05T09:30:58Z</time>
      </trkpt>
      <trkpt lat="46.99303" lon="-1.82801">
        <ele>58</ele>
        <time>2022-06-05T09:31:00Z</time>
      </trkpt>
      <trkpt lat="46.99308" lon="-1.82779">
        <ele>58</ele>
        <time>2022-06-05T09:31:02Z</time>
      </trkpt>
      <trkpt lat="46.99313" lon="-1.82758">
        <ele>58</ele>
        <time>2022-06-05T09:31:04Z</time>
      </trkpt>
      <trkpt lat="46.99317" lon="-1.82737">
        <ele>58</ele>
        <time>2022-06-05T09:31:06Z</time>
      </trkpt>
      <trkpt lat="46.99321" lon="-1.82717">
        <ele>58</ele>
        <time>2022-06-05T09:31:08Z</time>
      </trkpt>
      <trkpt lat="46.99326" lon="-1.82696">
        <ele>58</ele>
        <time>2022-06-05T09:31:10Z</time>
      </trkpt>
      <trkpt lat="46.99331" lon="-1.82674">
        <ele>57</ele>
        <time>2022-06-05T09:31:12Z</time>
      </trkpt>
      <trkpt lat="46.99336" lon="-1.82654">
        <ele>58</ele>
        <time>2022-06-05T09:31:14Z</time>
      </trkpt>
      <trkpt lat="46.99341" lon="-1.82633">
        <ele>57</ele>
        <time>2022-06-05T09:31:16Z</time>
      </trkpt>
      <trkpt lat="46.99348" lon="-1.82615">
        <ele>57</ele>
        <time>2022-06-05T09:31:18Z</time>
      </trkpt>
      <trkpt lat="46.99357" lon="-1.82598">
        <ele>57</ele>
        <time>2022-06-05T09:31:20Z</time>
      </trkpt>
      <trkpt lat="46.99362" lon="-1.8258">
        <ele>57</ele>
        <time>2022-06-05T09:31:22Z</time>
      </trkpt>
      <trkpt lat="46.99364" lon="-1.82558">
        <ele>56</ele>
        <time>2022-06-05T09:31:24Z</time>
      </trkpt>
      <trkpt lat="46.99359" lon="-1.82536">
        <ele>56</ele>
        <time>2022-06-05T09:31:26Z</time>
      </trkpt>
      <trkpt lat="46.99354" lon="-1.82515">
        <ele>56</ele>
        <time>2022-06-05T09:31:28Z</time>
      </trkpt>
      <trkpt lat="46.9935" lon="-1.82497">
        <ele>56</ele>
        <time>2022-06-05T09:31:30Z</time>
      </trkpt>
      <trkpt lat="46.99344" lon="-1.82479">
        <ele>56</ele>
        <time>2022-06-05T09:31:32Z</time>
      </trkpt>
      <trkpt lat="46.99339" lon="-1.82458">
        <ele>56</ele>
        <time>2022-06-05T09:31:34Z</time>
      </trkpt>
      <trkpt lat="46.99335" lon="-1.82437">
        <ele>56</ele>
        <time>2022-06-05T09:31:36Z</time>
      </trkpt>
      <trkpt lat="46.99329" lon="-1.82416">
        <ele>55</ele>
        <time>2022-06-05T09:31:38Z</time>
      </trkpt>
      <trkpt lat="46.99326" lon="-1.82394">
        <ele>55</ele>
        <time>2022-06-05T09:31:40Z</time>
      </trkpt>
      <trkpt lat="46.99324" lon="-1.82372">
        <ele>55</ele>
        <time>2022-06-05T09:31:42Z</time>
      </trkpt>
      <trkpt lat="46.99322" lon="-1.8235">
        <ele>56</ele>
        <time>2022-06-05T09:31:44Z</time>
      </trkpt>
      <trkpt lat="46.99318" lon="-1.82329">
        <ele>55</ele>
        <time>2022-06-05T09:31:46Z</time>
      </trkpt>
      <trkpt lat="46.99314" lon="-1.82309">
        <ele>56</ele>
        <time>2022-06-05T09:31:48Z</time>
      </trkpt>
      <trkpt lat="46.99309" lon="-1.82289">
        <ele>56</ele>
        <time>2022-06-05T09:31:50Z</time>
      </trkpt>
      <trkpt lat="46.99305" lon="-1.8227">
        <ele>56</ele>
        <time>2022-06-05T09:31:52Z</time>
      </trkpt>
      <trkpt lat="46.993" lon="-1.82252">
        <ele>56</ele>
        <time>2022-06-05T09:31:54Z</time>
      </trkpt>
      <trkpt lat="46.99296" lon="-1.82235">
        <ele>56</ele>
        <time>2022-06-05T09:31:56Z</time>
      </trkpt>
      <trkpt lat="46.9929" lon="-1.82218">
        <ele>56</ele>
        <time>2022-06-05T09:31:58Z</time>
      </trkpt>
      <trkpt lat="46.99277" lon="-1.82215">
        <ele>56</ele>
        <time>2022-06-05T09:32:00Z</time>
      </trkpt>
      <trkpt lat="46.99263" lon="-1.82218">
        <ele>56</ele>
        <time>2022-06-05T09:32:02Z</time>
      </trkpt>
      <trkpt lat="46.99248" lon="-1.82221">
        <ele>57</ele>
        <time>2022-06-05T09:32:04Z</time>
      </trkpt>
      <trkpt lat="46.99233" lon="-1.82221">
        <ele>57</ele>
        <time>2022-06-05T09:32:06Z</time>
      </trkpt>
      <trkpt lat="46.99218" lon="-1.82217">
        <ele>57</ele>
        <time>2022-06-05T09:32:08Z</time>
      </trkpt>
      <trkpt lat="46.99204" lon="-1.82212">
        <ele>57</ele>
        <time>2022-06-05T09:32:10Z</time>
      </trkpt>
      <trkpt lat="46.99189" lon="-1.82206">
        <ele>57</ele>
        <time>2022-06-05T09:32:12Z</time>
      </trkpt>
      <trkpt lat="46.99175" lon="-1.822">
        <ele>58</ele>
        <time>2022-06-05T09:32:14Z</time>
      </trkpt>
      <trkpt lat="46.99161" lon="-1.82194">
        <ele>58</ele>
        <time>2022-06-05T09:32:16Z</time>
      </trkpt>
      <trkpt lat="46.99147" lon="-1.82188">
        <ele>59</ele>
        <time>2022-06-05T09:32:18Z</time>
      </trkpt>
      <trkpt lat="46.99133" lon="-1.82185">
        <ele>59</ele>
        <time>2022-06-05T09:32:20Z</time>
      </trkpt>
      <trkpt lat="46.9912" lon="-1.82186">
        <ele>60</ele>
        <time>2022-06-05T09:32:22Z</time>
      </trkpt>
      <trkpt lat="46.99108" lon="-1.82188">
        <ele>59</ele>
        <time>2022-06-05T09:32:24Z</time>
      </trkpt>
      <trkpt lat="46.99096" lon="-1.82188">
        <ele>59</ele>
        <time>2022-06-05T09:32:26Z</time>
      </trkpt>
      <trkpt lat="46.99089" lon="-1.82175">
        <ele>58</ele>
        <time>2022-06-05T09:32:28Z</time>
      </trkpt>
      <trkpt lat="46.99088" lon="-1.82155">
        <ele>57</ele>
        <time>2022-06-05T09:32:30Z</time>
      </trkpt>
      <trkpt lat="46.99085" lon="-1.82135">
        <ele>56</ele>
        <time>2022-06-05T09:32:32Z</time>
      </trkpt>
      <trkpt lat="46.99083" lon="-1.82113">
        <ele>58</ele>
        <time>2022-06-05T09:32:34Z</time>
      </trkpt>
      <trkpt lat="46.9908" lon="-1.82091">
        <ele>58</ele>
        <time>2022-06-05T09:32:36Z</time>
      </trkpt>
      <trkpt lat="46.9908" lon="-1.8207">
        <ele>58</ele>
        <time>2022-06-05T09:32:38Z</time>
      </trkpt>
      <trkpt lat="46.99081" lon="-1.82048">
        <ele>58</ele>
        <time>2022-06-05T09:32:40Z</time>
      </trkpt>
      <trkpt lat="46.99082" lon="-1.82026">
        <ele>58</ele>
        <time>2022-06-05T09:32:42Z</time>
      </trkpt>
      <trkpt lat="46.99083" lon="-1.82005">
        <ele>58</ele>
        <time>2022-06-05T09:32:44Z</time>
      </trkpt>
      <trkpt lat="46.99084" lon="-1.81984">
        <ele>58</ele>
        <time>2022-06-05T09:32:46Z</time>
      </trkpt>
      <trkpt lat="46.99086" lon="-1.81963">
        <ele>58</ele>
        <time>2022-06-05T09:32:48Z</time>
      </trkpt>
      <trkpt lat="46.99088" lon="-1.81942">
        <ele>59</ele>
        <time>2022-06-05T09:32:50Z</time>
      </trkpt>
      <trkpt lat="46.9909" lon="-1.81921">
        <ele>58</ele>
        <time>2022-06-05T09:32:52Z</time>
      </trkpt>
      <trkpt lat="46.99092" lon="-1.81899">
        <ele>58</ele>
        <time>2022-06-05T09:32:54Z</time>
      </trkpt>
      <trkpt lat="46.99096" lon="-1.81876">
        <ele>58</ele>
        <time>2022-06-05T09:32:56Z</time>
      </trkpt>
      <trkpt lat="46.99101" lon="-1.81854">
        <ele>57</ele>
        <time>2022-06-05T09:32:58Z</time>
      </trkpt>
      <trkpt lat="46.99107" lon="-1.81832">
        <ele>57</ele>
        <time>2022-06-05T09:33:00Z</time>
      </trkpt>
      <trkpt lat="46.99115" lon="-1.81815">
        <ele>57</ele>
        <time>2022-06-05T09:33:02Z</time>
      </trkpt>
      <trkpt lat="46.99126" lon="-1.81799">
        <ele>58</ele>
        <time>2022-06-05T09:33:04Z</time>
      </trkpt>
      <trkpt lat="46.99136" lon="-1.81784">
        <ele>57</ele>
        <time>2022-06-05T09:33:06Z</time>
      </trkpt>
      <trkpt lat="46.99147" lon="-1.8177">
        <ele>58</ele>
        <time>2022-06-05T09:33:08Z</time>
      </trkpt>
      <trkpt lat="46.99158" lon="-1.81756">
        <ele>58</ele>
        <time>2022-06-05T09:33:10Z</time>
      </trkpt>
      <trkpt lat="46.99169" lon="-1.81743">
        <ele>59</ele>
        <time>2022-06-05T09:33:12Z</time>
      </trkpt>
      <trkpt lat="46.9918" lon="-1.8173">
        <ele>59</ele>
        <time>2022-06-05T09:33:14Z</time>
      </trkpt>
      <trkpt lat="46.99188" lon="-1.81716">
        <ele>59</ele>
        <time>2022-06-05T09:33:16Z</time>
      </trkpt>
      <trkpt lat="46.99181" lon="-1.81701">
        <ele>59</ele>
        <time>2022-06-05T09:33:18Z</time>
      </trkpt>
      <trkpt lat="46.99169" lon="-1.81691">
        <ele>58</ele>
        <time>2022-06-05T09:33:20Z</time>
      </trkpt>
      <trkpt lat="46.99159" lon="-1.81678">
        <ele>58</ele>
        <time>2022-06-05T09:33:22Z</time>
      </trkpt>
      <trkpt lat="46.99147" lon="-1.81666">
        <ele>59</ele>
        <time>2022-06-05T09:33:24Z</time>
      </trkpt>
      <trkpt lat="46.99136" lon="-1.81653">
        <ele>59</ele>
        <time>2022-06-05T09:33:26Z</time>
      </trkpt>
      <trkpt lat="46.99125" lon="-1.81641">
        <ele>60</ele>
        <time>2022-06-05T09:33:28Z</time>
      </trkpt>
      <trkpt lat="46.99114" lon="-1.81628">
        <ele>60</ele>
        <time>2022-06-05T09:33:30Z</time>
      </trkpt>
      <trkpt lat="46.99104" lon="-1.81614">
        <ele>58</ele>
        <time>2022-06-05T09:33:32Z</time>
      </trkpt>
      <trkpt lat="46.99102" lon="-1.81598">
        <ele>58</ele>
        <time>2022-06-05T09:33:34Z</time>
      </trkpt>
      <trkpt lat="46.99115" lon="-1.81591">
        <ele>58</ele>
        <time>2022-06-05T09:33:36Z</time>
      </trkpt>
      <trkpt lat="46.99129" lon="-1.81591">
        <ele>58</ele>
        <time>2022-06-05T09:33:38Z</time>
      </trkpt>
      <trkpt lat="46.99143" lon="-1.81591">
        <ele>59</ele>
        <time>2022-06-05T09:33:40Z</time>
      </trkpt>
      <trkpt lat="46.99155" lon="-1.81591">
        <ele>60</ele>
        <time>2022-06-05T09:33:42Z</time>
      </trkpt>
      <trkpt lat="46.99168" lon="-1.81592">
        <ele>62</ele>
        <time>2022-06-05T09:33:44Z</time>
      </trkpt>
      <trkpt lat="46.99182" lon="-1.81593">
        <ele>63</ele>
        <time>2022-06-05T09:33:46Z</time>
      </trkpt>
      <trkpt lat="46.99194" lon="-1.81594">
        <ele>64</ele>
        <time>2022-06-05T09:33:48Z</time>
      </trkpt>
      <trkpt lat="46.99209" lon="-1.81596">
        <ele>64</ele>
        <time>2022-06-05T09:33:50Z</time>
      </trkpt>
      <trkpt lat="46.99224" lon="-1.81599">
        <ele>65</ele>
        <time>2022-06-05T09:33:52Z</time>
      </trkpt>
      <trkpt lat="46.99238" lon="-1.81601">
        <ele>65</ele>
        <time>2022-06-05T09:33:54Z</time>
      </trkpt>
      <trkpt lat="46.99249" lon="-1.81597">
        <ele>65</ele>
        <time>2022-06-05T09:33:56Z</time>
      </trkpt>
      <trkpt lat="46.9925" lon="-1.8158">
        <ele>65</ele>
        <time>2022-06-05T09:33:58Z</time>
      </trkpt>
      <trkpt lat="46.99248" lon="-1.8156">
        <ele>66</ele>
        <time>2022-06-05T09:34:00Z</time>
      </trkpt>
      <trkpt lat="46.99245" lon="-1.81542">
        <ele>66</ele>
        <time>2022-06-05T09:34:02Z</time>
      </trkpt>
      <trkpt lat="46.99242" lon="-1.81524">
        <ele>67</ele>
        <time>2022-06-05T09:34:04Z</time>
      </trkpt>
      <trkpt lat="46.99239" lon="-1.81505">
        <ele>69</ele>
        <time>2022-06-05T09:34:06Z</time>
      </trkpt>
      <trkpt lat="46.99235" lon="-1.81486">
        <ele>70</ele>
        <time>2022-06-05T09:34:08Z</time>
      </trkpt>
      <trkpt lat="46.99232" lon="-1.81465">
        <ele>69</ele>
        <time>2022-06-05T09:34:10Z</time>
      </trkpt>
      <trkpt lat="46.99229" lon="-1.81443">
        <ele>69</ele>
        <time>2022-06-05T09:34:12Z</time>
      </trkpt>
      <trkpt lat="46.99228" lon="-1.8142">
        <ele>70</ele>
        <time>2022-06-05T09:34:14Z</time>
      </trkpt>
      <trkpt lat="46.99225" lon="-1.81398">
        <ele>70</ele>
        <time>2022-06-05T09:34:16Z</time>
      </trkpt>
      <trkpt lat="46.99222" lon="-1.81377">
        <ele>70</ele>
        <time>2022-06-05T09:34:18Z</time>
      </trkpt>
      <trkpt lat="46.99219" lon="-1.81357">
        <ele>70</ele>
        <time>2022-06-05T09:34:20Z</time>
      </trkpt>
      <trkpt lat="46.99216" lon="-1.81335">
        <ele>70</ele>
        <time>2022-06-05T09:34:22Z</time>
      </trkpt>
      <trkpt lat="46.99213" lon="-1.81313">
        <ele>70</ele>
        <time>2022-06-05T09:34:24Z</time>
      </trkpt>
      <trkpt lat="46.9921" lon="-1.81294">
        <ele>69</ele>
        <time>2022-06-05T09:34:26Z</time>
      </trkpt>
      <trkpt lat="46.99207" lon="-1.81273">
        <ele>68</ele>
        <time>2022-06-05T09:34:28Z</time>
      </trkpt>
      <trkpt lat="46.99204" lon="-1.81251">
        <ele>67</ele>
        <time>2022-06-05T09:34:30Z</time>
      </trkpt>
      <trkpt lat="46.99201" lon="-1.8123">
        <ele>68</ele>
        <time>2022-06-05T09:34:32Z</time>
      </trkpt>
      <trkpt lat="46.992" lon="-1.81207">
        <ele>69</ele>
        <time>2022-06-05T09:34:34Z</time>
      </trkpt>
      <trkpt lat="46.99198" lon="-1.81184">
        <ele>69</ele>
        <time>2022-06-05T09:34:36Z</time>
      </trkpt>
      <trkpt lat="46.99195" lon="-1.8116">
        <ele>69</ele>
        <time>2022-06-05T09:34:38Z</time>
      </trkpt>
      <trkpt lat="46.99191" lon="-1.81137">
        <ele>70</ele>
        <time>2022-06-05T09:34:40Z</time>
      </trkpt>
      <trkpt lat="46.99187" lon="-1.81113">
        <ele>69</ele>
        <time>2022-06-05T09:34:42Z</time>
      </trkpt>
      <trkpt lat="46.99185" lon="-1.8109">
        <ele>67</ele>
        <time>2022-06-05T09:34:44Z</time>
      </trkpt>
      <trkpt lat="46.99181" lon="-1.81068">
        <ele>66</ele>
        <time>2022-06-05T09:34:46Z</time>
      </trkpt>
      <trkpt lat="46.99179" lon="-1.81047">
        <ele>65</ele>
        <time>2022-06-05T09:34:48Z</time>
      </trkpt>
      <trkpt lat="46.99176" lon="-1.81025">
        <ele>64</ele>
        <time>2022-06-05T09:34:50Z</time>
      </trkpt>
      <trkpt lat="46.99173" lon="-1.81003">
        <ele>63</ele>
        <time>2022-06-05T09:34:52Z</time>
      </trkpt>
      <trkpt lat="46.9917" lon="-1.80982">
        <ele>62</ele>
        <time>2022-06-05T09:34:54Z</time>
      </trkpt>
      <trkpt lat="46.99167" lon="-1.80961">
        <ele>61</ele>
        <time>2022-06-05T09:34:56Z</time>
      </trkpt>
      <trkpt lat="46.99164" lon="-1.80941">
        <ele>61</ele>
        <time>2022-06-05T09:34:58Z</time>
      </trkpt>
      <trkpt lat="46.99164" lon="-1.8092">
        <ele>60</ele>
        <time>2022-06-05T09:35:00Z</time>
      </trkpt>
      <trkpt lat="46.99168" lon="-1.809">
        <ele>60</ele>
        <time>2022-06-05T09:35:02Z</time>
      </trkpt>
      <trkpt lat="46.99181" lon="-1.80887">
        <ele>60</ele>
        <time>2022-06-05T09:35:04Z</time>
      </trkpt>
      <trkpt lat="46.99196" lon="-1.80877">
        <ele>59</ele>
        <time>2022-06-05T09:35:06Z</time>
      </trkpt>
      <trkpt lat="46.9921" lon="-1.80867">
        <ele>60</ele>
        <time>2022-06-05T09:35:08Z</time>
      </trkpt>
      <trkpt lat="46.9923" lon="-1.80854">
        <ele>59</ele>
        <time>2022-06-05T09:35:11Z</time>
      </trkpt>
      <trkpt lat="46.99243" lon="-1.80845">
        <ele>59</ele>
        <time>2022-06-05T09:35:13Z</time>
      </trkpt>
      <trkpt lat="46.99257" lon="-1.80836">
        <ele>59</ele>
        <time>2022-06-05T09:35:15Z</time>
      </trkpt>
      <trkpt lat="46.9927" lon="-1.80827">
        <ele>58</ele>
        <time>2022-06-05T09:35:17Z</time>
      </trkpt>
      <trkpt lat="46.99284" lon="-1.80817">
        <ele>58</ele>
        <time>2022-06-05T09:35:19Z</time>
      </trkpt>
      <trkpt lat="46.99297" lon="-1.80809">
        <ele>58</ele>
        <time>2022-06-05T09:35:21Z</time>
      </trkpt>
      <trkpt lat="46.9931" lon="-1.80801">
        <ele>59</ele>
        <time>2022-06-05T09:35:23Z</time>
      </trkpt>
      <trkpt lat="46.99323" lon="-1.80792">
        <ele>58</ele>
        <time>2022-06-05T09:35:25Z</time>
      </trkpt>
      <trkpt lat="46.99336" lon="-1.80784">
        <ele>58</ele>
        <time>2022-06-05T09:35:27Z</time>
      </trkpt>
      <trkpt lat="46.99349" lon="-1.80776">
        <ele>59</ele>
        <time>2022-06-05T09:35:29Z</time>
      </trkpt>
      <trkpt lat="46.99362" lon="-1.80768">
        <ele>59</ele>
        <time>2022-06-05T09:35:31Z</time>
      </trkpt>
      <trkpt lat="46.99374" lon="-1.8076">
        <ele>59</ele>
        <time>2022-06-05T09:35:33Z</time>
      </trkpt>
      <trkpt lat="46.99387" lon="-1.80751">
        <ele>58</ele>
        <time>2022-06-05T09:35:35Z</time>
      </trkpt>
      <trkpt lat="46.994" lon="-1.80744">
        <ele>58</ele>
        <time>2022-06-05T09:35:37Z</time>
      </trkpt>
      <trkpt lat="46.99419" lon="-1.80732">
        <ele>58</ele>
        <time>2022-06-05T09:35:40Z</time>
      </trkpt>
      <trkpt lat="46.99438" lon="-1.80719">
        <ele>57</ele>
        <time>2022-06-05T09:35:43Z</time>
      </trkpt>
      <trkpt lat="46.99455" lon="-1.80708">
        <ele>58</ele>
        <time>2022-06-05T09:35:46Z</time>
      </trkpt>
      <trkpt lat="46.9947" lon="-1.80696">
        <ele>58</ele>
        <time>2022-06-05T09:35:49Z</time>
      </trkpt>
      <trkpt lat="46.99479" lon="-1.80674">
        <ele>58</ele>
        <time>2022-06-05T09:35:52Z</time>
      </trkpt>
      <trkpt lat="46.99488" lon="-1.80663">
        <ele>57</ele>
        <time>2022-06-05T09:35:54Z</time>
      </trkpt>
      <trkpt lat="46.995" lon="-1.80657">
        <ele>57</ele>
        <time>2022-06-05T09:35:56Z</time>
      </trkpt>
      <trkpt lat="46.99513" lon="-1.8065">
        <ele>56</ele>
        <time>2022-06-05T09:35:58Z</time>
      </trkpt>
      <trkpt lat="46.99524" lon="-1.80639">
        <ele>56</ele>
        <time>2022-06-05T09:36:00Z</time>
      </trkpt>
      <trkpt lat="46.99535" lon="-1.80628">
        <ele>56</ele>
        <time>2022-06-05T09:36:02Z</time>
      </trkpt>
      <trkpt lat="46.99545" lon="-1.80615">
        <ele>56</ele>
        <time>2022-06-05T09:36:04Z</time>
      </trkpt>
      <trkpt lat="46.99555" lon="-1.80602">
        <ele>56</ele>
        <time>2022-06-05T09:36:06Z</time>
      </trkpt>
      <trkpt lat="46.99565" lon="-1.8059">
        <ele>56</ele>
        <time>2022-06-05T09:36:08Z</time>
      </trkpt>
      <trkpt lat="46.99576" lon="-1.80578">
        <ele>55</ele>
        <time>2022-06-05T09:36:10Z</time>
      </trkpt>
      <trkpt lat="46.99586" lon="-1.80565">
        <ele>55</ele>
        <time>2022-06-05T09:36:12Z</time>
      </trkpt>
      <trkpt lat="46.99596" lon="-1.80551">
        <ele>54</ele>
        <time>2022-06-05T09:36:14Z</time>
      </trkpt>
      <trkpt lat="46.99606" lon="-1.80538">
        <ele>55</ele>
        <time>2022-06-05T09:36:16Z</time>
      </trkpt>
      <trkpt lat="46.99616" lon="-1.80525">
        <ele>55</ele>
        <time>2022-06-05T09:36:18Z</time>
      </trkpt>
      <trkpt lat="46.99626" lon="-1.80512">
        <ele>55</ele>
        <time>2022-06-05T09:36:20Z</time>
      </trkpt>
      <trkpt lat="46.99636" lon="-1.80498">
        <ele>55</ele>
        <time>2022-06-05T09:36:22Z</time>
      </trkpt>
      <trkpt lat="46.99647" lon="-1.80485">
        <ele>55</ele>
        <time>2022-06-05T09:36:24Z</time>
      </trkpt>
      <trkpt lat="46.99657" lon="-1.80472">
        <ele>55</ele>
        <time>2022-06-05T09:36:26Z</time>
      </trkpt>
      <trkpt lat="46.99667" lon="-1.8046">
        <ele>55</ele>
        <time>2022-06-05T09:36:28Z</time>
      </trkpt>
      <trkpt lat="46.99677" lon="-1.80447">
        <ele>55</ele>
        <time>2022-06-05T09:36:30Z</time>
      </trkpt>
      <trkpt lat="46.99686" lon="-1.80434">
        <ele>55</ele>
        <time>2022-06-05T09:36:32Z</time>
      </trkpt>
      <trkpt lat="46.99696" lon="-1.80421">
        <ele>55</ele>
        <time>2022-06-05T09:36:34Z</time>
      </trkpt>
      <trkpt lat="46.99707" lon="-1.80408">
        <ele>55</ele>
        <time>2022-06-05T09:36:36Z</time>
      </trkpt>
      <trkpt lat="46.99716" lon="-1.80395">
        <ele>55</ele>
        <time>2022-06-05T09:36:38Z</time>
      </trkpt>
      <trkpt lat="46.99726" lon="-1.80382">
        <ele>55</ele>
        <time>2022-06-05T09:36:40Z</time>
      </trkpt>
      <trkpt lat="46.99736" lon="-1.80369">
        <ele>55</ele>
        <time>2022-06-05T09:36:42Z</time>
      </trkpt>
      <trkpt lat="46.99746" lon="-1.80357">
        <ele>55</ele>
        <time>2022-06-05T09:36:44Z</time>
      </trkpt>
      <trkpt lat="46.99756" lon="-1.80343">
        <ele>55</ele>
        <time>2022-06-05T09:36:46Z</time>
      </trkpt>
      <trkpt lat="46.99766" lon="-1.8033">
        <ele>55</ele>
        <time>2022-06-05T09:36:48Z</time>
      </trkpt>
      <trkpt lat="46.99777" lon="-1.80317">
        <ele>55</ele>
        <time>2022-06-05T09:36:50Z</time>
      </trkpt>
      <trkpt lat="46.99787" lon="-1.80304">
        <ele>55</ele>
        <time>2022-06-05T09:36:52Z</time>
      </trkpt>
      <trkpt lat="46.99797" lon="-1.80291">
        <ele>55</ele>
        <time>2022-06-05T09:36:54Z</time>
      </trkpt>
      <trkpt lat="46.99807" lon="-1.80277">
        <ele>55</ele>
        <time>2022-06-05T09:36:56Z</time>
      </trkpt>
      <trkpt lat="46.99817" lon="-1.80264">
        <ele>55</ele>
        <time>2022-06-05T09:36:58Z</time>
      </trkpt>
      <trkpt lat="46.99827" lon="-1.80251">
        <ele>55</ele>
        <time>2022-06-05T09:37:00Z</time>
      </trkpt>
      <trkpt lat="46.99836" lon="-1.80237">
        <ele>55</ele>
        <time>2022-06-05T09:37:02Z</time>
      </trkpt>
      <trkpt lat="46.99845" lon="-1.80222">
        <ele>55</ele>
        <time>2022-06-05T09:37:04Z</time>
      </trkpt>
      <trkpt lat="46.99854" lon="-1.80207">
        <ele>56</ele>
        <time>2022-06-05T09:37:06Z</time>
      </trkpt>
      <trkpt lat="46.99862" lon="-1.80192">
        <ele>56</ele>
        <time>2022-06-05T09:37:08Z</time>
      </trkpt>
      <trkpt lat="46.9987" lon="-1.80176">
        <ele>56</ele>
        <time>2022-06-05T09:37:10Z</time>
      </trkpt>
      <trkpt lat="46.99878" lon="-1.8016">
        <ele>56</ele>
        <time>2022-06-05T09:37:12Z</time>
      </trkpt>
      <trkpt lat="46.99885" lon="-1.80143">
        <ele>56</ele>
        <time>2022-06-05T09:37:14Z</time>
      </trkpt>
      <trkpt lat="46.99893" lon="-1.80128">
        <ele>56</ele>
        <time>2022-06-05T09:37:16Z</time>
      </trkpt>
      <trkpt lat="46.99901" lon="-1.80111">
        <ele>56</ele>
        <time>2022-06-05T09:37:18Z</time>
      </trkpt>
      <trkpt lat="46.99908" lon="-1.80095">
        <ele>56</ele>
        <time>2022-06-05T09:37:20Z</time>
      </trkpt>
      <trkpt lat="46.99916" lon="-1.80078">
        <ele>56</ele>
        <time>2022-06-05T09:37:22Z</time>
      </trkpt>
      <trkpt lat="46.99924" lon="-1.80062">
        <ele>56</ele>
        <time>2022-06-05T09:37:24Z</time>
      </trkpt>
      <trkpt lat="46.99932" lon="-1.80046">
        <ele>56</ele>
        <time>2022-06-05T09:37:26Z</time>
      </trkpt>
      <trkpt lat="46.9994" lon="-1.8003">
        <ele>56</ele>
        <time>2022-06-05T09:37:28Z</time>
      </trkpt>
      <trkpt lat="46.99949" lon="-1.80015">
        <ele>56</ele>
        <time>2022-06-05T09:37:30Z</time>
      </trkpt>
      <trkpt lat="46.99959" lon="-1.80002">
        <ele>57</ele>
        <time>2022-06-05T09:37:32Z</time>
      </trkpt>
      <trkpt lat="46.9997" lon="-1.7999">
        <ele>57</ele>
        <time>2022-06-05T09:37:34Z</time>
      </trkpt>
      <trkpt lat="46.99981" lon="-1.7998">
        <ele>58</ele>
        <time>2022-06-05T09:37:36Z</time>
      </trkpt>
      <trkpt lat="46.99993" lon="-1.79972">
        <ele>58</ele>
        <time>2022-06-05T09:37:38Z</time>
      </trkpt>
      <trkpt lat="47.00005" lon="-1.79963">
        <ele>58</ele>
        <time>2022-06-05T09:37:40Z</time>
      </trkpt>
      <trkpt lat="47.00017" lon="-1.79955">
        <ele>58</ele>
        <time>2022-06-05T09:37:42Z</time>
      </trkpt>
      <trkpt lat="47.00028" lon="-1.79946">
        <ele>58</ele>
        <time>2022-06-05T09:37:44Z</time>
      </trkpt>
      <trkpt lat="47.0004" lon="-1.79938">
        <ele>58</ele>
        <time>2022-06-05T09:37:46Z</time>
      </trkpt>
      <trkpt lat="47.00052" lon="-1.79929">
        <ele>57</ele>
        <time>2022-06-05T09:37:48Z</time>
      </trkpt>
      <trkpt lat="47.00064" lon="-1.79919">
        <ele>57</ele>
        <time>2022-06-05T09:37:50Z</time>
      </trkpt>
      <trkpt lat="47.00076" lon="-1.79909">
        <ele>57</ele>
        <time>2022-06-05T09:37:52Z</time>
      </trkpt>
      <trkpt lat="47.00088" lon="-1.79899">
        <ele>58</ele>
        <time>2022-06-05T09:37:54Z</time>
      </trkpt>
      <trkpt lat="47.00099" lon="-1.79888">
        <ele>57</ele>
        <time>2022-06-05T09:37:56Z</time>
      </trkpt>
      <trkpt lat="47.0011" lon="-1.79877">
        <ele>57</ele>
        <time>2022-06-05T09:37:58Z</time>
      </trkpt>
      <trkpt lat="47.00119" lon="-1.79863">
        <ele>57</ele>
        <time>2022-06-05T09:38:00Z</time>
      </trkpt>
      <trkpt lat="47.00128" lon="-1.79847">
        <ele>57</ele>
        <time>2022-06-05T09:38:02Z</time>
      </trkpt>
      <trkpt lat="47.00136" lon="-1.79831">
        <ele>57</ele>
        <time>2022-06-05T09:38:04Z</time>
      </trkpt>
      <trkpt lat="47.00142" lon="-1.79814">
        <ele>57</ele>
        <time>2022-06-05T09:38:06Z</time>
      </trkpt>
      <trkpt lat="47.00148" lon="-1.79796">
        <ele>56</ele>
        <time>2022-06-05T09:38:08Z</time>
      </trkpt>
      <trkpt lat="47.00154" lon="-1.79778">
        <ele>56</ele>
        <time>2022-06-05T09:38:10Z</time>
      </trkpt>
      <trkpt lat="47.0016" lon="-1.7976">
        <ele>56</ele>
        <time>2022-06-05T09:38:12Z</time>
      </trkpt>
      <trkpt lat="47.00165" lon="-1.79742">
        <ele>57</ele>
        <time>2022-06-05T09:38:14Z</time>
      </trkpt>
      <trkpt lat="47.0017" lon="-1.79724">
        <ele>57</ele>
        <time>2022-06-05T09:38:16Z</time>
      </trkpt>
      <trkpt lat="47.00175" lon="-1.79705">
        <ele>57</ele>
        <time>2022-06-05T09:38:18Z</time>
      </trkpt>
      <trkpt lat="47.00181" lon="-1.79688">
        <ele>57</ele>
        <time>2022-06-05T09:38:20Z</time>
      </trkpt>
      <trkpt lat="47.00186" lon="-1.7967">
        <ele>57</ele>
        <time>2022-06-05T09:38:22Z</time>
      </trkpt>
      <trkpt lat="47.00191" lon="-1.79651">
        <ele>58</ele>
        <time>2022-06-05T09:38:24Z</time>
      </trkpt>
      <trkpt lat="47.00197" lon="-1.79633">
        <ele>58</ele>
        <time>2022-06-05T09:38:26Z</time>
      </trkpt>
      <trkpt lat="47.00202" lon="-1.79615">
        <ele>58</ele>
        <time>2022-06-05T09:38:28Z</time>
      </trkpt>
      <trkpt lat="47.00208" lon="-1.79598">
        <ele>58</ele>
        <time>2022-06-05T09:38:30Z</time>
      </trkpt>
      <trkpt lat="47.00213" lon="-1.79581">
        <ele>58</ele>
        <time>2022-06-05T09:38:32Z</time>
      </trkpt>
      <trkpt lat="47.00218" lon="-1.79563">
        <ele>58</ele>
        <time>2022-06-05T09:38:34Z</time>
      </trkpt>
      <trkpt lat="47.00223" lon="-1.79544">
        <ele>58</ele>
        <time>2022-06-05T09:38:36Z</time>
      </trkpt>
      <trkpt lat="47.00229" lon="-1.79525">
        <ele>57</ele>
        <time>2022-06-05T09:38:38Z</time>
      </trkpt>
      <trkpt lat="47.00234" lon="-1.79507">
        <ele>58</ele>
        <time>2022-06-05T09:38:40Z</time>
      </trkpt>
      <trkpt lat="47.0024" lon="-1.79489">
        <ele>58</ele>
        <time>2022-06-05T09:38:42Z</time>
      </trkpt>
      <trkpt lat="47.00246" lon="-1.7947">
        <ele>58</ele>
        <time>2022-06-05T09:38:44Z</time>
      </trkpt>
      <trkpt lat="47.00252" lon="-1.79451">
        <ele>58</ele>
        <time>2022-06-05T09:38:46Z</time>
      </trkpt>
      <trkpt lat="47.00257" lon="-1.79432">
        <ele>58</ele>
        <time>2022-06-05T09:38:48Z</time>
      </trkpt>
      <trkpt lat="47.00263" lon="-1.79413">
        <ele>57</ele>
        <time>2022-06-05T09:38:50Z</time>
      </trkpt>
      <trkpt lat="47.00268" lon="-1.79393">
        <ele>57</ele>
        <time>2022-06-05T09:38:52Z</time>
      </trkpt>
      <trkpt lat="47.00274" lon="-1.79374">
        <ele>57</ele>
        <time>2022-06-05T09:38:54Z</time>
      </trkpt>
      <trkpt lat="47.00279" lon="-1.79354">
        <ele>57</ele>
        <time>2022-06-05T09:38:56Z</time>
      </trkpt>
      <trkpt lat="47.00283" lon="-1.79334">
        <ele>57</ele>
        <time>2022-06-05T09:38:58Z</time>
      </trkpt>
      <trkpt lat="47.00287" lon="-1.79313">
        <ele>56</ele>
        <time>2022-06-05T09:39:00Z</time>
      </trkpt>
      <trkpt lat="47.0029" lon="-1.79292">
        <ele>56</ele>
        <time>2022-06-05T09:39:02Z</time>
      </trkpt>
      <trkpt lat="47.00293" lon="-1.79272">
        <ele>57</ele>
        <time>2022-06-05T09:39:04Z</time>
      </trkpt>
      <trkpt lat="47.00297" lon="-1.79251">
        <ele>57</ele>
        <time>2022-06-05T09:39:06Z</time>
      </trkpt>
      <trkpt lat="47.003" lon="-1.79232">
        <ele>57</ele>
        <time>2022-06-05T09:39:08Z</time>
      </trkpt>
      <trkpt lat="47.00303" lon="-1.79213">
        <ele>57</ele>
        <time>2022-06-05T09:39:10Z</time>
      </trkpt>
      <trkpt lat="47.00306" lon="-1.79194">
        <ele>58</ele>
        <time>2022-06-05T09:39:12Z</time>
      </trkpt>
      <trkpt lat="47.0031" lon="-1.79174">
        <ele>58</ele>
        <time>2022-06-05T09:39:14Z</time>
      </trkpt>
      <trkpt lat="47.00314" lon="-1.79154">
        <ele>58</ele>
        <time>2022-06-05T09:39:16Z</time>
      </trkpt>
      <trkpt lat="47.00319" lon="-1.79134">
        <ele>58</ele>
        <time>2022-06-05T09:39:18Z</time>
      </trkpt>
      <trkpt lat="47.00324" lon="-1.79115">
        <ele>58</ele>
        <time>2022-06-05T09:39:20Z</time>
      </trkpt>
      <trkpt lat="47.00329" lon="-1.79095">
        <ele>58</ele>
        <time>2022-06-05T09:39:22Z</time>
      </trkpt>
      <trkpt lat="47.00335" lon="-1.79076">
        <ele>58</ele>
        <time>2022-06-05T09:39:24Z</time>
      </trkpt>
      <trkpt lat="47.0034" lon="-1.79057">
        <ele>58</ele>
        <time>2022-06-05T09:39:26Z</time>
      </trkpt>
      <trkpt lat="47.00346" lon="-1.79037">
        <ele>58</ele>
        <time>2022-06-05T09:39:28Z</time>
      </trkpt>
      <trkpt lat="47.00351" lon="-1.79017">
        <ele>58</ele>
        <time>2022-06-05T09:39:30Z</time>
      </trkpt>
      <trkpt lat="47.00356" lon="-1.78996">
        <ele>59</ele>
        <time>2022-06-05T09:39:32Z</time>
      </trkpt>
      <trkpt lat="47.0036" lon="-1.78975">
        <ele>58</ele>
        <time>2022-06-05T09:39:34Z</time>
      </trkpt>
      <trkpt lat="47.00365" lon="-1.78955">
        <ele>58</ele>
        <time>2022-06-05T09:39:36Z</time>
      </trkpt>
      <trkpt lat="47.00369" lon="-1.78934">
        <ele>59</ele>
        <time>2022-06-05T09:39:38Z</time>
      </trkpt>
      <trkpt lat="47.00374" lon="-1.78914">
        <ele>59</ele>
        <time>2022-06-05T09:39:40Z</time>
      </trkpt>
      <trkpt lat="47.00378" lon="-1.78894">
        <ele>59</ele>
        <time>2022-06-05T09:39:42Z</time>
      </trkpt>
      <trkpt lat="47.00383" lon="-1.78874">
        <ele>59</ele>
        <time>2022-06-05T09:39:44Z</time>
      </trkpt>
      <trkpt lat="47.00387" lon="-1.78853">
        <ele>59</ele>
        <time>2022-06-05T09:39:46Z</time>
      </trkpt>
      <trkpt lat="47.00391" lon="-1.78833">
        <ele>59</ele>
        <time>2022-06-05T09:39:48Z</time>
      </trkpt>
      <trkpt lat="47.00395" lon="-1.78813">
        <ele>59</ele>
        <time>2022-06-05T09:39:50Z</time>
      </trkpt>
      <trkpt lat="47.00399" lon="-1.78791">
        <ele>59</ele>
        <time>2022-06-05T09:39:52Z</time>
      </trkpt>
      <trkpt lat="47.00402" lon="-1.7877">
        <ele>59</ele>
        <time>2022-06-05T09:39:54Z</time>
      </trkpt>
      <trkpt lat="47.00405" lon="-1.78749">
        <ele>59</ele>
        <time>2022-06-05T09:39:56Z</time>
      </trkpt>
      <trkpt lat="47.00408" lon="-1.78727">
        <ele>59</ele>
        <time>2022-06-05T09:39:58Z</time>
      </trkpt>
      <trkpt lat="47.00411" lon="-1.78706">
        <ele>58</ele>
        <time>2022-06-05T09:40:00Z</time>
      </trkpt>
      <trkpt lat="47.00414" lon="-1.78685">
        <ele>58</ele>
        <time>2022-06-05T09:40:02Z</time>
      </trkpt>
      <trkpt lat="47.00417" lon="-1.78663">
        <ele>58</ele>
        <time>2022-06-05T09:40:04Z</time>
      </trkpt>
      <trkpt lat="47.0042" lon="-1.78642">
        <ele>58</ele>
        <time>2022-06-05T09:40:06Z</time>
      </trkpt>
      <trkpt lat="47.00422" lon="-1.78621">
        <ele>58</ele>
        <time>2022-06-05T09:40:08Z</time>
      </trkpt>
      <trkpt lat="47.00425" lon="-1.786">
        <ele>58</ele>
        <time>2022-06-05T09:40:10Z</time>
      </trkpt>
      <trkpt lat="47.00428" lon="-1.78579">
        <ele>58</ele>
        <time>2022-06-05T09:40:12Z</time>
      </trkpt>
      <trkpt lat="47.00431" lon="-1.78558">
        <ele>58</ele>
        <time>2022-06-05T09:40:14Z</time>
      </trkpt>
      <trkpt lat="47.00434" lon="-1.78536">
        <ele>58</ele>
        <time>2022-06-05T09:40:16Z</time>
      </trkpt>
      <trkpt lat="47.00437" lon="-1.78514">
        <ele>58</ele>
        <time>2022-06-05T09:40:18Z</time>
      </trkpt>
      <trkpt lat="47.0044" lon="-1.78492">
        <ele>58</ele>
        <time>2022-06-05T09:40:20Z</time>
      </trkpt>
      <trkpt lat="47.00444" lon="-1.7847">
        <ele>58</ele>
        <time>2022-06-05T09:40:22Z</time>
      </trkpt>
      <trkpt lat="47.00449" lon="-1.78448">
        <ele>58</ele>
        <time>2022-06-05T09:40:24Z</time>
      </trkpt>
      <trkpt lat="47.00454" lon="-1.78426">
        <ele>57</ele>
        <time>2022-06-05T09:40:26Z</time>
      </trkpt>
      <trkpt lat="47.00459" lon="-1.78403">
        <ele>57</ele>
        <time>2022-06-05T09:40:28Z</time>
      </trkpt>
      <trkpt lat="47.00464" lon="-1.78381">
        <ele>57</ele>
        <time>2022-06-05T09:40:30Z</time>
      </trkpt>
      <trkpt lat="47.00469" lon="-1.78359">
        <ele>57</ele>
        <time>2022-06-05T09:40:32Z</time>
      </trkpt>
      <trkpt lat="47.00475" lon="-1.78338">
        <ele>57</ele>
        <time>2022-06-05T09:40:34Z</time>
      </trkpt>
      <trkpt lat="47.0048" lon="-1.78316">
        <ele>57</ele>
        <time>2022-06-05T09:40:36Z</time>
      </trkpt>
      <trkpt lat="47.00485" lon="-1.78295">
        <ele>57</ele>
        <time>2022-06-05T09:40:38Z</time>
      </trkpt>
      <trkpt lat="47.0049" lon="-1.78275">
        <ele>57</ele>
        <time>2022-06-05T09:40:40Z</time>
      </trkpt>
      <trkpt lat="47.00496" lon="-1.78255">
        <ele>58</ele>
        <time>2022-06-05T09:40:42Z</time>
      </trkpt>
      <trkpt lat="47.00501" lon="-1.78234">
        <ele>58</ele>
        <time>2022-06-05T09:40:44Z</time>
      </trkpt>
      <trkpt lat="47.00506" lon="-1.78215">
        <ele>59</ele>
        <time>2022-06-05T09:40:46Z</time>
      </trkpt>
      <trkpt lat="47.00509" lon="-1.78197">
        <ele>60</ele>
        <time>2022-06-05T09:40:48Z</time>
      </trkpt>
      <trkpt lat="47.00514" lon="-1.78178">
        <ele>61</ele>
        <time>2022-06-05T09:40:50Z</time>
      </trkpt>
      <trkpt lat="47.00519" lon="-1.78156">
        <ele>61</ele>
        <time>2022-06-05T09:40:52Z</time>
      </trkpt>
      <trkpt lat="47.00524" lon="-1.78134">
        <ele>61</ele>
        <time>2022-06-05T09:40:54Z</time>
      </trkpt>
      <trkpt lat="47.0053" lon="-1.78112">
        <ele>61</ele>
        <time>2022-06-05T09:40:56Z</time>
      </trkpt>
      <trkpt lat="47.00535" lon="-1.78089">
        <ele>60</ele>
        <time>2022-06-05T09:40:58Z</time>
      </trkpt>
      <trkpt lat="47.0054" lon="-1.78067">
        <ele>60</ele>
        <time>2022-06-05T09:41:00Z</time>
      </trkpt>
      <trkpt lat="47.00546" lon="-1.78045">
        <ele>60</ele>
        <time>2022-06-05T09:41:02Z</time>
      </trkpt>
      <trkpt lat="47.00551" lon="-1.78023">
        <ele>59</ele>
        <time>2022-06-05T09:41:04Z</time>
      </trkpt>
      <trkpt lat="47.00556" lon="-1.78001">
        <ele>58</ele>
        <time>2022-06-05T09:41:06Z</time>
      </trkpt>
      <trkpt lat="47.00562" lon="-1.77981">
        <ele>58</ele>
        <time>2022-06-05T09:41:08Z</time>
      </trkpt>
      <trkpt lat="47.00567" lon="-1.7796">
        <ele>58</ele>
        <time>2022-06-05T09:41:10Z</time>
      </trkpt>
      <trkpt lat="47.00572" lon="-1.7794">
        <ele>58</ele>
        <time>2022-06-05T09:41:12Z</time>
      </trkpt>
      <trkpt lat="47.00577" lon="-1.77919">
        <ele>58</ele>
        <time>2022-06-05T09:41:14Z</time>
      </trkpt>
      <trkpt lat="47.00582" lon="-1.77899">
        <ele>58</ele>
        <time>2022-06-05T09:41:16Z</time>
      </trkpt>
      <trkpt lat="47.00587" lon="-1.77879">
        <ele>58</ele>
        <time>2022-06-05T09:41:18Z</time>
      </trkpt>
      <trkpt lat="47.00591" lon="-1.7786">
        <ele>58</ele>
        <time>2022-06-05T09:41:20Z</time>
      </trkpt>
      <trkpt lat="47.00596" lon="-1.77839">
        <ele>59</ele>
        <time>2022-06-05T09:41:22Z</time>
      </trkpt>
      <trkpt lat="47.00602" lon="-1.77817">
        <ele>59</ele>
        <time>2022-06-05T09:41:24Z</time>
      </trkpt>
      <trkpt lat="47.00607" lon="-1.77796">
        <ele>58</ele>
        <time>2022-06-05T09:41:26Z</time>
      </trkpt>
      <trkpt lat="47.00612" lon="-1.77776">
        <ele>58</ele>
        <time>2022-06-05T09:41:28Z</time>
      </trkpt>
      <trkpt lat="47.00617" lon="-1.77755">
        <ele>59</ele>
        <time>2022-06-05T09:41:30Z</time>
      </trkpt>
      <trkpt lat="47.00623" lon="-1.77735">
        <ele>59</ele>
        <time>2022-06-05T09:41:32Z</time>
      </trkpt>
      <trkpt lat="47.00627" lon="-1.77716">
        <ele>59</ele>
        <time>2022-06-05T09:41:34Z</time>
      </trkpt>
      <trkpt lat="47.00632" lon="-1.77696">
        <ele>59</ele>
        <time>2022-06-05T09:41:36Z</time>
      </trkpt>
      <trkpt lat="47.00637" lon="-1.77676">
        <ele>60</ele>
        <time>2022-06-05T09:41:38Z</time>
      </trkpt>
      <trkpt lat="47.00642" lon="-1.77655">
        <ele>60</ele>
        <time>2022-06-05T09:41:40Z</time>
      </trkpt>
      <trkpt lat="47.00647" lon="-1.77635">
        <ele>59</ele>
        <time>2022-06-05T09:41:42Z</time>
      </trkpt>
      <trkpt lat="47.00652" lon="-1.77615">
        <ele>60</ele>
        <time>2022-06-05T09:41:44Z</time>
      </trkpt>
      <trkpt lat="47.00657" lon="-1.77595">
        <ele>60</ele>
        <time>2022-06-05T09:41:46Z</time>
      </trkpt>
      <trkpt lat="47.00662" lon="-1.77574">
        <ele>61</ele>
        <time>2022-06-05T09:41:48Z</time>
      </trkpt>
      <trkpt lat="47.00667" lon="-1.77554">
        <ele>61</ele>
        <time>2022-06-05T09:41:50Z</time>
      </trkpt>
      <trkpt lat="47.00672" lon="-1.77533">
        <ele>61</ele>
        <time>2022-06-05T09:41:52Z</time>
      </trkpt>
      <trkpt lat="47.00678" lon="-1.77513">
        <ele>62</ele>
        <time>2022-06-05T09:41:54Z</time>
      </trkpt>
      <trkpt lat="47.00685" lon="-1.77493">
        <ele>62</ele>
        <time>2022-06-05T09:41:56Z</time>
      </trkpt>
      <trkpt lat="47.00692" lon="-1.77473">
        <ele>62</ele>
        <time>2022-06-05T09:41:58Z</time>
      </trkpt>
      <trkpt lat="47.00699" lon="-1.77454">
        <ele>62</ele>
        <time>2022-06-05T09:42:00Z</time>
      </trkpt>
      <trkpt lat="47.00706" lon="-1.77436">
        <ele>63</ele>
        <time>2022-06-05T09:42:02Z</time>
      </trkpt>
      <trkpt lat="47.00712" lon="-1.77419">
        <ele>63</ele>
        <time>2022-06-05T09:42:04Z</time>
      </trkpt>
      <trkpt lat="47.00718" lon="-1.77403">
        <ele>64</ele>
        <time>2022-06-05T09:42:06Z</time>
      </trkpt>
      <trkpt lat="47.00724" lon="-1.77388">
        <ele>64</ele>
        <time>2022-06-05T09:42:08Z</time>
      </trkpt>
      <trkpt lat="47.00731" lon="-1.77372">
        <ele>64</ele>
        <time>2022-06-05T09:42:10Z</time>
      </trkpt>
      <trkpt lat="47.00739" lon="-1.77357">
        <ele>65</ele>
        <time>2022-06-05T09:42:12Z</time>
      </trkpt>
      <trkpt lat="47.00749" lon="-1.77343">
        <ele>66</ele>
        <time>2022-06-05T09:42:14Z</time>
      </trkpt>
      <trkpt lat="47.00759" lon="-1.77331">
        <ele>66</ele>
        <time>2022-06-05T09:42:16Z</time>
      </trkpt>
      <trkpt lat="47.00769" lon="-1.77319">
        <ele>67</ele>
        <time>2022-06-05T09:42:18Z</time>
      </trkpt>
      <trkpt lat="47.0078" lon="-1.77309">
        <ele>68</ele>
        <time>2022-06-05T09:42:20Z</time>
      </trkpt>
      <trkpt lat="47.00792" lon="-1.77301">
        <ele>68</ele>
        <time>2022-06-05T09:42:22Z</time>
      </trkpt>
      <trkpt lat="47.00804" lon="-1.77294">
        <ele>69</ele>
        <time>2022-06-05T09:42:24Z</time>
      </trkpt>
      <trkpt lat="47.00816" lon="-1.77287">
        <ele>69</ele>
        <time>2022-06-05T09:42:26Z</time>
      </trkpt>
      <trkpt lat="47.00829" lon="-1.77281">
        <ele>69</ele>
        <time>2022-06-05T09:42:28Z</time>
      </trkpt>
      <trkpt lat="47.00841" lon="-1.77273">
        <ele>68</ele>
        <time>2022-06-05T09:42:30Z</time>
      </trkpt>
      <trkpt lat="47.00853" lon="-1.77266">
        <ele>69</ele>
        <time>2022-06-05T09:42:32Z</time>
      </trkpt>
      <trkpt lat="47.00864" lon="-1.77257">
        <ele>69</ele>
        <time>2022-06-05T09:42:34Z</time>
      </trkpt>
      <trkpt lat="47.00875" lon="-1.77247">
        <ele>68</ele>
        <time>2022-06-05T09:42:36Z</time>
      </trkpt>
      <trkpt lat="47.00886" lon="-1.77237">
        <ele>68</ele>
        <time>2022-06-05T09:42:38Z</time>
      </trkpt>
      <trkpt lat="47.00897" lon="-1.77227">
        <ele>68</ele>
        <time>2022-06-05T09:42:40Z</time>
      </trkpt>
      <trkpt lat="47.00908" lon="-1.77216">
        <ele>67</ele>
        <time>2022-06-05T09:42:42Z</time>
      </trkpt>
      <trkpt lat="47.00918" lon="-1.77205">
        <ele>66</ele>
        <time>2022-06-05T09:42:44Z</time>
      </trkpt>
      <trkpt lat="47.00928" lon="-1.77194">
        <ele>66</ele>
        <time>2022-06-05T09:42:46Z</time>
      </trkpt>
      <trkpt lat="47.00938" lon="-1.77185">
        <ele>65</ele>
        <time>2022-06-05T09:42:48Z</time>
      </trkpt>
      <trkpt lat="47.00947" lon="-1.77175">
        <ele>65</ele>
        <time>2022-06-05T09:42:50Z</time>
      </trkpt>
      <trkpt lat="47.00955" lon="-1.77166">
        <ele>65</ele>
        <time>2022-06-05T09:42:52Z</time>
      </trkpt>
      <trkpt lat="47.00963" lon="-1.77159">
        <ele>65</ele>
        <time>2022-06-05T09:42:54Z</time>
      </trkpt>
      <trkpt lat="47.00972" lon="-1.7715">
        <ele>65</ele>
        <time>2022-06-05T09:42:56Z</time>
      </trkpt>
      <trkpt lat="47.00982" lon="-1.77139">
        <ele>65</ele>
        <time>2022-06-05T09:42:58Z</time>
      </trkpt>
      <trkpt lat="47.00993" lon="-1.77128">
        <ele>65</ele>
        <time>2022-06-05T09:43:00Z</time>
      </trkpt>
      <trkpt lat="47.01004" lon="-1.77116">
        <ele>65</ele>
        <time>2022-06-05T09:43:02Z</time>
      </trkpt>
      <trkpt lat="47.01014" lon="-1.77104">
        <ele>65</ele>
        <time>2022-06-05T09:43:04Z</time>
      </trkpt>
      <trkpt lat="47.01024" lon="-1.77093">
        <ele>65</ele>
        <time>2022-06-05T09:43:06Z</time>
      </trkpt>
      <trkpt lat="47.01035" lon="-1.77082">
        <ele>65</ele>
        <time>2022-06-05T09:43:08Z</time>
      </trkpt>
      <trkpt lat="47.01046" lon="-1.7707">
        <ele>65</ele>
        <time>2022-06-05T09:43:10Z</time>
      </trkpt>
      <trkpt lat="47.01056" lon="-1.77058">
        <ele>65</ele>
        <time>2022-06-05T09:43:12Z</time>
      </trkpt>
      <trkpt lat="47.01066" lon="-1.77046">
        <ele>65</ele>
        <time>2022-06-05T09:43:14Z</time>
      </trkpt>
      <trkpt lat="47.01076" lon="-1.77034">
        <ele>65</ele>
        <time>2022-06-05T09:43:16Z</time>
      </trkpt>
      <trkpt lat="47.01086" lon="-1.77022">
        <ele>65</ele>
        <time>2022-06-05T09:43:18Z</time>
      </trkpt>
      <trkpt lat="47.01097" lon="-1.7701">
        <ele>65</ele>
        <time>2022-06-05T09:43:20Z</time>
      </trkpt>
      <trkpt lat="47.01107" lon="-1.76999">
        <ele>66</ele>
        <time>2022-06-05T09:43:22Z</time>
      </trkpt>
      <trkpt lat="47.01117" lon="-1.76987">
        <ele>66</ele>
        <time>2022-06-05T09:43:24Z</time>
      </trkpt>
      <trkpt lat="47.01127" lon="-1.76975">
        <ele>67</ele>
        <time>2022-06-05T09:43:26Z</time>
      </trkpt>
      <trkpt lat="47.01136" lon="-1.76964">
        <ele>67</ele>
        <time>2022-06-05T09:43:28Z</time>
      </trkpt>
      <trkpt lat="47.01146" lon="-1.76952">
        <ele>68</ele>
        <time>2022-06-05T09:43:30Z</time>
      </trkpt>
      <trkpt lat="47.01156" lon="-1.7694">
        <ele>68</ele>
        <time>2022-06-05T09:43:32Z</time>
      </trkpt>
      <trkpt lat="47.01166" lon="-1.76928">
        <ele>68</ele>
        <time>2022-06-05T09:43:34Z</time>
      </trkpt>
      <trkpt lat="47.01176" lon="-1.76916">
        <ele>68</ele>
        <time>2022-06-05T09:43:36Z</time>
      </trkpt>
      <trkpt lat="47.01185" lon="-1.76905">
        <ele>69</ele>
        <time>2022-06-05T09:43:38Z</time>
      </trkpt>
      <trkpt lat="47.01195" lon="-1.76895">
        <ele>69</ele>
        <time>2022-06-05T09:43:40Z</time>
      </trkpt>
      <trkpt lat="47.01206" lon="-1.76886">
        <ele>69</ele>
        <time>2022-06-05T09:43:42Z</time>
      </trkpt>
      <trkpt lat="47.01216" lon="-1.76877">
        <ele>69</ele>
        <time>2022-06-05T09:43:44Z</time>
      </trkpt>
      <trkpt lat="47.01226" lon="-1.76869">
        <ele>69</ele>
        <time>2022-06-05T09:43:46Z</time>
      </trkpt>
      <trkpt lat="47.01236" lon="-1.76861">
        <ele>69</ele>
        <time>2022-06-05T09:43:48Z</time>
      </trkpt>
      <trkpt lat="47.01247" lon="-1.76854">
        <ele>68</ele>
        <time>2022-06-05T09:43:50Z</time>
      </trkpt>
      <trkpt lat="47.01258" lon="-1.76846">
        <ele>68</ele>
        <time>2022-06-05T09:43:52Z</time>
      </trkpt>
      <trkpt lat="47.01268" lon="-1.76836">
        <ele>68</ele>
        <time>2022-06-05T09:43:54Z</time>
      </trkpt>
      <trkpt lat="47.01277" lon="-1.76827">
        <ele>68</ele>
        <time>2022-06-05T09:43:56Z</time>
      </trkpt>
      <trkpt lat="47.01287" lon="-1.76816">
        <ele>69</ele>
        <time>2022-06-05T09:43:58Z</time>
      </trkpt>
      <trkpt lat="47.01295" lon="-1.76804">
        <ele>69</ele>
        <time>2022-06-05T09:44:00Z</time>
      </trkpt>
      <trkpt lat="47.01303" lon="-1.76791">
        <ele>69</ele>
        <time>2022-06-05T09:44:02Z</time>
      </trkpt>
      <trkpt lat="47.01311" lon="-1.76778">
        <ele>69</ele>
        <time>2022-06-05T09:44:04Z</time>
      </trkpt>
      <trkpt lat="47.01319" lon="-1.76766">
        <ele>70</ele>
        <time>2022-06-05T09:44:06Z</time>
      </trkpt>
      <trkpt lat="47.01327" lon="-1.76753">
        <ele>70</ele>
        <time>2022-06-05T09:44:08Z</time>
      </trkpt>
      <trkpt lat="47.01334" lon="-1.7674">
        <ele>70</ele>
        <time>2022-06-05T09:44:10Z</time>
      </trkpt>
      <trkpt lat="47.01342" lon="-1.76727">
        <ele>70</ele>
        <time>2022-06-05T09:44:12Z</time>
      </trkpt>
      <trkpt lat="47.01349" lon="-1.76713">
        <ele>71</ele>
        <time>2022-06-05T09:44:14Z</time>
      </trkpt>
      <trkpt lat="47.01355" lon="-1.76699">
        <ele>71</ele>
        <time>2022-06-05T09:44:16Z</time>
      </trkpt>
      <trkpt lat="47.0136" lon="-1.76682">
        <ele>70</ele>
        <time>2022-06-05T09:44:18Z</time>
      </trkpt>
      <trkpt lat="47.01364" lon="-1.76665">
        <ele>71</ele>
        <time>2022-06-05T09:44:20Z</time>
      </trkpt>
      <trkpt lat="47.01368" lon="-1.76648">
        <ele>71</ele>
        <time>2022-06-05T09:44:22Z</time>
      </trkpt>
      <trkpt lat="47.01372" lon="-1.76631">
        <ele>71</ele>
        <time>2022-06-05T09:44:24Z</time>
      </trkpt>
      <trkpt lat="47.01375" lon="-1.76614">
        <ele>71</ele>
        <time>2022-06-05T09:44:26Z</time>
      </trkpt>
      <trkpt lat="47.01379" lon="-1.76597">
        <ele>71</ele>
        <time>2022-06-05T09:44:28Z</time>
      </trkpt>
      <trkpt lat="47.01382" lon="-1.76579">
        <ele>71</ele>
        <time>2022-06-05T09:44:30Z</time>
      </trkpt>
      <trkpt lat="47.01386" lon="-1.76561">
        <ele>71</ele>
        <time>2022-06-05T09:44:32Z</time>
      </trkpt>
      <trkpt lat="47.01389" lon="-1.76543">
        <ele>71</ele>
        <time>2022-06-05T09:44:34Z</time>
      </trkpt>
      <trkpt lat="47.01393" lon="-1.76524">
        <ele>70</ele>
        <time>2022-06-05T09:44:36Z</time>
      </trkpt>
      <trkpt lat="47.01398" lon="-1.76507">
        <ele>70</ele>
        <time>2022-06-05T09:44:38Z</time>
      </trkpt>
      <trkpt lat="47.01403" lon="-1.76489">
        <ele>70</ele>
        <time>2022-06-05T09:44:40Z</time>
      </trkpt>
      <trkpt lat="47.01409" lon="-1.76472">
        <ele>70</ele>
        <time>2022-06-05T09:44:42Z</time>
      </trkpt>
      <trkpt lat="47.01416" lon="-1.76456">
        <ele>70</ele>
        <time>2022-06-05T09:44:44Z</time>
      </trkpt>
      <trkpt lat="47.01424" lon="-1.76438">
        <ele>70</ele>
        <time>2022-06-05T09:44:46Z</time>
      </trkpt>
      <trkpt lat="47.01432" lon="-1.76422">
        <ele>70</ele>
        <time>2022-06-05T09:44:48Z</time>
      </trkpt>
      <trkpt lat="47.01443" lon="-1.76398">
        <ele>70</ele>
        <time>2022-06-05T09:44:51Z</time>
      </trkpt>
      <trkpt lat="47.01451" lon="-1.76381">
        <ele>69</ele>
        <time>2022-06-05T09:44:53Z</time>
      </trkpt>
      <trkpt lat="47.01459" lon="-1.76366">
        <ele>69</ele>
        <time>2022-06-05T09:44:55Z</time>
      </trkpt>
      <trkpt lat="47.01466" lon="-1.76349">
        <ele>69</ele>
        <time>2022-06-05T09:44:57Z</time>
      </trkpt>
      <trkpt lat="47.01476" lon="-1.76323">
        <ele>69</ele>
        <time>2022-06-05T09:45:00Z</time>
      </trkpt>
      <trkpt lat="47.01478" lon="-1.76303">
        <ele>69</ele>
        <time>2022-06-05T09:45:02Z</time>
      </trkpt>
      <trkpt lat="47.01475" lon="-1.76283">
        <ele>70</ele>
        <time>2022-06-05T09:45:04Z</time>
      </trkpt>
      <trkpt lat="47.01466" lon="-1.76263">
        <ele>70</ele>
        <time>2022-06-05T09:45:06Z</time>
      </trkpt>
      <trkpt lat="47.01457" lon="-1.76244">
        <ele>70</ele>
        <time>2022-06-05T09:45:08Z</time>
      </trkpt>
      <trkpt lat="47.01449" lon="-1.76225">
        <ele>70</ele>
        <time>2022-06-05T09:45:10Z</time>
      </trkpt>
      <trkpt lat="47.01441" lon="-1.76205">
        <ele>69</ele>
        <time>2022-06-05T09:45:12Z</time>
      </trkpt>
      <trkpt lat="47.01432" lon="-1.76185">
        <ele>70</ele>
        <time>2022-06-05T09:45:14Z</time>
      </trkpt>
      <trkpt lat="47.01424" lon="-1.76164">
        <ele>69</ele>
        <time>2022-06-05T09:45:16Z</time>
      </trkpt>
      <trkpt lat="47.01417" lon="-1.76143">
        <ele>69</ele>
        <time>2022-06-05T09:45:18Z</time>
      </trkpt>
      <trkpt lat="47.01408" lon="-1.76122">
        <ele>69</ele>
        <time>2022-06-05T09:45:20Z</time>
      </trkpt>
      <trkpt lat="47.014" lon="-1.76103">
        <ele>68</ele>
        <time>2022-06-05T09:45:22Z</time>
      </trkpt>
      <trkpt lat="47.01391" lon="-1.76082">
        <ele>69</ele>
        <time>2022-06-05T09:45:24Z</time>
      </trkpt>
      <trkpt lat="47.01384" lon="-1.76062">
        <ele>69</ele>
        <time>2022-06-05T09:45:26Z</time>
      </trkpt>
      <trkpt lat="47.01376" lon="-1.76042">
        <ele>69</ele>
        <time>2022-06-05T09:45:28Z</time>
      </trkpt>
      <trkpt lat="47.01368" lon="-1.76023">
        <ele>69</ele>
        <time>2022-06-05T09:45:30Z</time>
      </trkpt>
      <trkpt lat="47.0136" lon="-1.76003">
        <ele>69</ele>
        <time>2022-06-05T09:45:32Z</time>
      </trkpt>
      <trkpt lat="47.01352" lon="-1.75985">
        <ele>69</ele>
        <time>2022-06-05T09:45:34Z</time>
      </trkpt>
      <trkpt lat="47.01344" lon="-1.75965">
        <ele>69</ele>
        <time>2022-06-05T09:45:36Z</time>
      </trkpt>
      <trkpt lat="47.01337" lon="-1.75945">
        <ele>69</ele>
        <time>2022-06-05T09:45:38Z</time>
      </trkpt>
      <trkpt lat="47.01329" lon="-1.75925">
        <ele>68</ele>
        <time>2022-06-05T09:45:40Z</time>
      </trkpt>
      <trkpt lat="47.01321" lon="-1.75905">
        <ele>68</ele>
        <time>2022-06-05T09:45:42Z</time>
      </trkpt>
      <trkpt lat="47.01313" lon="-1.75884">
        <ele>67</ele>
        <time>2022-06-05T09:45:44Z</time>
      </trkpt>
      <trkpt lat="47.01305" lon="-1.75863">
        <ele>67</ele>
        <time>2022-06-05T09:45:46Z</time>
      </trkpt>
      <trkpt lat="47.01297" lon="-1.75842">
        <ele>67</ele>
        <time>2022-06-05T09:45:48Z</time>
      </trkpt>
      <trkpt lat="47.01288" lon="-1.75821">
        <ele>67</ele>
        <time>2022-06-05T09:45:50Z</time>
      </trkpt>
      <trkpt lat="47.0128" lon="-1.758">
        <ele>67</ele>
        <time>2022-06-05T09:45:52Z</time>
      </trkpt>
      <trkpt lat="47.01272" lon="-1.7578">
        <ele>67</ele>
        <time>2022-06-05T09:45:54Z</time>
      </trkpt>
      <trkpt lat="47.01263" lon="-1.75761">
        <ele>67</ele>
        <time>2022-06-05T09:45:56Z</time>
      </trkpt>
      <trkpt lat="47.01256" lon="-1.7574">
        <ele>67</ele>
        <time>2022-06-05T09:45:58Z</time>
      </trkpt>
      <trkpt lat="47.01249" lon="-1.75722">
        <ele>67</ele>
        <time>2022-06-05T09:46:00Z</time>
      </trkpt>
      <trkpt lat="47.01242" lon="-1.75706">
        <ele>67</ele>
        <time>2022-06-05T09:46:02Z</time>
      </trkpt>
      <trkpt lat="47.01236" lon="-1.75689">
        <ele>68</ele>
        <time>2022-06-05T09:46:04Z</time>
      </trkpt>
      <trkpt lat="47.01229" lon="-1.75672">
        <ele>69</ele>
        <time>2022-06-05T09:46:06Z</time>
      </trkpt>
      <trkpt lat="47.01223" lon="-1.75655">
        <ele>70</ele>
        <time>2022-06-05T09:46:08Z</time>
      </trkpt>
      <trkpt lat="47.01217" lon="-1.75639">
        <ele>70</ele>
        <time>2022-06-05T09:46:10Z</time>
      </trkpt>
      <trkpt lat="47.0121" lon="-1.75624">
        <ele>71</ele>
        <time>2022-06-05T09:46:12Z</time>
      </trkpt>
      <trkpt lat="47.01203" lon="-1.75611">
        <ele>71</ele>
        <time>2022-06-05T09:46:14Z</time>
      </trkpt>
      <trkpt lat="47.01197" lon="-1.75596">
        <ele>71</ele>
        <time>2022-06-05T09:46:16Z</time>
      </trkpt>
      <trkpt lat="47.0119" lon="-1.75582">
        <ele>70</ele>
        <time>2022-06-05T09:46:18Z</time>
      </trkpt>
      <trkpt lat="47.01183" lon="-1.75566">
        <ele>71</ele>
        <time>2022-06-05T09:46:20Z</time>
      </trkpt>
      <trkpt lat="47.01176" lon="-1.75549">
        <ele>71</ele>
        <time>2022-06-05T09:46:22Z</time>
      </trkpt>
      <trkpt lat="47.01168" lon="-1.75531">
        <ele>72</ele>
        <time>2022-06-05T09:46:24Z</time>
      </trkpt>
      <trkpt lat="47.01162" lon="-1.75513">
        <ele>72</ele>
        <time>2022-06-05T09:46:26Z</time>
      </trkpt>
      <trkpt lat="47.01156" lon="-1.75494">
        <ele>72</ele>
        <time>2022-06-05T09:46:28Z</time>
      </trkpt>
      <trkpt lat="47.01149" lon="-1.75478">
        <ele>72</ele>
        <time>2022-06-05T09:46:30Z</time>
      </trkpt>
      <trkpt lat="47.01143" lon="-1.7546">
        <ele>72</ele>
        <time>2022-06-05T09:46:32Z</time>
      </trkpt>
      <trkpt lat="47.01137" lon="-1.75444">
        <ele>72</ele>
        <time>2022-06-05T09:46:34Z</time>
      </trkpt>
      <trkpt lat="47.01131" lon="-1.75429">
        <ele>72</ele>
        <time>2022-06-05T09:46:36Z</time>
      </trkpt>
      <trkpt lat="47.01125" lon="-1.75414">
        <ele>73</ele>
        <time>2022-06-05T09:46:38Z</time>
      </trkpt>
      <trkpt lat="47.01119" lon="-1.75397">
        <ele>73</ele>
        <time>2022-06-05T09:46:40Z</time>
      </trkpt>
      <trkpt lat="47.01113" lon="-1.75381">
        <ele>73</ele>
        <time>2022-06-05T09:46:42Z</time>
      </trkpt>
      <trkpt lat="47.01108" lon="-1.75364">
        <ele>73</ele>
        <time>2022-06-05T09:46:44Z</time>
      </trkpt>
      <trkpt lat="47.01101" lon="-1.7535">
        <ele>74</ele>
        <time>2022-06-05T09:46:46Z</time>
      </trkpt>
      <trkpt lat="47.01095" lon="-1.75334">
        <ele>74</ele>
        <time>2022-06-05T09:46:48Z</time>
      </trkpt>
      <trkpt lat="47.01089" lon="-1.75318">
        <ele>74</ele>
        <time>2022-06-05T09:46:50Z</time>
      </trkpt>
      <trkpt lat="47.01083" lon="-1.75302">
        <ele>74</ele>
        <time>2022-06-05T09:46:52Z</time>
      </trkpt>
      <trkpt lat="47.01076" lon="-1.75285">
        <ele>75</ele>
        <time>2022-06-05T09:46:54Z</time>
      </trkpt>
      <trkpt lat="47.01068" lon="-1.75269">
        <ele>74</ele>
        <time>2022-06-05T09:46:56Z</time>
      </trkpt>
      <trkpt lat="47.01062" lon="-1.75253">
        <ele>73</ele>
        <time>2022-06-05T09:46:58Z</time>
      </trkpt>
      <trkpt lat="47.01056" lon="-1.75236">
        <ele>73</ele>
        <time>2022-06-05T09:47:00Z</time>
      </trkpt>
      <trkpt lat="47.0105" lon="-1.75218">
        <ele>73</ele>
        <time>2022-06-05T09:47:02Z</time>
      </trkpt>
      <trkpt lat="47.01047" lon="-1.752">
        <ele>72</ele>
        <time>2022-06-05T09:47:04Z</time>
      </trkpt>
      <trkpt lat="47.01045" lon="-1.7518">
        <ele>72</ele>
        <time>2022-06-05T09:47:06Z</time>
      </trkpt>
      <trkpt lat="47.01044" lon="-1.75161">
        <ele>72</ele>
        <time>2022-06-05T09:47:08Z</time>
      </trkpt>
      <trkpt lat="47.01043" lon="-1.75142">
        <ele>72</ele>
        <time>2022-06-05T09:47:10Z</time>
      </trkpt>
      <trkpt lat="47.01043" lon="-1.75122">
        <ele>72</ele>
        <time>2022-06-05T09:47:12Z</time>
      </trkpt>
      <trkpt lat="47.01042" lon="-1.75103">
        <ele>71</ele>
        <time>2022-06-05T09:47:14Z</time>
      </trkpt>
      <trkpt lat="47.01042" lon="-1.75083">
        <ele>70</ele>
        <time>2022-06-05T09:47:16Z</time>
      </trkpt>
      <trkpt lat="47.01042" lon="-1.75065">
        <ele>70</ele>
        <time>2022-06-05T09:47:18Z</time>
      </trkpt>
      <trkpt lat="47.01042" lon="-1.75045">
        <ele>70</ele>
        <time>2022-06-05T09:47:20Z</time>
      </trkpt>
      <trkpt lat="47.01041" lon="-1.75026">
        <ele>70</ele>
        <time>2022-06-05T09:47:22Z</time>
      </trkpt>
      <trkpt lat="47.01041" lon="-1.75007">
        <ele>70</ele>
        <time>2022-06-05T09:47:24Z</time>
      </trkpt>
      <trkpt lat="47.01041" lon="-1.74989">
        <ele>70</ele>
        <time>2022-06-05T09:47:26Z</time>
      </trkpt>
      <trkpt lat="47.0104" lon="-1.7497">
        <ele>70</ele>
        <time>2022-06-05T09:47:28Z</time>
      </trkpt>
      <trkpt lat="47.0104" lon="-1.74951">
        <ele>70</ele>
        <time>2022-06-05T09:47:30Z</time>
      </trkpt>
      <trkpt lat="47.0104" lon="-1.74932">
        <ele>70</ele>
        <time>2022-06-05T09:47:32Z</time>
      </trkpt>
      <trkpt lat="47.0104" lon="-1.74913">
        <ele>70</ele>
        <time>2022-06-05T09:47:34Z</time>
      </trkpt>
      <trkpt lat="47.01039" lon="-1.74894">
        <ele>70</ele>
        <time>2022-06-05T09:47:36Z</time>
      </trkpt>
      <trkpt lat="47.01039" lon="-1.74876">
        <ele>70</ele>
        <time>2022-06-05T09:47:38Z</time>
      </trkpt>
      <trkpt lat="47.01039" lon="-1.74856">
        <ele>70</ele>
        <time>2022-06-05T09:47:40Z</time>
      </trkpt>
      <trkpt lat="47.01039" lon="-1.74837">
        <ele>70</ele>
        <time>2022-06-05T09:47:42Z</time>
      </trkpt>
      <trkpt lat="47.01038" lon="-1.74819">
        <ele>69</ele>
        <time>2022-06-05T09:47:44Z</time>
      </trkpt>
      <trkpt lat="47.01038" lon="-1.748">
        <ele>70</ele>
        <time>2022-06-05T09:47:46Z</time>
      </trkpt>
      <trkpt lat="47.01038" lon="-1.74782">
        <ele>70</ele>
        <time>2022-06-05T09:47:48Z</time>
      </trkpt>
      <trkpt lat="47.01037" lon="-1.74764">
        <ele>71</ele>
        <time>2022-06-05T09:47:50Z</time>
      </trkpt>
      <trkpt lat="47.01036" lon="-1.74745">
        <ele>71</ele>
        <time>2022-06-05T09:47:52Z</time>
      </trkpt>
      <trkpt lat="47.01036" lon="-1.74727">
        <ele>72</ele>
        <time>2022-06-05T09:47:54Z</time>
      </trkpt>
      <trkpt lat="47.01036" lon="-1.74709">
        <ele>73</ele>
        <time>2022-06-05T09:47:56Z</time>
      </trkpt>
      <trkpt lat="47.01035" lon="-1.74689">
        <ele>73</ele>
        <time>2022-06-05T09:47:58Z</time>
      </trkpt>
      <trkpt lat="47.01034" lon="-1.74668">
        <ele>73</ele>
        <time>2022-06-05T09:48:00Z</time>
      </trkpt>
      <trkpt lat="47.01035" lon="-1.74647">
        <ele>73</ele>
        <time>2022-06-05T09:48:02Z</time>
      </trkpt>
      <trkpt lat="47.01034" lon="-1.74627">
        <ele>73</ele>
        <time>2022-06-05T09:48:04Z</time>
      </trkpt>
      <trkpt lat="47.01034" lon="-1.74608">
        <ele>73</ele>
        <time>2022-06-05T09:48:06Z</time>
      </trkpt>
      <trkpt lat="47.01035" lon="-1.74588">
        <ele>72</ele>
        <time>2022-06-05T09:48:08Z</time>
      </trkpt>
      <trkpt lat="47.01035" lon="-1.74568">
        <ele>72</ele>
        <time>2022-06-05T09:48:10Z</time>
      </trkpt>
      <trkpt lat="47.01039" lon="-1.74547">
        <ele>72</ele>
        <time>2022-06-05T09:48:12Z</time>
      </trkpt>
      <trkpt lat="47.01044" lon="-1.74528">
        <ele>72</ele>
        <time>2022-06-05T09:48:14Z</time>
      </trkpt>
      <trkpt lat="47.01049" lon="-1.74509">
        <ele>71</ele>
        <time>2022-06-05T09:48:16Z</time>
      </trkpt>
      <trkpt lat="47.01056" lon="-1.74491">
        <ele>72</ele>
        <time>2022-06-05T09:48:18Z</time>
      </trkpt>
      <trkpt lat="47.01062" lon="-1.74474">
        <ele>71</ele>
        <time>2022-06-05T09:48:20Z</time>
      </trkpt>
      <trkpt lat="47.01069" lon="-1.74455">
        <ele>71</ele>
        <time>2022-06-05T09:48:22Z</time>
      </trkpt>
      <trkpt lat="47.01074" lon="-1.74436">
        <ele>72</ele>
        <time>2022-06-05T09:48:24Z</time>
      </trkpt>
      <trkpt lat="47.01079" lon="-1.74416">
        <ele>71</ele>
        <time>2022-06-05T09:48:26Z</time>
      </trkpt>
      <trkpt lat="47.01085" lon="-1.74396">
        <ele>71</ele>
        <time>2022-06-05T09:48:28Z</time>
      </trkpt>
      <trkpt lat="47.0109" lon="-1.74377">
        <ele>71</ele>
        <time>2022-06-05T09:48:30Z</time>
      </trkpt>
      <trkpt lat="47.01094" lon="-1.74358">
        <ele>70</ele>
        <time>2022-06-05T09:48:32Z</time>
      </trkpt>
      <trkpt lat="47.01099" lon="-1.74339">
        <ele>70</ele>
        <time>2022-06-05T09:48:34Z</time>
      </trkpt>
      <trkpt lat="47.01103" lon="-1.7432">
        <ele>69</ele>
        <time>2022-06-05T09:48:36Z</time>
      </trkpt>
      <trkpt lat="47.01108" lon="-1.74301">
        <ele>69</ele>
        <time>2022-06-05T09:48:38Z</time>
      </trkpt>
      <trkpt lat="47.01113" lon="-1.74283">
        <ele>69</ele>
        <time>2022-06-05T09:48:40Z</time>
      </trkpt>
      <trkpt lat="47.01118" lon="-1.74265">
        <ele>70</ele>
        <time>2022-06-05T09:48:42Z</time>
      </trkpt>
      <trkpt lat="47.01122" lon="-1.74247">
        <ele>70</ele>
        <time>2022-06-05T09:48:44Z</time>
      </trkpt>
      <trkpt lat="47.01126" lon="-1.74229">
        <ele>71</ele>
        <time>2022-06-05T09:48:46Z</time>
      </trkpt>
      <trkpt lat="47.01131" lon="-1.74213">
        <ele>72</ele>
        <time>2022-06-05T09:48:48Z</time>
      </trkpt>
      <trkpt lat="47.01135" lon="-1.74195">
        <ele>73</ele>
        <time>2022-06-05T09:48:50Z</time>
      </trkpt>
      <trkpt lat="47.0114" lon="-1.74177">
        <ele>73</ele>
        <time>2022-06-05T09:48:52Z</time>
      </trkpt>
      <trkpt lat="47.01144" lon="-1.74157">
        <ele>73</ele>
        <time>2022-06-05T09:48:54Z</time>
      </trkpt>
      <trkpt lat="47.01149" lon="-1.74138">
        <ele>73</ele>
        <time>2022-06-05T09:48:56Z</time>
      </trkpt>
      <trkpt lat="47.01154" lon="-1.7412">
        <ele>74</ele>
        <time>2022-06-05T09:48:58Z</time>
      </trkpt>
      <trkpt lat="47.01158" lon="-1.74102">
        <ele>74</ele>
        <time>2022-06-05T09:49:00Z</time>
      </trkpt>
      <trkpt lat="47.01163" lon="-1.74085">
        <ele>74</ele>
        <time>2022-06-05T09:49:02Z</time>
      </trkpt>
      <trkpt lat="47.01167" lon="-1.74068">
        <ele>75</ele>
        <time>2022-06-05T09:49:04Z</time>
      </trkpt>
      <trkpt lat="47.01171" lon="-1.74053">
        <ele>76</ele>
        <time>2022-06-05T09:49:06Z</time>
      </trkpt>
      <trkpt lat="47.01174" lon="-1.74038">
        <ele>77</ele>
        <time>2022-06-05T09:49:08Z</time>
      </trkpt>
      <trkpt lat="47.01178" lon="-1.74023">
        <ele>78</ele>
        <time>2022-06-05T09:49:10Z</time>
      </trkpt>
      <trkpt lat="47.01182" lon="-1.74008">
        <ele>79</ele>
        <time>2022-06-05T09:49:12Z</time>
      </trkpt>
      <trkpt lat="47.01185" lon="-1.73993">
        <ele>80</ele>
        <time>2022-06-05T09:49:14Z</time>
      </trkpt>
      <trkpt lat="47.01189" lon="-1.73977">
        <ele>81</ele>
        <time>2022-06-05T09:49:16Z</time>
      </trkpt>
      <trkpt lat="47.01194" lon="-1.7396">
        <ele>80</ele>
        <time>2022-06-05T09:49:18Z</time>
      </trkpt>
      <trkpt lat="47.01197" lon="-1.73942">
        <ele>81</ele>
        <time>2022-06-05T09:49:20Z</time>
      </trkpt>
      <trkpt lat="47.01199" lon="-1.73921">
        <ele>81</ele>
        <time>2022-06-05T09:49:22Z</time>
      </trkpt>
      <trkpt lat="47.01201" lon="-1.73901">
        <ele>81</ele>
        <time>2022-06-05T09:49:24Z</time>
      </trkpt>
      <trkpt lat="47.01202" lon="-1.73881">
        <ele>79</ele>
        <time>2022-06-05T09:49:26Z</time>
      </trkpt>
      <trkpt lat="47.01204" lon="-1.73862">
        <ele>78</ele>
        <time>2022-06-05T09:49:28Z</time>
      </trkpt>
      <trkpt lat="47.01205" lon="-1.73843">
        <ele>78</ele>
        <time>2022-06-05T09:49:30Z</time>
      </trkpt>
      <trkpt lat="47.01206" lon="-1.73824">
        <ele>77</ele>
        <time>2022-06-05T09:49:32Z</time>
      </trkpt>
      <trkpt lat="47.01206" lon="-1.73806">
        <ele>77</ele>
        <time>2022-06-05T09:49:34Z</time>
      </trkpt>
      <trkpt lat="47.01207" lon="-1.73788">
        <ele>77</ele>
        <time>2022-06-05T09:49:36Z</time>
      </trkpt>
      <trkpt lat="47.01208" lon="-1.73769">
        <ele>76</ele>
        <time>2022-06-05T09:49:38Z</time>
      </trkpt>
      <trkpt lat="47.0121" lon="-1.7375">
        <ele>77</ele>
        <time>2022-06-05T09:49:40Z</time>
      </trkpt>
      <trkpt lat="47.01211" lon="-1.73731">
        <ele>76</ele>
        <time>2022-06-05T09:49:42Z</time>
      </trkpt>
      <trkpt lat="47.01212" lon="-1.73711">
        <ele>76</ele>
        <time>2022-06-05T09:49:44Z</time>
      </trkpt>
      <trkpt lat="47.01213" lon="-1.73693">
        <ele>76</ele>
        <time>2022-06-05T09:49:46Z</time>
      </trkpt>
      <trkpt lat="47.01213" lon="-1.73674">
        <ele>77</ele>
        <time>2022-06-05T09:49:48Z</time>
      </trkpt>
      <trkpt lat="47.01214" lon="-1.73656">
        <ele>78</ele>
        <time>2022-06-05T09:49:50Z</time>
      </trkpt>
      <trkpt lat="47.01215" lon="-1.73637">
        <ele>77</ele>
        <time>2022-06-05T09:49:52Z</time>
      </trkpt>
      <trkpt lat="47.01216" lon="-1.73619">
        <ele>78</ele>
        <time>2022-06-05T09:49:54Z</time>
      </trkpt>
      <trkpt lat="47.01216" lon="-1.73601">
        <ele>78</ele>
        <time>2022-06-05T09:49:56Z</time>
      </trkpt>
      <trkpt lat="47.01217" lon="-1.73583">
        <ele>79</ele>
        <time>2022-06-05T09:49:58Z</time>
      </trkpt>
      <trkpt lat="47.01218" lon="-1.73564">
        <ele>79</ele>
        <time>2022-06-05T09:50:00Z</time>
      </trkpt>
      <trkpt lat="47.01219" lon="-1.73546">
        <ele>80</ele>
        <time>2022-06-05T09:50:02Z</time>
      </trkpt>
      <trkpt lat="47.0122" lon="-1.73528">
        <ele>80</ele>
        <time>2022-06-05T09:50:04Z</time>
      </trkpt>
      <trkpt lat="47.0122" lon="-1.7351">
        <ele>80</ele>
        <time>2022-06-05T09:50:06Z</time>
      </trkpt>
      <trkpt lat="47.01218" lon="-1.73494">
        <ele>78</ele>
        <time>2022-06-05T09:50:08Z</time>
      </trkpt>
      <trkpt lat="47.01209" lon="-1.73486">
        <ele>77</ele>
        <time>2022-06-05T09:50:10Z</time>
      </trkpt>
      <trkpt lat="47.01198" lon="-1.73482">
        <ele>75</ele>
        <time>2022-06-05T09:50:12Z</time>
      </trkpt>
      <trkpt lat="47.01185" lon="-1.73478">
        <ele>74</ele>
        <time>2022-06-05T09:50:14Z</time>
      </trkpt>
      <trkpt lat="47.01171" lon="-1.73475">
        <ele>74</ele>
        <time>2022-06-05T09:50:16Z</time>
      </trkpt>
      <trkpt lat="47.01158" lon="-1.73471">
        <ele>74</ele>
        <time>2022-06-05T09:50:18Z</time>
      </trkpt>
      <trkpt lat="47.01145" lon="-1.73467">
        <ele>74</ele>
        <time>2022-06-05T09:50:20Z</time>
      </trkpt>
      <trkpt lat="47.01132" lon="-1.73464">
        <ele>74</ele>
        <time>2022-06-05T09:50:22Z</time>
      </trkpt>
      <trkpt lat="47.0112" lon="-1.73461">
        <ele>73</ele>
        <time>2022-06-05T09:50:24Z</time>
      </trkpt>
      <trkpt lat="47.0111" lon="-1.73458">
        <ele>73</ele>
        <time>2022-06-05T09:50:26Z</time>
      </trkpt>
      <trkpt lat="47.01099" lon="-1.73455">
        <ele>74</ele>
        <time>2022-06-05T09:50:29Z</time>
      </trkpt>
      <trkpt lat="47.01097" lon="-1.73437">
        <ele>73</ele>
        <time>2022-06-05T09:50:33Z</time>
      </trkpt>
      <trkpt lat="47.01103" lon="-1.73424">
        <ele>73</ele>
        <time>2022-06-05T09:50:35Z</time>
      </trkpt>
      <trkpt lat="47.01109" lon="-1.73409">
        <ele>73</ele>
        <time>2022-06-05T09:50:37Z</time>
      </trkpt>
      <trkpt lat="47.01117" lon="-1.73393">
        <ele>73</ele>
        <time>2022-06-05T09:50:39Z</time>
      </trkpt>
      <trkpt lat="47.01124" lon="-1.73377">
        <ele>74</ele>
        <time>2022-06-05T09:50:41Z</time>
      </trkpt>
      <trkpt lat="47.01131" lon="-1.7336">
        <ele>73</ele>
        <time>2022-06-05T09:50:43Z</time>
      </trkpt>
      <trkpt lat="47.01138" lon="-1.73344">
        <ele>74</ele>
        <time>2022-06-05T09:50:45Z</time>
      </trkpt>
      <trkpt lat="47.01145" lon="-1.73328">
        <ele>74</ele>
        <time>2022-06-05T09:50:47Z</time>
      </trkpt>
      <trkpt lat="47.01153" lon="-1.73311">
        <ele>74</ele>
        <time>2022-06-05T09:50:49Z</time>
      </trkpt>
      <trkpt lat="47.0116" lon="-1.73293">
        <ele>74</ele>
        <time>2022-06-05T09:50:51Z</time>
      </trkpt>
      <trkpt lat="47.01167" lon="-1.73277">
        <ele>75</ele>
        <time>2022-06-05T09:50:53Z</time>
      </trkpt>
      <trkpt lat="47.01174" lon="-1.73262">
        <ele>76</ele>
        <time>2022-06-05T09:50:55Z</time>
      </trkpt>
      <trkpt lat="47.0118" lon="-1.73246">
        <ele>77</ele>
        <time>2022-06-05T09:50:57Z</time>
      </trkpt>
      <trkpt lat="47.01187" lon="-1.7323">
        <ele>77</ele>
        <time>2022-06-05T09:50:59Z</time>
      </trkpt>
      <trkpt lat="47.01195" lon="-1.73213">
        <ele>77</ele>
        <time>2022-06-05T09:51:01Z</time>
      </trkpt>
      <trkpt lat="47.01203" lon="-1.73195">
        <ele>77</ele>
        <time>2022-06-05T09:51:03Z</time>
      </trkpt>
      <trkpt lat="47.01211" lon="-1.73177">
        <ele>76</ele>
        <time>2022-06-05T09:51:05Z</time>
      </trkpt>
      <trkpt lat="47.01219" lon="-1.73159">
        <ele>76</ele>
        <time>2022-06-05T09:51:07Z</time>
      </trkpt>
      <trkpt lat="47.01227" lon="-1.73142">
        <ele>76</ele>
        <time>2022-06-05T09:51:09Z</time>
      </trkpt>
      <trkpt lat="47.01235" lon="-1.73124">
        <ele>76</ele>
        <time>2022-06-05T09:51:11Z</time>
      </trkpt>
      <trkpt lat="47.01242" lon="-1.73106">
        <ele>76</ele>
        <time>2022-06-05T09:51:13Z</time>
      </trkpt>
      <trkpt lat="47.01249" lon="-1.73089">
        <ele>76</ele>
        <time>2022-06-05T09:51:15Z</time>
      </trkpt>
      <trkpt lat="47.01257" lon="-1.73072">
        <ele>75</ele>
        <time>2022-06-05T09:51:17Z</time>
      </trkpt>
      <trkpt lat="47.01264" lon="-1.73054">
        <ele>75</ele>
        <time>2022-06-05T09:51:19Z</time>
      </trkpt>
      <trkpt lat="47.01272" lon="-1.73037">
        <ele>75</ele>
        <time>2022-06-05T09:51:21Z</time>
      </trkpt>
      <trkpt lat="47.0128" lon="-1.7302">
        <ele>75</ele>
        <time>2022-06-05T09:51:23Z</time>
      </trkpt>
      <trkpt lat="47.01288" lon="-1.73003">
        <ele>75</ele>
        <time>2022-06-05T09:51:25Z</time>
      </trkpt>
      <trkpt lat="47.01296" lon="-1.72985">
        <ele>75</ele>
        <time>2022-06-05T09:51:27Z</time>
      </trkpt>
      <trkpt lat="47.01303" lon="-1.72967">
        <ele>74</ele>
        <time>2022-06-05T09:51:29Z</time>
      </trkpt>
      <trkpt lat="47.01311" lon="-1.72949">
        <ele>74</ele>
        <time>2022-06-05T09:51:31Z</time>
      </trkpt>
      <trkpt lat="47.01319" lon="-1.72932">
        <ele>74</ele>
        <time>2022-06-05T09:51:33Z</time>
      </trkpt>
      <trkpt lat="47.01326" lon="-1.72915">
        <ele>75</ele>
        <time>2022-06-05T09:51:35Z</time>
      </trkpt>
      <trkpt lat="47.01334" lon="-1.72898">
        <ele>75</ele>
        <time>2022-06-05T09:51:37Z</time>
      </trkpt>
      <trkpt lat="47.01341" lon="-1.72881">
        <ele>75</ele>
        <time>2022-06-05T09:51:39Z</time>
      </trkpt>
      <trkpt lat="47.01348" lon="-1.72863">
        <ele>76</ele>
        <time>2022-06-05T09:51:41Z</time>
      </trkpt>
      <trkpt lat="47.01355" lon="-1.72846">
        <ele>76</ele>
        <time>2022-06-05T09:51:43Z</time>
      </trkpt>
      <trkpt lat="47.01363" lon="-1.72829">
        <ele>75</ele>
        <time>2022-06-05T09:51:45Z</time>
      </trkpt>
      <trkpt lat="47.0137" lon="-1.72811">
        <ele>75</ele>
        <time>2022-06-05T09:51:47Z</time>
      </trkpt>
      <trkpt lat="47.01378" lon="-1.72795">
        <ele>75</ele>
        <time>2022-06-05T09:51:49Z</time>
      </trkpt>
      <trkpt lat="47.01385" lon="-1.72778">
        <ele>75</ele>
        <time>2022-06-05T09:51:51Z</time>
      </trkpt>
      <trkpt lat="47.01393" lon="-1.72761">
        <ele>75</ele>
        <time>2022-06-05T09:51:53Z</time>
      </trkpt>
      <trkpt lat="47.014" lon="-1.72744">
        <ele>75</ele>
        <time>2022-06-05T09:51:55Z</time>
      </trkpt>
      <trkpt lat="47.01408" lon="-1.72728">
        <ele>76</ele>
        <time>2022-06-05T09:51:57Z</time>
      </trkpt>
      <trkpt lat="47.01415" lon="-1.72711">
        <ele>77</ele>
        <time>2022-06-05T09:51:59Z</time>
      </trkpt>
      <trkpt lat="47.01422" lon="-1.72694">
        <ele>77</ele>
        <time>2022-06-05T09:52:01Z</time>
      </trkpt>
      <trkpt lat="47.0143" lon="-1.72677">
        <ele>77</ele>
        <time>2022-06-05T09:52:03Z</time>
      </trkpt>
      <trkpt lat="47.01437" lon="-1.7266">
        <ele>77</ele>
        <time>2022-06-05T09:52:05Z</time>
      </trkpt>
      <trkpt lat="47.01444" lon="-1.72642">
        <ele>77</ele>
        <time>2022-06-05T09:52:07Z</time>
      </trkpt>
      <trkpt lat="47.01452" lon="-1.72625">
        <ele>77</ele>
        <time>2022-06-05T09:52:09Z</time>
      </trkpt>
      <trkpt lat="47.0146" lon="-1.72609">
        <ele>77</ele>
        <time>2022-06-05T09:52:11Z</time>
      </trkpt>
      <trkpt lat="47.01466" lon="-1.72596">
        <ele>78</ele>
        <time>2022-06-05T09:52:13Z</time>
      </trkpt>
      <trkpt lat="47.01472" lon="-1.72584">
        <ele>78</ele>
        <time>2022-06-05T09:52:15Z</time>
      </trkpt>
      <trkpt lat="47.01478" lon="-1.7257">
        <ele>78</ele>
        <time>2022-06-05T09:52:17Z</time>
      </trkpt>
      <trkpt lat="47.01485" lon="-1.72555">
        <ele>79</ele>
        <time>2022-06-05T09:52:19Z</time>
      </trkpt>
      <trkpt lat="47.01492" lon="-1.72537">
        <ele>81</ele>
        <time>2022-06-05T09:52:21Z</time>
      </trkpt>
      <trkpt lat="47.01499" lon="-1.72518">
        <ele>81</ele>
        <time>2022-06-05T09:52:23Z</time>
      </trkpt>
      <trkpt lat="47.01508" lon="-1.72499">
        <ele>82</ele>
        <time>2022-06-05T09:52:25Z</time>
      </trkpt>
      <trkpt lat="47.01515" lon="-1.72481">
        <ele>82</ele>
        <time>2022-06-05T09:52:27Z</time>
      </trkpt>
      <trkpt lat="47.01523" lon="-1.72465">
        <ele>82</ele>
        <time>2022-06-05T09:52:29Z</time>
      </trkpt>
      <trkpt lat="47.0153" lon="-1.72448">
        <ele>83</ele>
        <time>2022-06-05T09:52:31Z</time>
      </trkpt>
      <trkpt lat="47.01538" lon="-1.72431">
        <ele>83</ele>
        <time>2022-06-05T09:52:33Z</time>
      </trkpt>
      <trkpt lat="47.01545" lon="-1.72415">
        <ele>83</ele>
        <time>2022-06-05T09:52:35Z</time>
      </trkpt>
      <trkpt lat="47.01551" lon="-1.72398">
        <ele>84</ele>
        <time>2022-06-05T09:52:37Z</time>
      </trkpt>
      <trkpt lat="47.01559" lon="-1.72383">
        <ele>84</ele>
        <time>2022-06-05T09:52:39Z</time>
      </trkpt>
      <trkpt lat="47.01566" lon="-1.72367">
        <ele>85</ele>
        <time>2022-06-05T09:52:41Z</time>
      </trkpt>
      <trkpt lat="47.01572" lon="-1.72352">
        <ele>85</ele>
        <time>2022-06-05T09:52:43Z</time>
      </trkpt>
      <trkpt lat="47.01579" lon="-1.72337">
        <ele>85</ele>
        <time>2022-06-05T09:52:45Z</time>
      </trkpt>
      <trkpt lat="47.01587" lon="-1.72319">
        <ele>85</ele>
        <time>2022-06-05T09:52:47Z</time>
      </trkpt>
      <trkpt lat="47.01594" lon="-1.72302">
        <ele>85</ele>
        <time>2022-06-05T09:52:49Z</time>
      </trkpt>
      <trkpt lat="47.01602" lon="-1.72284">
        <ele>85</ele>
        <time>2022-06-05T09:52:51Z</time>
      </trkpt>
      <trkpt lat="47.01608" lon="-1.72267">
        <ele>85</ele>
        <time>2022-06-05T09:52:53Z</time>
      </trkpt>
      <trkpt lat="47.01615" lon="-1.72249">
        <ele>84</ele>
        <time>2022-06-05T09:52:55Z</time>
      </trkpt>
      <trkpt lat="47.01621" lon="-1.72231">
        <ele>84</ele>
        <time>2022-06-05T09:52:57Z</time>
      </trkpt>
      <trkpt lat="47.01627" lon="-1.72213">
        <ele>86</ele>
        <time>2022-06-05T09:52:59Z</time>
      </trkpt>
      <trkpt lat="47.01632" lon="-1.72195">
        <ele>86</ele>
        <time>2022-06-05T09:53:01Z</time>
      </trkpt>
      <trkpt lat="47.01637" lon="-1.72179">
        <ele>87</ele>
        <time>2022-06-05T09:53:03Z</time>
      </trkpt>
      <trkpt lat="47.01642" lon="-1.72163">
        <ele>88</ele>
        <time>2022-06-05T09:53:05Z</time>
      </trkpt>
      <trkpt lat="47.01649" lon="-1.72145">
        <ele>88</ele>
        <time>2022-06-05T09:53:07Z</time>
      </trkpt>
      <trkpt lat="47.01655" lon="-1.72127">
        <ele>87</ele>
        <time>2022-06-05T09:53:09Z</time>
      </trkpt>
      <trkpt lat="47.01662" lon="-1.72109">
        <ele>87</ele>
        <time>2022-06-05T09:53:11Z</time>
      </trkpt>
      <trkpt lat="47.01668" lon="-1.72091">
        <ele>87</ele>
        <time>2022-06-05T09:53:13Z</time>
      </trkpt>
      <trkpt lat="47.01674" lon="-1.72073">
        <ele>86</ele>
        <time>2022-06-05T09:53:15Z</time>
      </trkpt>
      <trkpt lat="47.0168" lon="-1.72055">
        <ele>86</ele>
        <time>2022-06-05T09:53:17Z</time>
      </trkpt>
      <trkpt lat="47.01686" lon="-1.72038">
        <ele>85</ele>
        <time>2022-06-05T09:53:19Z</time>
      </trkpt>
      <trkpt lat="47.01692" lon="-1.72021">
        <ele>85</ele>
        <time>2022-06-05T09:53:21Z</time>
      </trkpt>
      <trkpt lat="47.01697" lon="-1.72005">
        <ele>85</ele>
        <time>2022-06-05T09:53:23Z</time>
      </trkpt>
      <trkpt lat="47.01702" lon="-1.7199">
        <ele>85</ele>
        <time>2022-06-05T09:53:25Z</time>
      </trkpt>
      <trkpt lat="47.01708" lon="-1.71974">
        <ele>86</ele>
        <time>2022-06-05T09:53:27Z</time>
      </trkpt>
      <trkpt lat="47.01714" lon="-1.71957">
        <ele>86</ele>
        <time>2022-06-05T09:53:29Z</time>
      </trkpt>
      <trkpt lat="47.01719" lon="-1.71939">
        <ele>87</ele>
        <time>2022-06-05T09:53:31Z</time>
      </trkpt>
      <trkpt lat="47.01725" lon="-1.71921">
        <ele>88</ele>
        <time>2022-06-05T09:53:33Z</time>
      </trkpt>
      <trkpt lat="47.01732" lon="-1.71903">
        <ele>88</ele>
        <time>2022-06-05T09:53:35Z</time>
      </trkpt>
      <trkpt lat="47.01738" lon="-1.71885">
        <ele>88</ele>
        <time>2022-06-05T09:53:37Z</time>
      </trkpt>
      <trkpt lat="47.01744" lon="-1.71865">
        <ele>88</ele>
        <time>2022-06-05T09:53:39Z</time>
      </trkpt>
      <trkpt lat="47.0175" lon="-1.71847">
        <ele>88</ele>
        <time>2022-06-05T09:53:41Z</time>
      </trkpt>
      <trkpt lat="47.01757" lon="-1.71828">
        <ele>88</ele>
        <time>2022-06-05T09:53:43Z</time>
      </trkpt>
      <trkpt lat="47.01763" lon="-1.7181">
        <ele>88</ele>
        <time>2022-06-05T09:53:45Z</time>
      </trkpt>
      <trkpt lat="47.01769" lon="-1.71793">
        <ele>89</ele>
        <time>2022-06-05T09:53:47Z</time>
      </trkpt>
      <trkpt lat="47.01776" lon="-1.71774">
        <ele>89</ele>
        <time>2022-06-05T09:53:49Z</time>
      </trkpt>
      <trkpt lat="47.01782" lon="-1.71756">
        <ele>90</ele>
        <time>2022-06-05T09:53:51Z</time>
      </trkpt>
      <trkpt lat="47.01787" lon="-1.71738">
        <ele>90</ele>
        <time>2022-06-05T09:53:53Z</time>
      </trkpt>
      <trkpt lat="47.01794" lon="-1.71719">
        <ele>90</ele>
        <time>2022-06-05T09:53:55Z</time>
      </trkpt>
      <trkpt lat="47.018" lon="-1.717">
        <ele>90</ele>
        <time>2022-06-05T09:53:57Z</time>
      </trkpt>
      <trkpt lat="47.01807" lon="-1.71681">
        <ele>90</ele>
        <time>2022-06-05T09:53:59Z</time>
      </trkpt>
      <trkpt lat="47.01813" lon="-1.71661">
        <ele>90</ele>
        <time>2022-06-05T09:54:01Z</time>
      </trkpt>
      <trkpt lat="47.0182" lon="-1.71641">
        <ele>89</ele>
        <time>2022-06-05T09:54:03Z</time>
      </trkpt>
      <trkpt lat="47.01828" lon="-1.71621">
        <ele>87</ele>
        <time>2022-06-05T09:54:05Z</time>
      </trkpt>
      <trkpt lat="47.01836" lon="-1.71604">
        <ele>88</ele>
        <time>2022-06-05T09:54:07Z</time>
      </trkpt>
      <trkpt lat="47.01846" lon="-1.71588">
        <ele>88</ele>
        <time>2022-06-05T09:54:09Z</time>
      </trkpt>
      <trkpt lat="47.01856" lon="-1.71572">
        <ele>88</ele>
        <time>2022-06-05T09:54:11Z</time>
      </trkpt>
      <trkpt lat="47.01865" lon="-1.71556">
        <ele>88</ele>
        <time>2022-06-05T09:54:13Z</time>
      </trkpt>
      <trkpt lat="47.01874" lon="-1.71541">
        <ele>89</ele>
        <time>2022-06-05T09:54:15Z</time>
      </trkpt>
      <trkpt lat="47.01884" lon="-1.71526">
        <ele>88</ele>
        <time>2022-06-05T09:54:17Z</time>
      </trkpt>
      <trkpt lat="47.01893" lon="-1.7151">
        <ele>87</ele>
        <time>2022-06-05T09:54:19Z</time>
      </trkpt>
      <trkpt lat="47.01904" lon="-1.71492">
        <ele>86</ele>
        <time>2022-06-05T09:54:21Z</time>
      </trkpt>
      <trkpt lat="47.01919" lon="-1.71469">
        <ele>86</ele>
        <time>2022-06-05T09:54:24Z</time>
      </trkpt>
      <trkpt lat="47.01934" lon="-1.71445">
        <ele>84</ele>
        <time>2022-06-05T09:54:27Z</time>
      </trkpt>
      <trkpt lat="47.01944" lon="-1.7143">
        <ele>83</ele>
        <time>2022-06-05T09:54:29Z</time>
      </trkpt>
      <trkpt lat="47.01959" lon="-1.71407">
        <ele>83</ele>
        <time>2022-06-05T09:54:32Z</time>
      </trkpt>
      <trkpt lat="47.01969" lon="-1.71392">
        <ele>82</ele>
        <time>2022-06-05T09:54:34Z</time>
      </trkpt>
      <trkpt lat="47.01979" lon="-1.71378">
        <ele>82</ele>
        <time>2022-06-05T09:54:36Z</time>
      </trkpt>
      <trkpt lat="47.01995" lon="-1.71359">
        <ele>82</ele>
        <time>2022-06-05T09:54:39Z</time>
      </trkpt>
      <trkpt lat="47.02006" lon="-1.71346">
        <ele>83</ele>
        <time>2022-06-05T09:54:41Z</time>
      </trkpt>
      <trkpt lat="47.02024" lon="-1.71328">
        <ele>83</ele>
        <time>2022-06-05T09:54:44Z</time>
      </trkpt>
      <trkpt lat="47.02041" lon="-1.71307">
        <ele>83</ele>
        <time>2022-06-05T09:54:47Z</time>
      </trkpt>
      <trkpt lat="47.02051" lon="-1.7129">
        <ele>83</ele>
        <time>2022-06-05T09:54:49Z</time>
      </trkpt>
      <trkpt lat="47.0206" lon="-1.71273">
        <ele>82</ele>
        <time>2022-06-05T09:54:51Z</time>
      </trkpt>
      <trkpt lat="47.02069" lon="-1.71252">
        <ele>80</ele>
        <time>2022-06-05T09:54:53Z</time>
      </trkpt>
      <trkpt lat="47.02078" lon="-1.71234">
        <ele>80</ele>
        <time>2022-06-05T09:54:55Z</time>
      </trkpt>
      <trkpt lat="47.02087" lon="-1.71215">
        <ele>80</ele>
        <time>2022-06-05T09:54:57Z</time>
      </trkpt>
      <trkpt lat="47.02095" lon="-1.71196">
        <ele>79</ele>
        <time>2022-06-05T09:54:59Z</time>
      </trkpt>
      <trkpt lat="47.02102" lon="-1.71178">
        <ele>79</ele>
        <time>2022-06-05T09:55:01Z</time>
      </trkpt>
      <trkpt lat="47.02109" lon="-1.71157">
        <ele>79</ele>
        <time>2022-06-05T09:55:03Z</time>
      </trkpt>
      <trkpt lat="47.02114" lon="-1.7114">
        <ele>79</ele>
        <time>2022-06-05T09:55:05Z</time>
      </trkpt>
      <trkpt lat="47.0212" lon="-1.71123">
        <ele>80</ele>
        <time>2022-06-05T09:55:07Z</time>
      </trkpt>
      <trkpt lat="47.02127" lon="-1.71105">
        <ele>82</ele>
        <time>2022-06-05T09:55:09Z</time>
      </trkpt>
      <trkpt lat="47.02136" lon="-1.71086">
        <ele>81</ele>
        <time>2022-06-05T09:55:11Z</time>
      </trkpt>
      <trkpt lat="47.02144" lon="-1.71068">
        <ele>81</ele>
        <time>2022-06-05T09:55:13Z</time>
      </trkpt>
      <trkpt lat="47.02153" lon="-1.7105">
        <ele>80</ele>
        <time>2022-06-05T09:55:15Z</time>
      </trkpt>
      <trkpt lat="47.02162" lon="-1.71032">
        <ele>80</ele>
        <time>2022-06-05T09:55:17Z</time>
      </trkpt>
      <trkpt lat="47.02171" lon="-1.71014">
        <ele>80</ele>
        <time>2022-06-05T09:55:19Z</time>
      </trkpt>
      <trkpt lat="47.0218" lon="-1.70997">
        <ele>80</ele>
        <time>2022-06-05T09:55:21Z</time>
      </trkpt>
      <trkpt lat="47.02189" lon="-1.70981">
        <ele>80</ele>
        <time>2022-06-05T09:55:23Z</time>
      </trkpt>
      <trkpt lat="47.02199" lon="-1.70965">
        <ele>81</ele>
        <time>2022-06-05T09:55:25Z</time>
      </trkpt>
      <trkpt lat="47.02208" lon="-1.70949">
        <ele>81</ele>
        <time>2022-06-05T09:55:27Z</time>
      </trkpt>
      <trkpt lat="47.02217" lon="-1.70931">
        <ele>81</ele>
        <time>2022-06-05T09:55:29Z</time>
      </trkpt>
      <trkpt lat="47.02227" lon="-1.70915">
        <ele>81</ele>
        <time>2022-06-05T09:55:31Z</time>
      </trkpt>
      <trkpt lat="47.02238" lon="-1.70898">
        <ele>82</ele>
        <time>2022-06-05T09:55:33Z</time>
      </trkpt>
      <trkpt lat="47.02248" lon="-1.70882">
        <ele>82</ele>
        <time>2022-06-05T09:55:35Z</time>
      </trkpt>
      <trkpt lat="47.02257" lon="-1.70866">
        <ele>82</ele>
        <time>2022-06-05T09:55:37Z</time>
      </trkpt>
      <trkpt lat="47.02268" lon="-1.7085">
        <ele>81</ele>
        <time>2022-06-05T09:55:39Z</time>
      </trkpt>
      <trkpt lat="47.02278" lon="-1.70833">
        <ele>80</ele>
        <time>2022-06-05T09:55:41Z</time>
      </trkpt>
      <trkpt lat="47.0229" lon="-1.70817">
        <ele>78</ele>
        <time>2022-06-05T09:55:43Z</time>
      </trkpt>
      <trkpt lat="47.02301" lon="-1.70801">
        <ele>78</ele>
        <time>2022-06-05T09:55:45Z</time>
      </trkpt>
      <trkpt lat="47.02311" lon="-1.70785">
        <ele>78</ele>
        <time>2022-06-05T09:55:47Z</time>
      </trkpt>
      <trkpt lat="47.02322" lon="-1.70769">
        <ele>78</ele>
        <time>2022-06-05T09:55:49Z</time>
      </trkpt>
      <trkpt lat="47.02332" lon="-1.70753">
        <ele>77</ele>
        <time>2022-06-05T09:55:51Z</time>
      </trkpt>
      <trkpt lat="47.02342" lon="-1.70737">
        <ele>77</ele>
        <time>2022-06-05T09:55:53Z</time>
      </trkpt>
      <trkpt lat="47.02352" lon="-1.70723">
        <ele>77</ele>
        <time>2022-06-05T09:55:55Z</time>
      </trkpt>
      <trkpt lat="47.02362" lon="-1.70708">
        <ele>77</ele>
        <time>2022-06-05T09:55:57Z</time>
      </trkpt>
      <trkpt lat="47.02372" lon="-1.70693">
        <ele>77</ele>
        <time>2022-06-05T09:55:59Z</time>
      </trkpt>
      <trkpt lat="47.02382" lon="-1.70678">
        <ele>77</ele>
        <time>2022-06-05T09:56:01Z</time>
      </trkpt>
      <trkpt lat="47.02392" lon="-1.70662">
        <ele>77</ele>
        <time>2022-06-05T09:56:03Z</time>
      </trkpt>
      <trkpt lat="47.02402" lon="-1.70647">
        <ele>78</ele>
        <time>2022-06-05T09:56:05Z</time>
      </trkpt>
      <trkpt lat="47.02411" lon="-1.70634">
        <ele>78</ele>
        <time>2022-06-05T09:56:07Z</time>
      </trkpt>
      <trkpt lat="47.0242" lon="-1.70622">
        <ele>79</ele>
        <time>2022-06-05T09:56:09Z</time>
      </trkpt>
      <trkpt lat="47.0243" lon="-1.70608">
        <ele>80</ele>
        <time>2022-06-05T09:56:11Z</time>
      </trkpt>
      <trkpt lat="47.0244" lon="-1.70593">
        <ele>81</ele>
        <time>2022-06-05T09:56:13Z</time>
      </trkpt>
      <trkpt lat="47.0245" lon="-1.70577">
        <ele>81</ele>
        <time>2022-06-05T09:56:15Z</time>
      </trkpt>
      <trkpt lat="47.02461" lon="-1.70561">
        <ele>80</ele>
        <time>2022-06-05T09:56:17Z</time>
      </trkpt>
      <trkpt lat="47.02473" lon="-1.70547">
        <ele>80</ele>
        <time>2022-06-05T09:56:19Z</time>
      </trkpt>
      <trkpt lat="47.02486" lon="-1.70534">
        <ele>80</ele>
        <time>2022-06-05T09:56:21Z</time>
      </trkpt>
      <trkpt lat="47.02498" lon="-1.70523">
        <ele>81</ele>
        <time>2022-06-05T09:56:23Z</time>
      </trkpt>
      <trkpt lat="47.02511" lon="-1.7051">
        <ele>80</ele>
        <time>2022-06-05T09:56:25Z</time>
      </trkpt>
      <trkpt lat="47.02523" lon="-1.70499">
        <ele>81</ele>
        <time>2022-06-05T09:56:27Z</time>
      </trkpt>
      <trkpt lat="47.02536" lon="-1.70488">
        <ele>80</ele>
        <time>2022-06-05T09:56:29Z</time>
      </trkpt>
      <trkpt lat="47.02548" lon="-1.70477">
        <ele>79</ele>
        <time>2022-06-05T09:56:31Z</time>
      </trkpt>
      <trkpt lat="47.0256" lon="-1.70467">
        <ele>79</ele>
        <time>2022-06-05T09:56:33Z</time>
      </trkpt>
      <trkpt lat="47.02572" lon="-1.70456">
        <ele>80</ele>
        <time>2022-06-05T09:56:35Z</time>
      </trkpt>
      <trkpt lat="47.02585" lon="-1.70444">
        <ele>80</ele>
        <time>2022-06-05T09:56:37Z</time>
      </trkpt>
      <trkpt lat="47.02597" lon="-1.70433">
        <ele>79</ele>
        <time>2022-06-05T09:56:39Z</time>
      </trkpt>
      <trkpt lat="47.02609" lon="-1.70421">
        <ele>79</ele>
        <time>2022-06-05T09:56:41Z</time>
      </trkpt>
      <trkpt lat="47.02621" lon="-1.7041">
        <ele>78</ele>
        <time>2022-06-05T09:56:43Z</time>
      </trkpt>
      <trkpt lat="47.02632" lon="-1.70397">
        <ele>79</ele>
        <time>2022-06-05T09:56:45Z</time>
      </trkpt>
      <trkpt lat="47.02643" lon="-1.70384">
        <ele>78</ele>
        <time>2022-06-05T09:56:47Z</time>
      </trkpt>
      <trkpt lat="47.02653" lon="-1.70369">
        <ele>78</ele>
        <time>2022-06-05T09:56:49Z</time>
      </trkpt>
      <trkpt lat="47.02662" lon="-1.70356">
        <ele>78</ele>
        <time>2022-06-05T09:56:51Z</time>
      </trkpt>
      <trkpt lat="47.02668" lon="-1.70341">
        <ele>78</ele>
        <time>2022-06-05T09:56:53Z</time>
      </trkpt>
      <trkpt lat="47.02658" lon="-1.70328">
        <ele>78</ele>
        <time>2022-06-05T09:56:55Z</time>
      </trkpt>
      <trkpt lat="47.02645" lon="-1.7032">
        <ele>77</ele>
        <time>2022-06-05T09:56:57Z</time>
      </trkpt>
      <trkpt lat="47.02632" lon="-1.7031">
        <ele>76</ele>
        <time>2022-06-05T09:56:59Z</time>
      </trkpt>
      <trkpt lat="47.02619" lon="-1.70302">
        <ele>76</ele>
        <time>2022-06-05T09:57:01Z</time>
      </trkpt>
      <trkpt lat="47.02605" lon="-1.70295">
        <ele>76</ele>
        <time>2022-06-05T09:57:03Z</time>
      </trkpt>
      <trkpt lat="47.02592" lon="-1.70289">
        <ele>76</ele>
        <time>2022-06-05T09:57:05Z</time>
      </trkpt>
      <trkpt lat="47.02578" lon="-1.70284">
        <ele>76</ele>
        <time>2022-06-05T09:57:07Z</time>
      </trkpt>
      <trkpt lat="47.02564" lon="-1.70281">
        <ele>77</ele>
        <time>2022-06-05T09:57:09Z</time>
      </trkpt>
      <trkpt lat="47.0255" lon="-1.70277">
        <ele>77</ele>
        <time>2022-06-05T09:57:11Z</time>
      </trkpt>
      <trkpt lat="47.02535" lon="-1.70274">
        <ele>77</ele>
        <time>2022-06-05T09:57:13Z</time>
      </trkpt>
      <trkpt lat="47.02521" lon="-1.70268">
        <ele>77</ele>
        <time>2022-06-05T09:57:15Z</time>
      </trkpt>
      <trkpt lat="47.02509" lon="-1.70255">
        <ele>78</ele>
        <time>2022-06-05T09:57:17Z</time>
      </trkpt>
      <trkpt lat="47.025" lon="-1.70239">
        <ele>78</ele>
        <time>2022-06-05T09:57:19Z</time>
      </trkpt>
      <trkpt lat="47.02491" lon="-1.70223">
        <ele>78</ele>
        <time>2022-06-05T09:57:21Z</time>
      </trkpt>
      <trkpt lat="47.02482" lon="-1.70207">
        <ele>78</ele>
        <time>2022-06-05T09:57:23Z</time>
      </trkpt>
      <trkpt lat="47.02474" lon="-1.70189">
        <ele>78</ele>
        <time>2022-06-05T09:57:25Z</time>
      </trkpt>
      <trkpt lat="47.02465" lon="-1.70173">
        <ele>78</ele>
        <time>2022-06-05T09:57:27Z</time>
      </trkpt>
      <trkpt lat="47.02457" lon="-1.70155">
        <ele>78</ele>
        <time>2022-06-05T09:57:29Z</time>
      </trkpt>
      <trkpt lat="47.02449" lon="-1.70138">
        <ele>78</ele>
        <time>2022-06-05T09:57:31Z</time>
      </trkpt>
      <trkpt lat="47.02442" lon="-1.7012">
        <ele>78</ele>
        <time>2022-06-05T09:57:33Z</time>
      </trkpt>
      <trkpt lat="47.02437" lon="-1.70101">
        <ele>78</ele>
        <time>2022-06-05T09:57:35Z</time>
      </trkpt>
      <trkpt lat="47.02434" lon="-1.7008">
        <ele>78</ele>
        <time>2022-06-05T09:57:37Z</time>
      </trkpt>
      <trkpt lat="47.02432" lon="-1.70059">
        <ele>78</ele>
        <time>2022-06-05T09:57:39Z</time>
      </trkpt>
      <trkpt lat="47.0243" lon="-1.70039">
        <ele>78</ele>
        <time>2022-06-05T09:57:41Z</time>
      </trkpt>
      <trkpt lat="47.02428" lon="-1.70019">
        <ele>79</ele>
        <time>2022-06-05T09:57:43Z</time>
      </trkpt>
      <trkpt lat="47.02427" lon="-1.69999">
        <ele>80</ele>
        <time>2022-06-05T09:57:45Z</time>
      </trkpt>
      <trkpt lat="47.02425" lon="-1.69979">
        <ele>81</ele>
        <time>2022-06-05T09:57:47Z</time>
      </trkpt>
      <trkpt lat="47.02424" lon="-1.69958">
        <ele>82</ele>
        <time>2022-06-05T09:57:49Z</time>
      </trkpt>
      <trkpt lat="47.02422" lon="-1.69938">
        <ele>83</ele>
        <time>2022-06-05T09:57:51Z</time>
      </trkpt>
      <trkpt lat="47.0242" lon="-1.69919">
        <ele>84</ele>
        <time>2022-06-05T09:57:53Z</time>
      </trkpt>
      <trkpt lat="47.02418" lon="-1.69899">
        <ele>84</ele>
        <time>2022-06-05T09:57:55Z</time>
      </trkpt>
      <trkpt lat="47.02414" lon="-1.69879">
        <ele>84</ele>
        <time>2022-06-05T09:57:57Z</time>
      </trkpt>
      <trkpt lat="47.02411" lon="-1.6986">
        <ele>84</ele>
        <time>2022-06-05T09:57:59Z</time>
      </trkpt>
      <trkpt lat="47.02405" lon="-1.69842">
        <ele>83</ele>
        <time>2022-06-05T09:58:01Z</time>
      </trkpt>
      <trkpt lat="47.02398" lon="-1.69825">
        <ele>83</ele>
        <time>2022-06-05T09:58:03Z</time>
      </trkpt>
      <trkpt lat="47.02389" lon="-1.69809">
        <ele>82</ele>
        <time>2022-06-05T09:58:05Z</time>
      </trkpt>
      <trkpt lat="47.0238" lon="-1.69794">
        <ele>81</ele>
        <time>2022-06-05T09:58:07Z</time>
      </trkpt>
      <trkpt lat="47.02371" lon="-1.69779">
        <ele>81</ele>
        <time>2022-06-05T09:58:09Z</time>
      </trkpt>
      <trkpt lat="47.02362" lon="-1.69764">
        <ele>81</ele>
        <time>2022-06-05T09:58:11Z</time>
      </trkpt>
      <trkpt lat="47.02354" lon="-1.6975">
        <ele>81</ele>
        <time>2022-06-05T09:58:13Z</time>
      </trkpt>
      <trkpt lat="47.02346" lon="-1.69736">
        <ele>81</ele>
        <time>2022-06-05T09:58:15Z</time>
      </trkpt>
      <trkpt lat="47.02338" lon="-1.69722">
        <ele>81</ele>
        <time>2022-06-05T09:58:17Z</time>
      </trkpt>
      <trkpt lat="47.0233" lon="-1.69708">
        <ele>81</ele>
        <time>2022-06-05T09:58:19Z</time>
      </trkpt>
      <trkpt lat="47.02322" lon="-1.69693">
        <ele>82</ele>
        <time>2022-06-05T09:58:21Z</time>
      </trkpt>
      <trkpt lat="47.02314" lon="-1.69679">
        <ele>82</ele>
        <time>2022-06-05T09:58:23Z</time>
      </trkpt>
      <trkpt lat="47.02306" lon="-1.69665">
        <ele>82</ele>
        <time>2022-06-05T09:58:25Z</time>
      </trkpt>
      <trkpt lat="47.02297" lon="-1.6965">
        <ele>82</ele>
        <time>2022-06-05T09:58:27Z</time>
      </trkpt>
      <trkpt lat="47.02289" lon="-1.69636">
        <ele>82</ele>
        <time>2022-06-05T09:58:29Z</time>
      </trkpt>
      <trkpt lat="47.02281" lon="-1.69621">
        <ele>82</ele>
        <time>2022-06-05T09:58:31Z</time>
      </trkpt>
      <trkpt lat="47.02273" lon="-1.69606">
        <ele>81</ele>
        <time>2022-06-05T09:58:33Z</time>
      </trkpt>
      <trkpt lat="47.02265" lon="-1.6959">
        <ele>81</ele>
        <time>2022-06-05T09:58:35Z</time>
      </trkpt>
      <trkpt lat="47.02258" lon="-1.69575">
        <ele>81</ele>
        <time>2022-06-05T09:58:37Z</time>
      </trkpt>
      <trkpt lat="47.02252" lon="-1.69558">
        <ele>81</ele>
        <time>2022-06-05T09:58:39Z</time>
      </trkpt>
      <trkpt lat="47.02246" lon="-1.6954">
        <ele>81</ele>
        <time>2022-06-05T09:58:41Z</time>
      </trkpt>
      <trkpt lat="47.02241" lon="-1.69522">
        <ele>81</ele>
        <time>2022-06-05T09:58:43Z</time>
      </trkpt>
      <trkpt lat="47.02236" lon="-1.69503">
        <ele>82</ele>
        <time>2022-06-05T09:58:45Z</time>
      </trkpt>
      <trkpt lat="47.02231" lon="-1.69484">
        <ele>82</ele>
        <time>2022-06-05T09:58:47Z</time>
      </trkpt>
      <trkpt lat="47.02227" lon="-1.69465">
        <ele>83</ele>
        <time>2022-06-05T09:58:49Z</time>
      </trkpt>
      <trkpt lat="47.02224" lon="-1.69446">
        <ele>83</ele>
        <time>2022-06-05T09:58:51Z</time>
      </trkpt>
      <trkpt lat="47.02221" lon="-1.69428">
        <ele>83</ele>
        <time>2022-06-05T09:58:53Z</time>
      </trkpt>
      <trkpt lat="47.02218" lon="-1.6941">
        <ele>83</ele>
        <time>2022-06-05T09:58:55Z</time>
      </trkpt>
      <trkpt lat="47.02215" lon="-1.69392">
        <ele>83</ele>
        <time>2022-06-05T09:58:57Z</time>
      </trkpt>
      <trkpt lat="47.02213" lon="-1.69372">
        <ele>83</ele>
        <time>2022-06-05T09:58:59Z</time>
      </trkpt>
      <trkpt lat="47.02213" lon="-1.69351">
        <ele>82</ele>
        <time>2022-06-05T09:59:01Z</time>
      </trkpt>
      <trkpt lat="47.02214" lon="-1.69332">
        <ele>82</ele>
        <time>2022-06-05T09:59:03Z</time>
      </trkpt>
      <trkpt lat="47.02218" lon="-1.69312">
        <ele>82</ele>
        <time>2022-06-05T09:59:05Z</time>
      </trkpt>
      <trkpt lat="47.02221" lon="-1.69293">
        <ele>82</ele>
        <time>2022-06-05T09:59:07Z</time>
      </trkpt>
      <trkpt lat="47.02224" lon="-1.69274">
        <ele>81</ele>
        <time>2022-06-05T09:59:09Z</time>
      </trkpt>
      <trkpt lat="47.02227" lon="-1.69255">
        <ele>81</ele>
        <time>2022-06-05T09:59:11Z</time>
      </trkpt>
      <trkpt lat="47.02227" lon="-1.69235">
        <ele>81</ele>
        <time>2022-06-05T09:59:13Z</time>
      </trkpt>
      <trkpt lat="47.02225" lon="-1.69214">
        <ele>81</ele>
        <time>2022-06-05T09:59:15Z</time>
      </trkpt>
      <trkpt lat="47.02223" lon="-1.69195">
        <ele>81</ele>
        <time>2022-06-05T09:59:17Z</time>
      </trkpt>
      <trkpt lat="47.02219" lon="-1.69178">
        <ele>81</ele>
        <time>2022-06-05T09:59:19Z</time>
      </trkpt>
      <trkpt lat="47.02214" lon="-1.6916">
        <ele>81</ele>
        <time>2022-06-05T09:59:21Z</time>
      </trkpt>
      <trkpt lat="47.0221" lon="-1.69142">
        <ele>82</ele>
        <time>2022-06-05T09:59:23Z</time>
      </trkpt>
      <trkpt lat="47.02206" lon="-1.69125">
        <ele>82</ele>
        <time>2022-06-05T09:59:25Z</time>
      </trkpt>
      <trkpt lat="47.02201" lon="-1.69107">
        <ele>83</ele>
        <time>2022-06-05T09:59:27Z</time>
      </trkpt>
      <trkpt lat="47.02196" lon="-1.6909">
        <ele>83</ele>
        <time>2022-06-05T09:59:29Z</time>
      </trkpt>
      <trkpt lat="47.02192" lon="-1.69072">
        <ele>82</ele>
        <time>2022-06-05T09:59:31Z</time>
      </trkpt>
      <trkpt lat="47.02188" lon="-1.69053">
        <ele>82</ele>
        <time>2022-06-05T09:59:33Z</time>
      </trkpt>
      <trkpt lat="47.02187" lon="-1.69034">
        <ele>82</ele>
        <time>2022-06-05T09:59:35Z</time>
      </trkpt>
      <trkpt lat="47.02187" lon="-1.69015">
        <ele>82</ele>
        <time>2022-06-05T09:59:37Z</time>
      </trkpt>
      <trkpt lat="47.02187" lon="-1.68995">
        <ele>82</ele>
        <time>2022-06-05T09:59:39Z</time>
      </trkpt>
      <trkpt lat="47.02187" lon="-1.68976">
        <ele>83</ele>
        <time>2022-06-05T09:59:41Z</time>
      </trkpt>
      <trkpt lat="47.02187" lon="-1.68956">
        <ele>82</ele>
        <time>2022-06-05T09:59:43Z</time>
      </trkpt>
      <trkpt lat="47.02188" lon="-1.68938">
        <ele>82</ele>
        <time>2022-06-05T09:59:45Z</time>
      </trkpt>
      <trkpt lat="47.02189" lon="-1.68919">
        <ele>82</ele>
        <time>2022-06-05T09:59:47Z</time>
      </trkpt>
      <trkpt lat="47.0219" lon="-1.68899">
        <ele>82</ele>
        <time>2022-06-05T09:59:49Z</time>
      </trkpt>
      <trkpt lat="47.02191" lon="-1.6888">
        <ele>82</ele>
        <time>2022-06-05T09:59:51Z</time>
      </trkpt>
      <trkpt lat="47.02194" lon="-1.6886">
        <ele>82</ele>
        <time>2022-06-05T09:59:53Z</time>
      </trkpt>
      <trkpt lat="47.02195" lon="-1.68842">
        <ele>82</ele>
        <time>2022-06-05T09:59:55Z</time>
      </trkpt>
      <trkpt lat="47.02197" lon="-1.68826">
        <ele>82</ele>
        <time>2022-06-05T09:59:57Z</time>
      </trkpt>
      <trkpt lat="47.02198" lon="-1.68811">
        <ele>82</ele>
        <time>2022-06-05T09:59:59Z</time>
      </trkpt>
      <trkpt lat="47.02195" lon="-1.68795">
        <ele>82</ele>
        <time>2022-06-05T10:00:02Z</time>
      </trkpt>
      <trkpt lat="47.02199" lon="-1.68778">
        <ele>83</ele>
        <time>2022-06-05T10:00:05Z</time>
      </trkpt>
      <trkpt lat="47.02207" lon="-1.68765">
        <ele>84</ele>
        <time>2022-06-05T10:00:07Z</time>
      </trkpt>
      <trkpt lat="47.02215" lon="-1.68751">
        <ele>84</ele>
        <time>2022-06-05T10:00:09Z</time>
      </trkpt>
      <trkpt lat="47.02223" lon="-1.68737">
        <ele>85</ele>
        <time>2022-06-05T10:00:11Z</time>
      </trkpt>
      <trkpt lat="47.0223" lon="-1.68724">
        <ele>85</ele>
        <time>2022-06-05T10:00:13Z</time>
      </trkpt>
      <trkpt lat="47.02237" lon="-1.6871">
        <ele>86</ele>
        <time>2022-06-05T10:00:15Z</time>
      </trkpt>
      <trkpt lat="47.02245" lon="-1.68697">
        <ele>86</ele>
        <time>2022-06-05T10:00:17Z</time>
      </trkpt>
      <trkpt lat="47.02252" lon="-1.68684">
        <ele>86</ele>
        <time>2022-06-05T10:00:19Z</time>
      </trkpt>
      <trkpt lat="47.0226" lon="-1.6867">
        <ele>87</ele>
        <time>2022-06-05T10:00:21Z</time>
      </trkpt>
      <trkpt lat="47.02267" lon="-1.68657">
        <ele>88</ele>
        <time>2022-06-05T10:00:23Z</time>
      </trkpt>
      <trkpt lat="47.02274" lon="-1.68645">
        <ele>88</ele>
        <time>2022-06-05T10:00:25Z</time>
      </trkpt>
      <trkpt lat="47.02281" lon="-1.68633">
        <ele>89</ele>
        <time>2022-06-05T10:00:27Z</time>
      </trkpt>
      <trkpt lat="47.02288" lon="-1.6862">
        <ele>89</ele>
        <time>2022-06-05T10:00:29Z</time>
      </trkpt>
      <trkpt lat="47.02295" lon="-1.68607">
        <ele>90</ele>
        <time>2022-06-05T10:00:31Z</time>
      </trkpt>
      <trkpt lat="47.02302" lon="-1.68594">
        <ele>91</ele>
        <time>2022-06-05T10:00:33Z</time>
      </trkpt>
      <trkpt lat="47.02309" lon="-1.68581">
        <ele>91</ele>
        <time>2022-06-05T10:00:35Z</time>
      </trkpt>
      <trkpt lat="47.02316" lon="-1.68569">
        <ele>92</ele>
        <time>2022-06-05T10:00:37Z</time>
      </trkpt>
      <trkpt lat="47.02323" lon="-1.68558">
        <ele>92</ele>
        <time>2022-06-05T10:00:39Z</time>
      </trkpt>
      <trkpt lat="47.0233" lon="-1.68545">
        <ele>93</ele>
        <time>2022-06-05T10:00:41Z</time>
      </trkpt>
      <trkpt lat="47.02336" lon="-1.68532">
        <ele>93</ele>
        <time>2022-06-05T10:00:43Z</time>
      </trkpt>
      <trkpt lat="47.02343" lon="-1.6852">
        <ele>93</ele>
        <time>2022-06-05T10:00:45Z</time>
      </trkpt>
      <trkpt lat="47.0235" lon="-1.68507">
        <ele>94</ele>
        <time>2022-06-05T10:00:47Z</time>
      </trkpt>
      <trkpt lat="47.02357" lon="-1.68494">
        <ele>94</ele>
        <time>2022-06-05T10:00:49Z</time>
      </trkpt>
      <trkpt lat="47.02364" lon="-1.6848">
        <ele>94</ele>
        <time>2022-06-05T10:00:51Z</time>
      </trkpt>
      <trkpt lat="47.0237" lon="-1.68466">
        <ele>95</ele>
        <time>2022-06-05T10:00:53Z</time>
      </trkpt>
      <trkpt lat="47.02375" lon="-1.68452">
        <ele>95</ele>
        <time>2022-06-05T10:00:55Z</time>
      </trkpt>
      <trkpt lat="47.02381" lon="-1.68437">
        <ele>96</ele>
        <time>2022-06-05T10:00:57Z</time>
      </trkpt>
      <trkpt lat="47.02387" lon="-1.68421">
        <ele>96</ele>
        <time>2022-06-05T10:00:59Z</time>
      </trkpt>
      <trkpt lat="47.02393" lon="-1.68405">
        <ele>96</ele>
        <time>2022-06-05T10:01:01Z</time>
      </trkpt>
      <trkpt lat="47.02399" lon="-1.68388">
        <ele>96</ele>
        <time>2022-06-05T10:01:03Z</time>
      </trkpt>
      <trkpt lat="47.02405" lon="-1.6837">
        <ele>95</ele>
        <time>2022-06-05T10:01:05Z</time>
      </trkpt>
      <trkpt lat="47.02412" lon="-1.68352">
        <ele>95</ele>
        <time>2022-06-05T10:01:07Z</time>
      </trkpt>
      <trkpt lat="47.02419" lon="-1.68335">
        <ele>94</ele>
        <time>2022-06-05T10:01:09Z</time>
      </trkpt>
      <trkpt lat="47.02426" lon="-1.68316">
        <ele>94</ele>
        <time>2022-06-05T10:01:11Z</time>
      </trkpt>
      <trkpt lat="47.02432" lon="-1.68298">
        <ele>94</ele>
        <time>2022-06-05T10:01:13Z</time>
      </trkpt>
      <trkpt lat="47.02439" lon="-1.68279">
        <ele>94</ele>
        <time>2022-06-05T10:01:15Z</time>
      </trkpt>
      <trkpt lat="47.02447" lon="-1.68259">
        <ele>94</ele>
        <time>2022-06-05T10:01:17Z</time>
      </trkpt>
      <trkpt lat="47.02454" lon="-1.68239">
        <ele>94</ele>
        <time>2022-06-05T10:01:19Z</time>
      </trkpt>
      <trkpt lat="47.02461" lon="-1.68219">
        <ele>94</ele>
        <time>2022-06-05T10:01:21Z</time>
      </trkpt>
      <trkpt lat="47.02469" lon="-1.68198">
        <ele>93</ele>
        <time>2022-06-05T10:01:23Z</time>
      </trkpt>
      <trkpt lat="47.02477" lon="-1.68177">
        <ele>93</ele>
        <time>2022-06-05T10:01:25Z</time>
      </trkpt>
      <trkpt lat="47.02485" lon="-1.68155">
        <ele>93</ele>
        <time>2022-06-05T10:01:27Z</time>
      </trkpt>
      <trkpt lat="47.02493" lon="-1.68134">
        <ele>92</ele>
        <time>2022-06-05T10:01:29Z</time>
      </trkpt>
      <trkpt lat="47.02501" lon="-1.68112">
        <ele>92</ele>
        <time>2022-06-05T10:01:31Z</time>
      </trkpt>
      <trkpt lat="47.02509" lon="-1.6809">
        <ele>93</ele>
        <time>2022-06-05T10:01:33Z</time>
      </trkpt>
      <trkpt lat="47.02516" lon="-1.68069">
        <ele>92</ele>
        <time>2022-06-05T10:01:35Z</time>
      </trkpt>
      <trkpt lat="47.02524" lon="-1.68048">
        <ele>93</ele>
        <time>2022-06-05T10:01:37Z</time>
      </trkpt>
      <trkpt lat="47.02532" lon="-1.68028">
        <ele>92</ele>
        <time>2022-06-05T10:01:39Z</time>
      </trkpt>
      <trkpt lat="47.0254" lon="-1.68007">
        <ele>92</ele>
        <time>2022-06-05T10:01:41Z</time>
      </trkpt>
      <trkpt lat="47.02547" lon="-1.67986">
        <ele>92</ele>
        <time>2022-06-05T10:01:43Z</time>
      </trkpt>
      <trkpt lat="47.02555" lon="-1.67965">
        <ele>91</ele>
        <time>2022-06-05T10:01:45Z</time>
      </trkpt>
      <trkpt lat="47.02563" lon="-1.67944">
        <ele>91</ele>
        <time>2022-06-05T10:01:47Z</time>
      </trkpt>
      <trkpt lat="47.02571" lon="-1.67923">
        <ele>91</ele>
        <time>2022-06-05T10:01:49Z</time>
      </trkpt>
      <trkpt lat="47.02579" lon="-1.67903">
        <ele>91</ele>
        <time>2022-06-05T10:01:51Z</time>
      </trkpt>
      <trkpt lat="47.02586" lon="-1.67883">
        <ele>91</ele>
        <time>2022-06-05T10:01:53Z</time>
      </trkpt>
      <trkpt lat="47.02594" lon="-1.67862">
        <ele>91</ele>
        <time>2022-06-05T10:01:55Z</time>
      </trkpt>
      <trkpt lat="47.02601" lon="-1.67842">
        <ele>91</ele>
        <time>2022-06-05T10:01:57Z</time>
      </trkpt>
      <trkpt lat="47.02609" lon="-1.67822">
        <ele>91</ele>
        <time>2022-06-05T10:01:59Z</time>
      </trkpt>
      <trkpt lat="47.02616" lon="-1.67801">
        <ele>91</ele>
        <time>2022-06-05T10:02:01Z</time>
      </trkpt>
      <trkpt lat="47.02624" lon="-1.67781">
        <ele>91</ele>
        <time>2022-06-05T10:02:03Z</time>
      </trkpt>
      <trkpt lat="47.02631" lon="-1.67761">
        <ele>91</ele>
        <time>2022-06-05T10:02:05Z</time>
      </trkpt>
      <trkpt lat="47.02638" lon="-1.67741">
        <ele>91</ele>
        <time>2022-06-05T10:02:07Z</time>
      </trkpt>
      <trkpt lat="47.02646" lon="-1.67721">
        <ele>91</ele>
        <time>2022-06-05T10:02:09Z</time>
      </trkpt>
      <trkpt lat="47.02653" lon="-1.67701">
        <ele>91</ele>
        <time>2022-06-05T10:02:11Z</time>
      </trkpt>
      <trkpt lat="47.02661" lon="-1.67681">
        <ele>91</ele>
        <time>2022-06-05T10:02:13Z</time>
      </trkpt>
      <trkpt lat="47.02668" lon="-1.67661">
        <ele>91</ele>
        <time>2022-06-05T10:02:15Z</time>
      </trkpt>
      <trkpt lat="47.02676" lon="-1.67641">
        <ele>91</ele>
        <time>2022-06-05T10:02:17Z</time>
      </trkpt>
      <trkpt lat="47.02682" lon="-1.67622">
        <ele>91</ele>
        <time>2022-06-05T10:02:19Z</time>
      </trkpt>
      <trkpt lat="47.0269" lon="-1.67602">
        <ele>91</ele>
        <time>2022-06-05T10:02:21Z</time>
      </trkpt>
      <trkpt lat="47.02697" lon="-1.67583">
        <ele>91</ele>
        <time>2022-06-05T10:02:23Z</time>
      </trkpt>
      <trkpt lat="47.02704" lon="-1.67563">
        <ele>91</ele>
        <time>2022-06-05T10:02:25Z</time>
      </trkpt>
      <trkpt lat="47.02713" lon="-1.67541">
        <ele>90</ele>
        <time>2022-06-05T10:02:27Z</time>
      </trkpt>
      <trkpt lat="47.02721" lon="-1.67519">
        <ele>90</ele>
        <time>2022-06-05T10:02:29Z</time>
      </trkpt>
      <trkpt lat="47.0273" lon="-1.67497">
        <ele>90</ele>
        <time>2022-06-05T10:02:31Z</time>
      </trkpt>
      <trkpt lat="47.02739" lon="-1.67475">
        <ele>90</ele>
        <time>2022-06-05T10:02:33Z</time>
      </trkpt>
      <trkpt lat="47.02747" lon="-1.67452">
        <ele>90</ele>
        <time>2022-06-05T10:02:35Z</time>
      </trkpt>
      <trkpt lat="47.02755" lon="-1.67428">
        <ele>90</ele>
        <time>2022-06-05T10:02:37Z</time>
      </trkpt>
      <trkpt lat="47.02763" lon="-1.67405">
        <ele>90</ele>
        <time>2022-06-05T10:02:39Z</time>
      </trkpt>
      <trkpt lat="47.02771" lon="-1.67382">
        <ele>90</ele>
        <time>2022-06-05T10:02:41Z</time>
      </trkpt>
      <trkpt lat="47.02775" lon="-1.6737">
        <ele>90</ele>
        <time>2022-06-05T10:02:42Z</time>
      </trkpt>
      <trkpt lat="47.02783" lon="-1.67347">
        <ele>89</ele>
        <time>2022-06-05T10:02:44Z</time>
      </trkpt>
      <trkpt lat="47.02792" lon="-1.67324">
        <ele>89</ele>
        <time>2022-06-05T10:02:46Z</time>
      </trkpt>
      <trkpt lat="47.028" lon="-1.673">
        <ele>88</ele>
        <time>2022-06-05T10:02:48Z</time>
      </trkpt>
      <trkpt lat="47.02809" lon="-1.67277">
        <ele>88</ele>
        <time>2022-06-05T10:02:50Z</time>
      </trkpt>
      <trkpt lat="47.02813" lon="-1.67265">
        <ele>87</ele>
        <time>2022-06-05T10:02:51Z</time>
      </trkpt>
      <trkpt lat="47.02818" lon="-1.67253">
        <ele>87</ele>
        <time>2022-06-05T10:02:52Z</time>
      </trkpt>
      <trkpt lat="47.02822" lon="-1.67242">
        <ele>87</ele>
        <time>2022-06-05T10:02:53Z</time>
      </trkpt>
      <trkpt lat="47.02827" lon="-1.6723">
        <ele>87</ele>
        <time>2022-06-05T10:02:54Z</time>
      </trkpt>
      <trkpt lat="47.02831" lon="-1.67218">
        <ele>87</ele>
        <time>2022-06-05T10:02:55Z</time>
      </trkpt>
      <trkpt lat="47.02835" lon="-1.67206">
        <ele>86</ele>
        <time>2022-06-05T10:02:56Z</time>
      </trkpt>
      <trkpt lat="47.0284" lon="-1.67194">
        <ele>86</ele>
        <time>2022-06-05T10:02:57Z</time>
      </trkpt>
      <trkpt lat="47.02844" lon="-1.67182">
        <ele>86</ele>
        <time>2022-06-05T10:02:58Z</time>
      </trkpt>
      <trkpt lat="47.02853" lon="-1.67159">
        <ele>86</ele>
        <time>2022-06-05T10:03:00Z</time>
      </trkpt>
      <trkpt lat="47.02861" lon="-1.67137">
        <ele>86</ele>
        <time>2022-06-05T10:03:02Z</time>
      </trkpt>
      <trkpt lat="47.02869" lon="-1.67115">
        <ele>85</ele>
        <time>2022-06-05T10:03:04Z</time>
      </trkpt>
      <trkpt lat="47.02877" lon="-1.67094">
        <ele>85</ele>
        <time>2022-06-05T10:03:06Z</time>
      </trkpt>
      <trkpt lat="47.02885" lon="-1.67073">
        <ele>85</ele>
        <time>2022-06-05T10:03:08Z</time>
      </trkpt>
      <trkpt lat="47.02893" lon="-1.67052">
        <ele>85</ele>
        <time>2022-06-05T10:03:10Z</time>
      </trkpt>
      <trkpt lat="47.02901" lon="-1.67031">
        <ele>85</ele>
        <time>2022-06-05T10:03:12Z</time>
      </trkpt>
      <trkpt lat="47.02908" lon="-1.6701">
        <ele>85</ele>
        <time>2022-06-05T10:03:14Z</time>
      </trkpt>
      <trkpt lat="47.02916" lon="-1.66989">
        <ele>86</ele>
        <time>2022-06-05T10:03:16Z</time>
      </trkpt>
      <trkpt lat="47.02923" lon="-1.66968">
        <ele>86</ele>
        <time>2022-06-05T10:03:18Z</time>
      </trkpt>
      <trkpt lat="47.02931" lon="-1.66949">
        <ele>86</ele>
        <time>2022-06-05T10:03:20Z</time>
      </trkpt>
      <trkpt lat="47.02938" lon="-1.66929">
        <ele>86</ele>
        <time>2022-06-05T10:03:22Z</time>
      </trkpt>
      <trkpt lat="47.02946" lon="-1.6691">
        <ele>85</ele>
        <time>2022-06-05T10:03:24Z</time>
      </trkpt>
      <trkpt lat="47.02954" lon="-1.6689">
        <ele>85</ele>
        <time>2022-06-05T10:03:26Z</time>
      </trkpt>
      <trkpt lat="47.02961" lon="-1.66869">
        <ele>85</ele>
        <time>2022-06-05T10:03:28Z</time>
      </trkpt>
      <trkpt lat="47.02968" lon="-1.66848">
        <ele>85</ele>
        <time>2022-06-05T10:03:30Z</time>
      </trkpt>
      <trkpt lat="47.02975" lon="-1.66828">
        <ele>85</ele>
        <time>2022-06-05T10:03:32Z</time>
      </trkpt>
      <trkpt lat="47.02983" lon="-1.66808">
        <ele>85</ele>
        <time>2022-06-05T10:03:34Z</time>
      </trkpt>
      <trkpt lat="47.0299" lon="-1.66788">
        <ele>85</ele>
        <time>2022-06-05T10:03:36Z</time>
      </trkpt>
      <trkpt lat="47.02996" lon="-1.6677">
        <ele>85</ele>
        <time>2022-06-05T10:03:38Z</time>
      </trkpt>
      <trkpt lat="47.03004" lon="-1.66751">
        <ele>85</ele>
        <time>2022-06-05T10:03:40Z</time>
      </trkpt>
      <trkpt lat="47.0301" lon="-1.66732">
        <ele>85</ele>
        <time>2022-06-05T10:03:42Z</time>
      </trkpt>
      <trkpt lat="47.03017" lon="-1.66713">
        <ele>85</ele>
        <time>2022-06-05T10:03:44Z</time>
      </trkpt>
      <trkpt lat="47.03028" lon="-1.66683">
        <ele>84</ele>
        <time>2022-06-05T10:03:47Z</time>
      </trkpt>
      <trkpt lat="47.03035" lon="-1.66663">
        <ele>84</ele>
        <time>2022-06-05T10:03:49Z</time>
      </trkpt>
      <trkpt lat="47.03043" lon="-1.66641">
        <ele>83</ele>
        <time>2022-06-05T10:03:51Z</time>
      </trkpt>
      <trkpt lat="47.03052" lon="-1.66618">
        <ele>82</ele>
        <time>2022-06-05T10:03:53Z</time>
      </trkpt>
      <trkpt lat="47.0306" lon="-1.66595">
        <ele>81</ele>
        <time>2022-06-05T10:03:55Z</time>
      </trkpt>
      <trkpt lat="47.03064" lon="-1.66583">
        <ele>81</ele>
        <time>2022-06-05T10:03:56Z</time>
      </trkpt>
      <trkpt lat="47.03068" lon="-1.66571">
        <ele>80</ele>
        <time>2022-06-05T10:03:57Z</time>
      </trkpt>
      <trkpt lat="47.03073" lon="-1.66559">
        <ele>80</ele>
        <time>2022-06-05T10:03:58Z</time>
      </trkpt>
      <trkpt lat="47.03078" lon="-1.66546">
        <ele>79</ele>
        <time>2022-06-05T10:03:59Z</time>
      </trkpt>
      <trkpt lat="47.03083" lon="-1.66534">
        <ele>79</ele>
        <time>2022-06-05T10:04:00Z</time>
      </trkpt>
      <trkpt lat="47.03088" lon="-1.6652">
        <ele>79</ele>
        <time>2022-06-05T10:04:01Z</time>
      </trkpt>
      <trkpt lat="47.03092" lon="-1.66508">
        <ele>79</ele>
        <time>2022-06-05T10:04:02Z</time>
      </trkpt>
      <trkpt lat="47.03098" lon="-1.66495">
        <ele>78</ele>
        <time>2022-06-05T10:04:03Z</time>
      </trkpt>
      <trkpt lat="47.03103" lon="-1.66483">
        <ele>78</ele>
        <time>2022-06-05T10:04:04Z</time>
      </trkpt>
      <trkpt lat="47.03109" lon="-1.66472">
        <ele>78</ele>
        <time>2022-06-05T10:04:05Z</time>
      </trkpt>
      <trkpt lat="47.03123" lon="-1.66451">
        <ele>77</ele>
        <time>2022-06-05T10:04:07Z</time>
      </trkpt>
      <trkpt lat="47.03137" lon="-1.66433">
        <ele>77</ele>
        <time>2022-06-05T10:04:09Z</time>
      </trkpt>
      <trkpt lat="47.0315" lon="-1.66413">
        <ele>76</ele>
        <time>2022-06-05T10:04:11Z</time>
      </trkpt>
      <trkpt lat="47.03156" lon="-1.66403">
        <ele>76</ele>
        <time>2022-06-05T10:04:12Z</time>
      </trkpt>
      <trkpt lat="47.03163" lon="-1.66393">
        <ele>76</ele>
        <time>2022-06-05T10:04:13Z</time>
      </trkpt>
      <trkpt lat="47.03169" lon="-1.66382">
        <ele>75</ele>
        <time>2022-06-05T10:04:14Z</time>
      </trkpt>
      <trkpt lat="47.03181" lon="-1.6636">
        <ele>74</ele>
        <time>2022-06-05T10:04:16Z</time>
      </trkpt>
      <trkpt lat="47.03193" lon="-1.66336">
        <ele>73</ele>
        <time>2022-06-05T10:04:18Z</time>
      </trkpt>
      <trkpt lat="47.03199" lon="-1.66324">
        <ele>73</ele>
        <time>2022-06-05T10:04:19Z</time>
      </trkpt>
      <trkpt lat="47.03204" lon="-1.66311">
        <ele>73</ele>
        <time>2022-06-05T10:04:20Z</time>
      </trkpt>
      <trkpt lat="47.0321" lon="-1.66299">
        <ele>72</ele>
        <time>2022-06-05T10:04:21Z</time>
      </trkpt>
      <trkpt lat="47.03215" lon="-1.66286">
        <ele>72</ele>
        <time>2022-06-05T10:04:22Z</time>
      </trkpt>
      <trkpt lat="47.0322" lon="-1.66274">
        <ele>71</ele>
        <time>2022-06-05T10:04:23Z</time>
      </trkpt>
      <trkpt lat="47.0323" lon="-1.66249">
        <ele>70</ele>
        <time>2022-06-05T10:04:25Z</time>
      </trkpt>
      <trkpt lat="47.03235" lon="-1.66236">
        <ele>70</ele>
        <time>2022-06-05T10:04:26Z</time>
      </trkpt>
      <trkpt lat="47.0324" lon="-1.66224">
        <ele>70</ele>
        <time>2022-06-05T10:04:27Z</time>
      </trkpt>
      <trkpt lat="47.03245" lon="-1.66212">
        <ele>69</ele>
        <time>2022-06-05T10:04:28Z</time>
      </trkpt>
      <trkpt lat="47.0325" lon="-1.662">
        <ele>69</ele>
        <time>2022-06-05T10:04:29Z</time>
      </trkpt>
      <trkpt lat="47.03255" lon="-1.66188">
        <ele>69</ele>
        <time>2022-06-05T10:04:30Z</time>
      </trkpt>
      <trkpt lat="47.0326" lon="-1.66176">
        <ele>69</ele>
        <time>2022-06-05T10:04:31Z</time>
      </trkpt>
      <trkpt lat="47.03265" lon="-1.66164">
        <ele>68</ele>
        <time>2022-06-05T10:04:32Z</time>
      </trkpt>
      <trkpt lat="47.0327" lon="-1.66152">
        <ele>68</ele>
        <time>2022-06-05T10:04:33Z</time>
      </trkpt>
      <trkpt lat="47.03275" lon="-1.66141">
        <ele>68</ele>
        <time>2022-06-05T10:04:34Z</time>
      </trkpt>
      <trkpt lat="47.0328" lon="-1.6613">
        <ele>67</ele>
        <time>2022-06-05T10:04:35Z</time>
      </trkpt>
      <trkpt lat="47.03292" lon="-1.66114">
        <ele>67</ele>
        <time>2022-06-05T10:04:37Z</time>
      </trkpt>
      <trkpt lat="47.03307" lon="-1.66104">
        <ele>68</ele>
        <time>2022-06-05T10:04:39Z</time>
      </trkpt>
      <trkpt lat="47.03323" lon="-1.66101">
        <ele>68</ele>
        <time>2022-06-05T10:04:41Z</time>
      </trkpt>
      <trkpt lat="47.03338" lon="-1.66105">
        <ele>67</ele>
        <time>2022-06-05T10:04:43Z</time>
      </trkpt>
      <trkpt lat="47.03352" lon="-1.66113">
        <ele>67</ele>
        <time>2022-06-05T10:04:45Z</time>
      </trkpt>
      <trkpt lat="47.03365" lon="-1.66121">
        <ele>66</ele>
        <time>2022-06-05T10:04:47Z</time>
      </trkpt>
      <trkpt lat="47.03378" lon="-1.66119">
        <ele>65</ele>
        <time>2022-06-05T10:04:49Z</time>
      </trkpt>
      <trkpt lat="47.03387" lon="-1.66105">
        <ele>65</ele>
        <time>2022-06-05T10:04:51Z</time>
      </trkpt>
      <trkpt lat="47.03386" lon="-1.66084">
        <ele>65</ele>
        <time>2022-06-05T10:04:53Z</time>
      </trkpt>
      <trkpt lat="47.03384" lon="-1.66063">
        <ele>66</ele>
        <time>2022-06-05T10:04:55Z</time>
      </trkpt>
      <trkpt lat="47.03388" lon="-1.66043">
        <ele>67</ele>
        <time>2022-06-05T10:04:57Z</time>
      </trkpt>
      <trkpt lat="47.03395" lon="-1.66024">
        <ele>68</ele>
        <time>2022-06-05T10:04:59Z</time>
      </trkpt>
      <trkpt lat="47.034" lon="-1.66002">
        <ele>68</ele>
        <time>2022-06-05T10:05:01Z</time>
      </trkpt>
      <trkpt lat="47.034" lon="-1.65976">
        <ele>68</ele>
        <time>2022-06-05T10:05:03Z</time>
      </trkpt>
      <trkpt lat="47.03399" lon="-1.65951">
        <ele>68</ele>
        <time>2022-06-05T10:05:05Z</time>
      </trkpt>
      <trkpt lat="47.03396" lon="-1.65926">
        <ele>69</ele>
        <time>2022-06-05T10:05:07Z</time>
      </trkpt>
      <trkpt lat="47.03393" lon="-1.65904">
        <ele>69</ele>
        <time>2022-06-05T10:05:09Z</time>
      </trkpt>
      <trkpt lat="47.03387" lon="-1.65883">
        <ele>69</ele>
        <time>2022-06-05T10:05:11Z</time>
      </trkpt>
      <trkpt lat="47.0338" lon="-1.65864">
        <ele>70</ele>
        <time>2022-06-05T10:05:13Z</time>
      </trkpt>
      <trkpt lat="47.03372" lon="-1.65847">
        <ele>71</ele>
        <time>2022-06-05T10:05:15Z</time>
      </trkpt>
      <trkpt lat="47.03364" lon="-1.6583">
        <ele>71</ele>
        <time>2022-06-05T10:05:17Z</time>
      </trkpt>
      <trkpt lat="47.03356" lon="-1.65814">
        <ele>72</ele>
        <time>2022-06-05T10:05:19Z</time>
      </trkpt>
      <trkpt lat="47.03348" lon="-1.65798">
        <ele>72</ele>
        <time>2022-06-05T10:05:21Z</time>
      </trkpt>
      <trkpt lat="47.0334" lon="-1.6578">
        <ele>72</ele>
        <time>2022-06-05T10:05:23Z</time>
      </trkpt>
      <trkpt lat="47.03331" lon="-1.65761">
        <ele>71</ele>
        <time>2022-06-05T10:05:25Z</time>
      </trkpt>
      <trkpt lat="47.03323" lon="-1.65741">
        <ele>71</ele>
        <time>2022-06-05T10:05:27Z</time>
      </trkpt>
      <trkpt lat="47.03317" lon="-1.65719">
        <ele>71</ele>
        <time>2022-06-05T10:05:29Z</time>
      </trkpt>
      <trkpt lat="47.03313" lon="-1.65697">
        <ele>70</ele>
        <time>2022-06-05T10:05:31Z</time>
      </trkpt>
      <trkpt lat="47.03311" lon="-1.65674">
        <ele>70</ele>
        <time>2022-06-05T10:05:33Z</time>
      </trkpt>
      <trkpt lat="47.03311" lon="-1.65649">
        <ele>70</ele>
        <time>2022-06-05T10:05:35Z</time>
      </trkpt>
      <trkpt lat="47.03312" lon="-1.65626">
        <ele>69</ele>
        <time>2022-06-05T10:05:37Z</time>
      </trkpt>
      <trkpt lat="47.0331" lon="-1.65603">
        <ele>69</ele>
        <time>2022-06-05T10:05:39Z</time>
      </trkpt>
      <trkpt lat="47.03305" lon="-1.6558">
        <ele>68</ele>
        <time>2022-06-05T10:05:41Z</time>
      </trkpt>
      <trkpt lat="47.03306" lon="-1.65556">
        <ele>68</ele>
        <time>2022-06-05T10:05:43Z</time>
      </trkpt>
      <trkpt lat="47.03309" lon="-1.65531">
        <ele>68</ele>
        <time>2022-06-05T10:05:45Z</time>
      </trkpt>
      <trkpt lat="47.03305" lon="-1.65508">
        <ele>67</ele>
        <time>2022-06-05T10:05:47Z</time>
      </trkpt>
      <trkpt lat="47.03299" lon="-1.65485">
        <ele>66</ele>
        <time>2022-06-05T10:05:49Z</time>
      </trkpt>
      <trkpt lat="47.03293" lon="-1.65461">
        <ele>65</ele>
        <time>2022-06-05T10:05:51Z</time>
      </trkpt>
      <trkpt lat="47.03287" lon="-1.65437">
        <ele>65</ele>
        <time>2022-06-05T10:05:53Z</time>
      </trkpt>
      <trkpt lat="47.03282" lon="-1.65413">
        <ele>64</ele>
        <time>2022-06-05T10:05:55Z</time>
      </trkpt>
      <trkpt lat="47.03278" lon="-1.654">
        <ele>64</ele>
        <time>2022-06-05T10:05:56Z</time>
      </trkpt>
      <trkpt lat="47.03275" lon="-1.65387">
        <ele>63</ele>
        <time>2022-06-05T10:05:57Z</time>
      </trkpt>
      <trkpt lat="47.03272" lon="-1.65375">
        <ele>63</ele>
        <time>2022-06-05T10:05:58Z</time>
      </trkpt>
      <trkpt lat="47.03269" lon="-1.65362">
        <ele>63</ele>
        <time>2022-06-05T10:05:59Z</time>
      </trkpt>
      <trkpt lat="47.03266" lon="-1.65349">
        <ele>62</ele>
        <time>2022-06-05T10:06:00Z</time>
      </trkpt>
      <trkpt lat="47.03263" lon="-1.65335">
        <ele>62</ele>
        <time>2022-06-05T10:06:01Z</time>
      </trkpt>
      <trkpt lat="47.0326" lon="-1.65322">
        <ele>62</ele>
        <time>2022-06-05T10:06:02Z</time>
      </trkpt>
      <trkpt lat="47.03257" lon="-1.65309">
        <ele>61</ele>
        <time>2022-06-05T10:06:03Z</time>
      </trkpt>
      <trkpt lat="47.03253" lon="-1.65296">
        <ele>61</ele>
        <time>2022-06-05T10:06:04Z</time>
      </trkpt>
      <trkpt lat="47.0325" lon="-1.65283">
        <ele>61</ele>
        <time>2022-06-05T10:06:05Z</time>
      </trkpt>
      <trkpt lat="47.03247" lon="-1.6527">
        <ele>61</ele>
        <time>2022-06-05T10:06:06Z</time>
      </trkpt>
      <trkpt lat="47.03244" lon="-1.65258">
        <ele>61</ele>
        <time>2022-06-05T10:06:07Z</time>
      </trkpt>
      <trkpt lat="47.0324" lon="-1.65245">
        <ele>60</ele>
        <time>2022-06-05T10:06:08Z</time>
      </trkpt>
      <trkpt lat="47.03237" lon="-1.65233">
        <ele>60</ele>
        <time>2022-06-05T10:06:09Z</time>
      </trkpt>
      <trkpt lat="47.03229" lon="-1.6521">
        <ele>60</ele>
        <time>2022-06-05T10:06:11Z</time>
      </trkpt>
      <trkpt lat="47.03222" lon="-1.65188">
        <ele>60</ele>
        <time>2022-06-05T10:06:13Z</time>
      </trkpt>
      <trkpt lat="47.03214" lon="-1.65166">
        <ele>60</ele>
        <time>2022-06-05T10:06:15Z</time>
      </trkpt>
      <trkpt lat="47.03206" lon="-1.65146">
        <ele>61</ele>
        <time>2022-06-05T10:06:17Z</time>
      </trkpt>
      <trkpt lat="47.03199" lon="-1.65127">
        <ele>61</ele>
        <time>2022-06-05T10:06:19Z</time>
      </trkpt>
      <trkpt lat="47.03191" lon="-1.65108">
        <ele>61</ele>
        <time>2022-06-05T10:06:21Z</time>
      </trkpt>
      <trkpt lat="47.03183" lon="-1.6509">
        <ele>61</ele>
        <time>2022-06-05T10:06:23Z</time>
      </trkpt>
      <trkpt lat="47.03174" lon="-1.65073">
        <ele>61</ele>
        <time>2022-06-05T10:06:25Z</time>
      </trkpt>
      <trkpt lat="47.03165" lon="-1.65056">
        <ele>61</ele>
        <time>2022-06-05T10:06:27Z</time>
      </trkpt>
      <trkpt lat="47.03157" lon="-1.65039">
        <ele>62</ele>
        <time>2022-06-05T10:06:29Z</time>
      </trkpt>
      <trkpt lat="47.03148" lon="-1.65023">
        <ele>62</ele>
        <time>2022-06-05T10:06:31Z</time>
      </trkpt>
      <trkpt lat="47.03138" lon="-1.65008">
        <ele>62</ele>
        <time>2022-06-05T10:06:33Z</time>
      </trkpt>
      <trkpt lat="47.03129" lon="-1.64991">
        <ele>61</ele>
        <time>2022-06-05T10:06:35Z</time>
      </trkpt>
      <trkpt lat="47.0312" lon="-1.64975">
        <ele>62</ele>
        <time>2022-06-05T10:06:37Z</time>
      </trkpt>
      <trkpt lat="47.0311" lon="-1.6496">
        <ele>62</ele>
        <time>2022-06-05T10:06:39Z</time>
      </trkpt>
      <trkpt lat="47.03101" lon="-1.64944">
        <ele>62</ele>
        <time>2022-06-05T10:06:41Z</time>
      </trkpt>
      <trkpt lat="47.03092" lon="-1.64929">
        <ele>63</ele>
        <time>2022-06-05T10:06:43Z</time>
      </trkpt>
      <trkpt lat="47.03082" lon="-1.64914">
        <ele>63</ele>
        <time>2022-06-05T10:06:45Z</time>
      </trkpt>
      <trkpt lat="47.03073" lon="-1.64899">
        <ele>63</ele>
        <time>2022-06-05T10:06:47Z</time>
      </trkpt>
      <trkpt lat="47.03064" lon="-1.64884">
        <ele>64</ele>
        <time>2022-06-05T10:06:49Z</time>
      </trkpt>
      <trkpt lat="47.03055" lon="-1.64869">
        <ele>64</ele>
        <time>2022-06-05T10:06:51Z</time>
      </trkpt>
      <trkpt lat="47.03046" lon="-1.64854">
        <ele>64</ele>
        <time>2022-06-05T10:06:53Z</time>
      </trkpt>
      <trkpt lat="47.03036" lon="-1.64839">
        <ele>65</ele>
        <time>2022-06-05T10:06:55Z</time>
      </trkpt>
      <trkpt lat="47.03026" lon="-1.64824">
        <ele>64</ele>
        <time>2022-06-05T10:06:57Z</time>
      </trkpt>
      <trkpt lat="47.03017" lon="-1.6481">
        <ele>65</ele>
        <time>2022-06-05T10:06:59Z</time>
      </trkpt>
      <trkpt lat="47.03005" lon="-1.64799">
        <ele>65</ele>
        <time>2022-06-05T10:07:01Z</time>
      </trkpt>
      <trkpt lat="47.02992" lon="-1.64789">
        <ele>65</ele>
        <time>2022-06-05T10:07:03Z</time>
      </trkpt>
      <trkpt lat="47.02984" lon="-1.64773">
        <ele>65</ele>
        <time>2022-06-05T10:07:05Z</time>
      </trkpt>
      <trkpt lat="47.02979" lon="-1.64752">
        <ele>65</ele>
        <time>2022-06-05T10:07:07Z</time>
      </trkpt>
      <trkpt lat="47.02971" lon="-1.64733">
        <ele>65</ele>
        <time>2022-06-05T10:07:09Z</time>
      </trkpt>
      <trkpt lat="47.0296" lon="-1.64716">
        <ele>65</ele>
        <time>2022-06-05T10:07:11Z</time>
      </trkpt>
      <trkpt lat="47.02949" lon="-1.647">
        <ele>65</ele>
        <time>2022-06-05T10:07:13Z</time>
      </trkpt>
      <trkpt lat="47.02938" lon="-1.64684">
        <ele>66</ele>
        <time>2022-06-05T10:07:15Z</time>
      </trkpt>
      <trkpt lat="47.02928" lon="-1.64668">
        <ele>66</ele>
        <time>2022-06-05T10:07:17Z</time>
      </trkpt>
      <trkpt lat="47.02918" lon="-1.64652">
        <ele>67</ele>
        <time>2022-06-05T10:07:19Z</time>
      </trkpt>
      <trkpt lat="47.02907" lon="-1.64637">
        <ele>67</ele>
        <time>2022-06-05T10:07:21Z</time>
      </trkpt>
      <trkpt lat="47.02897" lon="-1.64623">
        <ele>68</ele>
        <time>2022-06-05T10:07:23Z</time>
      </trkpt>
      <trkpt lat="47.02888" lon="-1.64608">
        <ele>68</ele>
        <time>2022-06-05T10:07:25Z</time>
      </trkpt>
      <trkpt lat="47.02878" lon="-1.64594">
        <ele>69</ele>
        <time>2022-06-05T10:07:27Z</time>
      </trkpt>
      <trkpt lat="47.02868" lon="-1.64579">
        <ele>69</ele>
        <time>2022-06-05T10:07:29Z</time>
      </trkpt>
      <trkpt lat="47.02859" lon="-1.64564">
        <ele>69</ele>
        <time>2022-06-05T10:07:31Z</time>
      </trkpt>
      <trkpt lat="47.02849" lon="-1.64549">
        <ele>69</ele>
        <time>2022-06-05T10:07:33Z</time>
      </trkpt>
      <trkpt lat="47.0284" lon="-1.64534">
        <ele>69</ele>
        <time>2022-06-05T10:07:35Z</time>
      </trkpt>
      <trkpt lat="47.02831" lon="-1.64519">
        <ele>69</ele>
        <time>2022-06-05T10:07:37Z</time>
      </trkpt>
      <trkpt lat="47.02823" lon="-1.64502">
        <ele>69</ele>
        <time>2022-06-05T10:07:39Z</time>
      </trkpt>
      <trkpt lat="47.02814" lon="-1.64487">
        <ele>69</ele>
        <time>2022-06-05T10:07:41Z</time>
      </trkpt>
      <trkpt lat="47.02806" lon="-1.64471">
        <ele>69</ele>
        <time>2022-06-05T10:07:43Z</time>
      </trkpt>
      <trkpt lat="47.02798" lon="-1.64455">
        <ele>70</ele>
        <time>2022-06-05T10:07:45Z</time>
      </trkpt>
      <trkpt lat="47.0279" lon="-1.64436">
        <ele>69</ele>
        <time>2022-06-05T10:07:47Z</time>
      </trkpt>
      <trkpt lat="47.02781" lon="-1.6442">
        <ele>70</ele>
        <time>2022-06-05T10:07:49Z</time>
      </trkpt>
      <trkpt lat="47.02771" lon="-1.64405">
        <ele>70</ele>
        <time>2022-06-05T10:07:51Z</time>
      </trkpt>
      <trkpt lat="47.02759" lon="-1.64394">
        <ele>69</ele>
        <time>2022-06-05T10:07:53Z</time>
      </trkpt>
      <trkpt lat="47.02753" lon="-1.64376">
        <ele>69</ele>
        <time>2022-06-05T10:07:55Z</time>
      </trkpt>
      <trkpt lat="47.02762" lon="-1.6436">
        <ele>70</ele>
        <time>2022-06-05T10:07:57Z</time>
      </trkpt>
      <trkpt lat="47.02776" lon="-1.64354">
        <ele>70</ele>
        <time>2022-06-05T10:07:59Z</time>
      </trkpt>
      <trkpt lat="47.0279" lon="-1.64355">
        <ele>69</ele>
        <time>2022-06-05T10:08:01Z</time>
      </trkpt>
      <trkpt lat="47.02802" lon="-1.64348">
        <ele>69</ele>
        <time>2022-06-05T10:08:03Z</time>
      </trkpt>
      <trkpt lat="47.02816" lon="-1.64341">
        <ele>69</ele>
        <time>2022-06-05T10:08:05Z</time>
      </trkpt>
      <trkpt lat="47.02829" lon="-1.64335">
        <ele>69</ele>
        <time>2022-06-05T10:08:07Z</time>
      </trkpt>
      <trkpt lat="47.02841" lon="-1.64332">
        <ele>68</ele>
        <time>2022-06-05T10:08:09Z</time>
      </trkpt>
      <trkpt lat="47.02854" lon="-1.64332">
        <ele>68</ele>
        <time>2022-06-05T10:08:11Z</time>
      </trkpt>
      <trkpt lat="47.02867" lon="-1.64332">
        <ele>69</ele>
        <time>2022-06-05T10:08:13Z</time>
      </trkpt>
      <trkpt lat="47.02879" lon="-1.64332">
        <ele>69</ele>
        <time>2022-06-05T10:08:15Z</time>
      </trkpt>
      <trkpt lat="47.02891" lon="-1.64329">
        <ele>69</ele>
        <time>2022-06-05T10:08:17Z</time>
      </trkpt>
      <trkpt lat="47.02902" lon="-1.64321">
        <ele>69</ele>
        <time>2022-06-05T10:08:19Z</time>
      </trkpt>
      <trkpt lat="47.02914" lon="-1.64313">
        <ele>69</ele>
        <time>2022-06-05T10:08:21Z</time>
      </trkpt>
      <trkpt lat="47.02927" lon="-1.64304">
        <ele>69</ele>
        <time>2022-06-05T10:08:23Z</time>
      </trkpt>
      <trkpt lat="47.02939" lon="-1.64295">
        <ele>68</ele>
        <time>2022-06-05T10:08:25Z</time>
      </trkpt>
      <trkpt lat="47.02952" lon="-1.64287">
        <ele>68</ele>
        <time>2022-06-05T10:08:27Z</time>
      </trkpt>
      <trkpt lat="47.02966" lon="-1.64278">
        <ele>68</ele>
        <time>2022-06-05T10:08:29Z</time>
      </trkpt>
      <trkpt lat="47.0298" lon="-1.64269">
        <ele>67</ele>
        <time>2022-06-05T10:08:31Z</time>
      </trkpt>
      <trkpt lat="47.02994" lon="-1.64258">
        <ele>66</ele>
        <time>2022-06-05T10:08:33Z</time>
      </trkpt>
      <trkpt lat="47.03008" lon="-1.64247">
        <ele>66</ele>
        <time>2022-06-05T10:08:35Z</time>
      </trkpt>
      <trkpt lat="47.03022" lon="-1.64237">
        <ele>65</ele>
        <time>2022-06-05T10:08:37Z</time>
      </trkpt>
      <trkpt lat="47.03037" lon="-1.64228">
        <ele>65</ele>
        <time>2022-06-05T10:08:39Z</time>
      </trkpt>
      <trkpt lat="47.03051" lon="-1.6422">
        <ele>64</ele>
        <time>2022-06-05T10:08:41Z</time>
      </trkpt>
      <trkpt lat="47.03067" lon="-1.64214">
        <ele>64</ele>
        <time>2022-06-05T10:08:43Z</time>
      </trkpt>
      <trkpt lat="47.03082" lon="-1.64212">
        <ele>64</ele>
        <time>2022-06-05T10:08:45Z</time>
      </trkpt>
      <trkpt lat="47.03098" lon="-1.64214">
        <ele>64</ele>
        <time>2022-06-05T10:08:47Z</time>
      </trkpt>
      <trkpt lat="47.03113" lon="-1.64218">
        <ele>64</ele>
        <time>2022-06-05T10:08:49Z</time>
      </trkpt>
      <trkpt lat="47.03127" lon="-1.64222">
        <ele>63</ele>
        <time>2022-06-05T10:08:51Z</time>
      </trkpt>
      <trkpt lat="47.03143" lon="-1.64227">
        <ele>62</ele>
        <time>2022-06-05T10:08:53Z</time>
      </trkpt>
      <trkpt lat="47.03158" lon="-1.64231">
        <ele>62</ele>
        <time>2022-06-05T10:08:55Z</time>
      </trkpt>
      <trkpt lat="47.03173" lon="-1.64236">
        <ele>61</ele>
        <time>2022-06-05T10:08:57Z</time>
      </trkpt>
      <trkpt lat="47.03188" lon="-1.64238">
        <ele>61</ele>
        <time>2022-06-05T10:08:59Z</time>
      </trkpt>
      <trkpt lat="47.03204" lon="-1.64239">
        <ele>61</ele>
        <time>2022-06-05T10:09:01Z</time>
      </trkpt>
      <trkpt lat="47.03219" lon="-1.64238">
        <ele>60</ele>
        <time>2022-06-05T10:09:03Z</time>
      </trkpt>
      <trkpt lat="47.03234" lon="-1.64238">
        <ele>61</ele>
        <time>2022-06-05T10:09:05Z</time>
      </trkpt>
      <trkpt lat="47.03249" lon="-1.64238">
        <ele>61</ele>
        <time>2022-06-05T10:09:07Z</time>
      </trkpt>
      <trkpt lat="47.03263" lon="-1.64238">
        <ele>61</ele>
        <time>2022-06-05T10:09:09Z</time>
      </trkpt>
      <trkpt lat="47.03277" lon="-1.64239">
        <ele>61</ele>
        <time>2022-06-05T10:09:11Z</time>
      </trkpt>
      <trkpt lat="47.03292" lon="-1.64238">
        <ele>60</ele>
        <time>2022-06-05T10:09:13Z</time>
      </trkpt>
      <trkpt lat="47.03307" lon="-1.64236">
        <ele>60</ele>
        <time>2022-06-05T10:09:15Z</time>
      </trkpt>
      <trkpt lat="47.03321" lon="-1.64237">
        <ele>60</ele>
        <time>2022-06-05T10:09:17Z</time>
      </trkpt>
      <trkpt lat="47.03336" lon="-1.64238">
        <ele>60</ele>
        <time>2022-06-05T10:09:19Z</time>
      </trkpt>
      <trkpt lat="47.03351" lon="-1.64239">
        <ele>59</ele>
        <time>2022-06-05T10:09:21Z</time>
      </trkpt>
      <trkpt lat="47.03365" lon="-1.64241">
        <ele>59</ele>
        <time>2022-06-05T10:09:23Z</time>
      </trkpt>
      <trkpt lat="47.03379" lon="-1.64243">
        <ele>59</ele>
        <time>2022-06-05T10:09:25Z</time>
      </trkpt>
      <trkpt lat="47.03393" lon="-1.64247">
        <ele>59</ele>
        <time>2022-06-05T10:09:27Z</time>
      </trkpt>
      <trkpt lat="47.03406" lon="-1.64253">
        <ele>59</ele>
        <time>2022-06-05T10:09:29Z</time>
      </trkpt>
      <trkpt lat="47.03419" lon="-1.64258">
        <ele>60</ele>
        <time>2022-06-05T10:09:31Z</time>
      </trkpt>
      <trkpt lat="47.03432" lon="-1.64264">
        <ele>59</ele>
        <time>2022-06-05T10:09:33Z</time>
      </trkpt>
      <trkpt lat="47.03444" lon="-1.64269">
        <ele>59</ele>
        <time>2022-06-05T10:09:35Z</time>
      </trkpt>
      <trkpt lat="47.03457" lon="-1.64273">
        <ele>59</ele>
        <time>2022-06-05T10:09:37Z</time>
      </trkpt>
      <trkpt lat="47.0347" lon="-1.64277">
        <ele>59</ele>
        <time>2022-06-05T10:09:39Z</time>
      </trkpt>
      <trkpt lat="47.03483" lon="-1.64282">
        <ele>59</ele>
        <time>2022-06-05T10:09:41Z</time>
      </trkpt>
      <trkpt lat="47.03496" lon="-1.64288">
        <ele>58</ele>
        <time>2022-06-05T10:09:43Z</time>
      </trkpt>
      <trkpt lat="47.03509" lon="-1.64293">
        <ele>59</ele>
        <time>2022-06-05T10:09:45Z</time>
      </trkpt>
      <trkpt lat="47.03523" lon="-1.64298">
        <ele>59</ele>
        <time>2022-06-05T10:09:47Z</time>
      </trkpt>
      <trkpt lat="47.03536" lon="-1.64303">
        <ele>58</ele>
        <time>2022-06-05T10:09:49Z</time>
      </trkpt>
      <trkpt lat="47.0355" lon="-1.64304">
        <ele>58</ele>
        <time>2022-06-05T10:09:51Z</time>
      </trkpt>
      <trkpt lat="47.03563" lon="-1.64302">
        <ele>58</ele>
        <time>2022-06-05T10:09:53Z</time>
      </trkpt>
      <trkpt lat="47.03572" lon="-1.64294">
        <ele>58</ele>
        <time>2022-06-05T10:09:55Z</time>
      </trkpt>
      <trkpt lat="47.03569" lon="-1.64277">
        <ele>57</ele>
        <time>2022-06-05T10:09:57Z</time>
      </trkpt>
      <trkpt lat="47.03564" lon="-1.64258">
        <ele>57</ele>
        <time>2022-06-05T10:09:59Z</time>
      </trkpt>
      <trkpt lat="47.03559" lon="-1.6424">
        <ele>57</ele>
        <time>2022-06-05T10:10:01Z</time>
      </trkpt>
      <trkpt lat="47.03555" lon="-1.64223">
        <ele>57</ele>
        <time>2022-06-05T10:10:03Z</time>
      </trkpt>
      <trkpt lat="47.03553" lon="-1.64206">
        <ele>57</ele>
        <time>2022-06-05T10:10:05Z</time>
      </trkpt>
      <trkpt lat="47.0356" lon="-1.64191">
        <ele>56</ele>
        <time>2022-06-05T10:10:07Z</time>
      </trkpt>
      <trkpt lat="47.03571" lon="-1.64184">
        <ele>55</ele>
        <time>2022-06-05T10:10:09Z</time>
      </trkpt>
      <trkpt lat="47.03582" lon="-1.64178">
        <ele>55</ele>
        <time>2022-06-05T10:10:11Z</time>
      </trkpt>
      <trkpt lat="47.03593" lon="-1.64171">
        <ele>55</ele>
        <time>2022-06-05T10:10:13Z</time>
      </trkpt>
      <trkpt lat="47.03602" lon="-1.64165">
        <ele>56</ele>
        <time>2022-06-05T10:10:15Z</time>
      </trkpt>
      <trkpt lat="47.03611" lon="-1.64155">
        <ele>56</ele>
        <time>2022-06-05T10:10:19Z</time>
      </trkpt>
      <trkpt lat="47.0361" lon="-1.64139">
        <ele>57</ele>
        <time>2022-06-05T10:10:22Z</time>
      </trkpt>
      <trkpt lat="47.03605" lon="-1.64124">
        <ele>58</ele>
        <time>2022-06-05T10:10:24Z</time>
      </trkpt>
      <trkpt lat="47.03598" lon="-1.64109">
        <ele>59</ele>
        <time>2022-06-05T10:10:26Z</time>
      </trkpt>
      <trkpt lat="47.03591" lon="-1.64092">
        <ele>58</ele>
        <time>2022-06-05T10:10:28Z</time>
      </trkpt>
      <trkpt lat="47.03584" lon="-1.64076">
        <ele>57</ele>
        <time>2022-06-05T10:10:30Z</time>
      </trkpt>
      <trkpt lat="47.03578" lon="-1.6406">
        <ele>56</ele>
        <time>2022-06-05T10:10:32Z</time>
      </trkpt>
      <trkpt lat="47.03573" lon="-1.64047">
        <ele>57</ele>
        <time>2022-06-05T10:10:34Z</time>
      </trkpt>
      <trkpt lat="47.03575" lon="-1.64029">
        <ele>56</ele>
        <time>2022-06-05T10:10:37Z</time>
      </trkpt>
      <trkpt lat="47.03582" lon="-1.64017">
        <ele>56</ele>
        <time>2022-06-05T10:10:40Z</time>
      </trkpt>
      <trkpt lat="47.0359" lon="-1.64011">
        <ele>56</ele>
        <time>2022-06-05T10:10:46Z</time>
      </trkpt>
      <trkpt lat="47.036" lon="-1.6401">
        <ele>56</ele>
        <time>2022-06-05T10:10:52Z</time>
      </trkpt>
      <trkpt lat="47.03604" lon="-1.6401">
        <ele>53</ele>
        <time>2022-06-05T10:12:53Z</time>
      </trkpt>
      <trkpt lat="47.0361" lon="-1.64023">
        <ele>55</ele>
        <time>2022-06-05T10:13:25Z</time>
      </trkpt>
      <trkpt lat="47.03614" lon="-1.64037">
        <ele>55</ele>
        <time>2022-06-05T10:13:28Z</time>
      </trkpt>
      <trkpt lat="47.03623" lon="-1.64059">
        <ele>55</ele>
        <time>2022-06-05T10:13:32Z</time>
      </trkpt>
      <trkpt lat="47.03632" lon="-1.64078">
        <ele>55</ele>
        <time>2022-06-05T10:13:35Z</time>
      </trkpt>
      <trkpt lat="47.03637" lon="-1.64092">
        <ele>56</ele>
        <time>2022-06-05T10:13:37Z</time>
      </trkpt>
      <trkpt lat="47.03641" lon="-1.64104">
        <ele>55</ele>
        <time>2022-06-05T10:13:39Z</time>
      </trkpt>
      <trkpt lat="47.03649" lon="-1.6412">
        <ele>56</ele>
        <time>2022-06-05T10:13:42Z</time>
      </trkpt>
      <trkpt lat="47.03665" lon="-1.64127">
        <ele>56</ele>
        <time>2022-06-05T10:13:45Z</time>
      </trkpt>
      <trkpt lat="47.03677" lon="-1.64124">
        <ele>56</ele>
        <time>2022-06-05T10:13:47Z</time>
      </trkpt>
      <trkpt lat="47.03688" lon="-1.64121">
        <ele>56</ele>
        <time>2022-06-05T10:13:49Z</time>
      </trkpt>
      <trkpt lat="47.03701" lon="-1.64117">
        <ele>56</ele>
        <time>2022-06-05T10:13:51Z</time>
      </trkpt>
      <trkpt lat="47.03713" lon="-1.64114">
        <ele>56</ele>
        <time>2022-06-05T10:13:53Z</time>
      </trkpt>
      <trkpt lat="47.03726" lon="-1.64111">
        <ele>56</ele>
        <time>2022-06-05T10:13:55Z</time>
      </trkpt>
      <trkpt lat="47.0374" lon="-1.64108">
        <ele>55</ele>
        <time>2022-06-05T10:13:57Z</time>
      </trkpt>
      <trkpt lat="47.03752" lon="-1.64105">
        <ele>55</ele>
        <time>2022-06-05T10:13:59Z</time>
      </trkpt>
      <trkpt lat="47.03765" lon="-1.64102">
        <ele>54</ele>
        <time>2022-06-05T10:14:01Z</time>
      </trkpt>
      <trkpt lat="47.03778" lon="-1.64099">
        <ele>54</ele>
        <time>2022-06-05T10:14:03Z</time>
      </trkpt>
      <trkpt lat="47.03791" lon="-1.64097">
        <ele>54</ele>
        <time>2022-06-05T10:14:05Z</time>
      </trkpt>
      <trkpt lat="47.03803" lon="-1.64094">
        <ele>54</ele>
        <time>2022-06-05T10:14:07Z</time>
      </trkpt>
      <trkpt lat="47.03816" lon="-1.64091">
        <ele>54</ele>
        <time>2022-06-05T10:14:09Z</time>
      </trkpt>
      <trkpt lat="47.03827" lon="-1.64087">
        <ele>54</ele>
        <time>2022-06-05T10:14:11Z</time>
      </trkpt>
      <trkpt lat="47.03838" lon="-1.64085">
        <ele>54</ele>
        <time>2022-06-05T10:14:13Z</time>
      </trkpt>
      <trkpt lat="47.0385" lon="-1.64085">
        <ele>54</ele>
        <time>2022-06-05T10:14:15Z</time>
      </trkpt>
      <trkpt lat="47.03859" lon="-1.64088">
        <ele>54</ele>
        <time>2022-06-05T10:14:17Z</time>
      </trkpt>
      <trkpt lat="47.03873" lon="-1.64095">
        <ele>54</ele>
        <time>2022-06-05T10:14:20Z</time>
      </trkpt>
      <trkpt lat="47.03883" lon="-1.64098">
        <ele>54</ele>
        <time>2022-06-05T10:14:22Z</time>
      </trkpt>
      <trkpt lat="47.03894" lon="-1.64104">
        <ele>54</ele>
        <time>2022-06-05T10:14:24Z</time>
      </trkpt>
      <trkpt lat="47.03906" lon="-1.64111">
        <ele>54</ele>
        <time>2022-06-05T10:14:26Z</time>
      </trkpt>
      <trkpt lat="47.03917" lon="-1.64119">
        <ele>54</ele>
        <time>2022-06-05T10:14:28Z</time>
      </trkpt>
      <trkpt lat="47.03928" lon="-1.64126">
        <ele>54</ele>
        <time>2022-06-05T10:14:30Z</time>
      </trkpt>
      <trkpt lat="47.03939" lon="-1.64134">
        <ele>54</ele>
        <time>2022-06-05T10:14:32Z</time>
      </trkpt>
      <trkpt lat="47.0395" lon="-1.64139">
        <ele>54</ele>
        <time>2022-06-05T10:14:34Z</time>
      </trkpt>
      <trkpt lat="47.03963" lon="-1.64137">
        <ele>54</ele>
        <time>2022-06-05T10:14:36Z</time>
      </trkpt>
      <trkpt lat="47.03976" lon="-1.64137">
        <ele>54</ele>
        <time>2022-06-05T10:14:38Z</time>
      </trkpt>
      <trkpt lat="47.03988" lon="-1.64134">
        <ele>54</ele>
        <time>2022-06-05T10:14:40Z</time>
      </trkpt>
      <trkpt lat="47.03999" lon="-1.6413">
        <ele>54</ele>
        <time>2022-06-05T10:14:42Z</time>
      </trkpt>
      <trkpt lat="47.04011" lon="-1.64125">
        <ele>54</ele>
        <time>2022-06-05T10:14:44Z</time>
      </trkpt>
      <trkpt lat="47.04023" lon="-1.64119">
        <ele>54</ele>
        <time>2022-06-05T10:14:46Z</time>
      </trkpt>
      <trkpt lat="47.04035" lon="-1.64114">
        <ele>53</ele>
        <time>2022-06-05T10:14:48Z</time>
      </trkpt>
      <trkpt lat="47.04048" lon="-1.64109">
        <ele>53</ele>
        <time>2022-06-05T10:14:50Z</time>
      </trkpt>
      <trkpt lat="47.04061" lon="-1.64104">
        <ele>52</ele>
        <time>2022-06-05T10:14:52Z</time>
      </trkpt>
      <trkpt lat="47.04074" lon="-1.64098">
        <ele>52</ele>
        <time>2022-06-05T10:14:54Z</time>
      </trkpt>
      <trkpt lat="47.04089" lon="-1.64091">
        <ele>52</ele>
        <time>2022-06-05T10:14:56Z</time>
      </trkpt>
      <trkpt lat="47.04103" lon="-1.64085">
        <ele>52</ele>
        <time>2022-06-05T10:14:58Z</time>
      </trkpt>
      <trkpt lat="47.04117" lon="-1.64078">
        <ele>52</ele>
        <time>2022-06-05T10:15:00Z</time>
      </trkpt>
      <trkpt lat="47.04131" lon="-1.64072">
        <ele>53</ele>
        <time>2022-06-05T10:15:02Z</time>
      </trkpt>
      <trkpt lat="47.04145" lon="-1.64065">
        <ele>53</ele>
        <time>2022-06-05T10:15:04Z</time>
      </trkpt>
      <trkpt lat="47.04158" lon="-1.64059">
        <ele>53</ele>
        <time>2022-06-05T10:15:06Z</time>
      </trkpt>
      <trkpt lat="47.04172" lon="-1.64054">
        <ele>53</ele>
        <time>2022-06-05T10:15:08Z</time>
      </trkpt>
      <trkpt lat="47.04186" lon="-1.64049">
        <ele>52</ele>
        <time>2022-06-05T10:15:10Z</time>
      </trkpt>
      <trkpt lat="47.042" lon="-1.64042">
        <ele>52</ele>
        <time>2022-06-05T10:15:12Z</time>
      </trkpt>
      <trkpt lat="47.04213" lon="-1.64034">
        <ele>52</ele>
        <time>2022-06-05T10:15:14Z</time>
      </trkpt>
      <trkpt lat="47.04227" lon="-1.64028">
        <ele>52</ele>
        <time>2022-06-05T10:15:16Z</time>
      </trkpt>
      <trkpt lat="47.04241" lon="-1.64021">
        <ele>52</ele>
        <time>2022-06-05T10:15:18Z</time>
      </trkpt>
      <trkpt lat="47.04255" lon="-1.64015">
        <ele>52</ele>
        <time>2022-06-05T10:15:20Z</time>
      </trkpt>
      <trkpt lat="47.04269" lon="-1.6401">
        <ele>52</ele>
        <time>2022-06-05T10:15:22Z</time>
      </trkpt>
      <trkpt lat="47.04283" lon="-1.64004">
        <ele>52</ele>
        <time>2022-06-05T10:15:24Z</time>
      </trkpt>
      <trkpt lat="47.04296" lon="-1.63998">
        <ele>52</ele>
        <time>2022-06-05T10:15:26Z</time>
      </trkpt>
      <trkpt lat="47.0431" lon="-1.63993">
        <ele>52</ele>
        <time>2022-06-05T10:15:28Z</time>
      </trkpt>
      <trkpt lat="47.04324" lon="-1.63987">
        <ele>52</ele>
        <time>2022-06-05T10:15:30Z</time>
      </trkpt>
      <trkpt lat="47.04339" lon="-1.6398">
        <ele>52</ele>
        <time>2022-06-05T10:15:32Z</time>
      </trkpt>
      <trkpt lat="47.04352" lon="-1.63973">
        <ele>52</ele>
        <time>2022-06-05T10:15:34Z</time>
      </trkpt>
      <trkpt lat="47.04366" lon="-1.63967">
        <ele>52</ele>
        <time>2022-06-05T10:15:36Z</time>
      </trkpt>
      <trkpt lat="47.0438" lon="-1.63961">
        <ele>52</ele>
        <time>2022-06-05T10:15:38Z</time>
      </trkpt>
      <trkpt lat="47.04393" lon="-1.63956">
        <ele>52</ele>
        <time>2022-06-05T10:15:40Z</time>
      </trkpt>
      <trkpt lat="47.04407" lon="-1.63949">
        <ele>52</ele>
        <time>2022-06-05T10:15:42Z</time>
      </trkpt>
      <trkpt lat="47.04422" lon="-1.63942">
        <ele>53</ele>
        <time>2022-06-05T10:15:44Z</time>
      </trkpt>
      <trkpt lat="47.04436" lon="-1.63935">
        <ele>53</ele>
        <time>2022-06-05T10:15:46Z</time>
      </trkpt>
      <trkpt lat="47.04449" lon="-1.63931">
        <ele>53</ele>
        <time>2022-06-05T10:15:48Z</time>
      </trkpt>
      <trkpt lat="47.04461" lon="-1.63923">
        <ele>54</ele>
        <time>2022-06-05T10:15:50Z</time>
      </trkpt>
      <trkpt lat="47.04473" lon="-1.63912">
        <ele>53</ele>
        <time>2022-06-05T10:15:52Z</time>
      </trkpt>
      <trkpt lat="47.04487" lon="-1.63907">
        <ele>53</ele>
        <time>2022-06-05T10:15:54Z</time>
      </trkpt>
      <trkpt lat="47.045" lon="-1.639">
        <ele>53</ele>
        <time>2022-06-05T10:15:56Z</time>
      </trkpt>
      <trkpt lat="47.04513" lon="-1.63892">
        <ele>53</ele>
        <time>2022-06-05T10:15:58Z</time>
      </trkpt>
      <trkpt lat="47.04525" lon="-1.63884">
        <ele>52</ele>
        <time>2022-06-05T10:16:00Z</time>
      </trkpt>
      <trkpt lat="47.04538" lon="-1.63876">
        <ele>52</ele>
        <time>2022-06-05T10:16:02Z</time>
      </trkpt>
      <trkpt lat="47.0455" lon="-1.63869">
        <ele>52</ele>
        <time>2022-06-05T10:16:04Z</time>
      </trkpt>
      <trkpt lat="47.04563" lon="-1.63862">
        <ele>51</ele>
        <time>2022-06-05T10:16:06Z</time>
      </trkpt>
      <trkpt lat="47.04576" lon="-1.63854">
        <ele>52</ele>
        <time>2022-06-05T10:16:08Z</time>
      </trkpt>
      <trkpt lat="47.04588" lon="-1.63848">
        <ele>52</ele>
        <time>2022-06-05T10:16:10Z</time>
      </trkpt>
      <trkpt lat="47.04601" lon="-1.63843">
        <ele>53</ele>
        <time>2022-06-05T10:16:12Z</time>
      </trkpt>
      <trkpt lat="47.04614" lon="-1.6384">
        <ele>53</ele>
        <time>2022-06-05T10:16:14Z</time>
      </trkpt>
      <trkpt lat="47.04626" lon="-1.63839">
        <ele>53</ele>
        <time>2022-06-05T10:16:16Z</time>
      </trkpt>
      <trkpt lat="47.04638" lon="-1.63837">
        <ele>53</ele>
        <time>2022-06-05T10:16:18Z</time>
      </trkpt>
      <trkpt lat="47.04649" lon="-1.63834">
        <ele>53</ele>
        <time>2022-06-05T10:16:20Z</time>
      </trkpt>
      <trkpt lat="47.0466" lon="-1.63827">
        <ele>53</ele>
        <time>2022-06-05T10:16:22Z</time>
      </trkpt>
      <trkpt lat="47.0467" lon="-1.63821">
        <ele>54</ele>
        <time>2022-06-05T10:16:24Z</time>
      </trkpt>
      <trkpt lat="47.0468" lon="-1.63815">
        <ele>54</ele>
        <time>2022-06-05T10:16:26Z</time>
      </trkpt>
      <trkpt lat="47.04691" lon="-1.6381">
        <ele>55</ele>
        <time>2022-06-05T10:16:28Z</time>
      </trkpt>
      <trkpt lat="47.04702" lon="-1.63805">
        <ele>55</ele>
        <time>2022-06-05T10:16:30Z</time>
      </trkpt>
      <trkpt lat="47.04712" lon="-1.638">
        <ele>55</ele>
        <time>2022-06-05T10:16:32Z</time>
      </trkpt>
      <trkpt lat="47.04724" lon="-1.63796">
        <ele>55</ele>
        <time>2022-06-05T10:16:34Z</time>
      </trkpt>
      <trkpt lat="47.04736" lon="-1.63797">
        <ele>56</ele>
        <time>2022-06-05T10:16:36Z</time>
      </trkpt>
      <trkpt lat="47.04747" lon="-1.63797">
        <ele>56</ele>
        <time>2022-06-05T10:16:38Z</time>
      </trkpt>
      <trkpt lat="47.04759" lon="-1.63793">
        <ele>56</ele>
        <time>2022-06-05T10:16:40Z</time>
      </trkpt>
      <trkpt lat="47.0477" lon="-1.63789">
        <ele>57</ele>
        <time>2022-06-05T10:16:42Z</time>
      </trkpt>
      <trkpt lat="47.04781" lon="-1.63784">
        <ele>57</ele>
        <time>2022-06-05T10:16:44Z</time>
      </trkpt>
      <trkpt lat="47.04792" lon="-1.63781">
        <ele>58</ele>
        <time>2022-06-05T10:16:46Z</time>
      </trkpt>
      <trkpt lat="47.04804" lon="-1.63778">
        <ele>58</ele>
        <time>2022-06-05T10:16:48Z</time>
      </trkpt>
      <trkpt lat="47.04815" lon="-1.63776">
        <ele>58</ele>
        <time>2022-06-05T10:16:50Z</time>
      </trkpt>
      <trkpt lat="47.04827" lon="-1.63774">
        <ele>58</ele>
        <time>2022-06-05T10:16:52Z</time>
      </trkpt>
      <trkpt lat="47.04838" lon="-1.63772">
        <ele>57</ele>
        <time>2022-06-05T10:16:54Z</time>
      </trkpt>
      <trkpt lat="47.0485" lon="-1.63771">
        <ele>57</ele>
        <time>2022-06-05T10:16:56Z</time>
      </trkpt>
      <trkpt lat="47.04861" lon="-1.63768">
        <ele>57</ele>
        <time>2022-06-05T10:16:58Z</time>
      </trkpt>
      <trkpt lat="47.04873" lon="-1.63766">
        <ele>56</ele>
        <time>2022-06-05T10:17:00Z</time>
      </trkpt>
      <trkpt lat="47.04885" lon="-1.63763">
        <ele>56</ele>
        <time>2022-06-05T10:17:02Z</time>
      </trkpt>
      <trkpt lat="47.04898" lon="-1.63761">
        <ele>56</ele>
        <time>2022-06-05T10:17:04Z</time>
      </trkpt>
      <trkpt lat="47.04911" lon="-1.63758">
        <ele>56</ele>
        <time>2022-06-05T10:17:06Z</time>
      </trkpt>
      <trkpt lat="47.04924" lon="-1.63752">
        <ele>56</ele>
        <time>2022-06-05T10:17:08Z</time>
      </trkpt>
      <trkpt lat="47.04936" lon="-1.63744">
        <ele>55</ele>
        <time>2022-06-05T10:17:10Z</time>
      </trkpt>
      <trkpt lat="47.04944" lon="-1.63728">
        <ele>54</ele>
        <time>2022-06-05T10:17:12Z</time>
      </trkpt>
      <trkpt lat="47.04946" lon="-1.63707">
        <ele>54</ele>
        <time>2022-06-05T10:17:14Z</time>
      </trkpt>
      <trkpt lat="47.04946" lon="-1.63685">
        <ele>54</ele>
        <time>2022-06-05T10:17:16Z</time>
      </trkpt>
      <trkpt lat="47.04946" lon="-1.63663">
        <ele>54</ele>
        <time>2022-06-05T10:17:18Z</time>
      </trkpt>
      <trkpt lat="47.04946" lon="-1.6364">
        <ele>54</ele>
        <time>2022-06-05T10:17:20Z</time>
      </trkpt>
      <trkpt lat="47.04951" lon="-1.63618">
        <ele>53</ele>
        <time>2022-06-05T10:17:22Z</time>
      </trkpt>
      <trkpt lat="47.0496" lon="-1.63597">
        <ele>52</ele>
        <time>2022-06-05T10:17:24Z</time>
      </trkpt>
      <trkpt lat="47.04971" lon="-1.63578">
        <ele>51</ele>
        <time>2022-06-05T10:17:26Z</time>
      </trkpt>
      <trkpt lat="47.04986" lon="-1.63564">
        <ele>50</ele>
        <time>2022-06-05T10:17:28Z</time>
      </trkpt>
      <trkpt lat="47.05001" lon="-1.63553">
        <ele>50</ele>
        <time>2022-06-05T10:17:30Z</time>
      </trkpt>
      <trkpt lat="47.05017" lon="-1.63545">
        <ele>50</ele>
        <time>2022-06-05T10:17:32Z</time>
      </trkpt>
      <trkpt lat="47.05033" lon="-1.63538">
        <ele>50</ele>
        <time>2022-06-05T10:17:34Z</time>
      </trkpt>
      <trkpt lat="47.05049" lon="-1.63532">
        <ele>51</ele>
        <time>2022-06-05T10:17:36Z</time>
      </trkpt>
      <trkpt lat="47.05065" lon="-1.63526">
        <ele>51</ele>
        <time>2022-06-05T10:17:38Z</time>
      </trkpt>
      <trkpt lat="47.05081" lon="-1.6352">
        <ele>51</ele>
        <time>2022-06-05T10:17:40Z</time>
      </trkpt>
      <trkpt lat="47.05096" lon="-1.63514">
        <ele>51</ele>
        <time>2022-06-05T10:17:42Z</time>
      </trkpt>
      <trkpt lat="47.05112" lon="-1.63508">
        <ele>51</ele>
        <time>2022-06-05T10:17:44Z</time>
      </trkpt>
      <trkpt lat="47.05127" lon="-1.63502">
        <ele>51</ele>
        <time>2022-06-05T10:17:46Z</time>
      </trkpt>
      <trkpt lat="47.05142" lon="-1.63496">
        <ele>51</ele>
        <time>2022-06-05T10:17:48Z</time>
      </trkpt>
      <trkpt lat="47.05157" lon="-1.6349">
        <ele>51</ele>
        <time>2022-06-05T10:17:50Z</time>
      </trkpt>
      <trkpt lat="47.05171" lon="-1.63485">
        <ele>51</ele>
        <time>2022-06-05T10:17:52Z</time>
      </trkpt>
      <trkpt lat="47.05185" lon="-1.63479">
        <ele>51</ele>
        <time>2022-06-05T10:17:54Z</time>
      </trkpt>
      <trkpt lat="47.05199" lon="-1.63474">
        <ele>51</ele>
        <time>2022-06-05T10:17:56Z</time>
      </trkpt>
      <trkpt lat="47.05214" lon="-1.63469">
        <ele>51</ele>
        <time>2022-06-05T10:17:58Z</time>
      </trkpt>
      <trkpt lat="47.05229" lon="-1.63464">
        <ele>51</ele>
        <time>2022-06-05T10:18:00Z</time>
      </trkpt>
      <trkpt lat="47.05244" lon="-1.63459">
        <ele>51</ele>
        <time>2022-06-05T10:18:02Z</time>
      </trkpt>
      <trkpt lat="47.0526" lon="-1.63455">
        <ele>51</ele>
        <time>2022-06-05T10:18:04Z</time>
      </trkpt>
      <trkpt lat="47.05275" lon="-1.63451">
        <ele>51</ele>
        <time>2022-06-05T10:18:06Z</time>
      </trkpt>
      <trkpt lat="47.05291" lon="-1.63447">
        <ele>51</ele>
        <time>2022-06-05T10:18:08Z</time>
      </trkpt>
      <trkpt lat="47.05306" lon="-1.63445">
        <ele>51</ele>
        <time>2022-06-05T10:18:10Z</time>
      </trkpt>
      <trkpt lat="47.05321" lon="-1.63444">
        <ele>51</ele>
        <time>2022-06-05T10:18:12Z</time>
      </trkpt>
      <trkpt lat="47.05335" lon="-1.63444">
        <ele>51</ele>
        <time>2022-06-05T10:18:14Z</time>
      </trkpt>
      <trkpt lat="47.05349" lon="-1.63442">
        <ele>51</ele>
        <time>2022-06-05T10:18:16Z</time>
      </trkpt>
      <trkpt lat="47.05362" lon="-1.63436">
        <ele>52</ele>
        <time>2022-06-05T10:18:18Z</time>
      </trkpt>
      <trkpt lat="47.05375" lon="-1.6343">
        <ele>52</ele>
        <time>2022-06-05T10:18:20Z</time>
      </trkpt>
      <trkpt lat="47.0539" lon="-1.63432">
        <ele>52</ele>
        <time>2022-06-05T10:18:22Z</time>
      </trkpt>
      <trkpt lat="47.05405" lon="-1.63434">
        <ele>52</ele>
        <time>2022-06-05T10:18:24Z</time>
      </trkpt>
      <trkpt lat="47.05419" lon="-1.63431">
        <ele>52</ele>
        <time>2022-06-05T10:18:26Z</time>
      </trkpt>
      <trkpt lat="47.05433" lon="-1.63428">
        <ele>52</ele>
        <time>2022-06-05T10:18:28Z</time>
      </trkpt>
      <trkpt lat="47.05447" lon="-1.63425">
        <ele>52</ele>
        <time>2022-06-05T10:18:30Z</time>
      </trkpt>
      <trkpt lat="47.05461" lon="-1.63423">
        <ele>52</ele>
        <time>2022-06-05T10:18:32Z</time>
      </trkpt>
      <trkpt lat="47.05475" lon="-1.6342">
        <ele>52</ele>
        <time>2022-06-05T10:18:34Z</time>
      </trkpt>
      <trkpt lat="47.0549" lon="-1.63418">
        <ele>52</ele>
        <time>2022-06-05T10:18:36Z</time>
      </trkpt>
      <trkpt lat="47.05504" lon="-1.63416">
        <ele>52</ele>
        <time>2022-06-05T10:18:38Z</time>
      </trkpt>
      <trkpt lat="47.05519" lon="-1.63413">
        <ele>52</ele>
        <time>2022-06-05T10:18:40Z</time>
      </trkpt>
      <trkpt lat="47.05533" lon="-1.63409">
        <ele>51</ele>
        <time>2022-06-05T10:18:42Z</time>
      </trkpt>
      <trkpt lat="47.05547" lon="-1.63405">
        <ele>51</ele>
        <time>2022-06-05T10:18:44Z</time>
      </trkpt>
      <trkpt lat="47.05561" lon="-1.63398">
        <ele>51</ele>
        <time>2022-06-05T10:18:46Z</time>
      </trkpt>
      <trkpt lat="47.05575" lon="-1.63393">
        <ele>51</ele>
        <time>2022-06-05T10:18:48Z</time>
      </trkpt>
      <trkpt lat="47.05589" lon="-1.63387">
        <ele>51</ele>
        <time>2022-06-05T10:18:50Z</time>
      </trkpt>
      <trkpt lat="47.05604" lon="-1.6338">
        <ele>51</ele>
        <time>2022-06-05T10:18:52Z</time>
      </trkpt>
      <trkpt lat="47.05617" lon="-1.63373">
        <ele>51</ele>
        <time>2022-06-05T10:18:54Z</time>
      </trkpt>
      <trkpt lat="47.05632" lon="-1.63367">
        <ele>51</ele>
        <time>2022-06-05T10:18:56Z</time>
      </trkpt>
      <trkpt lat="47.05646" lon="-1.63361">
        <ele>51</ele>
        <time>2022-06-05T10:18:58Z</time>
      </trkpt>
      <trkpt lat="47.05659" lon="-1.63354">
        <ele>51</ele>
        <time>2022-06-05T10:19:00Z</time>
      </trkpt>
      <trkpt lat="47.05673" lon="-1.63348">
        <ele>50</ele>
        <time>2022-06-05T10:19:02Z</time>
      </trkpt>
      <trkpt lat="47.05686" lon="-1.63342">
        <ele>50</ele>
        <time>2022-06-05T10:19:04Z</time>
      </trkpt>
      <trkpt lat="47.057" lon="-1.63336">
        <ele>50</ele>
        <time>2022-06-05T10:19:06Z</time>
      </trkpt>
      <trkpt lat="47.05713" lon="-1.6333">
        <ele>50</ele>
        <time>2022-06-05T10:19:08Z</time>
      </trkpt>
      <trkpt lat="47.05726" lon="-1.63323">
        <ele>50</ele>
        <time>2022-06-05T10:19:10Z</time>
      </trkpt>
      <trkpt lat="47.05738" lon="-1.63316">
        <ele>50</ele>
        <time>2022-06-05T10:19:12Z</time>
      </trkpt>
      <trkpt lat="47.05751" lon="-1.6331">
        <ele>51</ele>
        <time>2022-06-05T10:19:14Z</time>
      </trkpt>
      <trkpt lat="47.05764" lon="-1.63304">
        <ele>51</ele>
        <time>2022-06-05T10:19:16Z</time>
      </trkpt>
      <trkpt lat="47.05778" lon="-1.63297">
        <ele>51</ele>
        <time>2022-06-05T10:19:18Z</time>
      </trkpt>
      <trkpt lat="47.05791" lon="-1.63291">
        <ele>51</ele>
        <time>2022-06-05T10:19:20Z</time>
      </trkpt>
      <trkpt lat="47.05805" lon="-1.63285">
        <ele>51</ele>
        <time>2022-06-05T10:19:22Z</time>
      </trkpt>
      <trkpt lat="47.05818" lon="-1.63279">
        <ele>51</ele>
        <time>2022-06-05T10:19:24Z</time>
      </trkpt>
      <trkpt lat="47.05832" lon="-1.63272">
        <ele>51</ele>
        <time>2022-06-05T10:19:26Z</time>
      </trkpt>
      <trkpt lat="47.05846" lon="-1.63266">
        <ele>51</ele>
        <time>2022-06-05T10:19:28Z</time>
      </trkpt>
      <trkpt lat="47.05859" lon="-1.6326">
        <ele>51</ele>
        <time>2022-06-05T10:19:30Z</time>
      </trkpt>
      <trkpt lat="47.05872" lon="-1.63254">
        <ele>51</ele>
        <time>2022-06-05T10:19:32Z</time>
      </trkpt>
      <trkpt lat="47.05885" lon="-1.63248">
        <ele>51</ele>
        <time>2022-06-05T10:19:34Z</time>
      </trkpt>
      <trkpt lat="47.05899" lon="-1.63242">
        <ele>50</ele>
        <time>2022-06-05T10:19:36Z</time>
      </trkpt>
      <trkpt lat="47.05912" lon="-1.63236">
        <ele>50</ele>
        <time>2022-06-05T10:19:38Z</time>
      </trkpt>
      <trkpt lat="47.05925" lon="-1.6323">
        <ele>50</ele>
        <time>2022-06-05T10:19:40Z</time>
      </trkpt>
      <trkpt lat="47.05938" lon="-1.63223">
        <ele>50</ele>
        <time>2022-06-05T10:19:42Z</time>
      </trkpt>
      <trkpt lat="47.0595" lon="-1.63217">
        <ele>50</ele>
        <time>2022-06-05T10:19:44Z</time>
      </trkpt>
      <trkpt lat="47.05963" lon="-1.63212">
        <ele>51</ele>
        <time>2022-06-05T10:19:46Z</time>
      </trkpt>
      <trkpt lat="47.05976" lon="-1.63206">
        <ele>50</ele>
        <time>2022-06-05T10:19:48Z</time>
      </trkpt>
      <trkpt lat="47.05989" lon="-1.632">
        <ele>51</ele>
        <time>2022-06-05T10:19:50Z</time>
      </trkpt>
      <trkpt lat="47.06002" lon="-1.63193">
        <ele>50</ele>
        <time>2022-06-05T10:19:52Z</time>
      </trkpt>
      <trkpt lat="47.06014" lon="-1.63187">
        <ele>51</ele>
        <time>2022-06-05T10:19:54Z</time>
      </trkpt>
      <trkpt lat="47.06027" lon="-1.63181">
        <ele>51</ele>
        <time>2022-06-05T10:19:56Z</time>
      </trkpt>
      <trkpt lat="47.0604" lon="-1.63175">
        <ele>51</ele>
        <time>2022-06-05T10:19:58Z</time>
      </trkpt>
      <trkpt lat="47.06052" lon="-1.63169">
        <ele>51</ele>
        <time>2022-06-05T10:20:00Z</time>
      </trkpt>
      <trkpt lat="47.06064" lon="-1.63163">
        <ele>51</ele>
        <time>2022-06-05T10:20:02Z</time>
      </trkpt>
      <trkpt lat="47.06076" lon="-1.63158">
        <ele>51</ele>
        <time>2022-06-05T10:20:04Z</time>
      </trkpt>
      <trkpt lat="47.06088" lon="-1.63152">
        <ele>51</ele>
        <time>2022-06-05T10:20:06Z</time>
      </trkpt>
      <trkpt lat="47.061" lon="-1.63146">
        <ele>51</ele>
        <time>2022-06-05T10:20:08Z</time>
      </trkpt>
      <trkpt lat="47.06113" lon="-1.6314">
        <ele>51</ele>
        <time>2022-06-05T10:20:10Z</time>
      </trkpt>
      <trkpt lat="47.06125" lon="-1.63135">
        <ele>51</ele>
        <time>2022-06-05T10:20:12Z</time>
      </trkpt>
      <trkpt lat="47.06138" lon="-1.63129">
        <ele>51</ele>
        <time>2022-06-05T10:20:14Z</time>
      </trkpt>
      <trkpt lat="47.0615" lon="-1.63123">
        <ele>51</ele>
        <time>2022-06-05T10:20:16Z</time>
      </trkpt>
      <trkpt lat="47.06163" lon="-1.63117">
        <ele>50</ele>
        <time>2022-06-05T10:20:18Z</time>
      </trkpt>
      <trkpt lat="47.06175" lon="-1.63111">
        <ele>51</ele>
        <time>2022-06-05T10:20:20Z</time>
      </trkpt>
      <trkpt lat="47.06186" lon="-1.63105">
        <ele>51</ele>
        <time>2022-06-05T10:20:22Z</time>
      </trkpt>
      <trkpt lat="47.06198" lon="-1.631">
        <ele>51</ele>
        <time>2022-06-05T10:20:24Z</time>
      </trkpt>
      <trkpt lat="47.0621" lon="-1.63095">
        <ele>52</ele>
        <time>2022-06-05T10:20:26Z</time>
      </trkpt>
      <trkpt lat="47.06222" lon="-1.63089">
        <ele>52</ele>
        <time>2022-06-05T10:20:28Z</time>
      </trkpt>
      <trkpt lat="47.06235" lon="-1.63083">
        <ele>52</ele>
        <time>2022-06-05T10:20:30Z</time>
      </trkpt>
      <trkpt lat="47.06247" lon="-1.63077">
        <ele>52</ele>
        <time>2022-06-05T10:20:32Z</time>
      </trkpt>
      <trkpt lat="47.0626" lon="-1.63071">
        <ele>51</ele>
        <time>2022-06-05T10:20:34Z</time>
      </trkpt>
      <trkpt lat="47.06272" lon="-1.63065">
        <ele>51</ele>
        <time>2022-06-05T10:20:36Z</time>
      </trkpt>
      <trkpt lat="47.06284" lon="-1.6306">
        <ele>52</ele>
        <time>2022-06-05T10:20:38Z</time>
      </trkpt>
      <trkpt lat="47.06296" lon="-1.63054">
        <ele>52</ele>
        <time>2022-06-05T10:20:40Z</time>
      </trkpt>
      <trkpt lat="47.06308" lon="-1.63048">
        <ele>52</ele>
        <time>2022-06-05T10:20:42Z</time>
      </trkpt>
      <trkpt lat="47.0632" lon="-1.63043">
        <ele>52</ele>
        <time>2022-06-05T10:20:44Z</time>
      </trkpt>
      <trkpt lat="47.06333" lon="-1.63037">
        <ele>52</ele>
        <time>2022-06-05T10:20:46Z</time>
      </trkpt>
      <trkpt lat="47.06345" lon="-1.63032">
        <ele>52</ele>
        <time>2022-06-05T10:20:48Z</time>
      </trkpt>
      <trkpt lat="47.06356" lon="-1.63026">
        <ele>52</ele>
        <time>2022-06-05T10:20:50Z</time>
      </trkpt>
      <trkpt lat="47.06369" lon="-1.6302">
        <ele>52</ele>
        <time>2022-06-05T10:20:52Z</time>
      </trkpt>
      <trkpt lat="47.0638" lon="-1.63015">
        <ele>52</ele>
        <time>2022-06-05T10:20:54Z</time>
      </trkpt>
      <trkpt lat="47.06392" lon="-1.63009">
        <ele>53</ele>
        <time>2022-06-05T10:20:56Z</time>
      </trkpt>
      <trkpt lat="47.06404" lon="-1.63004">
        <ele>53</ele>
        <time>2022-06-05T10:20:58Z</time>
      </trkpt>
      <trkpt lat="47.06416" lon="-1.62998">
        <ele>53</ele>
        <time>2022-06-05T10:21:00Z</time>
      </trkpt>
      <trkpt lat="47.06428" lon="-1.62992">
        <ele>53</ele>
        <time>2022-06-05T10:21:02Z</time>
      </trkpt>
      <trkpt lat="47.0644" lon="-1.62986">
        <ele>53</ele>
        <time>2022-06-05T10:21:04Z</time>
      </trkpt>
      <trkpt lat="47.06452" lon="-1.6298">
        <ele>54</ele>
        <time>2022-06-05T10:21:06Z</time>
      </trkpt>
      <trkpt lat="47.06463" lon="-1.62975">
        <ele>54</ele>
        <time>2022-06-05T10:21:08Z</time>
      </trkpt>
      <trkpt lat="47.06475" lon="-1.62969">
        <ele>53</ele>
        <time>2022-06-05T10:21:10Z</time>
      </trkpt>
      <trkpt lat="47.06487" lon="-1.62962">
        <ele>53</ele>
        <time>2022-06-05T10:21:12Z</time>
      </trkpt>
      <trkpt lat="47.06499" lon="-1.62953">
        <ele>52</ele>
        <time>2022-06-05T10:21:14Z</time>
      </trkpt>
      <trkpt lat="47.0651" lon="-1.62943">
        <ele>52</ele>
        <time>2022-06-05T10:21:16Z</time>
      </trkpt>
      <trkpt lat="47.06521" lon="-1.62932">
        <ele>52</ele>
        <time>2022-06-05T10:21:18Z</time>
      </trkpt>
      <trkpt lat="47.06531" lon="-1.62919">
        <ele>52</ele>
        <time>2022-06-05T10:21:20Z</time>
      </trkpt>
      <trkpt lat="47.0654" lon="-1.62906">
        <ele>52</ele>
        <time>2022-06-05T10:21:22Z</time>
      </trkpt>
      <trkpt lat="47.06548" lon="-1.62893">
        <ele>52</ele>
        <time>2022-06-05T10:21:24Z</time>
      </trkpt>
      <trkpt lat="47.06558" lon="-1.62878">
        <ele>52</ele>
        <time>2022-06-05T10:21:26Z</time>
      </trkpt>
      <trkpt lat="47.06567" lon="-1.62865">
        <ele>52</ele>
        <time>2022-06-05T10:21:28Z</time>
      </trkpt>
      <trkpt lat="47.06576" lon="-1.62851">
        <ele>52</ele>
        <time>2022-06-05T10:21:30Z</time>
      </trkpt>
      <trkpt lat="47.06586" lon="-1.62837">
        <ele>52</ele>
        <time>2022-06-05T10:21:32Z</time>
      </trkpt>
      <trkpt lat="47.06595" lon="-1.62823">
        <ele>52</ele>
        <time>2022-06-05T10:21:34Z</time>
      </trkpt>
      <trkpt lat="47.06604" lon="-1.62809">
        <ele>51</ele>
        <time>2022-06-05T10:21:36Z</time>
      </trkpt>
      <trkpt lat="47.06613" lon="-1.62796">
        <ele>51</ele>
        <time>2022-06-05T10:21:38Z</time>
      </trkpt>
      <trkpt lat="47.06622" lon="-1.62781">
        <ele>51</ele>
        <time>2022-06-05T10:21:40Z</time>
      </trkpt>
      <trkpt lat="47.06631" lon="-1.62767">
        <ele>51</ele>
        <time>2022-06-05T10:21:42Z</time>
      </trkpt>
      <trkpt lat="47.0664" lon="-1.62753">
        <ele>51</ele>
        <time>2022-06-05T10:21:44Z</time>
      </trkpt>
      <trkpt lat="47.0665" lon="-1.62738">
        <ele>51</ele>
        <time>2022-06-05T10:21:46Z</time>
      </trkpt>
      <trkpt lat="47.06659" lon="-1.62724">
        <ele>51</ele>
        <time>2022-06-05T10:21:48Z</time>
      </trkpt>
      <trkpt lat="47.06668" lon="-1.62709">
        <ele>51</ele>
        <time>2022-06-05T10:21:50Z</time>
      </trkpt>
      <trkpt lat="47.06678" lon="-1.62696">
        <ele>50</ele>
        <time>2022-06-05T10:21:52Z</time>
      </trkpt>
      <trkpt lat="47.06688" lon="-1.62681">
        <ele>51</ele>
        <time>2022-06-05T10:21:54Z</time>
      </trkpt>
      <trkpt lat="47.06697" lon="-1.62666">
        <ele>51</ele>
        <time>2022-06-05T10:21:56Z</time>
      </trkpt>
      <trkpt lat="47.06708" lon="-1.62651">
        <ele>51</ele>
        <time>2022-06-05T10:21:58Z</time>
      </trkpt>
      <trkpt lat="47.06718" lon="-1.62638">
        <ele>51</ele>
        <time>2022-06-05T10:22:00Z</time>
      </trkpt>
      <trkpt lat="47.0673" lon="-1.62626">
        <ele>51</ele>
        <time>2022-06-05T10:22:02Z</time>
      </trkpt>
      <trkpt lat="47.06741" lon="-1.62614">
        <ele>51</ele>
        <time>2022-06-05T10:22:04Z</time>
      </trkpt>
      <trkpt lat="47.06753" lon="-1.62602">
        <ele>51</ele>
        <time>2022-06-05T10:22:06Z</time>
      </trkpt>
      <trkpt lat="47.06766" lon="-1.62591">
        <ele>51</ele>
        <time>2022-06-05T10:22:08Z</time>
      </trkpt>
      <trkpt lat="47.06778" lon="-1.62579">
        <ele>51</ele>
        <time>2022-06-05T10:22:10Z</time>
      </trkpt>
      <trkpt lat="47.0679" lon="-1.62568">
        <ele>52</ele>
        <time>2022-06-05T10:22:12Z</time>
      </trkpt>
      <trkpt lat="47.06802" lon="-1.62556">
        <ele>52</ele>
        <time>2022-06-05T10:22:14Z</time>
      </trkpt>
      <trkpt lat="47.06814" lon="-1.62545">
        <ele>52</ele>
        <time>2022-06-05T10:22:16Z</time>
      </trkpt>
      <trkpt lat="47.06832" lon="-1.6253">
        <ele>53</ele>
        <time>2022-06-05T10:22:19Z</time>
      </trkpt>
      <trkpt lat="47.06844" lon="-1.62519">
        <ele>53</ele>
        <time>2022-06-05T10:22:21Z</time>
      </trkpt>
      <trkpt lat="47.06857" lon="-1.62511">
        <ele>52</ele>
        <time>2022-06-05T10:22:23Z</time>
      </trkpt>
      <trkpt lat="47.0687" lon="-1.62503">
        <ele>52</ele>
        <time>2022-06-05T10:22:25Z</time>
      </trkpt>
      <trkpt lat="47.06883" lon="-1.62495">
        <ele>52</ele>
        <time>2022-06-05T10:22:27Z</time>
      </trkpt>
      <trkpt lat="47.06905" lon="-1.62485">
        <ele>52</ele>
        <time>2022-06-05T10:22:30Z</time>
      </trkpt>
      <trkpt lat="47.06919" lon="-1.62479">
        <ele>52</ele>
        <time>2022-06-05T10:22:32Z</time>
      </trkpt>
      <trkpt lat="47.06933" lon="-1.62473">
        <ele>53</ele>
        <time>2022-06-05T10:22:34Z</time>
      </trkpt>
      <trkpt lat="47.06953" lon="-1.62464">
        <ele>54</ele>
        <time>2022-06-05T10:22:37Z</time>
      </trkpt>
      <trkpt lat="47.06967" lon="-1.62458">
        <ele>54</ele>
        <time>2022-06-05T10:22:39Z</time>
      </trkpt>
      <trkpt lat="47.0698" lon="-1.62452">
        <ele>54</ele>
        <time>2022-06-05T10:22:41Z</time>
      </trkpt>
      <trkpt lat="47.06993" lon="-1.62446">
        <ele>55</ele>
        <time>2022-06-05T10:22:43Z</time>
      </trkpt>
      <trkpt lat="47.07005" lon="-1.62441">
        <ele>55</ele>
        <time>2022-06-05T10:22:45Z</time>
      </trkpt>
      <trkpt lat="47.07017" lon="-1.62436">
        <ele>56</ele>
        <time>2022-06-05T10:22:47Z</time>
      </trkpt>
      <trkpt lat="47.07029" lon="-1.6243">
        <ele>56</ele>
        <time>2022-06-05T10:22:49Z</time>
      </trkpt>
      <trkpt lat="47.07042" lon="-1.62421">
        <ele>56</ele>
        <time>2022-06-05T10:22:51Z</time>
      </trkpt>
      <trkpt lat="47.07054" lon="-1.62414">
        <ele>56</ele>
        <time>2022-06-05T10:22:53Z</time>
      </trkpt>
      <trkpt lat="47.07066" lon="-1.62406">
        <ele>56</ele>
        <time>2022-06-05T10:22:55Z</time>
      </trkpt>
      <trkpt lat="47.07079" lon="-1.62398">
        <ele>56</ele>
        <time>2022-06-05T10:22:57Z</time>
      </trkpt>
      <trkpt lat="47.0709" lon="-1.62391">
        <ele>57</ele>
        <time>2022-06-05T10:22:59Z</time>
      </trkpt>
      <trkpt lat="47.07103" lon="-1.62383">
        <ele>57</ele>
        <time>2022-06-05T10:23:01Z</time>
      </trkpt>
      <trkpt lat="47.07115" lon="-1.62374">
        <ele>57</ele>
        <time>2022-06-05T10:23:03Z</time>
      </trkpt>
      <trkpt lat="47.07128" lon="-1.62366">
        <ele>57</ele>
        <time>2022-06-05T10:23:05Z</time>
      </trkpt>
      <trkpt lat="47.07141" lon="-1.62358">
        <ele>57</ele>
        <time>2022-06-05T10:23:07Z</time>
      </trkpt>
      <trkpt lat="47.07153" lon="-1.62349">
        <ele>56</ele>
        <time>2022-06-05T10:23:09Z</time>
      </trkpt>
      <trkpt lat="47.07166" lon="-1.6234">
        <ele>56</ele>
        <time>2022-06-05T10:23:11Z</time>
      </trkpt>
      <trkpt lat="47.07178" lon="-1.62331">
        <ele>55</ele>
        <time>2022-06-05T10:23:13Z</time>
      </trkpt>
      <trkpt lat="47.07191" lon="-1.62323">
        <ele>55</ele>
        <time>2022-06-05T10:23:15Z</time>
      </trkpt>
      <trkpt lat="47.07204" lon="-1.62314">
        <ele>54</ele>
        <time>2022-06-05T10:23:17Z</time>
      </trkpt>
      <trkpt lat="47.07216" lon="-1.62307">
        <ele>54</ele>
        <time>2022-06-05T10:23:19Z</time>
      </trkpt>
      <trkpt lat="47.07228" lon="-1.62298">
        <ele>54</ele>
        <time>2022-06-05T10:23:21Z</time>
      </trkpt>
      <trkpt lat="47.0724" lon="-1.6229">
        <ele>54</ele>
        <time>2022-06-05T10:23:23Z</time>
      </trkpt>
      <trkpt lat="47.07252" lon="-1.62281">
        <ele>54</ele>
        <time>2022-06-05T10:23:25Z</time>
      </trkpt>
      <trkpt lat="47.07263" lon="-1.62272">
        <ele>54</ele>
        <time>2022-06-05T10:23:27Z</time>
      </trkpt>
      <trkpt lat="47.07275" lon="-1.62262">
        <ele>54</ele>
        <time>2022-06-05T10:23:29Z</time>
      </trkpt>
      <trkpt lat="47.07285" lon="-1.6225">
        <ele>54</ele>
        <time>2022-06-05T10:23:31Z</time>
      </trkpt>
      <trkpt lat="47.07296" lon="-1.62239">
        <ele>54</ele>
        <time>2022-06-05T10:23:33Z</time>
      </trkpt>
      <trkpt lat="47.07306" lon="-1.62226">
        <ele>54</ele>
        <time>2022-06-05T10:23:35Z</time>
      </trkpt>
      <trkpt lat="47.07315" lon="-1.62212">
        <ele>54</ele>
        <time>2022-06-05T10:23:37Z</time>
      </trkpt>
      <trkpt lat="47.07325" lon="-1.62199">
        <ele>53</ele>
        <time>2022-06-05T10:23:39Z</time>
      </trkpt>
      <trkpt lat="47.07335" lon="-1.62185">
        <ele>53</ele>
        <time>2022-06-05T10:23:41Z</time>
      </trkpt>
      <trkpt lat="47.07344" lon="-1.62171">
        <ele>53</ele>
        <time>2022-06-05T10:23:43Z</time>
      </trkpt>
      <trkpt lat="47.07353" lon="-1.62156">
        <ele>53</ele>
        <time>2022-06-05T10:23:45Z</time>
      </trkpt>
      <trkpt lat="47.07362" lon="-1.62141">
        <ele>53</ele>
        <time>2022-06-05T10:23:47Z</time>
      </trkpt>
      <trkpt lat="47.07372" lon="-1.62126">
        <ele>52</ele>
        <time>2022-06-05T10:23:49Z</time>
      </trkpt>
      <trkpt lat="47.0738" lon="-1.62111">
        <ele>52</ele>
        <time>2022-06-05T10:23:51Z</time>
      </trkpt>
      <trkpt lat="47.07389" lon="-1.62097">
        <ele>52</ele>
        <time>2022-06-05T10:23:53Z</time>
      </trkpt>
      <trkpt lat="47.07398" lon="-1.62082">
        <ele>52</ele>
        <time>2022-06-05T10:23:55Z</time>
      </trkpt>
      <trkpt lat="47.07407" lon="-1.62066">
        <ele>52</ele>
        <time>2022-06-05T10:23:57Z</time>
      </trkpt>
      <trkpt lat="47.07416" lon="-1.62051">
        <ele>52</ele>
        <time>2022-06-05T10:23:59Z</time>
      </trkpt>
      <trkpt lat="47.07425" lon="-1.62036">
        <ele>53</ele>
        <time>2022-06-05T10:24:01Z</time>
      </trkpt>
      <trkpt lat="47.07435" lon="-1.62021">
        <ele>53</ele>
        <time>2022-06-05T10:24:03Z</time>
      </trkpt>
      <trkpt lat="47.07444" lon="-1.62007">
        <ele>53</ele>
        <time>2022-06-05T10:24:05Z</time>
      </trkpt>
      <trkpt lat="47.07454" lon="-1.61994">
        <ele>54</ele>
        <time>2022-06-05T10:24:07Z</time>
      </trkpt>
      <trkpt lat="47.07464" lon="-1.61981">
        <ele>54</ele>
        <time>2022-06-05T10:24:09Z</time>
      </trkpt>
      <trkpt lat="47.07475" lon="-1.61969">
        <ele>54</ele>
        <time>2022-06-05T10:24:11Z</time>
      </trkpt>
      <trkpt lat="47.07485" lon="-1.61957">
        <ele>53</ele>
        <time>2022-06-05T10:24:13Z</time>
      </trkpt>
      <trkpt lat="47.07496" lon="-1.61945">
        <ele>53</ele>
        <time>2022-06-05T10:24:15Z</time>
      </trkpt>
      <trkpt lat="47.07506" lon="-1.61933">
        <ele>53</ele>
        <time>2022-06-05T10:24:17Z</time>
      </trkpt>
      <trkpt lat="47.07516" lon="-1.61921">
        <ele>53</ele>
        <time>2022-06-05T10:24:19Z</time>
      </trkpt>
      <trkpt lat="47.07527" lon="-1.61908">
        <ele>53</ele>
        <time>2022-06-05T10:24:21Z</time>
      </trkpt>
      <trkpt lat="47.07537" lon="-1.61897">
        <ele>54</ele>
        <time>2022-06-05T10:24:23Z</time>
      </trkpt>
      <trkpt lat="47.07547" lon="-1.61885">
        <ele>54</ele>
        <time>2022-06-05T10:24:25Z</time>
      </trkpt>
      <trkpt lat="47.07558" lon="-1.61872">
        <ele>53</ele>
        <time>2022-06-05T10:24:27Z</time>
      </trkpt>
      <trkpt lat="47.07569" lon="-1.6186">
        <ele>53</ele>
        <time>2022-06-05T10:24:29Z</time>
      </trkpt>
      <trkpt lat="47.0758" lon="-1.61847">
        <ele>54</ele>
        <time>2022-06-05T10:24:31Z</time>
      </trkpt>
      <trkpt lat="47.07591" lon="-1.61834">
        <ele>54</ele>
        <time>2022-06-05T10:24:33Z</time>
      </trkpt>
      <trkpt lat="47.07602" lon="-1.61821">
        <ele>54</ele>
        <time>2022-06-05T10:24:35Z</time>
      </trkpt>
      <trkpt lat="47.07613" lon="-1.61809">
        <ele>54</ele>
        <time>2022-06-05T10:24:37Z</time>
      </trkpt>
      <trkpt lat="47.07624" lon="-1.61796">
        <ele>54</ele>
        <time>2022-06-05T10:24:39Z</time>
      </trkpt>
      <trkpt lat="47.07635" lon="-1.61783">
        <ele>54</ele>
        <time>2022-06-05T10:24:41Z</time>
      </trkpt>
      <trkpt lat="47.07647" lon="-1.6177">
        <ele>54</ele>
        <time>2022-06-05T10:24:43Z</time>
      </trkpt>
      <trkpt lat="47.07657" lon="-1.61757">
        <ele>55</ele>
        <time>2022-06-05T10:24:45Z</time>
      </trkpt>
      <trkpt lat="47.07668" lon="-1.61744">
        <ele>55</ele>
        <time>2022-06-05T10:24:47Z</time>
      </trkpt>
      <trkpt lat="47.0768" lon="-1.6173">
        <ele>54</ele>
        <time>2022-06-05T10:24:49Z</time>
      </trkpt>
      <trkpt lat="47.07691" lon="-1.61717">
        <ele>54</ele>
        <time>2022-06-05T10:24:51Z</time>
      </trkpt>
      <trkpt lat="47.07703" lon="-1.61704">
        <ele>54</ele>
        <time>2022-06-05T10:24:53Z</time>
      </trkpt>
      <trkpt lat="47.07714" lon="-1.61691">
        <ele>53</ele>
        <time>2022-06-05T10:24:55Z</time>
      </trkpt>
      <trkpt lat="47.07725" lon="-1.61679">
        <ele>53</ele>
        <time>2022-06-05T10:24:57Z</time>
      </trkpt>
      <trkpt lat="47.07736" lon="-1.61666">
        <ele>53</ele>
        <time>2022-06-05T10:24:59Z</time>
      </trkpt>
      <trkpt lat="47.07747" lon="-1.61656">
        <ele>53</ele>
        <time>2022-06-05T10:25:01Z</time>
      </trkpt>
      <trkpt lat="47.07758" lon="-1.61644">
        <ele>53</ele>
        <time>2022-06-05T10:25:03Z</time>
      </trkpt>
      <trkpt lat="47.07768" lon="-1.61632">
        <ele>55</ele>
        <time>2022-06-05T10:25:05Z</time>
      </trkpt>
      <trkpt lat="47.07779" lon="-1.6162">
        <ele>55</ele>
        <time>2022-06-05T10:25:07Z</time>
      </trkpt>
      <trkpt lat="47.0779" lon="-1.61608">
        <ele>55</ele>
        <time>2022-06-05T10:25:09Z</time>
      </trkpt>
      <trkpt lat="47.07801" lon="-1.61597">
        <ele>55</ele>
        <time>2022-06-05T10:25:11Z</time>
      </trkpt>
      <trkpt lat="47.07814" lon="-1.61587">
        <ele>55</ele>
        <time>2022-06-05T10:25:13Z</time>
      </trkpt>
      <trkpt lat="47.07826" lon="-1.61578">
        <ele>55</ele>
        <time>2022-06-05T10:25:15Z</time>
      </trkpt>
      <trkpt lat="47.07839" lon="-1.61571">
        <ele>55</ele>
        <time>2022-06-05T10:25:17Z</time>
      </trkpt>
      <trkpt lat="47.07851" lon="-1.61564">
        <ele>55</ele>
        <time>2022-06-05T10:25:19Z</time>
      </trkpt>
      <trkpt lat="47.07864" lon="-1.61558">
        <ele>55</ele>
        <time>2022-06-05T10:25:21Z</time>
      </trkpt>
      <trkpt lat="47.07877" lon="-1.61553">
        <ele>54</ele>
        <time>2022-06-05T10:25:23Z</time>
      </trkpt>
      <trkpt lat="47.0789" lon="-1.61548">
        <ele>53</ele>
        <time>2022-06-05T10:25:25Z</time>
      </trkpt>
      <trkpt lat="47.07903" lon="-1.61543">
        <ele>53</ele>
        <time>2022-06-05T10:25:27Z</time>
      </trkpt>
      <trkpt lat="47.07915" lon="-1.61537">
        <ele>52</ele>
        <time>2022-06-05T10:25:29Z</time>
      </trkpt>
      <trkpt lat="47.07928" lon="-1.61531">
        <ele>52</ele>
        <time>2022-06-05T10:25:31Z</time>
      </trkpt>
      <trkpt lat="47.0794" lon="-1.61526">
        <ele>51</ele>
        <time>2022-06-05T10:25:33Z</time>
      </trkpt>
      <trkpt lat="47.07953" lon="-1.6152">
        <ele>51</ele>
        <time>2022-06-05T10:25:35Z</time>
      </trkpt>
      <trkpt lat="47.07965" lon="-1.61515">
        <ele>51</ele>
        <time>2022-06-05T10:25:37Z</time>
      </trkpt>
      <trkpt lat="47.07978" lon="-1.61509">
        <ele>50</ele>
        <time>2022-06-05T10:25:39Z</time>
      </trkpt>
      <trkpt lat="47.0799" lon="-1.61504">
        <ele>50</ele>
        <time>2022-06-05T10:25:41Z</time>
      </trkpt>
      <trkpt lat="47.08003" lon="-1.61498">
        <ele>50</ele>
        <time>2022-06-05T10:25:43Z</time>
      </trkpt>
      <trkpt lat="47.08016" lon="-1.61493">
        <ele>50</ele>
        <time>2022-06-05T10:25:45Z</time>
      </trkpt>
      <trkpt lat="47.08029" lon="-1.61487">
        <ele>50</ele>
        <time>2022-06-05T10:25:47Z</time>
      </trkpt>
      <trkpt lat="47.08042" lon="-1.61482">
        <ele>50</ele>
        <time>2022-06-05T10:25:49Z</time>
      </trkpt>
      <trkpt lat="47.08056" lon="-1.61477">
        <ele>50</ele>
        <time>2022-06-05T10:25:51Z</time>
      </trkpt>
      <trkpt lat="47.08069" lon="-1.61471">
        <ele>50</ele>
        <time>2022-06-05T10:25:53Z</time>
      </trkpt>
      <trkpt lat="47.08082" lon="-1.61465">
        <ele>50</ele>
        <time>2022-06-05T10:25:55Z</time>
      </trkpt>
      <trkpt lat="47.08094" lon="-1.61459">
        <ele>50</ele>
        <time>2022-06-05T10:25:57Z</time>
      </trkpt>
      <trkpt lat="47.08106" lon="-1.61455">
        <ele>50</ele>
        <time>2022-06-05T10:25:59Z</time>
      </trkpt>
      <trkpt lat="47.08118" lon="-1.61449">
        <ele>51</ele>
        <time>2022-06-05T10:26:01Z</time>
      </trkpt>
      <trkpt lat="47.0813" lon="-1.61444">
        <ele>51</ele>
        <time>2022-06-05T10:26:03Z</time>
      </trkpt>
      <trkpt lat="47.08143" lon="-1.61439">
        <ele>51</ele>
        <time>2022-06-05T10:26:05Z</time>
      </trkpt>
      <trkpt lat="47.08156" lon="-1.61433">
        <ele>50</ele>
        <time>2022-06-05T10:26:07Z</time>
      </trkpt>
      <trkpt lat="47.08168" lon="-1.61428">
        <ele>50</ele>
        <time>2022-06-05T10:26:09Z</time>
      </trkpt>
      <trkpt lat="47.08181" lon="-1.61423">
        <ele>50</ele>
        <time>2022-06-05T10:26:11Z</time>
      </trkpt>
      <trkpt lat="47.08194" lon="-1.61418">
        <ele>50</ele>
        <time>2022-06-05T10:26:13Z</time>
      </trkpt>
      <trkpt lat="47.08206" lon="-1.61412">
        <ele>50</ele>
        <time>2022-06-05T10:26:15Z</time>
      </trkpt>
      <trkpt lat="47.08219" lon="-1.61406">
        <ele>50</ele>
        <time>2022-06-05T10:26:17Z</time>
      </trkpt>
      <trkpt lat="47.08232" lon="-1.614">
        <ele>49</ele>
        <time>2022-06-05T10:26:19Z</time>
      </trkpt>
      <trkpt lat="47.08245" lon="-1.61394">
        <ele>50</ele>
        <time>2022-06-05T10:26:21Z</time>
      </trkpt>
      <trkpt lat="47.08258" lon="-1.61389">
        <ele>49</ele>
        <time>2022-06-05T10:26:23Z</time>
      </trkpt>
      <trkpt lat="47.08271" lon="-1.61383">
        <ele>49</ele>
        <time>2022-06-05T10:26:25Z</time>
      </trkpt>
      <trkpt lat="47.08285" lon="-1.61377">
        <ele>49</ele>
        <time>2022-06-05T10:26:27Z</time>
      </trkpt>
      <trkpt lat="47.08298" lon="-1.61371">
        <ele>49</ele>
        <time>2022-06-05T10:26:29Z</time>
      </trkpt>
      <trkpt lat="47.08311" lon="-1.61365">
        <ele>49</ele>
        <time>2022-06-05T10:26:31Z</time>
      </trkpt>
      <trkpt lat="47.08325" lon="-1.61359">
        <ele>49</ele>
        <time>2022-06-05T10:26:33Z</time>
      </trkpt>
      <trkpt lat="47.08338" lon="-1.61354">
        <ele>50</ele>
        <time>2022-06-05T10:26:35Z</time>
      </trkpt>
      <trkpt lat="47.08351" lon="-1.61348">
        <ele>49</ele>
        <time>2022-06-05T10:26:37Z</time>
      </trkpt>
      <trkpt lat="47.08365" lon="-1.61343">
        <ele>49</ele>
        <time>2022-06-05T10:26:39Z</time>
      </trkpt>
      <trkpt lat="47.08378" lon="-1.61337">
        <ele>49</ele>
        <time>2022-06-05T10:26:41Z</time>
      </trkpt>
      <trkpt lat="47.08391" lon="-1.61332">
        <ele>49</ele>
        <time>2022-06-05T10:26:43Z</time>
      </trkpt>
      <trkpt lat="47.08405" lon="-1.61327">
        <ele>48</ele>
        <time>2022-06-05T10:26:45Z</time>
      </trkpt>
      <trkpt lat="47.08418" lon="-1.61322">
        <ele>48</ele>
        <time>2022-06-05T10:26:47Z</time>
      </trkpt>
      <trkpt lat="47.08431" lon="-1.61316">
        <ele>48</ele>
        <time>2022-06-05T10:26:49Z</time>
      </trkpt>
      <trkpt lat="47.08444" lon="-1.6131">
        <ele>48</ele>
        <time>2022-06-05T10:26:51Z</time>
      </trkpt>
      <trkpt lat="47.08457" lon="-1.61305">
        <ele>48</ele>
        <time>2022-06-05T10:26:53Z</time>
      </trkpt>
      <trkpt lat="47.08471" lon="-1.61299">
        <ele>48</ele>
        <time>2022-06-05T10:26:55Z</time>
      </trkpt>
      <trkpt lat="47.08484" lon="-1.61294">
        <ele>49</ele>
        <time>2022-06-05T10:26:57Z</time>
      </trkpt>
      <trkpt lat="47.08495" lon="-1.61287">
        <ele>48</ele>
        <time>2022-06-05T10:26:59Z</time>
      </trkpt>
      <trkpt lat="47.08509" lon="-1.61282">
        <ele>48</ele>
        <time>2022-06-05T10:27:01Z</time>
      </trkpt>
      <trkpt lat="47.08522" lon="-1.61277">
        <ele>49</ele>
        <time>2022-06-05T10:27:03Z</time>
      </trkpt>
      <trkpt lat="47.08535" lon="-1.61272">
        <ele>49</ele>
        <time>2022-06-05T10:27:05Z</time>
      </trkpt>
      <trkpt lat="47.08547" lon="-1.61266">
        <ele>49</ele>
        <time>2022-06-05T10:27:07Z</time>
      </trkpt>
      <trkpt lat="47.08559" lon="-1.6126">
        <ele>49</ele>
        <time>2022-06-05T10:27:09Z</time>
      </trkpt>
      <trkpt lat="47.08571" lon="-1.61255">
        <ele>49</ele>
        <time>2022-06-05T10:27:11Z</time>
      </trkpt>
      <trkpt lat="47.08582" lon="-1.6125">
        <ele>50</ele>
        <time>2022-06-05T10:27:13Z</time>
      </trkpt>
      <trkpt lat="47.08594" lon="-1.61246">
        <ele>50</ele>
        <time>2022-06-05T10:27:15Z</time>
      </trkpt>
      <trkpt lat="47.08606" lon="-1.61241">
        <ele>50</ele>
        <time>2022-06-05T10:27:17Z</time>
      </trkpt>
      <trkpt lat="47.08618" lon="-1.61235">
        <ele>50</ele>
        <time>2022-06-05T10:27:19Z</time>
      </trkpt>
      <trkpt lat="47.0863" lon="-1.6123">
        <ele>50</ele>
        <time>2022-06-05T10:27:21Z</time>
      </trkpt>
      <trkpt lat="47.08643" lon="-1.61224">
        <ele>50</ele>
        <time>2022-06-05T10:27:23Z</time>
      </trkpt>
      <trkpt lat="47.08654" lon="-1.6122">
        <ele>50</ele>
        <time>2022-06-05T10:27:25Z</time>
      </trkpt>
      <trkpt lat="47.08666" lon="-1.61214">
        <ele>51</ele>
        <time>2022-06-05T10:27:27Z</time>
      </trkpt>
      <trkpt lat="47.08678" lon="-1.61209">
        <ele>51</ele>
        <time>2022-06-05T10:27:29Z</time>
      </trkpt>
      <trkpt lat="47.0869" lon="-1.61204">
        <ele>52</ele>
        <time>2022-06-05T10:27:31Z</time>
      </trkpt>
      <trkpt lat="47.08702" lon="-1.612">
        <ele>52</ele>
        <time>2022-06-05T10:27:33Z</time>
      </trkpt>
      <trkpt lat="47.08713" lon="-1.61195">
        <ele>52</ele>
        <time>2022-06-05T10:27:35Z</time>
      </trkpt>
      <trkpt lat="47.08725" lon="-1.61191">
        <ele>52</ele>
        <time>2022-06-05T10:27:37Z</time>
      </trkpt>
      <trkpt lat="47.08737" lon="-1.61186">
        <ele>52</ele>
        <time>2022-06-05T10:27:39Z</time>
      </trkpt>
      <trkpt lat="47.08749" lon="-1.6118">
        <ele>52</ele>
        <time>2022-06-05T10:27:41Z</time>
      </trkpt>
      <trkpt lat="47.0876" lon="-1.61176">
        <ele>52</ele>
        <time>2022-06-05T10:27:43Z</time>
      </trkpt>
      <trkpt lat="47.08772" lon="-1.6117">
        <ele>52</ele>
        <time>2022-06-05T10:27:45Z</time>
      </trkpt>
      <trkpt lat="47.08784" lon="-1.61165">
        <ele>52</ele>
        <time>2022-06-05T10:27:47Z</time>
      </trkpt>
      <trkpt lat="47.08795" lon="-1.6116">
        <ele>52</ele>
        <time>2022-06-05T10:27:49Z</time>
      </trkpt>
      <trkpt lat="47.08806" lon="-1.61155">
        <ele>52</ele>
        <time>2022-06-05T10:27:51Z</time>
      </trkpt>
      <trkpt lat="47.08818" lon="-1.6115">
        <ele>51</ele>
        <time>2022-06-05T10:27:53Z</time>
      </trkpt>
      <trkpt lat="47.08829" lon="-1.61145">
        <ele>51</ele>
        <time>2022-06-05T10:27:55Z</time>
      </trkpt>
      <trkpt lat="47.08841" lon="-1.6114">
        <ele>52</ele>
        <time>2022-06-05T10:27:57Z</time>
      </trkpt>
      <trkpt lat="47.08853" lon="-1.61135">
        <ele>52</ele>
        <time>2022-06-05T10:27:59Z</time>
      </trkpt>
      <trkpt lat="47.08865" lon="-1.6113">
        <ele>52</ele>
        <time>2022-06-05T10:28:01Z</time>
      </trkpt>
      <trkpt lat="47.08877" lon="-1.61125">
        <ele>51</ele>
        <time>2022-06-05T10:28:03Z</time>
      </trkpt>
      <trkpt lat="47.08889" lon="-1.6112">
        <ele>52</ele>
        <time>2022-06-05T10:28:05Z</time>
      </trkpt>
      <trkpt lat="47.089" lon="-1.61115">
        <ele>52</ele>
        <time>2022-06-05T10:28:07Z</time>
      </trkpt>
      <trkpt lat="47.08911" lon="-1.6111">
        <ele>52</ele>
        <time>2022-06-05T10:28:09Z</time>
      </trkpt>
      <trkpt lat="47.08924" lon="-1.61105">
        <ele>53</ele>
        <time>2022-06-05T10:28:11Z</time>
      </trkpt>
      <trkpt lat="47.08935" lon="-1.611">
        <ele>53</ele>
        <time>2022-06-05T10:28:13Z</time>
      </trkpt>
      <trkpt lat="47.08947" lon="-1.61094">
        <ele>53</ele>
        <time>2022-06-05T10:28:15Z</time>
      </trkpt>
      <trkpt lat="47.08959" lon="-1.61088">
        <ele>54</ele>
        <time>2022-06-05T10:28:17Z</time>
      </trkpt>
      <trkpt lat="47.08971" lon="-1.61084">
        <ele>54</ele>
        <time>2022-06-05T10:28:19Z</time>
      </trkpt>
      <trkpt lat="47.08984" lon="-1.61084">
        <ele>55</ele>
        <time>2022-06-05T10:28:21Z</time>
      </trkpt>
      <trkpt lat="47.08998" lon="-1.61085">
        <ele>55</ele>
        <time>2022-06-05T10:28:23Z</time>
      </trkpt>
      <trkpt lat="47.09011" lon="-1.61087">
        <ele>56</ele>
        <time>2022-06-05T10:28:25Z</time>
      </trkpt>
      <trkpt lat="47.09024" lon="-1.61091">
        <ele>56</ele>
        <time>2022-06-05T10:28:27Z</time>
      </trkpt>
      <trkpt lat="47.09037" lon="-1.61095">
        <ele>56</ele>
        <time>2022-06-05T10:28:29Z</time>
      </trkpt>
      <trkpt lat="47.0905" lon="-1.61099">
        <ele>56</ele>
        <time>2022-06-05T10:28:31Z</time>
      </trkpt>
      <trkpt lat="47.09063" lon="-1.61103">
        <ele>56</ele>
        <time>2022-06-05T10:28:33Z</time>
      </trkpt>
      <trkpt lat="47.09077" lon="-1.61108">
        <ele>56</ele>
        <time>2022-06-05T10:28:35Z</time>
      </trkpt>
      <trkpt lat="47.0909" lon="-1.61112">
        <ele>56</ele>
        <time>2022-06-05T10:28:37Z</time>
      </trkpt>
      <trkpt lat="47.09103" lon="-1.61116">
        <ele>56</ele>
        <time>2022-06-05T10:28:39Z</time>
      </trkpt>
      <trkpt lat="47.09114" lon="-1.6112">
        <ele>56</ele>
        <time>2022-06-05T10:28:41Z</time>
      </trkpt>
      <trkpt lat="47.09125" lon="-1.61123">
        <ele>56</ele>
        <time>2022-06-05T10:28:43Z</time>
      </trkpt>
      <trkpt lat="47.09136" lon="-1.61126">
        <ele>56</ele>
        <time>2022-06-05T10:28:45Z</time>
      </trkpt>
      <trkpt lat="47.09145" lon="-1.61129">
        <ele>57</ele>
        <time>2022-06-05T10:28:47Z</time>
      </trkpt>
      <trkpt lat="47.09154" lon="-1.61132">
        <ele>57</ele>
        <time>2022-06-05T10:28:49Z</time>
      </trkpt>
      <trkpt lat="47.09165" lon="-1.61136">
        <ele>57</ele>
        <time>2022-06-05T10:28:52Z</time>
      </trkpt>
      <trkpt lat="47.09177" lon="-1.6114">
        <ele>57</ele>
        <time>2022-06-05T10:28:55Z</time>
      </trkpt>
      <trkpt lat="47.09187" lon="-1.61143">
        <ele>57</ele>
        <time>2022-06-05T10:28:57Z</time>
      </trkpt>
      <trkpt lat="47.09197" lon="-1.61146">
        <ele>57</ele>
        <time>2022-06-05T10:28:59Z</time>
      </trkpt>
      <trkpt lat="47.09207" lon="-1.61149">
        <ele>57</ele>
        <time>2022-06-05T10:29:03Z</time>
      </trkpt>
      <trkpt lat="47.09216" lon="-1.61151">
        <ele>57</ele>
        <time>2022-06-05T10:29:06Z</time>
      </trkpt>
      <trkpt lat="47.09225" lon="-1.61158">
        <ele>57</ele>
        <time>2022-06-05T10:29:09Z</time>
      </trkpt>
      <trkpt lat="47.09235" lon="-1.61169">
        <ele>57</ele>
        <time>2022-06-05T10:29:13Z</time>
      </trkpt>
      <trkpt lat="47.09244" lon="-1.61176">
        <ele>57</ele>
        <time>2022-06-05T10:29:16Z</time>
      </trkpt>
      <trkpt lat="47.09254" lon="-1.61179">
        <ele>57</ele>
        <time>2022-06-05T10:29:19Z</time>
      </trkpt>
      <trkpt lat="47.09265" lon="-1.61183">
        <ele>57</ele>
        <time>2022-06-05T10:29:22Z</time>
      </trkpt>
      <trkpt lat="47.09276" lon="-1.61186">
        <ele>57</ele>
        <time>2022-06-05T10:29:25Z</time>
      </trkpt>
      <trkpt lat="47.09287" lon="-1.61189">
        <ele>57</ele>
        <time>2022-06-05T10:29:28Z</time>
      </trkpt>
      <trkpt lat="47.09299" lon="-1.61193">
        <ele>58</ele>
        <time>2022-06-05T10:29:31Z</time>
      </trkpt>
      <trkpt lat="47.09309" lon="-1.61197">
        <ele>58</ele>
        <time>2022-06-05T10:29:34Z</time>
      </trkpt>
      <trkpt lat="47.0932" lon="-1.61201">
        <ele>59</ele>
        <time>2022-06-05T10:29:37Z</time>
      </trkpt>
      <trkpt lat="47.0933" lon="-1.61204">
        <ele>59</ele>
        <time>2022-06-05T10:29:40Z</time>
      </trkpt>
      <trkpt lat="47.09342" lon="-1.61205">
        <ele>60</ele>
        <time>2022-06-05T10:29:44Z</time>
      </trkpt>
      <trkpt lat="47.09352" lon="-1.61207">
        <ele>60</ele>
        <time>2022-06-05T10:29:47Z</time>
      </trkpt>
      <trkpt lat="47.09364" lon="-1.61211">
        <ele>59</ele>
        <time>2022-06-05T10:29:50Z</time>
      </trkpt>
      <trkpt lat="47.09373" lon="-1.61215">
        <ele>59</ele>
        <time>2022-06-05T10:29:53Z</time>
      </trkpt>
      <trkpt lat="47.09383" lon="-1.61219">
        <ele>59</ele>
        <time>2022-06-05T10:29:56Z</time>
      </trkpt>
      <trkpt lat="47.09393" lon="-1.61223">
        <ele>58</ele>
        <time>2022-06-05T10:29:59Z</time>
      </trkpt>
      <trkpt lat="47.09403" lon="-1.61228">
        <ele>59</ele>
        <time>2022-06-05T10:30:06Z</time>
      </trkpt>
      <trkpt lat="47.09412" lon="-1.61233">
        <ele>58</ele>
        <time>2022-06-05T10:30:08Z</time>
      </trkpt>
      <trkpt lat="47.09422" lon="-1.6123">
        <ele>58</ele>
        <time>2022-06-05T10:30:10Z</time>
      </trkpt>
      <trkpt lat="47.09432" lon="-1.61221">
        <ele>57</ele>
        <time>2022-06-05T10:30:12Z</time>
      </trkpt>
      <trkpt lat="47.09442" lon="-1.6121">
        <ele>57</ele>
        <time>2022-06-05T10:30:14Z</time>
      </trkpt>
      <trkpt lat="47.09452" lon="-1.61198">
        <ele>56</ele>
        <time>2022-06-05T10:30:16Z</time>
      </trkpt>
      <trkpt lat="47.09462" lon="-1.61186">
        <ele>56</ele>
        <time>2022-06-05T10:30:18Z</time>
      </trkpt>
      <trkpt lat="47.09469" lon="-1.61178">
        <ele>55</ele>
        <time>2022-06-05T10:30:20Z</time>
      </trkpt>
      <trkpt lat="47.09476" lon="-1.6117">
        <ele>55</ele>
        <time>2022-06-05T10:30:22Z</time>
      </trkpt>
      <trkpt lat="47.09484" lon="-1.61162">
        <ele>55</ele>
        <time>2022-06-05T10:30:24Z</time>
      </trkpt>
      <trkpt lat="47.09495" lon="-1.61155">
        <ele>55</ele>
        <time>2022-06-05T10:30:26Z</time>
      </trkpt>
      <trkpt lat="47.09509" lon="-1.61146">
        <ele>54</ele>
        <time>2022-06-05T10:30:28Z</time>
      </trkpt>
      <trkpt lat="47.09526" lon="-1.61141">
        <ele>54</ele>
        <time>2022-06-05T10:30:30Z</time>
      </trkpt>
      <trkpt lat="47.09543" lon="-1.61137">
        <ele>54</ele>
        <time>2022-06-05T10:30:32Z</time>
      </trkpt>
      <trkpt lat="47.09552" lon="-1.61136">
        <ele>53</ele>
        <time>2022-06-05T10:30:33Z</time>
      </trkpt>
      <trkpt lat="47.09561" lon="-1.61134">
        <ele>53</ele>
        <time>2022-06-05T10:30:34Z</time>
      </trkpt>
      <trkpt lat="47.0957" lon="-1.61131">
        <ele>52</ele>
        <time>2022-06-05T10:30:35Z</time>
      </trkpt>
      <trkpt lat="47.09579" lon="-1.6113">
        <ele>52</ele>
        <time>2022-06-05T10:30:36Z</time>
      </trkpt>
      <trkpt lat="47.09597" lon="-1.61128">
        <ele>52</ele>
        <time>2022-06-05T10:30:38Z</time>
      </trkpt>
      <trkpt lat="47.09607" lon="-1.61127">
        <ele>51</ele>
        <time>2022-06-05T10:30:39Z</time>
      </trkpt>
      <trkpt lat="47.09625" lon="-1.61126">
        <ele>50</ele>
        <time>2022-06-05T10:30:41Z</time>
      </trkpt>
      <trkpt lat="47.09634" lon="-1.61125">
        <ele>50</ele>
        <time>2022-06-05T10:30:42Z</time>
      </trkpt>
      <trkpt lat="47.09651" lon="-1.61122">
        <ele>50</ele>
        <time>2022-06-05T10:30:44Z</time>
      </trkpt>
      <trkpt lat="47.09668" lon="-1.6112">
        <ele>50</ele>
        <time>2022-06-05T10:30:46Z</time>
      </trkpt>
      <trkpt lat="47.09685" lon="-1.61119">
        <ele>50</ele>
        <time>2022-06-05T10:30:48Z</time>
      </trkpt>
      <trkpt lat="47.09694" lon="-1.61117">
        <ele>50</ele>
        <time>2022-06-05T10:30:49Z</time>
      </trkpt>
      <trkpt lat="47.09712" lon="-1.61116">
        <ele>49</ele>
        <time>2022-06-05T10:30:51Z</time>
      </trkpt>
      <trkpt lat="47.09729" lon="-1.61114">
        <ele>49</ele>
        <time>2022-06-05T10:30:53Z</time>
      </trkpt>
      <trkpt lat="47.09746" lon="-1.61112">
        <ele>49</ele>
        <time>2022-06-05T10:30:55Z</time>
      </trkpt>
      <trkpt lat="47.09763" lon="-1.61109">
        <ele>50</ele>
        <time>2022-06-05T10:30:57Z</time>
      </trkpt>
      <trkpt lat="47.09779" lon="-1.61107">
        <ele>50</ele>
        <time>2022-06-05T10:30:59Z</time>
      </trkpt>
      <trkpt lat="47.09794" lon="-1.61103">
        <ele>51</ele>
        <time>2022-06-05T10:31:01Z</time>
      </trkpt>
      <trkpt lat="47.0981" lon="-1.61095">
        <ele>52</ele>
        <time>2022-06-05T10:31:03Z</time>
      </trkpt>
      <trkpt lat="47.09824" lon="-1.61085">
        <ele>51</ele>
        <time>2022-06-05T10:31:05Z</time>
      </trkpt>
      <trkpt lat="47.09838" lon="-1.61074">
        <ele>51</ele>
        <time>2022-06-05T10:31:07Z</time>
      </trkpt>
      <trkpt lat="47.0985" lon="-1.61059">
        <ele>51</ele>
        <time>2022-06-05T10:31:09Z</time>
      </trkpt>
      <trkpt lat="47.09861" lon="-1.61041">
        <ele>51</ele>
        <time>2022-06-05T10:31:11Z</time>
      </trkpt>
      <trkpt lat="47.09871" lon="-1.61022">
        <ele>51</ele>
        <time>2022-06-05T10:31:13Z</time>
      </trkpt>
      <trkpt lat="47.0988" lon="-1.61001">
        <ele>51</ele>
        <time>2022-06-05T10:31:15Z</time>
      </trkpt>
      <trkpt lat="47.09888" lon="-1.6098">
        <ele>51</ele>
        <time>2022-06-05T10:31:17Z</time>
      </trkpt>
      <trkpt lat="47.09896" lon="-1.6096">
        <ele>51</ele>
        <time>2022-06-05T10:31:19Z</time>
      </trkpt>
      <trkpt lat="47.09905" lon="-1.6094">
        <ele>50</ele>
        <time>2022-06-05T10:31:21Z</time>
      </trkpt>
      <trkpt lat="47.09912" lon="-1.60919">
        <ele>51</ele>
        <time>2022-06-05T10:31:23Z</time>
      </trkpt>
      <trkpt lat="47.0992" lon="-1.60899">
        <ele>51</ele>
        <time>2022-06-05T10:31:25Z</time>
      </trkpt>
      <trkpt lat="47.09929" lon="-1.60878">
        <ele>51</ele>
        <time>2022-06-05T10:31:27Z</time>
      </trkpt>
      <trkpt lat="47.09941" lon="-1.60847">
        <ele>51</ele>
        <time>2022-06-05T10:31:30Z</time>
      </trkpt>
      <trkpt lat="47.09948" lon="-1.60826">
        <ele>51</ele>
        <time>2022-06-05T10:31:32Z</time>
      </trkpt>
      <trkpt lat="47.09955" lon="-1.60804">
        <ele>51</ele>
        <time>2022-06-05T10:31:34Z</time>
      </trkpt>
      <trkpt lat="47.09962" lon="-1.60782">
        <ele>51</ele>
        <time>2022-06-05T10:31:36Z</time>
      </trkpt>
      <trkpt lat="47.09968" lon="-1.60761">
        <ele>51</ele>
        <time>2022-06-05T10:31:38Z</time>
      </trkpt>
      <trkpt lat="47.09975" lon="-1.6074">
        <ele>51</ele>
        <time>2022-06-05T10:31:40Z</time>
      </trkpt>
      <trkpt lat="47.09982" lon="-1.60718">
        <ele>52</ele>
        <time>2022-06-05T10:31:42Z</time>
      </trkpt>
      <trkpt lat="47.09988" lon="-1.60697">
        <ele>52</ele>
        <time>2022-06-05T10:31:44Z</time>
      </trkpt>
      <trkpt lat="47.09994" lon="-1.60677">
        <ele>52</ele>
        <time>2022-06-05T10:31:46Z</time>
      </trkpt>
      <trkpt lat="47.1" lon="-1.60656">
        <ele>52</ele>
        <time>2022-06-05T10:31:48Z</time>
      </trkpt>
      <trkpt lat="47.10006" lon="-1.60635">
        <ele>52</ele>
        <time>2022-06-05T10:31:50Z</time>
      </trkpt>
      <trkpt lat="47.10012" lon="-1.60614">
        <ele>52</ele>
        <time>2022-06-05T10:31:52Z</time>
      </trkpt>
      <trkpt lat="47.10018" lon="-1.60593">
        <ele>52</ele>
        <time>2022-06-05T10:31:54Z</time>
      </trkpt>
      <trkpt lat="47.10024" lon="-1.60573">
        <ele>52</ele>
        <time>2022-06-05T10:31:56Z</time>
      </trkpt>
      <trkpt lat="47.10033" lon="-1.60543">
        <ele>52</ele>
        <time>2022-06-05T10:31:59Z</time>
      </trkpt>
      <trkpt lat="47.10038" lon="-1.60522">
        <ele>52</ele>
        <time>2022-06-05T10:32:01Z</time>
      </trkpt>
      <trkpt lat="47.10044" lon="-1.60501">
        <ele>52</ele>
        <time>2022-06-05T10:32:03Z</time>
      </trkpt>
      <trkpt lat="47.10049" lon="-1.6048">
        <ele>52</ele>
        <time>2022-06-05T10:32:05Z</time>
      </trkpt>
      <trkpt lat="47.10053" lon="-1.6046">
        <ele>52</ele>
        <time>2022-06-05T10:32:07Z</time>
      </trkpt>
      <trkpt lat="47.10058" lon="-1.60427">
        <ele>52</ele>
        <time>2022-06-05T10:32:10Z</time>
      </trkpt>
      <trkpt lat="47.10062" lon="-1.60394">
        <ele>52</ele>
        <time>2022-06-05T10:32:13Z</time>
      </trkpt>
      <trkpt lat="47.10064" lon="-1.60372">
        <ele>53</ele>
        <time>2022-06-05T10:32:15Z</time>
      </trkpt>
      <trkpt lat="47.10066" lon="-1.6035">
        <ele>53</ele>
        <time>2022-06-05T10:32:17Z</time>
      </trkpt>
      <trkpt lat="47.10068" lon="-1.60327">
        <ele>53</ele>
        <time>2022-06-05T10:32:19Z</time>
      </trkpt>
      <trkpt lat="47.1007" lon="-1.60305">
        <ele>53</ele>
        <time>2022-06-05T10:32:21Z</time>
      </trkpt>
      <trkpt lat="47.10072" lon="-1.60284">
        <ele>54</ele>
        <time>2022-06-05T10:32:23Z</time>
      </trkpt>
      <trkpt lat="47.10075" lon="-1.60262">
        <ele>54</ele>
        <time>2022-06-05T10:32:25Z</time>
      </trkpt>
      <trkpt lat="47.10077" lon="-1.6024">
        <ele>53</ele>
        <time>2022-06-05T10:32:27Z</time>
      </trkpt>
      <trkpt lat="47.10078" lon="-1.60217">
        <ele>53</ele>
        <time>2022-06-05T10:32:29Z</time>
      </trkpt>
      <trkpt lat="47.1008" lon="-1.60194">
        <ele>53</ele>
        <time>2022-06-05T10:32:31Z</time>
      </trkpt>
      <trkpt lat="47.10079" lon="-1.60171">
        <ele>53</ele>
        <time>2022-06-05T10:32:33Z</time>
      </trkpt>
      <trkpt lat="47.10072" lon="-1.6015">
        <ele>53</ele>
        <time>2022-06-05T10:32:35Z</time>
      </trkpt>
      <trkpt lat="47.10067" lon="-1.60127">
        <ele>53</ele>
        <time>2022-06-05T10:32:37Z</time>
      </trkpt>
      <trkpt lat="47.10075" lon="-1.60108">
        <ele>52</ele>
        <time>2022-06-05T10:32:39Z</time>
      </trkpt>
      <trkpt lat="47.1009" lon="-1.60101">
        <ele>53</ele>
        <time>2022-06-05T10:32:41Z</time>
      </trkpt>
      <trkpt lat="47.10104" lon="-1.60092">
        <ele>53</ele>
        <time>2022-06-05T10:32:43Z</time>
      </trkpt>
      <trkpt lat="47.10114" lon="-1.60075">
        <ele>53</ele>
        <time>2022-06-05T10:32:45Z</time>
      </trkpt>
      <trkpt lat="47.10123" lon="-1.60059">
        <ele>52</ele>
        <time>2022-06-05T10:32:47Z</time>
      </trkpt>
      <trkpt lat="47.10134" lon="-1.60041">
        <ele>52</ele>
        <time>2022-06-05T10:32:49Z</time>
      </trkpt>
      <trkpt lat="47.10144" lon="-1.60024">
        <ele>51</ele>
        <time>2022-06-05T10:32:51Z</time>
      </trkpt>
      <trkpt lat="47.10155" lon="-1.60006">
        <ele>51</ele>
        <time>2022-06-05T10:32:53Z</time>
      </trkpt>
      <trkpt lat="47.10165" lon="-1.59988">
        <ele>51</ele>
        <time>2022-06-05T10:32:55Z</time>
      </trkpt>
      <trkpt lat="47.10176" lon="-1.59971">
        <ele>52</ele>
        <time>2022-06-05T10:32:57Z</time>
      </trkpt>
      <trkpt lat="47.10185" lon="-1.59955">
        <ele>53</ele>
        <time>2022-06-05T10:32:59Z</time>
      </trkpt>
      <trkpt lat="47.10196" lon="-1.59939">
        <ele>53</ele>
        <time>2022-06-05T10:33:01Z</time>
      </trkpt>
      <trkpt lat="47.10206" lon="-1.59923">
        <ele>53</ele>
        <time>2022-06-05T10:33:03Z</time>
      </trkpt>
      <trkpt lat="47.10215" lon="-1.59907">
        <ele>53</ele>
        <time>2022-06-05T10:33:05Z</time>
      </trkpt>
      <trkpt lat="47.10225" lon="-1.59889">
        <ele>54</ele>
        <time>2022-06-05T10:33:07Z</time>
      </trkpt>
      <trkpt lat="47.10235" lon="-1.59873">
        <ele>54</ele>
        <time>2022-06-05T10:33:09Z</time>
      </trkpt>
      <trkpt lat="47.10245" lon="-1.59856">
        <ele>54</ele>
        <time>2022-06-05T10:33:11Z</time>
      </trkpt>
      <trkpt lat="47.10255" lon="-1.59841">
        <ele>53</ele>
        <time>2022-06-05T10:33:13Z</time>
      </trkpt>
      <trkpt lat="47.10266" lon="-1.59824">
        <ele>53</ele>
        <time>2022-06-05T10:33:15Z</time>
      </trkpt>
      <trkpt lat="47.10276" lon="-1.59808">
        <ele>53</ele>
        <time>2022-06-05T10:33:17Z</time>
      </trkpt>
      <trkpt lat="47.10285" lon="-1.5979">
        <ele>53</ele>
        <time>2022-06-05T10:33:19Z</time>
      </trkpt>
      <trkpt lat="47.10295" lon="-1.59774">
        <ele>52</ele>
        <time>2022-06-05T10:33:21Z</time>
      </trkpt>
      <trkpt lat="47.10304" lon="-1.59759">
        <ele>53</ele>
        <time>2022-06-05T10:33:23Z</time>
      </trkpt>
      <trkpt lat="47.10312" lon="-1.59743">
        <ele>53</ele>
        <time>2022-06-05T10:33:25Z</time>
      </trkpt>
      <trkpt lat="47.10321" lon="-1.59728">
        <ele>53</ele>
        <time>2022-06-05T10:33:27Z</time>
      </trkpt>
      <trkpt lat="47.10329" lon="-1.59714">
        <ele>54</ele>
        <time>2022-06-05T10:33:29Z</time>
      </trkpt>
      <trkpt lat="47.10338" lon="-1.59699">
        <ele>54</ele>
        <time>2022-06-05T10:33:31Z</time>
      </trkpt>
      <trkpt lat="47.10347" lon="-1.59684">
        <ele>54</ele>
        <time>2022-06-05T10:33:33Z</time>
      </trkpt>
      <trkpt lat="47.10355" lon="-1.59668">
        <ele>54</ele>
        <time>2022-06-05T10:33:35Z</time>
      </trkpt>
      <trkpt lat="47.10364" lon="-1.59653">
        <ele>55</ele>
        <time>2022-06-05T10:33:37Z</time>
      </trkpt>
      <trkpt lat="47.10374" lon="-1.59638">
        <ele>55</ele>
        <time>2022-06-05T10:33:39Z</time>
      </trkpt>
      <trkpt lat="47.10383" lon="-1.59622">
        <ele>55</ele>
        <time>2022-06-05T10:33:41Z</time>
      </trkpt>
      <trkpt lat="47.10394" lon="-1.59606">
        <ele>55</ele>
        <time>2022-06-05T10:33:43Z</time>
      </trkpt>
      <trkpt lat="47.10404" lon="-1.59589">
        <ele>55</ele>
        <time>2022-06-05T10:33:45Z</time>
      </trkpt>
      <trkpt lat="47.10414" lon="-1.59573">
        <ele>55</ele>
        <time>2022-06-05T10:33:47Z</time>
      </trkpt>
      <trkpt lat="47.10424" lon="-1.59557">
        <ele>55</ele>
        <time>2022-06-05T10:33:49Z</time>
      </trkpt>
      <trkpt lat="47.10433" lon="-1.59541">
        <ele>55</ele>
        <time>2022-06-05T10:33:51Z</time>
      </trkpt>
      <trkpt lat="47.10443" lon="-1.59525">
        <ele>55</ele>
        <time>2022-06-05T10:33:53Z</time>
      </trkpt>
      <trkpt lat="47.10451" lon="-1.5951">
        <ele>56</ele>
        <time>2022-06-05T10:33:55Z</time>
      </trkpt>
      <trkpt lat="47.10461" lon="-1.59494">
        <ele>55</ele>
        <time>2022-06-05T10:33:57Z</time>
      </trkpt>
      <trkpt lat="47.10472" lon="-1.59476">
        <ele>55</ele>
        <time>2022-06-05T10:33:59Z</time>
      </trkpt>
      <trkpt lat="47.10483" lon="-1.59458">
        <ele>55</ele>
        <time>2022-06-05T10:34:01Z</time>
      </trkpt>
      <trkpt lat="47.10493" lon="-1.59439">
        <ele>55</ele>
        <time>2022-06-05T10:34:03Z</time>
      </trkpt>
      <trkpt lat="47.10504" lon="-1.59421">
        <ele>55</ele>
        <time>2022-06-05T10:34:05Z</time>
      </trkpt>
      <trkpt lat="47.10515" lon="-1.59403">
        <ele>55</ele>
        <time>2022-06-05T10:34:07Z</time>
      </trkpt>
      <trkpt lat="47.10526" lon="-1.59385">
        <ele>55</ele>
        <time>2022-06-05T10:34:09Z</time>
      </trkpt>
      <trkpt lat="47.10536" lon="-1.59367">
        <ele>55</ele>
        <time>2022-06-05T10:34:11Z</time>
      </trkpt>
      <trkpt lat="47.10547" lon="-1.59348">
        <ele>56</ele>
        <time>2022-06-05T10:34:13Z</time>
      </trkpt>
      <trkpt lat="47.10557" lon="-1.59329">
        <ele>56</ele>
        <time>2022-06-05T10:34:15Z</time>
      </trkpt>
      <trkpt lat="47.10567" lon="-1.5931">
        <ele>56</ele>
        <time>2022-06-05T10:34:17Z</time>
      </trkpt>
      <trkpt lat="47.10578" lon="-1.59291">
        <ele>57</ele>
        <time>2022-06-05T10:34:19Z</time>
      </trkpt>
      <trkpt lat="47.10589" lon="-1.59273">
        <ele>57</ele>
        <time>2022-06-05T10:34:21Z</time>
      </trkpt>
      <trkpt lat="47.106" lon="-1.59255">
        <ele>57</ele>
        <time>2022-06-05T10:34:23Z</time>
      </trkpt>
      <trkpt lat="47.10611" lon="-1.59237">
        <ele>57</ele>
        <time>2022-06-05T10:34:25Z</time>
      </trkpt>
      <trkpt lat="47.10622" lon="-1.5922">
        <ele>58</ele>
        <time>2022-06-05T10:34:27Z</time>
      </trkpt>
      <trkpt lat="47.10632" lon="-1.59202">
        <ele>58</ele>
        <time>2022-06-05T10:34:29Z</time>
      </trkpt>
      <trkpt lat="47.10642" lon="-1.59183">
        <ele>58</ele>
        <time>2022-06-05T10:34:31Z</time>
      </trkpt>
      <trkpt lat="47.10651" lon="-1.59164">
        <ele>58</ele>
        <time>2022-06-05T10:34:33Z</time>
      </trkpt>
      <trkpt lat="47.1066" lon="-1.59145">
        <ele>58</ele>
        <time>2022-06-05T10:34:35Z</time>
      </trkpt>
      <trkpt lat="47.10666" lon="-1.59125">
        <ele>58</ele>
        <time>2022-06-05T10:34:37Z</time>
      </trkpt>
      <trkpt lat="47.10673" lon="-1.59106">
        <ele>58</ele>
        <time>2022-06-05T10:34:39Z</time>
      </trkpt>
      <trkpt lat="47.10679" lon="-1.59087">
        <ele>58</ele>
        <time>2022-06-05T10:34:41Z</time>
      </trkpt>
      <trkpt lat="47.10684" lon="-1.59068">
        <ele>58</ele>
        <time>2022-06-05T10:34:43Z</time>
      </trkpt>
      <trkpt lat="47.10688" lon="-1.5905">
        <ele>59</ele>
        <time>2022-06-05T10:34:45Z</time>
      </trkpt>
      <trkpt lat="47.10692" lon="-1.59034">
        <ele>59</ele>
        <time>2022-06-05T10:34:47Z</time>
      </trkpt>
      <trkpt lat="47.10701" lon="-1.59021">
        <ele>59</ele>
        <time>2022-06-05T10:34:49Z</time>
      </trkpt>
      <trkpt lat="47.10709" lon="-1.59005">
        <ele>60</ele>
        <time>2022-06-05T10:34:51Z</time>
      </trkpt>
      <trkpt lat="47.10718" lon="-1.58988">
        <ele>60</ele>
        <time>2022-06-05T10:34:53Z</time>
      </trkpt>
      <trkpt lat="47.10725" lon="-1.58969">
        <ele>60</ele>
        <time>2022-06-05T10:34:55Z</time>
      </trkpt>
      <trkpt lat="47.10731" lon="-1.58949">
        <ele>60</ele>
        <time>2022-06-05T10:34:57Z</time>
      </trkpt>
      <trkpt lat="47.10738" lon="-1.58928">
        <ele>60</ele>
        <time>2022-06-05T10:34:59Z</time>
      </trkpt>
      <trkpt lat="47.10746" lon="-1.58909">
        <ele>59</ele>
        <time>2022-06-05T10:35:01Z</time>
      </trkpt>
      <trkpt lat="47.10754" lon="-1.5889">
        <ele>59</ele>
        <time>2022-06-05T10:35:03Z</time>
      </trkpt>
      <trkpt lat="47.10765" lon="-1.58873">
        <ele>59</ele>
        <time>2022-06-05T10:35:05Z</time>
      </trkpt>
      <trkpt lat="47.10777" lon="-1.58857">
        <ele>59</ele>
        <time>2022-06-05T10:35:07Z</time>
      </trkpt>
      <trkpt lat="47.10788" lon="-1.58839">
        <ele>59</ele>
        <time>2022-06-05T10:35:09Z</time>
      </trkpt>
      <trkpt lat="47.108" lon="-1.58821">
        <ele>59</ele>
        <time>2022-06-05T10:35:11Z</time>
      </trkpt>
      <trkpt lat="47.10811" lon="-1.58804">
        <ele>59</ele>
        <time>2022-06-05T10:35:13Z</time>
      </trkpt>
      <trkpt lat="47.10822" lon="-1.58786">
        <ele>58</ele>
        <time>2022-06-05T10:35:15Z</time>
      </trkpt>
      <trkpt lat="47.10833" lon="-1.58769">
        <ele>58</ele>
        <time>2022-06-05T10:35:17Z</time>
      </trkpt>
      <trkpt lat="47.10844" lon="-1.58752">
        <ele>58</ele>
        <time>2022-06-05T10:35:19Z</time>
      </trkpt>
      <trkpt lat="47.10855" lon="-1.58734">
        <ele>58</ele>
        <time>2022-06-05T10:35:21Z</time>
      </trkpt>
      <trkpt lat="47.10866" lon="-1.58718">
        <ele>58</ele>
        <time>2022-06-05T10:35:23Z</time>
      </trkpt>
      <trkpt lat="47.10879" lon="-1.58703">
        <ele>57</ele>
        <time>2022-06-05T10:35:25Z</time>
      </trkpt>
      <trkpt lat="47.1089" lon="-1.58685">
        <ele>57</ele>
        <time>2022-06-05T10:35:27Z</time>
      </trkpt>
      <trkpt lat="47.10901" lon="-1.58667">
        <ele>57</ele>
        <time>2022-06-05T10:35:29Z</time>
      </trkpt>
      <trkpt lat="47.10914" lon="-1.58648">
        <ele>56</ele>
        <time>2022-06-05T10:35:31Z</time>
      </trkpt>
      <trkpt lat="47.10926" lon="-1.5863">
        <ele>56</ele>
        <time>2022-06-05T10:35:33Z</time>
      </trkpt>
      <trkpt lat="47.10939" lon="-1.58614">
        <ele>55</ele>
        <time>2022-06-05T10:35:35Z</time>
      </trkpt>
      <trkpt lat="47.10953" lon="-1.58597">
        <ele>56</ele>
        <time>2022-06-05T10:35:37Z</time>
      </trkpt>
      <trkpt lat="47.10965" lon="-1.58579">
        <ele>56</ele>
        <time>2022-06-05T10:35:39Z</time>
      </trkpt>
      <trkpt lat="47.10977" lon="-1.58561">
        <ele>56</ele>
        <time>2022-06-05T10:35:41Z</time>
      </trkpt>
      <trkpt lat="47.10988" lon="-1.58541">
        <ele>56</ele>
        <time>2022-06-05T10:35:43Z</time>
      </trkpt>
      <trkpt lat="47.10999" lon="-1.58522">
        <ele>56</ele>
        <time>2022-06-05T10:35:45Z</time>
      </trkpt>
      <trkpt lat="47.1101" lon="-1.58505">
        <ele>56</ele>
        <time>2022-06-05T10:35:47Z</time>
      </trkpt>
      <trkpt lat="47.11022" lon="-1.58487">
        <ele>56</ele>
        <time>2022-06-05T10:35:49Z</time>
      </trkpt>
      <trkpt lat="47.11033" lon="-1.58469">
        <ele>56</ele>
        <time>2022-06-05T10:35:51Z</time>
      </trkpt>
      <trkpt lat="47.11043" lon="-1.5845">
        <ele>55</ele>
        <time>2022-06-05T10:35:53Z</time>
      </trkpt>
      <trkpt lat="47.11053" lon="-1.58431">
        <ele>54</ele>
        <time>2022-06-05T10:35:55Z</time>
      </trkpt>
      <trkpt lat="47.11063" lon="-1.58412">
        <ele>54</ele>
        <time>2022-06-05T10:35:57Z</time>
      </trkpt>
      <trkpt lat="47.11073" lon="-1.58392">
        <ele>54</ele>
        <time>2022-06-05T10:35:59Z</time>
      </trkpt>
      <trkpt lat="47.11082" lon="-1.58371">
        <ele>54</ele>
        <time>2022-06-05T10:36:01Z</time>
      </trkpt>
      <trkpt lat="47.11091" lon="-1.58351">
        <ele>53</ele>
        <time>2022-06-05T10:36:03Z</time>
      </trkpt>
      <trkpt lat="47.11101" lon="-1.58332">
        <ele>53</ele>
        <time>2022-06-05T10:36:05Z</time>
      </trkpt>
      <trkpt lat="47.11113" lon="-1.58315">
        <ele>53</ele>
        <time>2022-06-05T10:36:07Z</time>
      </trkpt>
      <trkpt lat="47.11126" lon="-1.58299">
        <ele>52</ele>
        <time>2022-06-05T10:36:09Z</time>
      </trkpt>
      <trkpt lat="47.1114" lon="-1.58285">
        <ele>52</ele>
        <time>2022-06-05T10:36:11Z</time>
      </trkpt>
      <trkpt lat="47.11152" lon="-1.58271">
        <ele>52</ele>
        <time>2022-06-05T10:36:13Z</time>
      </trkpt>
      <trkpt lat="47.11165" lon="-1.58257">
        <ele>51</ele>
        <time>2022-06-05T10:36:15Z</time>
      </trkpt>
      <trkpt lat="47.11178" lon="-1.58243">
        <ele>51</ele>
        <time>2022-06-05T10:36:17Z</time>
      </trkpt>
      <trkpt lat="47.1119" lon="-1.58229">
        <ele>51</ele>
        <time>2022-06-05T10:36:19Z</time>
      </trkpt>
      <trkpt lat="47.11201" lon="-1.58214">
        <ele>51</ele>
        <time>2022-06-05T10:36:21Z</time>
      </trkpt>
      <trkpt lat="47.11213" lon="-1.58198">
        <ele>51</ele>
        <time>2022-06-05T10:36:23Z</time>
      </trkpt>
      <trkpt lat="47.11225" lon="-1.58183">
        <ele>51</ele>
        <time>2022-06-05T10:36:25Z</time>
      </trkpt>
      <trkpt lat="47.11237" lon="-1.58169">
        <ele>51</ele>
        <time>2022-06-05T10:36:27Z</time>
      </trkpt>
      <trkpt lat="47.1125" lon="-1.58155">
        <ele>51</ele>
        <time>2022-06-05T10:36:29Z</time>
      </trkpt>
      <trkpt lat="47.11263" lon="-1.58143">
        <ele>51</ele>
        <time>2022-06-05T10:36:31Z</time>
      </trkpt>
      <trkpt lat="47.11277" lon="-1.58131">
        <ele>50</ele>
        <time>2022-06-05T10:36:33Z</time>
      </trkpt>
      <trkpt lat="47.11291" lon="-1.5812">
        <ele>50</ele>
        <time>2022-06-05T10:36:35Z</time>
      </trkpt>
      <trkpt lat="47.11305" lon="-1.58109">
        <ele>50</ele>
        <time>2022-06-05T10:36:37Z</time>
      </trkpt>
      <trkpt lat="47.11319" lon="-1.58101">
        <ele>50</ele>
        <time>2022-06-05T10:36:39Z</time>
      </trkpt>
      <trkpt lat="47.11333" lon="-1.58093">
        <ele>50</ele>
        <time>2022-06-05T10:36:41Z</time>
      </trkpt>
      <trkpt lat="47.11347" lon="-1.58085">
        <ele>50</ele>
        <time>2022-06-05T10:36:43Z</time>
      </trkpt>
      <trkpt lat="47.1136" lon="-1.58077">
        <ele>50</ele>
        <time>2022-06-05T10:36:45Z</time>
      </trkpt>
      <trkpt lat="47.11374" lon="-1.58068">
        <ele>50</ele>
        <time>2022-06-05T10:36:47Z</time>
      </trkpt>
      <trkpt lat="47.11387" lon="-1.5806">
        <ele>50</ele>
        <time>2022-06-05T10:36:49Z</time>
      </trkpt>
      <trkpt lat="47.11401" lon="-1.58051">
        <ele>50</ele>
        <time>2022-06-05T10:36:51Z</time>
      </trkpt>
      <trkpt lat="47.11415" lon="-1.58043">
        <ele>49</ele>
        <time>2022-06-05T10:36:53Z</time>
      </trkpt>
      <trkpt lat="47.11429" lon="-1.58035">
        <ele>49</ele>
        <time>2022-06-05T10:36:55Z</time>
      </trkpt>
      <trkpt lat="47.11443" lon="-1.58028">
        <ele>49</ele>
        <time>2022-06-05T10:36:57Z</time>
      </trkpt>
      <trkpt lat="47.11458" lon="-1.58021">
        <ele>50</ele>
        <time>2022-06-05T10:36:59Z</time>
      </trkpt>
      <trkpt lat="47.11472" lon="-1.58016">
        <ele>50</ele>
        <time>2022-06-05T10:37:01Z</time>
      </trkpt>
      <trkpt lat="47.11486" lon="-1.58014">
        <ele>50</ele>
        <time>2022-06-05T10:37:03Z</time>
      </trkpt>
      <trkpt lat="47.11501" lon="-1.58011">
        <ele>51</ele>
        <time>2022-06-05T10:37:05Z</time>
      </trkpt>
      <trkpt lat="47.11515" lon="-1.5801">
        <ele>52</ele>
        <time>2022-06-05T10:37:07Z</time>
      </trkpt>
      <trkpt lat="47.11529" lon="-1.58009">
        <ele>52</ele>
        <time>2022-06-05T10:37:09Z</time>
      </trkpt>
      <trkpt lat="47.11543" lon="-1.58009">
        <ele>52</ele>
        <time>2022-06-05T10:37:11Z</time>
      </trkpt>
      <trkpt lat="47.11558" lon="-1.58009">
        <ele>53</ele>
        <time>2022-06-05T10:37:13Z</time>
      </trkpt>
      <trkpt lat="47.11573" lon="-1.5801">
        <ele>54</ele>
        <time>2022-06-05T10:37:15Z</time>
      </trkpt>
      <trkpt lat="47.11587" lon="-1.58013">
        <ele>54</ele>
        <time>2022-06-05T10:37:17Z</time>
      </trkpt>
      <trkpt lat="47.116" lon="-1.58014">
        <ele>54</ele>
        <time>2022-06-05T10:37:19Z</time>
      </trkpt>
      <trkpt lat="47.11614" lon="-1.58011">
        <ele>54</ele>
        <time>2022-06-05T10:37:21Z</time>
      </trkpt>
      <trkpt lat="47.11626" lon="-1.58007">
        <ele>54</ele>
        <time>2022-06-05T10:37:23Z</time>
      </trkpt>
      <trkpt lat="47.11638" lon="-1.58007">
        <ele>54</ele>
        <time>2022-06-05T10:37:25Z</time>
      </trkpt>
      <trkpt lat="47.11648" lon="-1.58018">
        <ele>54</ele>
        <time>2022-06-05T10:37:27Z</time>
      </trkpt>
      <trkpt lat="47.11659" lon="-1.58028">
        <ele>54</ele>
        <time>2022-06-05T10:37:29Z</time>
      </trkpt>
      <trkpt lat="47.11673" lon="-1.58029">
        <ele>54</ele>
        <time>2022-06-05T10:37:31Z</time>
      </trkpt>
      <trkpt lat="47.11687" lon="-1.58029">
        <ele>54</ele>
        <time>2022-06-05T10:37:33Z</time>
      </trkpt>
      <trkpt lat="47.11701" lon="-1.5803">
        <ele>54</ele>
        <time>2022-06-05T10:37:35Z</time>
      </trkpt>
      <trkpt lat="47.11715" lon="-1.58031">
        <ele>54</ele>
        <time>2022-06-05T10:37:37Z</time>
      </trkpt>
      <trkpt lat="47.11729" lon="-1.58033">
        <ele>54</ele>
        <time>2022-06-05T10:37:39Z</time>
      </trkpt>
      <trkpt lat="47.11742" lon="-1.58035">
        <ele>54</ele>
        <time>2022-06-05T10:37:41Z</time>
      </trkpt>
      <trkpt lat="47.11756" lon="-1.58037">
        <ele>55</ele>
        <time>2022-06-05T10:37:43Z</time>
      </trkpt>
      <trkpt lat="47.11769" lon="-1.5804">
        <ele>54</ele>
        <time>2022-06-05T10:37:45Z</time>
      </trkpt>
      <trkpt lat="47.11782" lon="-1.58043">
        <ele>54</ele>
        <time>2022-06-05T10:37:47Z</time>
      </trkpt>
      <trkpt lat="47.11795" lon="-1.58046">
        <ele>55</ele>
        <time>2022-06-05T10:37:49Z</time>
      </trkpt>
      <trkpt lat="47.11808" lon="-1.58048">
        <ele>55</ele>
        <time>2022-06-05T10:37:51Z</time>
      </trkpt>
      <trkpt lat="47.1182" lon="-1.58051">
        <ele>55</ele>
        <time>2022-06-05T10:37:53Z</time>
      </trkpt>
      <trkpt lat="47.11832" lon="-1.58054">
        <ele>56</ele>
        <time>2022-06-05T10:37:55Z</time>
      </trkpt>
      <trkpt lat="47.11845" lon="-1.58057">
        <ele>56</ele>
        <time>2022-06-05T10:37:57Z</time>
      </trkpt>
      <trkpt lat="47.11857" lon="-1.5806">
        <ele>56</ele>
        <time>2022-06-05T10:37:59Z</time>
      </trkpt>
      <trkpt lat="47.11869" lon="-1.58063">
        <ele>57</ele>
        <time>2022-06-05T10:38:01Z</time>
      </trkpt>
      <trkpt lat="47.11881" lon="-1.58066">
        <ele>56</ele>
        <time>2022-06-05T10:38:03Z</time>
      </trkpt>
      <trkpt lat="47.11893" lon="-1.5807">
        <ele>56</ele>
        <time>2022-06-05T10:38:05Z</time>
      </trkpt>
      <trkpt lat="47.11906" lon="-1.58073">
        <ele>57</ele>
        <time>2022-06-05T10:38:07Z</time>
      </trkpt>
      <trkpt lat="47.11919" lon="-1.58076">
        <ele>57</ele>
        <time>2022-06-05T10:38:09Z</time>
      </trkpt>
      <trkpt lat="47.11932" lon="-1.58079">
        <ele>57</ele>
        <time>2022-06-05T10:38:11Z</time>
      </trkpt>
      <trkpt lat="47.11944" lon="-1.58082">
        <ele>57</ele>
        <time>2022-06-05T10:38:13Z</time>
      </trkpt>
      <trkpt lat="47.11955" lon="-1.58085">
        <ele>57</ele>
        <time>2022-06-05T10:38:15Z</time>
      </trkpt>
      <trkpt lat="47.11967" lon="-1.58088">
        <ele>58</ele>
        <time>2022-06-05T10:38:17Z</time>
      </trkpt>
      <trkpt lat="47.11979" lon="-1.58091">
        <ele>58</ele>
        <time>2022-06-05T10:38:19Z</time>
      </trkpt>
      <trkpt lat="47.11991" lon="-1.58096">
        <ele>58</ele>
        <time>2022-06-05T10:38:21Z</time>
      </trkpt>
      <trkpt lat="47.12001" lon="-1.58099">
        <ele>59</ele>
        <time>2022-06-05T10:38:23Z</time>
      </trkpt>
      <trkpt lat="47.12012" lon="-1.58097">
        <ele>59</ele>
        <time>2022-06-05T10:38:27Z</time>
      </trkpt>
      <trkpt lat="47.12022" lon="-1.58094">
        <ele>59</ele>
        <time>2022-06-05T10:38:30Z</time>
      </trkpt>
      <trkpt lat="47.12032" lon="-1.58107">
        <ele>59</ele>
        <time>2022-06-05T10:38:33Z</time>
      </trkpt>
      <trkpt lat="47.12041" lon="-1.58114">
        <ele>59</ele>
        <time>2022-06-05T10:38:35Z</time>
      </trkpt>
      <trkpt lat="47.12051" lon="-1.58121">
        <ele>58</ele>
        <time>2022-06-05T10:38:37Z</time>
      </trkpt>
      <trkpt lat="47.12062" lon="-1.58129">
        <ele>57</ele>
        <time>2022-06-05T10:38:39Z</time>
      </trkpt>
      <trkpt lat="47.12074" lon="-1.58137">
        <ele>57</ele>
        <time>2022-06-05T10:38:41Z</time>
      </trkpt>
      <trkpt lat="47.12087" lon="-1.58145">
        <ele>57</ele>
        <time>2022-06-05T10:38:43Z</time>
      </trkpt>
      <trkpt lat="47.121" lon="-1.58153">
        <ele>57</ele>
        <time>2022-06-05T10:38:45Z</time>
      </trkpt>
      <trkpt lat="47.12113" lon="-1.58162">
        <ele>56</ele>
        <time>2022-06-05T10:38:47Z</time>
      </trkpt>
      <trkpt lat="47.12126" lon="-1.58173">
        <ele>56</ele>
        <time>2022-06-05T10:38:49Z</time>
      </trkpt>
      <trkpt lat="47.12139" lon="-1.58187">
        <ele>56</ele>
        <time>2022-06-05T10:38:51Z</time>
      </trkpt>
      <trkpt lat="47.12152" lon="-1.58199">
        <ele>55</ele>
        <time>2022-06-05T10:38:53Z</time>
      </trkpt>
      <trkpt lat="47.12165" lon="-1.58212">
        <ele>55</ele>
        <time>2022-06-05T10:38:55Z</time>
      </trkpt>
      <trkpt lat="47.12178" lon="-1.58224">
        <ele>55</ele>
        <time>2022-06-05T10:38:57Z</time>
      </trkpt>
      <trkpt lat="47.1219" lon="-1.58237">
        <ele>54</ele>
        <time>2022-06-05T10:38:59Z</time>
      </trkpt>
      <trkpt lat="47.12203" lon="-1.58248">
        <ele>55</ele>
        <time>2022-06-05T10:39:01Z</time>
      </trkpt>
      <trkpt lat="47.12214" lon="-1.5826">
        <ele>55</ele>
        <time>2022-06-05T10:39:03Z</time>
      </trkpt>
      <trkpt lat="47.12226" lon="-1.58272">
        <ele>54</ele>
        <time>2022-06-05T10:39:05Z</time>
      </trkpt>
      <trkpt lat="47.12238" lon="-1.58283">
        <ele>53</ele>
        <time>2022-06-05T10:39:07Z</time>
      </trkpt>
      <trkpt lat="47.12249" lon="-1.58294">
        <ele>53</ele>
        <time>2022-06-05T10:39:09Z</time>
      </trkpt>
      <trkpt lat="47.12261" lon="-1.58305">
        <ele>52</ele>
        <time>2022-06-05T10:39:11Z</time>
      </trkpt>
      <trkpt lat="47.12272" lon="-1.58317">
        <ele>52</ele>
        <time>2022-06-05T10:39:13Z</time>
      </trkpt>
      <trkpt lat="47.12284" lon="-1.58328">
        <ele>53</ele>
        <time>2022-06-05T10:39:15Z</time>
      </trkpt>
      <trkpt lat="47.12294" lon="-1.58339">
        <ele>53</ele>
        <time>2022-06-05T10:39:17Z</time>
      </trkpt>
      <trkpt lat="47.12301" lon="-1.58353">
        <ele>54</ele>
        <time>2022-06-05T10:39:19Z</time>
      </trkpt>
      <trkpt lat="47.12302" lon="-1.58367">
        <ele>55</ele>
        <time>2022-06-05T10:39:21Z</time>
      </trkpt>
      <trkpt lat="47.12303" lon="-1.58384">
        <ele>55</ele>
        <time>2022-06-05T10:39:23Z</time>
      </trkpt>
      <trkpt lat="47.12309" lon="-1.58398">
        <ele>56</ele>
        <time>2022-06-05T10:39:25Z</time>
      </trkpt>
      <trkpt lat="47.12316" lon="-1.58413">
        <ele>56</ele>
        <time>2022-06-05T10:39:27Z</time>
      </trkpt>
      <trkpt lat="47.12323" lon="-1.58424">
        <ele>56</ele>
        <time>2022-06-05T10:39:29Z</time>
      </trkpt>
      <trkpt lat="47.12331" lon="-1.58434">
        <ele>57</ele>
        <time>2022-06-05T10:39:31Z</time>
      </trkpt>
      <trkpt lat="47.12335" lon="-1.58452">
        <ele>57</ele>
        <time>2022-06-05T10:39:33Z</time>
      </trkpt>
      <trkpt lat="47.12338" lon="-1.58469">
        <ele>58</ele>
        <time>2022-06-05T10:39:35Z</time>
      </trkpt>
      <trkpt lat="47.12343" lon="-1.58487">
        <ele>58</ele>
        <time>2022-06-05T10:39:37Z</time>
      </trkpt>
      <trkpt lat="47.12346" lon="-1.58505">
        <ele>57</ele>
        <time>2022-06-05T10:39:39Z</time>
      </trkpt>
      <trkpt lat="47.1235" lon="-1.58522">
        <ele>57</ele>
        <time>2022-06-05T10:39:41Z</time>
      </trkpt>
      <trkpt lat="47.12354" lon="-1.58538">
        <ele>57</ele>
        <time>2022-06-05T10:39:43Z</time>
      </trkpt>
      <trkpt lat="47.12357" lon="-1.58554">
        <ele>58</ele>
        <time>2022-06-05T10:39:45Z</time>
      </trkpt>
      <trkpt lat="47.12362" lon="-1.58571">
        <ele>57</ele>
        <time>2022-06-05T10:39:47Z</time>
      </trkpt>
      <trkpt lat="47.12366" lon="-1.58587">
        <ele>57</ele>
        <time>2022-06-05T10:39:49Z</time>
      </trkpt>
      <trkpt lat="47.1237" lon="-1.58603">
        <ele>58</ele>
        <time>2022-06-05T10:39:51Z</time>
      </trkpt>
      <trkpt lat="47.12373" lon="-1.5862">
        <ele>58</ele>
        <time>2022-06-05T10:39:53Z</time>
      </trkpt>
      <trkpt lat="47.12377" lon="-1.58636">
        <ele>58</ele>
        <time>2022-06-05T10:39:55Z</time>
      </trkpt>
      <trkpt lat="47.12381" lon="-1.58654">
        <ele>57</ele>
        <time>2022-06-05T10:39:57Z</time>
      </trkpt>
      <trkpt lat="47.12384" lon="-1.5867">
        <ele>57</ele>
        <time>2022-06-05T10:39:59Z</time>
      </trkpt>
      <trkpt lat="47.12388" lon="-1.58685">
        <ele>58</ele>
        <time>2022-06-05T10:40:01Z</time>
      </trkpt>
      <trkpt lat="47.12391" lon="-1.58702">
        <ele>59</ele>
        <time>2022-06-05T10:40:03Z</time>
      </trkpt>
      <trkpt lat="47.12395" lon="-1.58718">
        <ele>59</ele>
        <time>2022-06-05T10:40:05Z</time>
      </trkpt>
      <trkpt lat="47.12398" lon="-1.58735">
        <ele>58</ele>
        <time>2022-06-05T10:40:07Z</time>
      </trkpt>
      <trkpt lat="47.12401" lon="-1.5875">
        <ele>58</ele>
        <time>2022-06-05T10:40:09Z</time>
      </trkpt>
      <trkpt lat="47.12404" lon="-1.58765">
        <ele>59</ele>
        <time>2022-06-05T10:40:11Z</time>
      </trkpt>
      <trkpt lat="47.12407" lon="-1.58781">
        <ele>58</ele>
        <time>2022-06-05T10:40:13Z</time>
      </trkpt>
      <trkpt lat="47.1241" lon="-1.58797">
        <ele>58</ele>
        <time>2022-06-05T10:40:15Z</time>
      </trkpt>
      <trkpt lat="47.12412" lon="-1.58813">
        <ele>58</ele>
        <time>2022-06-05T10:40:17Z</time>
      </trkpt>
      <trkpt lat="47.12415" lon="-1.58828">
        <ele>57</ele>
        <time>2022-06-05T10:40:19Z</time>
      </trkpt>
      <trkpt lat="47.12416" lon="-1.58843">
        <ele>58</ele>
        <time>2022-06-05T10:40:21Z</time>
      </trkpt>
      <trkpt lat="47.12417" lon="-1.58858">
        <ele>58</ele>
        <time>2022-06-05T10:40:23Z</time>
      </trkpt>
      <trkpt lat="47.12419" lon="-1.58874">
        <ele>58</ele>
        <time>2022-06-05T10:40:25Z</time>
      </trkpt>
      <trkpt lat="47.12421" lon="-1.5889">
        <ele>57</ele>
        <time>2022-06-05T10:40:27Z</time>
      </trkpt>
      <trkpt lat="47.12422" lon="-1.58907">
        <ele>57</ele>
        <time>2022-06-05T10:40:29Z</time>
      </trkpt>
      <trkpt lat="47.12424" lon="-1.58924">
        <ele>56</ele>
        <time>2022-06-05T10:40:31Z</time>
      </trkpt>
      <trkpt lat="47.12425" lon="-1.58943">
        <ele>56</ele>
        <time>2022-06-05T10:40:33Z</time>
      </trkpt>
      <trkpt lat="47.12426" lon="-1.58961">
        <ele>56</ele>
        <time>2022-06-05T10:40:35Z</time>
      </trkpt>
      <trkpt lat="47.12427" lon="-1.58981">
        <ele>55</ele>
        <time>2022-06-05T10:40:37Z</time>
      </trkpt>
      <trkpt lat="47.12429" lon="-1.59">
        <ele>55</ele>
        <time>2022-06-05T10:40:39Z</time>
      </trkpt>
      <trkpt lat="47.1243" lon="-1.5902">
        <ele>55</ele>
        <time>2022-06-05T10:40:41Z</time>
      </trkpt>
      <trkpt lat="47.12431" lon="-1.5904">
        <ele>54</ele>
        <time>2022-06-05T10:40:43Z</time>
      </trkpt>
      <trkpt lat="47.12431" lon="-1.5906">
        <ele>54</ele>
        <time>2022-06-05T10:40:45Z</time>
      </trkpt>
      <trkpt lat="47.12433" lon="-1.59079">
        <ele>54</ele>
        <time>2022-06-05T10:40:47Z</time>
      </trkpt>
      <trkpt lat="47.12434" lon="-1.59099">
        <ele>54</ele>
        <time>2022-06-05T10:40:49Z</time>
      </trkpt>
      <trkpt lat="47.12434" lon="-1.59117">
        <ele>54</ele>
        <time>2022-06-05T10:40:51Z</time>
      </trkpt>
      <trkpt lat="47.12435" lon="-1.59135">
        <ele>54</ele>
        <time>2022-06-05T10:40:53Z</time>
      </trkpt>
      <trkpt lat="47.12437" lon="-1.59153">
        <ele>54</ele>
        <time>2022-06-05T10:40:55Z</time>
      </trkpt>
      <trkpt lat="47.12439" lon="-1.59171">
        <ele>54</ele>
        <time>2022-06-05T10:40:57Z</time>
      </trkpt>
      <trkpt lat="47.12443" lon="-1.59187">
        <ele>54</ele>
        <time>2022-06-05T10:40:59Z</time>
      </trkpt>
      <trkpt lat="47.12442" lon="-1.59203">
        <ele>54</ele>
        <time>2022-06-05T10:41:01Z</time>
      </trkpt>
      <trkpt lat="47.12441" lon="-1.59219">
        <ele>53</ele>
        <time>2022-06-05T10:41:03Z</time>
      </trkpt>
      <trkpt lat="47.1244" lon="-1.59235">
        <ele>53</ele>
        <time>2022-06-05T10:41:05Z</time>
      </trkpt>
      <trkpt lat="47.1244" lon="-1.59252">
        <ele>53</ele>
        <time>2022-06-05T10:41:07Z</time>
      </trkpt>
      <trkpt lat="47.12441" lon="-1.59269">
        <ele>54</ele>
        <time>2022-06-05T10:41:09Z</time>
      </trkpt>
      <trkpt lat="47.12441" lon="-1.59287">
        <ele>54</ele>
        <time>2022-06-05T10:41:11Z</time>
      </trkpt>
      <trkpt lat="47.12442" lon="-1.59304">
        <ele>54</ele>
        <time>2022-06-05T10:41:13Z</time>
      </trkpt>
      <trkpt lat="47.12443" lon="-1.59322">
        <ele>54</ele>
        <time>2022-06-05T10:41:15Z</time>
      </trkpt>
      <trkpt lat="47.12444" lon="-1.59338">
        <ele>55</ele>
        <time>2022-06-05T10:41:17Z</time>
      </trkpt>
      <trkpt lat="47.12445" lon="-1.59354">
        <ele>55</ele>
        <time>2022-06-05T10:41:19Z</time>
      </trkpt>
      <trkpt lat="47.12446" lon="-1.5937">
        <ele>54</ele>
        <time>2022-06-05T10:41:21Z</time>
      </trkpt>
      <trkpt lat="47.12447" lon="-1.59385">
        <ele>55</ele>
        <time>2022-06-05T10:41:23Z</time>
      </trkpt>
      <trkpt lat="47.12448" lon="-1.59401">
        <ele>55</ele>
        <time>2022-06-05T10:41:25Z</time>
      </trkpt>
      <trkpt lat="47.12449" lon="-1.59417">
        <ele>55</ele>
        <time>2022-06-05T10:41:27Z</time>
      </trkpt>
      <trkpt lat="47.1245" lon="-1.59434">
        <ele>55</ele>
        <time>2022-06-05T10:41:29Z</time>
      </trkpt>
      <trkpt lat="47.12451" lon="-1.59451">
        <ele>55</ele>
        <time>2022-06-05T10:41:31Z</time>
      </trkpt>
      <trkpt lat="47.12451" lon="-1.59475">
        <ele>55</ele>
        <time>2022-06-05T10:41:34Z</time>
      </trkpt>
      <trkpt lat="47.12452" lon="-1.59492">
        <ele>55</ele>
        <time>2022-06-05T10:41:36Z</time>
      </trkpt>
      <trkpt lat="47.12453" lon="-1.59507">
        <ele>56</ele>
        <time>2022-06-05T10:41:38Z</time>
      </trkpt>
      <trkpt lat="47.12453" lon="-1.59522">
        <ele>56</ele>
        <time>2022-06-05T10:41:40Z</time>
      </trkpt>
      <trkpt lat="47.12454" lon="-1.59536">
        <ele>57</ele>
        <time>2022-06-05T10:41:42Z</time>
      </trkpt>
      <trkpt lat="47.12455" lon="-1.5955">
        <ele>56</ele>
        <time>2022-06-05T10:41:44Z</time>
      </trkpt>
      <trkpt lat="47.12456" lon="-1.59563">
        <ele>56</ele>
        <time>2022-06-05T10:41:46Z</time>
      </trkpt>
      <trkpt lat="47.12457" lon="-1.59577">
        <ele>57</ele>
        <time>2022-06-05T10:41:48Z</time>
      </trkpt>
      <trkpt lat="47.12457" lon="-1.59591">
        <ele>57</ele>
        <time>2022-06-05T10:41:50Z</time>
      </trkpt>
      <trkpt lat="47.12458" lon="-1.59606">
        <ele>57</ele>
        <time>2022-06-05T10:41:52Z</time>
      </trkpt>
      <trkpt lat="47.12459" lon="-1.59621">
        <ele>57</ele>
        <time>2022-06-05T10:41:54Z</time>
      </trkpt>
      <trkpt lat="47.12459" lon="-1.59636">
        <ele>57</ele>
        <time>2022-06-05T10:41:56Z</time>
      </trkpt>
      <trkpt lat="47.1246" lon="-1.5965">
        <ele>57</ele>
        <time>2022-06-05T10:41:58Z</time>
      </trkpt>
      <trkpt lat="47.12461" lon="-1.59665">
        <ele>57</ele>
        <time>2022-06-05T10:42:00Z</time>
      </trkpt>
      <trkpt lat="47.12461" lon="-1.5968">
        <ele>57</ele>
        <time>2022-06-05T10:42:02Z</time>
      </trkpt>
      <trkpt lat="47.12462" lon="-1.59694">
        <ele>57</ele>
        <time>2022-06-05T10:42:04Z</time>
      </trkpt>
      <trkpt lat="47.12462" lon="-1.5971">
        <ele>57</ele>
        <time>2022-06-05T10:42:06Z</time>
      </trkpt>
      <trkpt lat="47.12463" lon="-1.59725">
        <ele>57</ele>
        <time>2022-06-05T10:42:08Z</time>
      </trkpt>
      <trkpt lat="47.12463" lon="-1.59741">
        <ele>57</ele>
        <time>2022-06-05T10:42:10Z</time>
      </trkpt>
      <trkpt lat="47.12464" lon="-1.59757">
        <ele>58</ele>
        <time>2022-06-05T10:42:12Z</time>
      </trkpt>
      <trkpt lat="47.12465" lon="-1.59772">
        <ele>58</ele>
        <time>2022-06-05T10:42:14Z</time>
      </trkpt>
      <trkpt lat="47.12466" lon="-1.59788">
        <ele>58</ele>
        <time>2022-06-05T10:42:16Z</time>
      </trkpt>
      <trkpt lat="47.12468" lon="-1.59804">
        <ele>58</ele>
        <time>2022-06-05T10:42:18Z</time>
      </trkpt>
      <trkpt lat="47.12469" lon="-1.5982">
        <ele>58</ele>
        <time>2022-06-05T10:42:20Z</time>
      </trkpt>
      <trkpt lat="47.12469" lon="-1.59837">
        <ele>58</ele>
        <time>2022-06-05T10:42:22Z</time>
      </trkpt>
      <trkpt lat="47.1247" lon="-1.59851">
        <ele>58</ele>
        <time>2022-06-05T10:42:24Z</time>
      </trkpt>
      <trkpt lat="47.12471" lon="-1.59866">
        <ele>59</ele>
        <time>2022-06-05T10:42:26Z</time>
      </trkpt>
      <trkpt lat="47.12472" lon="-1.59886">
        <ele>60</ele>
        <time>2022-06-05T10:42:29Z</time>
      </trkpt>
      <trkpt lat="47.12472" lon="-1.599">
        <ele>62</ele>
        <time>2022-06-05T10:42:31Z</time>
      </trkpt>
      <trkpt lat="47.12472" lon="-1.59915">
        <ele>64</ele>
        <time>2022-06-05T10:42:33Z</time>
      </trkpt>
      <trkpt lat="47.12474" lon="-1.59933">
        <ele>64</ele>
        <time>2022-06-05T10:42:35Z</time>
      </trkpt>
      <trkpt lat="47.12475" lon="-1.59953">
        <ele>64</ele>
        <time>2022-06-05T10:42:37Z</time>
      </trkpt>
      <trkpt lat="47.12476" lon="-1.59972">
        <ele>64</ele>
        <time>2022-06-05T10:42:39Z</time>
      </trkpt>
      <trkpt lat="47.12477" lon="-1.59991">
        <ele>62</ele>
        <time>2022-06-05T10:42:41Z</time>
      </trkpt>
      <trkpt lat="47.12478" lon="-1.60009">
        <ele>62</ele>
        <time>2022-06-05T10:42:43Z</time>
      </trkpt>
      <trkpt lat="47.12479" lon="-1.60026">
        <ele>62</ele>
        <time>2022-06-05T10:42:45Z</time>
      </trkpt>
      <trkpt lat="47.12479" lon="-1.60043">
        <ele>63</ele>
        <time>2022-06-05T10:42:47Z</time>
      </trkpt>
      <trkpt lat="47.1248" lon="-1.6006">
        <ele>63</ele>
        <time>2022-06-05T10:42:49Z</time>
      </trkpt>
      <trkpt lat="47.1248" lon="-1.60077">
        <ele>62</ele>
        <time>2022-06-05T10:42:51Z</time>
      </trkpt>
      <trkpt lat="47.12481" lon="-1.60094">
        <ele>62</ele>
        <time>2022-06-05T10:42:53Z</time>
      </trkpt>
      <trkpt lat="47.12482" lon="-1.60112">
        <ele>62</ele>
        <time>2022-06-05T10:42:55Z</time>
      </trkpt>
      <trkpt lat="47.12483" lon="-1.6013">
        <ele>62</ele>
        <time>2022-06-05T10:42:57Z</time>
      </trkpt>
      <trkpt lat="47.12484" lon="-1.60149">
        <ele>61</ele>
        <time>2022-06-05T10:42:59Z</time>
      </trkpt>
      <trkpt lat="47.12485" lon="-1.60166">
        <ele>61</ele>
        <time>2022-06-05T10:43:01Z</time>
      </trkpt>
      <trkpt lat="47.12487" lon="-1.60186">
        <ele>60</ele>
        <time>2022-06-05T10:43:03Z</time>
      </trkpt>
      <trkpt lat="47.12489" lon="-1.60205">
        <ele>60</ele>
        <time>2022-06-05T10:43:05Z</time>
      </trkpt>
      <trkpt lat="47.12493" lon="-1.60224">
        <ele>59</ele>
        <time>2022-06-05T10:43:07Z</time>
      </trkpt>
      <trkpt lat="47.12496" lon="-1.60243">
        <ele>58</ele>
        <time>2022-06-05T10:43:09Z</time>
      </trkpt>
      <trkpt lat="47.125" lon="-1.60261">
        <ele>58</ele>
        <time>2022-06-05T10:43:11Z</time>
      </trkpt>
      <trkpt lat="47.12503" lon="-1.60278">
        <ele>57</ele>
        <time>2022-06-05T10:43:13Z</time>
      </trkpt>
      <trkpt lat="47.12506" lon="-1.60295">
        <ele>57</ele>
        <time>2022-06-05T10:43:15Z</time>
      </trkpt>
      <trkpt lat="47.12509" lon="-1.60312">
        <ele>56</ele>
        <time>2022-06-05T10:43:17Z</time>
      </trkpt>
      <trkpt lat="47.12512" lon="-1.60329">
        <ele>56</ele>
        <time>2022-06-05T10:43:19Z</time>
      </trkpt>
      <trkpt lat="47.12515" lon="-1.60346">
        <ele>56</ele>
        <time>2022-06-05T10:43:21Z</time>
      </trkpt>
      <trkpt lat="47.12518" lon="-1.60364">
        <ele>56</ele>
        <time>2022-06-05T10:43:23Z</time>
      </trkpt>
      <trkpt lat="47.12522" lon="-1.60382">
        <ele>56</ele>
        <time>2022-06-05T10:43:25Z</time>
      </trkpt>
      <trkpt lat="47.12525" lon="-1.604">
        <ele>56</ele>
        <time>2022-06-05T10:43:27Z</time>
      </trkpt>
      <trkpt lat="47.12528" lon="-1.60418">
        <ele>56</ele>
        <time>2022-06-05T10:43:29Z</time>
      </trkpt>
      <trkpt lat="47.12532" lon="-1.60434">
        <ele>57</ele>
        <time>2022-06-05T10:43:31Z</time>
      </trkpt>
      <trkpt lat="47.12535" lon="-1.6045">
        <ele>57</ele>
        <time>2022-06-05T10:43:33Z</time>
      </trkpt>
      <trkpt lat="47.12537" lon="-1.60466">
        <ele>58</ele>
        <time>2022-06-05T10:43:35Z</time>
      </trkpt>
      <trkpt lat="47.1254" lon="-1.60483">
        <ele>58</ele>
        <time>2022-06-05T10:43:37Z</time>
      </trkpt>
      <trkpt lat="47.12542" lon="-1.605">
        <ele>58</ele>
        <time>2022-06-05T10:43:39Z</time>
      </trkpt>
      <trkpt lat="47.12544" lon="-1.60516">
        <ele>58</ele>
        <time>2022-06-05T10:43:41Z</time>
      </trkpt>
      <trkpt lat="47.12545" lon="-1.60533">
        <ele>58</ele>
        <time>2022-06-05T10:43:43Z</time>
      </trkpt>
      <trkpt lat="47.12546" lon="-1.60549">
        <ele>58</ele>
        <time>2022-06-05T10:43:45Z</time>
      </trkpt>
      <trkpt lat="47.12547" lon="-1.60564">
        <ele>58</ele>
        <time>2022-06-05T10:43:47Z</time>
      </trkpt>
      <trkpt lat="47.12547" lon="-1.60579">
        <ele>58</ele>
        <time>2022-06-05T10:43:49Z</time>
      </trkpt>
      <trkpt lat="47.12548" lon="-1.60595">
        <ele>58</ele>
        <time>2022-06-05T10:43:51Z</time>
      </trkpt>
      <trkpt lat="47.12548" lon="-1.6061">
        <ele>58</ele>
        <time>2022-06-05T10:43:53Z</time>
      </trkpt>
      <trkpt lat="47.12548" lon="-1.60625">
        <ele>58</ele>
        <time>2022-06-05T10:43:55Z</time>
      </trkpt>
      <trkpt lat="47.12548" lon="-1.6064">
        <ele>58</ele>
        <time>2022-06-05T10:43:57Z</time>
      </trkpt>
      <trkpt lat="47.12549" lon="-1.60655">
        <ele>58</ele>
        <time>2022-06-05T10:43:59Z</time>
      </trkpt>
      <trkpt lat="47.12549" lon="-1.6067">
        <ele>58</ele>
        <time>2022-06-05T10:44:01Z</time>
      </trkpt>
      <trkpt lat="47.12549" lon="-1.60685">
        <ele>58</ele>
        <time>2022-06-05T10:44:03Z</time>
      </trkpt>
      <trkpt lat="47.1255" lon="-1.60699">
        <ele>58</ele>
        <time>2022-06-05T10:44:05Z</time>
      </trkpt>
      <trkpt lat="47.12549" lon="-1.60715">
        <ele>58</ele>
        <time>2022-06-05T10:44:07Z</time>
      </trkpt>
      <trkpt lat="47.12549" lon="-1.60732">
        <ele>59</ele>
        <time>2022-06-05T10:44:09Z</time>
      </trkpt>
      <trkpt lat="47.12548" lon="-1.60748">
        <ele>59</ele>
        <time>2022-06-05T10:44:11Z</time>
      </trkpt>
      <trkpt lat="47.12546" lon="-1.60764">
        <ele>59</ele>
        <time>2022-06-05T10:44:13Z</time>
      </trkpt>
      <trkpt lat="47.12545" lon="-1.6078">
        <ele>60</ele>
        <time>2022-06-05T10:44:15Z</time>
      </trkpt>
      <trkpt lat="47.12543" lon="-1.60795">
        <ele>60</ele>
        <time>2022-06-05T10:44:17Z</time>
      </trkpt>
      <trkpt lat="47.12542" lon="-1.6081">
        <ele>60</ele>
        <time>2022-06-05T10:44:19Z</time>
      </trkpt>
      <trkpt lat="47.12541" lon="-1.60824">
        <ele>60</ele>
        <time>2022-06-05T10:44:21Z</time>
      </trkpt>
      <trkpt lat="47.12544" lon="-1.60842">
        <ele>61</ele>
        <time>2022-06-05T10:44:24Z</time>
      </trkpt>
      <trkpt lat="47.12553" lon="-1.60844">
        <ele>60</ele>
        <time>2022-06-05T10:44:26Z</time>
      </trkpt>
      <trkpt lat="47.12564" lon="-1.60841">
        <ele>59</ele>
        <time>2022-06-05T10:44:28Z</time>
      </trkpt>
      <trkpt lat="47.12574" lon="-1.60838">
        <ele>58</ele>
        <time>2022-06-05T10:44:30Z</time>
      </trkpt>
      <trkpt lat="47.12585" lon="-1.60834">
        <ele>58</ele>
        <time>2022-06-05T10:44:32Z</time>
      </trkpt>
      <trkpt lat="47.12596" lon="-1.6083">
        <ele>57</ele>
        <time>2022-06-05T10:44:34Z</time>
      </trkpt>
      <trkpt lat="47.12607" lon="-1.60827">
        <ele>56</ele>
        <time>2022-06-05T10:44:36Z</time>
      </trkpt>
      <trkpt lat="47.12619" lon="-1.60824">
        <ele>56</ele>
        <time>2022-06-05T10:44:38Z</time>
      </trkpt>
      <trkpt lat="47.12629" lon="-1.6082">
        <ele>56</ele>
        <time>2022-06-05T10:44:40Z</time>
      </trkpt>
      <trkpt lat="47.1264" lon="-1.60816">
        <ele>57</ele>
        <time>2022-06-05T10:44:42Z</time>
      </trkpt>
      <trkpt lat="47.12651" lon="-1.60812">
        <ele>57</ele>
        <time>2022-06-05T10:44:44Z</time>
      </trkpt>
      <trkpt lat="47.12662" lon="-1.60809">
        <ele>57</ele>
        <time>2022-06-05T10:44:46Z</time>
      </trkpt>
      <trkpt lat="47.12672" lon="-1.60806">
        <ele>57</ele>
        <time>2022-06-05T10:44:48Z</time>
      </trkpt>
      <trkpt lat="47.12683" lon="-1.60802">
        <ele>57</ele>
        <time>2022-06-05T10:44:50Z</time>
      </trkpt>
      <trkpt lat="47.12694" lon="-1.60798">
        <ele>57</ele>
        <time>2022-06-05T10:44:52Z</time>
      </trkpt>
      <trkpt lat="47.12705" lon="-1.60793">
        <ele>56</ele>
        <time>2022-06-05T10:44:54Z</time>
      </trkpt>
      <trkpt lat="47.12715" lon="-1.60789">
        <ele>57</ele>
        <time>2022-06-05T10:44:56Z</time>
      </trkpt>
      <trkpt lat="47.12724" lon="-1.60791">
        <ele>57</ele>
        <time>2022-06-05T10:44:58Z</time>
      </trkpt>
      <trkpt lat="47.12727" lon="-1.60807">
        <ele>57</ele>
        <time>2022-06-05T10:45:00Z</time>
      </trkpt>
      <trkpt lat="47.12724" lon="-1.60823">
        <ele>56</ele>
        <time>2022-06-05T10:45:02Z</time>
      </trkpt>
      <trkpt lat="47.1272" lon="-1.60839">
        <ele>56</ele>
        <time>2022-06-05T10:45:04Z</time>
      </trkpt>
      <trkpt lat="47.12715" lon="-1.60854">
        <ele>56</ele>
        <time>2022-06-05T10:45:06Z</time>
      </trkpt>
      <trkpt lat="47.12709" lon="-1.6087">
        <ele>57</ele>
        <time>2022-06-05T10:45:08Z</time>
      </trkpt>
      <trkpt lat="47.12705" lon="-1.60886">
        <ele>57</ele>
        <time>2022-06-05T10:45:10Z</time>
      </trkpt>
      <trkpt lat="47.12702" lon="-1.60903">
        <ele>57</ele>
        <time>2022-06-05T10:45:12Z</time>
      </trkpt>
      <trkpt lat="47.127" lon="-1.6092">
        <ele>58</ele>
        <time>2022-06-05T10:45:14Z</time>
      </trkpt>
      <trkpt lat="47.12698" lon="-1.60937">
        <ele>58</ele>
        <time>2022-06-05T10:45:16Z</time>
      </trkpt>
      <trkpt lat="47.12698" lon="-1.60953">
        <ele>59</ele>
        <time>2022-06-05T10:45:18Z</time>
      </trkpt>
      <trkpt lat="47.12698" lon="-1.6097">
        <ele>59</ele>
        <time>2022-06-05T10:45:20Z</time>
      </trkpt>
      <trkpt lat="47.12697" lon="-1.60987">
        <ele>60</ele>
        <time>2022-06-05T10:45:22Z</time>
      </trkpt>
      <trkpt lat="47.12696" lon="-1.61006">
        <ele>60</ele>
        <time>2022-06-05T10:45:24Z</time>
      </trkpt>
      <trkpt lat="47.12695" lon="-1.61023">
        <ele>60</ele>
        <time>2022-06-05T10:45:26Z</time>
      </trkpt>
      <trkpt lat="47.12694" lon="-1.61039">
        <ele>61</ele>
        <time>2022-06-05T10:45:28Z</time>
      </trkpt>
      <trkpt lat="47.12693" lon="-1.61056">
        <ele>60</ele>
        <time>2022-06-05T10:45:30Z</time>
      </trkpt>
      <trkpt lat="47.12692" lon="-1.61074">
        <ele>60</ele>
        <time>2022-06-05T10:45:32Z</time>
      </trkpt>
      <trkpt lat="47.12691" lon="-1.61091">
        <ele>60</ele>
        <time>2022-06-05T10:45:34Z</time>
      </trkpt>
      <trkpt lat="47.1269" lon="-1.61108">
        <ele>60</ele>
        <time>2022-06-05T10:45:36Z</time>
      </trkpt>
      <trkpt lat="47.12688" lon="-1.61125">
        <ele>60</ele>
        <time>2022-06-05T10:45:38Z</time>
      </trkpt>
      <trkpt lat="47.12686" lon="-1.61143">
        <ele>60</ele>
        <time>2022-06-05T10:45:40Z</time>
      </trkpt>
      <trkpt lat="47.12684" lon="-1.61161">
        <ele>60</ele>
        <time>2022-06-05T10:45:42Z</time>
      </trkpt>
      <trkpt lat="47.12681" lon="-1.61178">
        <ele>60</ele>
        <time>2022-06-05T10:45:44Z</time>
      </trkpt>
      <trkpt lat="47.12679" lon="-1.61195">
        <ele>60</ele>
        <time>2022-06-05T10:45:46Z</time>
      </trkpt>
      <trkpt lat="47.12676" lon="-1.61212">
        <ele>60</ele>
        <time>2022-06-05T10:45:48Z</time>
      </trkpt>
      <trkpt lat="47.12674" lon="-1.6123">
        <ele>60</ele>
        <time>2022-06-05T10:45:50Z</time>
      </trkpt>
      <trkpt lat="47.12674" lon="-1.61248">
        <ele>61</ele>
        <time>2022-06-05T10:45:52Z</time>
      </trkpt>
      <trkpt lat="47.12677" lon="-1.61266">
        <ele>60</ele>
        <time>2022-06-05T10:45:54Z</time>
      </trkpt>
      <trkpt lat="47.12681" lon="-1.61283">
        <ele>60</ele>
        <time>2022-06-05T10:45:56Z</time>
      </trkpt>
      <trkpt lat="47.12685" lon="-1.61299">
        <ele>60</ele>
        <time>2022-06-05T10:45:58Z</time>
      </trkpt>
      <trkpt lat="47.1269" lon="-1.61316">
        <ele>60</ele>
        <time>2022-06-05T10:46:00Z</time>
      </trkpt>
      <trkpt lat="47.12695" lon="-1.61332">
        <ele>60</ele>
        <time>2022-06-05T10:46:02Z</time>
      </trkpt>
      <trkpt lat="47.127" lon="-1.61348">
        <ele>60</ele>
        <time>2022-06-05T10:46:04Z</time>
      </trkpt>
      <trkpt lat="47.12706" lon="-1.61363">
        <ele>61</ele>
        <time>2022-06-05T10:46:06Z</time>
      </trkpt>
      <trkpt lat="47.12711" lon="-1.61378">
        <ele>61</ele>
        <time>2022-06-05T10:46:08Z</time>
      </trkpt>
      <trkpt lat="47.12718" lon="-1.61394">
        <ele>62</ele>
        <time>2022-06-05T10:46:10Z</time>
      </trkpt>
      <trkpt lat="47.12725" lon="-1.61409">
        <ele>63</ele>
        <time>2022-06-05T10:46:12Z</time>
      </trkpt>
      <trkpt lat="47.12732" lon="-1.61425">
        <ele>63</ele>
        <time>2022-06-05T10:46:14Z</time>
      </trkpt>
      <trkpt lat="47.12739" lon="-1.6144">
        <ele>64</ele>
        <time>2022-06-05T10:46:16Z</time>
      </trkpt>
      <trkpt lat="47.12745" lon="-1.61454">
        <ele>64</ele>
        <time>2022-06-05T10:46:18Z</time>
      </trkpt>
      <trkpt lat="47.12752" lon="-1.61469">
        <ele>64</ele>
        <time>2022-06-05T10:46:20Z</time>
      </trkpt>
      <trkpt lat="47.12759" lon="-1.61483">
        <ele>64</ele>
        <time>2022-06-05T10:46:22Z</time>
      </trkpt>
      <trkpt lat="47.12765" lon="-1.61499">
        <ele>64</ele>
        <time>2022-06-05T10:46:24Z</time>
      </trkpt>
      <trkpt lat="47.12771" lon="-1.61515">
        <ele>63</ele>
        <time>2022-06-05T10:46:26Z</time>
      </trkpt>
      <trkpt lat="47.12778" lon="-1.61531">
        <ele>63</ele>
        <time>2022-06-05T10:46:28Z</time>
      </trkpt>
      <trkpt lat="47.12784" lon="-1.61547">
        <ele>62</ele>
        <time>2022-06-05T10:46:30Z</time>
      </trkpt>
      <trkpt lat="47.1279" lon="-1.61563">
        <ele>61</ele>
        <time>2022-06-05T10:46:32Z</time>
      </trkpt>
      <trkpt lat="47.12796" lon="-1.61579">
        <ele>60</ele>
        <time>2022-06-05T10:46:34Z</time>
      </trkpt>
      <trkpt lat="47.12801" lon="-1.61594">
        <ele>60</ele>
        <time>2022-06-05T10:46:36Z</time>
      </trkpt>
      <trkpt lat="47.12806" lon="-1.61608">
        <ele>59</ele>
        <time>2022-06-05T10:46:38Z</time>
      </trkpt>
      <trkpt lat="47.12811" lon="-1.61622">
        <ele>59</ele>
        <time>2022-06-05T10:46:40Z</time>
      </trkpt>
      <trkpt lat="47.12815" lon="-1.61635">
        <ele>58</ele>
        <time>2022-06-05T10:46:42Z</time>
      </trkpt>
      <trkpt lat="47.1282" lon="-1.61647">
        <ele>58</ele>
        <time>2022-06-05T10:46:45Z</time>
      </trkpt>
      <trkpt lat="47.12825" lon="-1.6166">
        <ele>58</ele>
        <time>2022-06-05T10:46:48Z</time>
      </trkpt>
      <trkpt lat="47.1283" lon="-1.61673">
        <ele>58</ele>
        <time>2022-06-05T10:46:50Z</time>
      </trkpt>
      <trkpt lat="47.12836" lon="-1.61686">
        <ele>58</ele>
        <time>2022-06-05T10:46:52Z</time>
      </trkpt>
      <trkpt lat="47.12843" lon="-1.61699">
        <ele>59</ele>
        <time>2022-06-05T10:46:54Z</time>
      </trkpt>
      <trkpt lat="47.12848" lon="-1.61713">
        <ele>61</ele>
        <time>2022-06-05T10:46:56Z</time>
      </trkpt>
      <trkpt lat="47.12854" lon="-1.61726">
        <ele>62</ele>
        <time>2022-06-05T10:46:58Z</time>
      </trkpt>
      <trkpt lat="47.12861" lon="-1.6174">
        <ele>63</ele>
        <time>2022-06-05T10:47:00Z</time>
      </trkpt>
      <trkpt lat="47.12868" lon="-1.61754">
        <ele>63</ele>
        <time>2022-06-05T10:47:02Z</time>
      </trkpt>
      <trkpt lat="47.12875" lon="-1.61772">
        <ele>63</ele>
        <time>2022-06-05T10:47:04Z</time>
      </trkpt>
      <trkpt lat="47.12883" lon="-1.61792">
        <ele>62</ele>
        <time>2022-06-05T10:47:06Z</time>
      </trkpt>
      <trkpt lat="47.1289" lon="-1.61811">
        <ele>60</ele>
        <time>2022-06-05T10:47:08Z</time>
      </trkpt>
      <trkpt lat="47.12897" lon="-1.6183">
        <ele>58</ele>
        <time>2022-06-05T10:47:10Z</time>
      </trkpt>
      <trkpt lat="47.12903" lon="-1.61849">
        <ele>57</ele>
        <time>2022-06-05T10:47:12Z</time>
      </trkpt>
      <trkpt lat="47.12908" lon="-1.61868">
        <ele>56</ele>
        <time>2022-06-05T10:47:14Z</time>
      </trkpt>
      <trkpt lat="47.12911" lon="-1.61886">
        <ele>56</ele>
        <time>2022-06-05T10:47:16Z</time>
      </trkpt>
      <trkpt lat="47.12913" lon="-1.61905">
        <ele>57</ele>
        <time>2022-06-05T10:47:18Z</time>
      </trkpt>
      <trkpt lat="47.12917" lon="-1.61923">
        <ele>57</ele>
        <time>2022-06-05T10:47:20Z</time>
      </trkpt>
      <trkpt lat="47.12919" lon="-1.61941">
        <ele>56</ele>
        <time>2022-06-05T10:47:22Z</time>
      </trkpt>
      <trkpt lat="47.12923" lon="-1.61958">
        <ele>57</ele>
        <time>2022-06-05T10:47:24Z</time>
      </trkpt>
      <trkpt lat="47.12927" lon="-1.61975">
        <ele>57</ele>
        <time>2022-06-05T10:47:26Z</time>
      </trkpt>
      <trkpt lat="47.12931" lon="-1.61991">
        <ele>58</ele>
        <time>2022-06-05T10:47:28Z</time>
      </trkpt>
      <trkpt lat="47.12935" lon="-1.62007">
        <ele>59</ele>
        <time>2022-06-05T10:47:30Z</time>
      </trkpt>
      <trkpt lat="47.1294" lon="-1.62023">
        <ele>60</ele>
        <time>2022-06-05T10:47:32Z</time>
      </trkpt>
      <trkpt lat="47.12946" lon="-1.6204">
        <ele>61</ele>
        <time>2022-06-05T10:47:34Z</time>
      </trkpt>
      <trkpt lat="47.12953" lon="-1.62057">
        <ele>61</ele>
        <time>2022-06-05T10:47:36Z</time>
      </trkpt>
      <trkpt lat="47.12961" lon="-1.62071">
        <ele>60</ele>
        <time>2022-06-05T10:47:38Z</time>
      </trkpt>
      <trkpt lat="47.12968" lon="-1.62086">
        <ele>61</ele>
        <time>2022-06-05T10:47:40Z</time>
      </trkpt>
      <trkpt lat="47.12976" lon="-1.621">
        <ele>60</ele>
        <time>2022-06-05T10:47:42Z</time>
      </trkpt>
      <trkpt lat="47.12984" lon="-1.62115">
        <ele>60</ele>
        <time>2022-06-05T10:47:44Z</time>
      </trkpt>
      <trkpt lat="47.12992" lon="-1.62129">
        <ele>60</ele>
        <time>2022-06-05T10:47:46Z</time>
      </trkpt>
      <trkpt lat="47.13001" lon="-1.62142">
        <ele>60</ele>
        <time>2022-06-05T10:47:48Z</time>
      </trkpt>
      <trkpt lat="47.13009" lon="-1.62156">
        <ele>60</ele>
        <time>2022-06-05T10:47:50Z</time>
      </trkpt>
      <trkpt lat="47.13017" lon="-1.62169">
        <ele>60</ele>
        <time>2022-06-05T10:47:52Z</time>
      </trkpt>
      <trkpt lat="47.13025" lon="-1.62182">
        <ele>60</ele>
        <time>2022-06-05T10:47:54Z</time>
      </trkpt>
      <trkpt lat="47.13033" lon="-1.62194">
        <ele>60</ele>
        <time>2022-06-05T10:47:56Z</time>
      </trkpt>
      <trkpt lat="47.13041" lon="-1.62207">
        <ele>60</ele>
        <time>2022-06-05T10:47:58Z</time>
      </trkpt>
      <trkpt lat="47.13049" lon="-1.6222">
        <ele>60</ele>
        <time>2022-06-05T10:48:00Z</time>
      </trkpt>
      <trkpt lat="47.13058" lon="-1.62233">
        <ele>60</ele>
        <time>2022-06-05T10:48:02Z</time>
      </trkpt>
      <trkpt lat="47.13066" lon="-1.62246">
        <ele>60</ele>
        <time>2022-06-05T10:48:04Z</time>
      </trkpt>
      <trkpt lat="47.13075" lon="-1.62259">
        <ele>60</ele>
        <time>2022-06-05T10:48:06Z</time>
      </trkpt>
      <trkpt lat="47.13083" lon="-1.62272">
        <ele>60</ele>
        <time>2022-06-05T10:48:08Z</time>
      </trkpt>
      <trkpt lat="47.13091" lon="-1.62284">
        <ele>60</ele>
        <time>2022-06-05T10:48:10Z</time>
      </trkpt>
      <trkpt lat="47.13098" lon="-1.62295">
        <ele>61</ele>
        <time>2022-06-05T10:48:12Z</time>
      </trkpt>
      <trkpt lat="47.13107" lon="-1.62301">
        <ele>61</ele>
        <time>2022-06-05T10:48:14Z</time>
      </trkpt>
      <trkpt lat="47.13115" lon="-1.62293">
        <ele>59</ele>
        <time>2022-06-05T10:48:16Z</time>
      </trkpt>
      <trkpt lat="47.13122" lon="-1.62278">
        <ele>59</ele>
        <time>2022-06-05T10:48:18Z</time>
      </trkpt>
      <trkpt lat="47.13128" lon="-1.62264">
        <ele>57</ele>
        <time>2022-06-05T10:48:20Z</time>
      </trkpt>
      <trkpt lat="47.13134" lon="-1.62249">
        <ele>57</ele>
        <time>2022-06-05T10:48:22Z</time>
      </trkpt>
      <trkpt lat="47.13141" lon="-1.62235">
        <ele>57</ele>
        <time>2022-06-05T10:48:24Z</time>
      </trkpt>
      <trkpt lat="47.13148" lon="-1.62219">
        <ele>57</ele>
        <time>2022-06-05T10:48:26Z</time>
      </trkpt>
      <trkpt lat="47.13155" lon="-1.62205">
        <ele>57</ele>
        <time>2022-06-05T10:48:28Z</time>
      </trkpt>
      <trkpt lat="47.13162" lon="-1.6219">
        <ele>57</ele>
        <time>2022-06-05T10:48:30Z</time>
      </trkpt>
      <trkpt lat="47.13169" lon="-1.62176">
        <ele>57</ele>
        <time>2022-06-05T10:48:32Z</time>
      </trkpt>
      <trkpt lat="47.13176" lon="-1.62162">
        <ele>57</ele>
        <time>2022-06-05T10:48:34Z</time>
      </trkpt>
      <trkpt lat="47.13184" lon="-1.62147">
        <ele>58</ele>
        <time>2022-06-05T10:48:36Z</time>
      </trkpt>
      <trkpt lat="47.13192" lon="-1.62133">
        <ele>58</ele>
        <time>2022-06-05T10:48:38Z</time>
      </trkpt>
      <trkpt lat="47.132" lon="-1.62119">
        <ele>58</ele>
        <time>2022-06-05T10:48:40Z</time>
      </trkpt>
      <trkpt lat="47.13207" lon="-1.62105">
        <ele>58</ele>
        <time>2022-06-05T10:48:42Z</time>
      </trkpt>
      <trkpt lat="47.13215" lon="-1.62091">
        <ele>59</ele>
        <time>2022-06-05T10:48:44Z</time>
      </trkpt>
      <trkpt lat="47.13224" lon="-1.62077">
        <ele>58</ele>
        <time>2022-06-05T10:48:46Z</time>
      </trkpt>
      <trkpt lat="47.13233" lon="-1.62063">
        <ele>59</ele>
        <time>2022-06-05T10:48:48Z</time>
      </trkpt>
      <trkpt lat="47.13242" lon="-1.6205">
        <ele>59</ele>
        <time>2022-06-05T10:48:50Z</time>
      </trkpt>
      <trkpt lat="47.13252" lon="-1.62038">
        <ele>59</ele>
        <time>2022-06-05T10:48:52Z</time>
      </trkpt>
      <trkpt lat="47.13262" lon="-1.62025">
        <ele>59</ele>
        <time>2022-06-05T10:48:54Z</time>
      </trkpt>
      <trkpt lat="47.13273" lon="-1.62015">
        <ele>59</ele>
        <time>2022-06-05T10:48:56Z</time>
      </trkpt>
      <trkpt lat="47.13284" lon="-1.62006">
        <ele>60</ele>
        <time>2022-06-05T10:48:58Z</time>
      </trkpt>
      <trkpt lat="47.13295" lon="-1.61997">
        <ele>59</ele>
        <time>2022-06-05T10:49:00Z</time>
      </trkpt>
      <trkpt lat="47.13308" lon="-1.6199">
        <ele>59</ele>
        <time>2022-06-05T10:49:02Z</time>
      </trkpt>
      <trkpt lat="47.1332" lon="-1.61982">
        <ele>59</ele>
        <time>2022-06-05T10:49:04Z</time>
      </trkpt>
      <trkpt lat="47.13331" lon="-1.61972">
        <ele>59</ele>
        <time>2022-06-05T10:49:06Z</time>
      </trkpt>
      <trkpt lat="47.13341" lon="-1.61963">
        <ele>60</ele>
        <time>2022-06-05T10:49:08Z</time>
      </trkpt>
      <trkpt lat="47.13352" lon="-1.61954">
        <ele>60</ele>
        <time>2022-06-05T10:49:10Z</time>
      </trkpt>
      <trkpt lat="47.13364" lon="-1.61943">
        <ele>61</ele>
        <time>2022-06-05T10:49:12Z</time>
      </trkpt>
      <trkpt lat="47.13376" lon="-1.61934">
        <ele>61</ele>
        <time>2022-06-05T10:49:14Z</time>
      </trkpt>
      <trkpt lat="47.13388" lon="-1.61925">
        <ele>61</ele>
        <time>2022-06-05T10:49:16Z</time>
      </trkpt>
      <trkpt lat="47.13401" lon="-1.61916">
        <ele>61</ele>
        <time>2022-06-05T10:49:18Z</time>
      </trkpt>
      <trkpt lat="47.13413" lon="-1.61907">
        <ele>61</ele>
        <time>2022-06-05T10:49:20Z</time>
      </trkpt>
      <trkpt lat="47.13425" lon="-1.61897">
        <ele>61</ele>
        <time>2022-06-05T10:49:22Z</time>
      </trkpt>
      <trkpt lat="47.13437" lon="-1.61888">
        <ele>61</ele>
        <time>2022-06-05T10:49:24Z</time>
      </trkpt>
      <trkpt lat="47.13449" lon="-1.61878">
        <ele>61</ele>
        <time>2022-06-05T10:49:26Z</time>
      </trkpt>
      <trkpt lat="47.13461" lon="-1.6187">
        <ele>61</ele>
        <time>2022-06-05T10:49:28Z</time>
      </trkpt>
      <trkpt lat="47.13474" lon="-1.61861">
        <ele>61</ele>
        <time>2022-06-05T10:49:30Z</time>
      </trkpt>
      <trkpt lat="47.13487" lon="-1.61852">
        <ele>60</ele>
        <time>2022-06-05T10:49:32Z</time>
      </trkpt>
      <trkpt lat="47.135" lon="-1.61844">
        <ele>60</ele>
        <time>2022-06-05T10:49:34Z</time>
      </trkpt>
      <trkpt lat="47.13513" lon="-1.61839">
        <ele>60</ele>
        <time>2022-06-05T10:49:36Z</time>
      </trkpt>
      <trkpt lat="47.13526" lon="-1.61833">
        <ele>60</ele>
        <time>2022-06-05T10:49:38Z</time>
      </trkpt>
      <trkpt lat="47.13539" lon="-1.61827">
        <ele>60</ele>
        <time>2022-06-05T10:49:40Z</time>
      </trkpt>
      <trkpt lat="47.13552" lon="-1.61821">
        <ele>60</ele>
        <time>2022-06-05T10:49:42Z</time>
      </trkpt>
      <trkpt lat="47.13563" lon="-1.61815">
        <ele>60</ele>
        <time>2022-06-05T10:49:44Z</time>
      </trkpt>
      <trkpt lat="47.13574" lon="-1.61806">
        <ele>60</ele>
        <time>2022-06-05T10:49:46Z</time>
      </trkpt>
      <trkpt lat="47.13587" lon="-1.61804">
        <ele>60</ele>
        <time>2022-06-05T10:49:48Z</time>
      </trkpt>
      <trkpt lat="47.136" lon="-1.61801">
        <ele>60</ele>
        <time>2022-06-05T10:49:50Z</time>
      </trkpt>
      <trkpt lat="47.13612" lon="-1.61796">
        <ele>60</ele>
        <time>2022-06-05T10:49:52Z</time>
      </trkpt>
      <trkpt lat="47.13623" lon="-1.61791">
        <ele>59</ele>
        <time>2022-06-05T10:49:54Z</time>
      </trkpt>
      <trkpt lat="47.13635" lon="-1.61785">
        <ele>59</ele>
        <time>2022-06-05T10:49:56Z</time>
      </trkpt>
      <trkpt lat="47.13647" lon="-1.61781">
        <ele>59</ele>
        <time>2022-06-05T10:49:58Z</time>
      </trkpt>
      <trkpt lat="47.13659" lon="-1.61775">
        <ele>59</ele>
        <time>2022-06-05T10:50:00Z</time>
      </trkpt>
      <trkpt lat="47.13671" lon="-1.61769">
        <ele>60</ele>
        <time>2022-06-05T10:50:02Z</time>
      </trkpt>
      <trkpt lat="47.13683" lon="-1.61762">
        <ele>60</ele>
        <time>2022-06-05T10:50:04Z</time>
      </trkpt>
      <trkpt lat="47.13694" lon="-1.61754">
        <ele>60</ele>
        <time>2022-06-05T10:50:06Z</time>
      </trkpt>
      <trkpt lat="47.13705" lon="-1.61746">
        <ele>60</ele>
        <time>2022-06-05T10:50:08Z</time>
      </trkpt>
      <trkpt lat="47.13715" lon="-1.61738">
        <ele>60</ele>
        <time>2022-06-05T10:50:10Z</time>
      </trkpt>
      <trkpt lat="47.13724" lon="-1.6173">
        <ele>60</ele>
        <time>2022-06-05T10:50:12Z</time>
      </trkpt>
      <trkpt lat="47.13734" lon="-1.61723">
        <ele>61</ele>
        <time>2022-06-05T10:50:14Z</time>
      </trkpt>
      <trkpt lat="47.13742" lon="-1.61737">
        <ele>62</ele>
        <time>2022-06-05T10:50:18Z</time>
      </trkpt>
      <trkpt lat="47.13741" lon="-1.61754">
        <ele>62</ele>
        <time>2022-06-05T10:50:20Z</time>
      </trkpt>
      <trkpt lat="47.13737" lon="-1.61771">
        <ele>62</ele>
        <time>2022-06-05T10:50:22Z</time>
      </trkpt>
      <trkpt lat="47.13734" lon="-1.61789">
        <ele>63</ele>
        <time>2022-06-05T10:50:24Z</time>
      </trkpt>
      <trkpt lat="47.1373" lon="-1.61806">
        <ele>63</ele>
        <time>2022-06-05T10:50:26Z</time>
      </trkpt>
      <trkpt lat="47.13728" lon="-1.61823">
        <ele>63</ele>
        <time>2022-06-05T10:50:28Z</time>
      </trkpt>
      <trkpt lat="47.13727" lon="-1.6184">
        <ele>64</ele>
        <time>2022-06-05T10:50:30Z</time>
      </trkpt>
      <trkpt lat="47.13727" lon="-1.61857">
        <ele>64</ele>
        <time>2022-06-05T10:50:32Z</time>
      </trkpt>
      <trkpt lat="47.13726" lon="-1.61873">
        <ele>64</ele>
        <time>2022-06-05T10:50:34Z</time>
      </trkpt>
      <trkpt lat="47.13725" lon="-1.61889">
        <ele>64</ele>
        <time>2022-06-05T10:50:36Z</time>
      </trkpt>
      <trkpt lat="47.13724" lon="-1.61905">
        <ele>65</ele>
        <time>2022-06-05T10:50:38Z</time>
      </trkpt>
      <trkpt lat="47.13724" lon="-1.61921">
        <ele>65</ele>
        <time>2022-06-05T10:50:40Z</time>
      </trkpt>
      <trkpt lat="47.13724" lon="-1.61937">
        <ele>65</ele>
        <time>2022-06-05T10:50:42Z</time>
      </trkpt>
      <trkpt lat="47.13727" lon="-1.61964">
        <ele>65</ele>
        <time>2022-06-05T10:50:45Z</time>
      </trkpt>
      <trkpt lat="47.1373" lon="-1.6198">
        <ele>65</ele>
        <time>2022-06-05T10:50:47Z</time>
      </trkpt>
      <trkpt lat="47.13732" lon="-1.61997">
        <ele>65</ele>
        <time>2022-06-05T10:50:49Z</time>
      </trkpt>
      <trkpt lat="47.13734" lon="-1.62013">
        <ele>65</ele>
        <time>2022-06-05T10:50:51Z</time>
      </trkpt>
      <trkpt lat="47.13736" lon="-1.62028">
        <ele>65</ele>
        <time>2022-06-05T10:50:53Z</time>
      </trkpt>
      <trkpt lat="47.13739" lon="-1.6205">
        <ele>65</ele>
        <time>2022-06-05T10:50:56Z</time>
      </trkpt>
      <trkpt lat="47.13741" lon="-1.62066">
        <ele>65</ele>
        <time>2022-06-05T10:50:58Z</time>
      </trkpt>
      <trkpt lat="47.13744" lon="-1.62083">
        <ele>66</ele>
        <time>2022-06-05T10:51:00Z</time>
      </trkpt>
      <trkpt lat="47.13746" lon="-1.62109">
        <ele>66</ele>
        <time>2022-06-05T10:51:03Z</time>
      </trkpt>
      <trkpt lat="47.13749" lon="-1.62127">
        <ele>65</ele>
        <time>2022-06-05T10:51:05Z</time>
      </trkpt>
      <trkpt lat="47.13751" lon="-1.62144">
        <ele>65</ele>
        <time>2022-06-05T10:51:07Z</time>
      </trkpt>
      <trkpt lat="47.13753" lon="-1.62162">
        <ele>65</ele>
        <time>2022-06-05T10:51:09Z</time>
      </trkpt>
      <trkpt lat="47.13755" lon="-1.62179">
        <ele>65</ele>
        <time>2022-06-05T10:51:11Z</time>
      </trkpt>
      <trkpt lat="47.13757" lon="-1.62197">
        <ele>66</ele>
        <time>2022-06-05T10:51:13Z</time>
      </trkpt>
      <trkpt lat="47.13759" lon="-1.62214">
        <ele>66</ele>
        <time>2022-06-05T10:51:15Z</time>
      </trkpt>
      <trkpt lat="47.13762" lon="-1.6223">
        <ele>65</ele>
        <time>2022-06-05T10:51:17Z</time>
      </trkpt>
      <trkpt lat="47.13764" lon="-1.62247">
        <ele>65</ele>
        <time>2022-06-05T10:51:19Z</time>
      </trkpt>
      <trkpt lat="47.13766" lon="-1.62263">
        <ele>65</ele>
        <time>2022-06-05T10:51:21Z</time>
      </trkpt>
      <trkpt lat="47.13767" lon="-1.62281">
        <ele>65</ele>
        <time>2022-06-05T10:51:23Z</time>
      </trkpt>
      <trkpt lat="47.13769" lon="-1.62299">
        <ele>65</ele>
        <time>2022-06-05T10:51:25Z</time>
      </trkpt>
      <trkpt lat="47.13769" lon="-1.62317">
        <ele>64</ele>
        <time>2022-06-05T10:51:27Z</time>
      </trkpt>
      <trkpt lat="47.13767" lon="-1.62336">
        <ele>64</ele>
        <time>2022-06-05T10:51:29Z</time>
      </trkpt>
      <trkpt lat="47.13766" lon="-1.62354">
        <ele>64</ele>
        <time>2022-06-05T10:51:31Z</time>
      </trkpt>
      <trkpt lat="47.13765" lon="-1.62371">
        <ele>65</ele>
        <time>2022-06-05T10:51:33Z</time>
      </trkpt>
      <trkpt lat="47.13764" lon="-1.62388">
        <ele>65</ele>
        <time>2022-06-05T10:51:35Z</time>
      </trkpt>
      <trkpt lat="47.13765" lon="-1.62407">
        <ele>65</ele>
        <time>2022-06-05T10:51:37Z</time>
      </trkpt>
      <trkpt lat="47.13766" lon="-1.62427">
        <ele>65</ele>
        <time>2022-06-05T10:51:39Z</time>
      </trkpt>
      <trkpt lat="47.13767" lon="-1.62448">
        <ele>65</ele>
        <time>2022-06-05T10:51:41Z</time>
      </trkpt>
      <trkpt lat="47.13769" lon="-1.62469">
        <ele>65</ele>
        <time>2022-06-05T10:51:43Z</time>
      </trkpt>
      <trkpt lat="47.1377" lon="-1.62489">
        <ele>65</ele>
        <time>2022-06-05T10:51:45Z</time>
      </trkpt>
      <trkpt lat="47.13772" lon="-1.62511">
        <ele>65</ele>
        <time>2022-06-05T10:51:47Z</time>
      </trkpt>
      <trkpt lat="47.13774" lon="-1.62531">
        <ele>65</ele>
        <time>2022-06-05T10:51:49Z</time>
      </trkpt>
      <trkpt lat="47.13776" lon="-1.62552">
        <ele>64</ele>
        <time>2022-06-05T10:51:51Z</time>
      </trkpt>
      <trkpt lat="47.13779" lon="-1.62571">
        <ele>64</ele>
        <time>2022-06-05T10:51:53Z</time>
      </trkpt>
      <trkpt lat="47.13781" lon="-1.62589">
        <ele>64</ele>
        <time>2022-06-05T10:51:55Z</time>
      </trkpt>
      <trkpt lat="47.13782" lon="-1.62606">
        <ele>64</ele>
        <time>2022-06-05T10:51:57Z</time>
      </trkpt>
      <trkpt lat="47.13784" lon="-1.62622">
        <ele>64</ele>
        <time>2022-06-05T10:51:59Z</time>
      </trkpt>
      <trkpt lat="47.13785" lon="-1.62639">
        <ele>64</ele>
        <time>2022-06-05T10:52:01Z</time>
      </trkpt>
      <trkpt lat="47.13786" lon="-1.62656">
        <ele>65</ele>
        <time>2022-06-05T10:52:03Z</time>
      </trkpt>
      <trkpt lat="47.13786" lon="-1.62674">
        <ele>65</ele>
        <time>2022-06-05T10:52:05Z</time>
      </trkpt>
      <trkpt lat="47.13786" lon="-1.62694">
        <ele>64</ele>
        <time>2022-06-05T10:52:07Z</time>
      </trkpt>
      <trkpt lat="47.13785" lon="-1.62713">
        <ele>65</ele>
        <time>2022-06-05T10:52:09Z</time>
      </trkpt>
      <trkpt lat="47.13785" lon="-1.62731">
        <ele>65</ele>
        <time>2022-06-05T10:52:11Z</time>
      </trkpt>
      <trkpt lat="47.13786" lon="-1.62748">
        <ele>65</ele>
        <time>2022-06-05T10:52:13Z</time>
      </trkpt>
      <trkpt lat="47.13788" lon="-1.62765">
        <ele>65</ele>
        <time>2022-06-05T10:52:15Z</time>
      </trkpt>
      <trkpt lat="47.13792" lon="-1.62782">
        <ele>65</ele>
        <time>2022-06-05T10:52:17Z</time>
      </trkpt>
      <trkpt lat="47.13796" lon="-1.62797">
        <ele>65</ele>
        <time>2022-06-05T10:52:19Z</time>
      </trkpt>
      <trkpt lat="47.13801" lon="-1.62812">
        <ele>66</ele>
        <time>2022-06-05T10:52:21Z</time>
      </trkpt>
      <trkpt lat="47.13807" lon="-1.62827">
        <ele>66</ele>
        <time>2022-06-05T10:52:23Z</time>
      </trkpt>
      <trkpt lat="47.13812" lon="-1.62842">
        <ele>65</ele>
        <time>2022-06-05T10:52:25Z</time>
      </trkpt>
      <trkpt lat="47.13817" lon="-1.62856">
        <ele>65</ele>
        <time>2022-06-05T10:52:27Z</time>
      </trkpt>
      <trkpt lat="47.13822" lon="-1.6287">
        <ele>65</ele>
        <time>2022-06-05T10:52:29Z</time>
      </trkpt>
      <trkpt lat="47.13826" lon="-1.62885">
        <ele>65</ele>
        <time>2022-06-05T10:52:31Z</time>
      </trkpt>
      <trkpt lat="47.13828" lon="-1.629">
        <ele>65</ele>
        <time>2022-06-05T10:52:33Z</time>
      </trkpt>
      <trkpt lat="47.13827" lon="-1.62916">
        <ele>65</ele>
        <time>2022-06-05T10:52:35Z</time>
      </trkpt>
      <trkpt lat="47.13826" lon="-1.62932">
        <ele>64</ele>
        <time>2022-06-05T10:52:37Z</time>
      </trkpt>
      <trkpt lat="47.13824" lon="-1.62948">
        <ele>64</ele>
        <time>2022-06-05T10:52:39Z</time>
      </trkpt>
      <trkpt lat="47.13822" lon="-1.62965">
        <ele>64</ele>
        <time>2022-06-05T10:52:41Z</time>
      </trkpt>
      <trkpt lat="47.13821" lon="-1.62982">
        <ele>64</ele>
        <time>2022-06-05T10:52:43Z</time>
      </trkpt>
      <trkpt lat="47.13819" lon="-1.62999">
        <ele>64</ele>
        <time>2022-06-05T10:52:45Z</time>
      </trkpt>
      <trkpt lat="47.1382" lon="-1.63017">
        <ele>64</ele>
        <time>2022-06-05T10:52:47Z</time>
      </trkpt>
      <trkpt lat="47.13821" lon="-1.63036">
        <ele>64</ele>
        <time>2022-06-05T10:52:49Z</time>
      </trkpt>
      <trkpt lat="47.13825" lon="-1.63052">
        <ele>63</ele>
        <time>2022-06-05T10:52:51Z</time>
      </trkpt>
      <trkpt lat="47.13835" lon="-1.63057">
        <ele>63</ele>
        <time>2022-06-05T10:52:53Z</time>
      </trkpt>
      <trkpt lat="47.13846" lon="-1.63057">
        <ele>62</ele>
        <time>2022-06-05T10:52:55Z</time>
      </trkpt>
      <trkpt lat="47.13858" lon="-1.63056">
        <ele>62</ele>
        <time>2022-06-05T10:52:57Z</time>
      </trkpt>
      <trkpt lat="47.1387" lon="-1.63054">
        <ele>62</ele>
        <time>2022-06-05T10:52:59Z</time>
      </trkpt>
      <trkpt lat="47.13882" lon="-1.63051">
        <ele>62</ele>
        <time>2022-06-05T10:53:01Z</time>
      </trkpt>
      <trkpt lat="47.13895" lon="-1.63049">
        <ele>61</ele>
        <time>2022-06-05T10:53:03Z</time>
      </trkpt>
      <trkpt lat="47.13907" lon="-1.63045">
        <ele>62</ele>
        <time>2022-06-05T10:53:05Z</time>
      </trkpt>
      <trkpt lat="47.13919" lon="-1.63041">
        <ele>62</ele>
        <time>2022-06-05T10:53:07Z</time>
      </trkpt>
      <trkpt lat="47.13931" lon="-1.63035">
        <ele>62</ele>
        <time>2022-06-05T10:53:09Z</time>
      </trkpt>
      <trkpt lat="47.13943" lon="-1.63029">
        <ele>62</ele>
        <time>2022-06-05T10:53:11Z</time>
      </trkpt>
      <trkpt lat="47.13955" lon="-1.63022">
        <ele>62</ele>
        <time>2022-06-05T10:53:13Z</time>
      </trkpt>
      <trkpt lat="47.13966" lon="-1.63016">
        <ele>62</ele>
        <time>2022-06-05T10:53:15Z</time>
      </trkpt>
      <trkpt lat="47.13977" lon="-1.63009">
        <ele>62</ele>
        <time>2022-06-05T10:53:17Z</time>
      </trkpt>
      <trkpt lat="47.13988" lon="-1.63002">
        <ele>63</ele>
        <time>2022-06-05T10:53:19Z</time>
      </trkpt>
      <trkpt lat="47.13999" lon="-1.62996">
        <ele>63</ele>
        <time>2022-06-05T10:53:21Z</time>
      </trkpt>
      <trkpt lat="47.1401" lon="-1.6299">
        <ele>64</ele>
        <time>2022-06-05T10:53:23Z</time>
      </trkpt>
      <trkpt lat="47.14021" lon="-1.62985">
        <ele>64</ele>
        <time>2022-06-05T10:53:25Z</time>
      </trkpt>
      <trkpt lat="47.14033" lon="-1.62981">
        <ele>64</ele>
        <time>2022-06-05T10:53:27Z</time>
      </trkpt>
      <trkpt lat="47.14045" lon="-1.62977">
        <ele>64</ele>
        <time>2022-06-05T10:53:29Z</time>
      </trkpt>
      <trkpt lat="47.14058" lon="-1.62974">
        <ele>64</ele>
        <time>2022-06-05T10:53:31Z</time>
      </trkpt>
      <trkpt lat="47.1407" lon="-1.62973">
        <ele>64</ele>
        <time>2022-06-05T10:53:33Z</time>
      </trkpt>
      <trkpt lat="47.14082" lon="-1.62974">
        <ele>64</ele>
        <time>2022-06-05T10:53:35Z</time>
      </trkpt>
      <trkpt lat="47.14094" lon="-1.62976">
        <ele>64</ele>
        <time>2022-06-05T10:53:37Z</time>
      </trkpt>
      <trkpt lat="47.14105" lon="-1.62979">
        <ele>63</ele>
        <time>2022-06-05T10:53:39Z</time>
      </trkpt>
      <trkpt lat="47.14117" lon="-1.62982">
        <ele>64</ele>
        <time>2022-06-05T10:53:41Z</time>
      </trkpt>
      <trkpt lat="47.14128" lon="-1.62985">
        <ele>64</ele>
        <time>2022-06-05T10:53:43Z</time>
      </trkpt>
      <trkpt lat="47.14139" lon="-1.6299">
        <ele>65</ele>
        <time>2022-06-05T10:53:45Z</time>
      </trkpt>
      <trkpt lat="47.14151" lon="-1.62995">
        <ele>65</ele>
        <time>2022-06-05T10:53:47Z</time>
      </trkpt>
      <trkpt lat="47.14162" lon="-1.63">
        <ele>64</ele>
        <time>2022-06-05T10:53:49Z</time>
      </trkpt>
      <trkpt lat="47.14172" lon="-1.63004">
        <ele>65</ele>
        <time>2022-06-05T10:53:51Z</time>
      </trkpt>
      <trkpt lat="47.14183" lon="-1.6301">
        <ele>65</ele>
        <time>2022-06-05T10:53:53Z</time>
      </trkpt>
      <trkpt lat="47.14194" lon="-1.63016">
        <ele>64</ele>
        <time>2022-06-05T10:53:55Z</time>
      </trkpt>
      <trkpt lat="47.14205" lon="-1.63021">
        <ele>64</ele>
        <time>2022-06-05T10:53:57Z</time>
      </trkpt>
      <trkpt lat="47.14216" lon="-1.63027">
        <ele>64</ele>
        <time>2022-06-05T10:53:59Z</time>
      </trkpt>
      <trkpt lat="47.14227" lon="-1.63033">
        <ele>64</ele>
        <time>2022-06-05T10:54:01Z</time>
      </trkpt>
      <trkpt lat="47.14238" lon="-1.63038">
        <ele>64</ele>
        <time>2022-06-05T10:54:03Z</time>
      </trkpt>
      <trkpt lat="47.14249" lon="-1.63044">
        <ele>64</ele>
        <time>2022-06-05T10:54:05Z</time>
      </trkpt>
      <trkpt lat="47.1426" lon="-1.6305">
        <ele>64</ele>
        <time>2022-06-05T10:54:07Z</time>
      </trkpt>
      <trkpt lat="47.14271" lon="-1.63056">
        <ele>65</ele>
        <time>2022-06-05T10:54:09Z</time>
      </trkpt>
      <trkpt lat="47.14282" lon="-1.63062">
        <ele>65</ele>
        <time>2022-06-05T10:54:11Z</time>
      </trkpt>
      <trkpt lat="47.14292" lon="-1.63067">
        <ele>66</ele>
        <time>2022-06-05T10:54:13Z</time>
      </trkpt>
      <trkpt lat="47.14302" lon="-1.63072">
        <ele>66</ele>
        <time>2022-06-05T10:54:15Z</time>
      </trkpt>
      <trkpt lat="47.14312" lon="-1.63078">
        <ele>67</ele>
        <time>2022-06-05T10:54:17Z</time>
      </trkpt>
      <trkpt lat="47.14321" lon="-1.63083">
        <ele>67</ele>
        <time>2022-06-05T10:54:19Z</time>
      </trkpt>
      <trkpt lat="47.14329" lon="-1.63089">
        <ele>68</ele>
        <time>2022-06-05T10:54:21Z</time>
      </trkpt>
      <trkpt lat="47.14339" lon="-1.63094">
        <ele>68</ele>
        <time>2022-06-05T10:54:23Z</time>
      </trkpt>
      <trkpt lat="47.14349" lon="-1.631">
        <ele>68</ele>
        <time>2022-06-05T10:54:25Z</time>
      </trkpt>
      <trkpt lat="47.14361" lon="-1.63106">
        <ele>68</ele>
        <time>2022-06-05T10:54:27Z</time>
      </trkpt>
      <trkpt lat="47.14374" lon="-1.63112">
        <ele>69</ele>
        <time>2022-06-05T10:54:29Z</time>
      </trkpt>
      <trkpt lat="47.14387" lon="-1.63117">
        <ele>68</ele>
        <time>2022-06-05T10:54:31Z</time>
      </trkpt>
      <trkpt lat="47.14399" lon="-1.63122">
        <ele>68</ele>
        <time>2022-06-05T10:54:33Z</time>
      </trkpt>
      <trkpt lat="47.14411" lon="-1.63127">
        <ele>68</ele>
        <time>2022-06-05T10:54:35Z</time>
      </trkpt>
      <trkpt lat="47.14422" lon="-1.63133">
        <ele>68</ele>
        <time>2022-06-05T10:54:37Z</time>
      </trkpt>
      <trkpt lat="47.14433" lon="-1.63138">
        <ele>68</ele>
        <time>2022-06-05T10:54:39Z</time>
      </trkpt>
      <trkpt lat="47.14444" lon="-1.63143">
        <ele>67</ele>
        <time>2022-06-05T10:54:41Z</time>
      </trkpt>
      <trkpt lat="47.14456" lon="-1.63146">
        <ele>66</ele>
        <time>2022-06-05T10:54:43Z</time>
      </trkpt>
      <trkpt lat="47.14468" lon="-1.63147">
        <ele>66</ele>
        <time>2022-06-05T10:54:45Z</time>
      </trkpt>
      <trkpt lat="47.1448" lon="-1.63147">
        <ele>66</ele>
        <time>2022-06-05T10:54:47Z</time>
      </trkpt>
      <trkpt lat="47.14493" lon="-1.63147">
        <ele>66</ele>
        <time>2022-06-05T10:54:49Z</time>
      </trkpt>
      <trkpt lat="47.14505" lon="-1.63147">
        <ele>66</ele>
        <time>2022-06-05T10:54:51Z</time>
      </trkpt>
      <trkpt lat="47.14516" lon="-1.63147">
        <ele>66</ele>
        <time>2022-06-05T10:54:53Z</time>
      </trkpt>
      <trkpt lat="47.14528" lon="-1.63147">
        <ele>66</ele>
        <time>2022-06-05T10:54:55Z</time>
      </trkpt>
      <trkpt lat="47.14539" lon="-1.63147">
        <ele>67</ele>
        <time>2022-06-05T10:54:57Z</time>
      </trkpt>
      <trkpt lat="47.14551" lon="-1.63145">
        <ele>67</ele>
        <time>2022-06-05T10:54:59Z</time>
      </trkpt>
      <trkpt lat="47.14563" lon="-1.63142">
        <ele>67</ele>
        <time>2022-06-05T10:55:01Z</time>
      </trkpt>
      <trkpt lat="47.14573" lon="-1.63137">
        <ele>67</ele>
        <time>2022-06-05T10:55:03Z</time>
      </trkpt>
      <trkpt lat="47.14585" lon="-1.63131">
        <ele>68</ele>
        <time>2022-06-05T10:55:05Z</time>
      </trkpt>
      <trkpt lat="47.14596" lon="-1.63124">
        <ele>68</ele>
        <time>2022-06-05T10:55:07Z</time>
      </trkpt>
      <trkpt lat="47.14606" lon="-1.63117">
        <ele>68</ele>
        <time>2022-06-05T10:55:09Z</time>
      </trkpt>
      <trkpt lat="47.14616" lon="-1.63109">
        <ele>68</ele>
        <time>2022-06-05T10:55:11Z</time>
      </trkpt>
      <trkpt lat="47.14627" lon="-1.63103">
        <ele>69</ele>
        <time>2022-06-05T10:55:13Z</time>
      </trkpt>
      <trkpt lat="47.14638" lon="-1.63096">
        <ele>69</ele>
        <time>2022-06-05T10:55:15Z</time>
      </trkpt>
      <trkpt lat="47.14649" lon="-1.63089">
        <ele>69</ele>
        <time>2022-06-05T10:55:17Z</time>
      </trkpt>
      <trkpt lat="47.1466" lon="-1.63083">
        <ele>69</ele>
        <time>2022-06-05T10:55:19Z</time>
      </trkpt>
      <trkpt lat="47.14671" lon="-1.63078">
        <ele>69</ele>
        <time>2022-06-05T10:55:21Z</time>
      </trkpt>
      <trkpt lat="47.14682" lon="-1.63075">
        <ele>69</ele>
        <time>2022-06-05T10:55:23Z</time>
      </trkpt>
      <trkpt lat="47.14693" lon="-1.63072">
        <ele>69</ele>
        <time>2022-06-05T10:55:25Z</time>
      </trkpt>
      <trkpt lat="47.14705" lon="-1.63071">
        <ele>69</ele>
        <time>2022-06-05T10:55:27Z</time>
      </trkpt>
      <trkpt lat="47.14717" lon="-1.6307">
        <ele>69</ele>
        <time>2022-06-05T10:55:29Z</time>
      </trkpt>
      <trkpt lat="47.14728" lon="-1.6307">
        <ele>69</ele>
        <time>2022-06-05T10:55:31Z</time>
      </trkpt>
      <trkpt lat="47.14738" lon="-1.63069">
        <ele>69</ele>
        <time>2022-06-05T10:55:33Z</time>
      </trkpt>
      <trkpt lat="47.1475" lon="-1.63069">
        <ele>69</ele>
        <time>2022-06-05T10:55:35Z</time>
      </trkpt>
      <trkpt lat="47.14762" lon="-1.63068">
        <ele>69</ele>
        <time>2022-06-05T10:55:37Z</time>
      </trkpt>
      <trkpt lat="47.14774" lon="-1.63067">
        <ele>69</ele>
        <time>2022-06-05T10:55:39Z</time>
      </trkpt>
      <trkpt lat="47.14786" lon="-1.63066">
        <ele>69</ele>
        <time>2022-06-05T10:55:41Z</time>
      </trkpt>
      <trkpt lat="47.14798" lon="-1.63066">
        <ele>69</ele>
        <time>2022-06-05T10:55:43Z</time>
      </trkpt>
      <trkpt lat="47.1481" lon="-1.63065">
        <ele>69</ele>
        <time>2022-06-05T10:55:45Z</time>
      </trkpt>
      <trkpt lat="47.14821" lon="-1.63064">
        <ele>70</ele>
        <time>2022-06-05T10:55:47Z</time>
      </trkpt>
      <trkpt lat="47.14833" lon="-1.63063">
        <ele>71</ele>
        <time>2022-06-05T10:55:49Z</time>
      </trkpt>
      <trkpt lat="47.14845" lon="-1.63063">
        <ele>71</ele>
        <time>2022-06-05T10:55:51Z</time>
      </trkpt>
      <trkpt lat="47.14856" lon="-1.63062">
        <ele>71</ele>
        <time>2022-06-05T10:55:53Z</time>
      </trkpt>
      <trkpt lat="47.14866" lon="-1.63062">
        <ele>72</ele>
        <time>2022-06-05T10:55:55Z</time>
      </trkpt>
      <trkpt lat="47.14876" lon="-1.63063">
        <ele>72</ele>
        <time>2022-06-05T10:55:57Z</time>
      </trkpt>
      <trkpt lat="47.14885" lon="-1.63074">
        <ele>72</ele>
        <time>2022-06-05T10:56:00Z</time>
      </trkpt>
      <trkpt lat="47.14884" lon="-1.63093">
        <ele>72</ele>
        <time>2022-06-05T10:56:03Z</time>
      </trkpt>
      <trkpt lat="47.14882" lon="-1.63109">
        <ele>73</ele>
        <time>2022-06-05T10:56:05Z</time>
      </trkpt>
      <trkpt lat="47.1488" lon="-1.63127">
        <ele>73</ele>
        <time>2022-06-05T10:56:07Z</time>
      </trkpt>
      <trkpt lat="47.14879" lon="-1.63144">
        <ele>73</ele>
        <time>2022-06-05T10:56:09Z</time>
      </trkpt>
      <trkpt lat="47.14878" lon="-1.63162">
        <ele>73</ele>
        <time>2022-06-05T10:56:11Z</time>
      </trkpt>
      <trkpt lat="47.14877" lon="-1.6318">
        <ele>73</ele>
        <time>2022-06-05T10:56:13Z</time>
      </trkpt>
      <trkpt lat="47.14876" lon="-1.63198">
        <ele>72</ele>
        <time>2022-06-05T10:56:15Z</time>
      </trkpt>
      <trkpt lat="47.14876" lon="-1.63216">
        <ele>72</ele>
        <time>2022-06-05T10:56:17Z</time>
      </trkpt>
      <trkpt lat="47.14876" lon="-1.63233">
        <ele>71</ele>
        <time>2022-06-05T10:56:19Z</time>
      </trkpt>
      <trkpt lat="47.14876" lon="-1.6325">
        <ele>70</ele>
        <time>2022-06-05T10:56:21Z</time>
      </trkpt>
      <trkpt lat="47.14876" lon="-1.63267">
        <ele>71</ele>
        <time>2022-06-05T10:56:23Z</time>
      </trkpt>
      <trkpt lat="47.14877" lon="-1.63283">
        <ele>71</ele>
        <time>2022-06-05T10:56:25Z</time>
      </trkpt>
      <trkpt lat="47.14877" lon="-1.63299">
        <ele>71</ele>
        <time>2022-06-05T10:56:27Z</time>
      </trkpt>
      <trkpt lat="47.14878" lon="-1.63314">
        <ele>71</ele>
        <time>2022-06-05T10:56:29Z</time>
      </trkpt>
      <trkpt lat="47.14878" lon="-1.6333">
        <ele>71</ele>
        <time>2022-06-05T10:56:31Z</time>
      </trkpt>
      <trkpt lat="47.14877" lon="-1.63345">
        <ele>71</ele>
        <time>2022-06-05T10:56:33Z</time>
      </trkpt>
      <trkpt lat="47.14877" lon="-1.63362">
        <ele>72</ele>
        <time>2022-06-05T10:56:35Z</time>
      </trkpt>
      <trkpt lat="47.14877" lon="-1.63378">
        <ele>72</ele>
        <time>2022-06-05T10:56:37Z</time>
      </trkpt>
      <trkpt lat="47.14877" lon="-1.63395">
        <ele>72</ele>
        <time>2022-06-05T10:56:39Z</time>
      </trkpt>
      <trkpt lat="47.14877" lon="-1.63412">
        <ele>71</ele>
        <time>2022-06-05T10:56:41Z</time>
      </trkpt>
      <trkpt lat="47.14878" lon="-1.63429">
        <ele>71</ele>
        <time>2022-06-05T10:56:43Z</time>
      </trkpt>
      <trkpt lat="47.14878" lon="-1.63446">
        <ele>70</ele>
        <time>2022-06-05T10:56:45Z</time>
      </trkpt>
      <trkpt lat="47.14877" lon="-1.63463">
        <ele>70</ele>
        <time>2022-06-05T10:56:47Z</time>
      </trkpt>
      <trkpt lat="47.14877" lon="-1.6348">
        <ele>70</ele>
        <time>2022-06-05T10:56:49Z</time>
      </trkpt>
      <trkpt lat="47.14876" lon="-1.63497">
        <ele>69</ele>
        <time>2022-06-05T10:56:51Z</time>
      </trkpt>
      <trkpt lat="47.14877" lon="-1.63513">
        <ele>69</ele>
        <time>2022-06-05T10:56:53Z</time>
      </trkpt>
      <trkpt lat="47.14877" lon="-1.6353">
        <ele>69</ele>
        <time>2022-06-05T10:56:55Z</time>
      </trkpt>
      <trkpt lat="47.14877" lon="-1.63546">
        <ele>69</ele>
        <time>2022-06-05T10:56:57Z</time>
      </trkpt>
      <trkpt lat="47.14876" lon="-1.63563">
        <ele>69</ele>
        <time>2022-06-05T10:56:59Z</time>
      </trkpt>
      <trkpt lat="47.14876" lon="-1.63579">
        <ele>68</ele>
        <time>2022-06-05T10:57:01Z</time>
      </trkpt>
      <trkpt lat="47.14876" lon="-1.63594">
        <ele>69</ele>
        <time>2022-06-05T10:57:03Z</time>
      </trkpt>
      <trkpt lat="47.14876" lon="-1.63611">
        <ele>69</ele>
        <time>2022-06-05T10:57:05Z</time>
      </trkpt>
      <trkpt lat="47.14876" lon="-1.63627">
        <ele>69</ele>
        <time>2022-06-05T10:57:07Z</time>
      </trkpt>
      <trkpt lat="47.14875" lon="-1.63643">
        <ele>69</ele>
        <time>2022-06-05T10:57:09Z</time>
      </trkpt>
      <trkpt lat="47.14875" lon="-1.6366">
        <ele>68</ele>
        <time>2022-06-05T10:57:11Z</time>
      </trkpt>
      <trkpt lat="47.14875" lon="-1.63677">
        <ele>67</ele>
        <time>2022-06-05T10:57:13Z</time>
      </trkpt>
      <trkpt lat="47.14875" lon="-1.63694">
        <ele>67</ele>
        <time>2022-06-05T10:57:15Z</time>
      </trkpt>
      <trkpt lat="47.14875" lon="-1.6371">
        <ele>66</ele>
        <time>2022-06-05T10:57:17Z</time>
      </trkpt>
      <trkpt lat="47.14875" lon="-1.63726">
        <ele>67</ele>
        <time>2022-06-05T10:57:19Z</time>
      </trkpt>
      <trkpt lat="47.14875" lon="-1.63743">
        <ele>67</ele>
        <time>2022-06-05T10:57:21Z</time>
      </trkpt>
      <trkpt lat="47.14875" lon="-1.63759">
        <ele>67</ele>
        <time>2022-06-05T10:57:23Z</time>
      </trkpt>
      <trkpt lat="47.14875" lon="-1.63776">
        <ele>67</ele>
        <time>2022-06-05T10:57:25Z</time>
      </trkpt>
      <trkpt lat="47.14875" lon="-1.63792">
        <ele>68</ele>
        <time>2022-06-05T10:57:27Z</time>
      </trkpt>
      <trkpt lat="47.14875" lon="-1.63808">
        <ele>68</ele>
        <time>2022-06-05T10:57:29Z</time>
      </trkpt>
      <trkpt lat="47.14875" lon="-1.63824">
        <ele>68</ele>
        <time>2022-06-05T10:57:31Z</time>
      </trkpt>
      <trkpt lat="47.14875" lon="-1.63841">
        <ele>67</ele>
        <time>2022-06-05T10:57:33Z</time>
      </trkpt>
      <trkpt lat="47.14873" lon="-1.63856">
        <ele>67</ele>
        <time>2022-06-05T10:57:35Z</time>
      </trkpt>
      <trkpt lat="47.14872" lon="-1.63873">
        <ele>67</ele>
        <time>2022-06-05T10:57:37Z</time>
      </trkpt>
      <trkpt lat="47.1487" lon="-1.63888">
        <ele>67</ele>
        <time>2022-06-05T10:57:39Z</time>
      </trkpt>
      <trkpt lat="47.14869" lon="-1.63903">
        <ele>67</ele>
        <time>2022-06-05T10:57:41Z</time>
      </trkpt>
      <trkpt lat="47.14866" lon="-1.63919">
        <ele>67</ele>
        <time>2022-06-05T10:57:43Z</time>
      </trkpt>
      <trkpt lat="47.14864" lon="-1.63934">
        <ele>68</ele>
        <time>2022-06-05T10:57:45Z</time>
      </trkpt>
      <trkpt lat="47.14862" lon="-1.63949">
        <ele>68</ele>
        <time>2022-06-05T10:57:47Z</time>
      </trkpt>
      <trkpt lat="47.14861" lon="-1.63968">
        <ele>69</ele>
        <time>2022-06-05T10:57:50Z</time>
      </trkpt>
      <trkpt lat="47.14865" lon="-1.63982">
        <ele>68</ele>
        <time>2022-06-05T10:57:52Z</time>
      </trkpt>
      <trkpt lat="47.14872" lon="-1.63995">
        <ele>69</ele>
        <time>2022-06-05T10:57:54Z</time>
      </trkpt>
      <trkpt lat="47.1488" lon="-1.64006">
        <ele>69</ele>
        <time>2022-06-05T10:57:56Z</time>
      </trkpt>
      <trkpt lat="47.14888" lon="-1.64016">
        <ele>69</ele>
        <time>2022-06-05T10:57:58Z</time>
      </trkpt>
      <trkpt lat="47.14899" lon="-1.64021">
        <ele>69</ele>
        <time>2022-06-05T10:58:00Z</time>
      </trkpt>
      <trkpt lat="47.14908" lon="-1.64019">
        <ele>70</ele>
        <time>2022-06-05T10:58:02Z</time>
      </trkpt>
      <trkpt lat="47.14915" lon="-1.64005">
        <ele>71</ele>
        <time>2022-06-05T10:58:04Z</time>
      </trkpt>
      <trkpt lat="47.1492" lon="-1.63989">
        <ele>72</ele>
        <time>2022-06-05T10:58:06Z</time>
      </trkpt>
      <trkpt lat="47.14926" lon="-1.63975">
        <ele>72</ele>
        <time>2022-06-05T10:58:08Z</time>
      </trkpt>
      <trkpt lat="47.14933" lon="-1.63962">
        <ele>72</ele>
        <time>2022-06-05T10:58:10Z</time>
      </trkpt>
      <trkpt lat="47.14941" lon="-1.6395">
        <ele>72</ele>
        <time>2022-06-05T10:58:12Z</time>
      </trkpt>
      <trkpt lat="47.1495" lon="-1.63939">
        <ele>72</ele>
        <time>2022-06-05T10:58:14Z</time>
      </trkpt>
      <trkpt lat="47.14959" lon="-1.63926">
        <ele>72</ele>
        <time>2022-06-05T10:58:16Z</time>
      </trkpt>
      <trkpt lat="47.14968" lon="-1.63912">
        <ele>72</ele>
        <time>2022-06-05T10:58:18Z</time>
      </trkpt>
      <trkpt lat="47.14977" lon="-1.63898">
        <ele>72</ele>
        <time>2022-06-05T10:58:20Z</time>
      </trkpt>
      <trkpt lat="47.14987" lon="-1.63885">
        <ele>72</ele>
        <time>2022-06-05T10:58:22Z</time>
      </trkpt>
      <trkpt lat="47.14997" lon="-1.63872">
        <ele>72</ele>
        <time>2022-06-05T10:58:24Z</time>
      </trkpt>
      <trkpt lat="47.15007" lon="-1.63859">
        <ele>72</ele>
        <time>2022-06-05T10:58:26Z</time>
      </trkpt>
      <trkpt lat="47.15016" lon="-1.63846">
        <ele>71</ele>
        <time>2022-06-05T10:58:28Z</time>
      </trkpt>
      <trkpt lat="47.15026" lon="-1.63833">
        <ele>71</ele>
        <time>2022-06-05T10:58:30Z</time>
      </trkpt>
      <trkpt lat="47.15035" lon="-1.63819">
        <ele>71</ele>
        <time>2022-06-05T10:58:32Z</time>
      </trkpt>
      <trkpt lat="47.15045" lon="-1.63806">
        <ele>71</ele>
        <time>2022-06-05T10:58:34Z</time>
      </trkpt>
      <trkpt lat="47.15055" lon="-1.63793">
        <ele>71</ele>
        <time>2022-06-05T10:58:36Z</time>
      </trkpt>
      <trkpt lat="47.15065" lon="-1.6378">
        <ele>71</ele>
        <time>2022-06-05T10:58:38Z</time>
      </trkpt>
      <trkpt lat="47.15075" lon="-1.63768">
        <ele>71</ele>
        <time>2022-06-05T10:58:40Z</time>
      </trkpt>
      <trkpt lat="47.15085" lon="-1.63756">
        <ele>71</ele>
        <time>2022-06-05T10:58:42Z</time>
      </trkpt>
      <trkpt lat="47.15096" lon="-1.63744">
        <ele>71</ele>
        <time>2022-06-05T10:58:44Z</time>
      </trkpt>
      <trkpt lat="47.15107" lon="-1.63732">
        <ele>71</ele>
        <time>2022-06-05T10:58:46Z</time>
      </trkpt>
      <trkpt lat="47.15119" lon="-1.6372">
        <ele>71</ele>
        <time>2022-06-05T10:58:48Z</time>
      </trkpt>
      <trkpt lat="47.1513" lon="-1.63708">
        <ele>71</ele>
        <time>2022-06-05T10:58:50Z</time>
      </trkpt>
      <trkpt lat="47.15142" lon="-1.63696">
        <ele>71</ele>
        <time>2022-06-05T10:58:52Z</time>
      </trkpt>
      <trkpt lat="47.15154" lon="-1.63684">
        <ele>71</ele>
        <time>2022-06-05T10:58:54Z</time>
      </trkpt>
      <trkpt lat="47.15166" lon="-1.63674">
        <ele>71</ele>
        <time>2022-06-05T10:58:56Z</time>
      </trkpt>
      <trkpt lat="47.15179" lon="-1.63663">
        <ele>71</ele>
        <time>2022-06-05T10:58:58Z</time>
      </trkpt>
      <trkpt lat="47.15191" lon="-1.63651">
        <ele>71</ele>
        <time>2022-06-05T10:59:00Z</time>
      </trkpt>
      <trkpt lat="47.15204" lon="-1.63641">
        <ele>71</ele>
        <time>2022-06-05T10:59:02Z</time>
      </trkpt>
      <trkpt lat="47.15216" lon="-1.63629">
        <ele>70</ele>
        <time>2022-06-05T10:59:04Z</time>
      </trkpt>
      <trkpt lat="47.15228" lon="-1.63618">
        <ele>70</ele>
        <time>2022-06-05T10:59:06Z</time>
      </trkpt>
      <trkpt lat="47.1524" lon="-1.63606">
        <ele>70</ele>
        <time>2022-06-05T10:59:08Z</time>
      </trkpt>
      <trkpt lat="47.15253" lon="-1.63596">
        <ele>70</ele>
        <time>2022-06-05T10:59:10Z</time>
      </trkpt>
      <trkpt lat="47.15265" lon="-1.63584">
        <ele>70</ele>
        <time>2022-06-05T10:59:12Z</time>
      </trkpt>
      <trkpt lat="47.15277" lon="-1.63574">
        <ele>70</ele>
        <time>2022-06-05T10:59:14Z</time>
      </trkpt>
      <trkpt lat="47.15289" lon="-1.63563">
        <ele>69</ele>
        <time>2022-06-05T10:59:16Z</time>
      </trkpt>
      <trkpt lat="47.15301" lon="-1.63552">
        <ele>69</ele>
        <time>2022-06-05T10:59:18Z</time>
      </trkpt>
      <trkpt lat="47.15313" lon="-1.63541">
        <ele>69</ele>
        <time>2022-06-05T10:59:20Z</time>
      </trkpt>
      <trkpt lat="47.15325" lon="-1.6353">
        <ele>69</ele>
        <time>2022-06-05T10:59:22Z</time>
      </trkpt>
      <trkpt lat="47.15337" lon="-1.6352">
        <ele>69</ele>
        <time>2022-06-05T10:59:24Z</time>
      </trkpt>
      <trkpt lat="47.15349" lon="-1.63509">
        <ele>69</ele>
        <time>2022-06-05T10:59:26Z</time>
      </trkpt>
      <trkpt lat="47.15362" lon="-1.63498">
        <ele>69</ele>
        <time>2022-06-05T10:59:28Z</time>
      </trkpt>
      <trkpt lat="47.15374" lon="-1.63487">
        <ele>69</ele>
        <time>2022-06-05T10:59:30Z</time>
      </trkpt>
      <trkpt lat="47.15385" lon="-1.63476">
        <ele>69</ele>
        <time>2022-06-05T10:59:32Z</time>
      </trkpt>
      <trkpt lat="47.15397" lon="-1.63465">
        <ele>69</ele>
        <time>2022-06-05T10:59:34Z</time>
      </trkpt>
      <trkpt lat="47.1541" lon="-1.63455">
        <ele>69</ele>
        <time>2022-06-05T10:59:36Z</time>
      </trkpt>
      <trkpt lat="47.15423" lon="-1.63444">
        <ele>69</ele>
        <time>2022-06-05T10:59:38Z</time>
      </trkpt>
      <trkpt lat="47.15435" lon="-1.63432">
        <ele>69</ele>
        <time>2022-06-05T10:59:40Z</time>
      </trkpt>
      <trkpt lat="47.15446" lon="-1.6342">
        <ele>68</ele>
        <time>2022-06-05T10:59:42Z</time>
      </trkpt>
      <trkpt lat="47.15459" lon="-1.63408">
        <ele>68</ele>
        <time>2022-06-05T10:59:44Z</time>
      </trkpt>
      <trkpt lat="47.15472" lon="-1.63397">
        <ele>68</ele>
        <time>2022-06-05T10:59:46Z</time>
      </trkpt>
      <trkpt lat="47.15487" lon="-1.63388">
        <ele>67</ele>
        <time>2022-06-05T10:59:48Z</time>
      </trkpt>
      <trkpt lat="47.155" lon="-1.63378">
        <ele>67</ele>
        <time>2022-06-05T10:59:50Z</time>
      </trkpt>
      <trkpt lat="47.15514" lon="-1.63366">
        <ele>66</ele>
        <time>2022-06-05T10:59:52Z</time>
      </trkpt>
      <trkpt lat="47.15527" lon="-1.63355">
        <ele>66</ele>
        <time>2022-06-05T10:59:54Z</time>
      </trkpt>
      <trkpt lat="47.1554" lon="-1.63342">
        <ele>65</ele>
        <time>2022-06-05T10:59:56Z</time>
      </trkpt>
      <trkpt lat="47.15554" lon="-1.6333">
        <ele>64</ele>
        <time>2022-06-05T10:59:58Z</time>
      </trkpt>
      <trkpt lat="47.15568" lon="-1.63318">
        <ele>64</ele>
        <time>2022-06-05T11:00:00Z</time>
      </trkpt>
      <trkpt lat="47.15582" lon="-1.63306">
        <ele>63</ele>
        <time>2022-06-05T11:00:02Z</time>
      </trkpt>
      <trkpt lat="47.15596" lon="-1.63294">
        <ele>63</ele>
        <time>2022-06-05T11:00:04Z</time>
      </trkpt>
      <trkpt lat="47.15609" lon="-1.63282">
        <ele>63</ele>
        <time>2022-06-05T11:00:06Z</time>
      </trkpt>
      <trkpt lat="47.15622" lon="-1.6327">
        <ele>63</ele>
        <time>2022-06-05T11:00:08Z</time>
      </trkpt>
      <trkpt lat="47.15635" lon="-1.63258">
        <ele>63</ele>
        <time>2022-06-05T11:00:10Z</time>
      </trkpt>
      <trkpt lat="47.15654" lon="-1.63243">
        <ele>62</ele>
        <time>2022-06-05T11:00:13Z</time>
      </trkpt>
      <trkpt lat="47.15666" lon="-1.63232">
        <ele>63</ele>
        <time>2022-06-05T11:00:15Z</time>
      </trkpt>
      <trkpt lat="47.15679" lon="-1.63221">
        <ele>63</ele>
        <time>2022-06-05T11:00:17Z</time>
      </trkpt>
      <trkpt lat="47.15691" lon="-1.6321">
        <ele>63</ele>
        <time>2022-06-05T11:00:19Z</time>
      </trkpt>
      <trkpt lat="47.15709" lon="-1.63193">
        <ele>63</ele>
        <time>2022-06-05T11:00:22Z</time>
      </trkpt>
      <trkpt lat="47.15721" lon="-1.63182">
        <ele>63</ele>
        <time>2022-06-05T11:00:24Z</time>
      </trkpt>
      <trkpt lat="47.15738" lon="-1.63166">
        <ele>64</ele>
        <time>2022-06-05T11:00:27Z</time>
      </trkpt>
      <trkpt lat="47.15747" lon="-1.63153">
        <ele>64</ele>
        <time>2022-06-05T11:00:29Z</time>
      </trkpt>
      <trkpt lat="47.15758" lon="-1.63144">
        <ele>64</ele>
        <time>2022-06-05T11:00:31Z</time>
      </trkpt>
      <trkpt lat="47.15771" lon="-1.63138">
        <ele>63</ele>
        <time>2022-06-05T11:00:33Z</time>
      </trkpt>
      <trkpt lat="47.15783" lon="-1.63128">
        <ele>62</ele>
        <time>2022-06-05T11:00:35Z</time>
      </trkpt>
      <trkpt lat="47.15794" lon="-1.63117">
        <ele>62</ele>
        <time>2022-06-05T11:00:37Z</time>
      </trkpt>
      <trkpt lat="47.15806" lon="-1.63106">
        <ele>62</ele>
        <time>2022-06-05T11:00:39Z</time>
      </trkpt>
      <trkpt lat="47.15819" lon="-1.63095">
        <ele>62</ele>
        <time>2022-06-05T11:00:41Z</time>
      </trkpt>
      <trkpt lat="47.15831" lon="-1.63084">
        <ele>61</ele>
        <time>2022-06-05T11:00:43Z</time>
      </trkpt>
      <trkpt lat="47.15844" lon="-1.63073">
        <ele>60</ele>
        <time>2022-06-05T11:00:45Z</time>
      </trkpt>
      <trkpt lat="47.15857" lon="-1.63061">
        <ele>60</ele>
        <time>2022-06-05T11:00:47Z</time>
      </trkpt>
      <trkpt lat="47.15869" lon="-1.6305">
        <ele>59</ele>
        <time>2022-06-05T11:00:49Z</time>
      </trkpt>
      <trkpt lat="47.15883" lon="-1.63038">
        <ele>58</ele>
        <time>2022-06-05T11:00:51Z</time>
      </trkpt>
      <trkpt lat="47.15895" lon="-1.63027">
        <ele>58</ele>
        <time>2022-06-05T11:00:53Z</time>
      </trkpt>
      <trkpt lat="47.15908" lon="-1.63017">
        <ele>58</ele>
        <time>2022-06-05T11:00:55Z</time>
      </trkpt>
      <trkpt lat="47.1592" lon="-1.63006">
        <ele>58</ele>
        <time>2022-06-05T11:00:57Z</time>
      </trkpt>
      <trkpt lat="47.15931" lon="-1.62996">
        <ele>58</ele>
        <time>2022-06-05T11:00:59Z</time>
      </trkpt>
      <trkpt lat="47.15941" lon="-1.62987">
        <ele>59</ele>
        <time>2022-06-05T11:01:01Z</time>
      </trkpt>
      <trkpt lat="47.15952" lon="-1.62978">
        <ele>59</ele>
        <time>2022-06-05T11:01:03Z</time>
      </trkpt>
      <trkpt lat="47.15962" lon="-1.6297">
        <ele>60</ele>
        <time>2022-06-05T11:01:05Z</time>
      </trkpt>
      <trkpt lat="47.15972" lon="-1.62961">
        <ele>61</ele>
        <time>2022-06-05T11:01:07Z</time>
      </trkpt>
      <trkpt lat="47.15982" lon="-1.62952">
        <ele>61</ele>
        <time>2022-06-05T11:01:09Z</time>
      </trkpt>
      <trkpt lat="47.15992" lon="-1.62943">
        <ele>61</ele>
        <time>2022-06-05T11:01:11Z</time>
      </trkpt>
      <trkpt lat="47.16002" lon="-1.62933">
        <ele>62</ele>
        <time>2022-06-05T11:01:13Z</time>
      </trkpt>
      <trkpt lat="47.16012" lon="-1.62923">
        <ele>63</ele>
        <time>2022-06-05T11:01:15Z</time>
      </trkpt>
      <trkpt lat="47.16022" lon="-1.62913">
        <ele>64</ele>
        <time>2022-06-05T11:01:17Z</time>
      </trkpt>
      <trkpt lat="47.16033" lon="-1.62903">
        <ele>64</ele>
        <time>2022-06-05T11:01:19Z</time>
      </trkpt>
      <trkpt lat="47.16044" lon="-1.62894">
        <ele>65</ele>
        <time>2022-06-05T11:01:21Z</time>
      </trkpt>
      <trkpt lat="47.16054" lon="-1.62885">
        <ele>66</ele>
        <time>2022-06-05T11:01:23Z</time>
      </trkpt>
      <trkpt lat="47.16065" lon="-1.62876">
        <ele>66</ele>
        <time>2022-06-05T11:01:25Z</time>
      </trkpt>
      <trkpt lat="47.16075" lon="-1.62867">
        <ele>67</ele>
        <time>2022-06-05T11:01:27Z</time>
      </trkpt>
      <trkpt lat="47.16086" lon="-1.62858">
        <ele>67</ele>
        <time>2022-06-05T11:01:29Z</time>
      </trkpt>
      <trkpt lat="47.16096" lon="-1.62849">
        <ele>68</ele>
        <time>2022-06-05T11:01:31Z</time>
      </trkpt>
      <trkpt lat="47.16107" lon="-1.6284">
        <ele>69</ele>
        <time>2022-06-05T11:01:33Z</time>
      </trkpt>
      <trkpt lat="47.16118" lon="-1.62831">
        <ele>69</ele>
        <time>2022-06-05T11:01:35Z</time>
      </trkpt>
      <trkpt lat="47.16128" lon="-1.62821">
        <ele>70</ele>
        <time>2022-06-05T11:01:37Z</time>
      </trkpt>
      <trkpt lat="47.16138" lon="-1.62812">
        <ele>70</ele>
        <time>2022-06-05T11:01:39Z</time>
      </trkpt>
      <trkpt lat="47.16148" lon="-1.62803">
        <ele>71</ele>
        <time>2022-06-05T11:01:41Z</time>
      </trkpt>
      <trkpt lat="47.16158" lon="-1.62794">
        <ele>71</ele>
        <time>2022-06-05T11:01:43Z</time>
      </trkpt>
      <trkpt lat="47.16168" lon="-1.62785">
        <ele>71</ele>
        <time>2022-06-05T11:01:45Z</time>
      </trkpt>
      <trkpt lat="47.16178" lon="-1.62775">
        <ele>71</ele>
        <time>2022-06-05T11:01:47Z</time>
      </trkpt>
      <trkpt lat="47.16188" lon="-1.62765">
        <ele>72</ele>
        <time>2022-06-05T11:01:49Z</time>
      </trkpt>
      <trkpt lat="47.16198" lon="-1.62756">
        <ele>72</ele>
        <time>2022-06-05T11:01:51Z</time>
      </trkpt>
      <trkpt lat="47.16208" lon="-1.62747">
        <ele>72</ele>
        <time>2022-06-05T11:01:53Z</time>
      </trkpt>
      <trkpt lat="47.16218" lon="-1.62738">
        <ele>72</ele>
        <time>2022-06-05T11:01:55Z</time>
      </trkpt>
      <trkpt lat="47.16229" lon="-1.62729">
        <ele>72</ele>
        <time>2022-06-05T11:01:57Z</time>
      </trkpt>
      <trkpt lat="47.1624" lon="-1.62721">
        <ele>73</ele>
        <time>2022-06-05T11:01:59Z</time>
      </trkpt>
      <trkpt lat="47.16251" lon="-1.62712">
        <ele>73</ele>
        <time>2022-06-05T11:02:01Z</time>
      </trkpt>
      <trkpt lat="47.16261" lon="-1.62703">
        <ele>73</ele>
        <time>2022-06-05T11:02:03Z</time>
      </trkpt>
      <trkpt lat="47.16272" lon="-1.62695">
        <ele>73</ele>
        <time>2022-06-05T11:02:05Z</time>
      </trkpt>
      <trkpt lat="47.16278" lon="-1.62683">
        <ele>74</ele>
        <time>2022-06-05T11:02:07Z</time>
      </trkpt>
      <trkpt lat="47.16278" lon="-1.62665">
        <ele>74</ele>
        <time>2022-06-05T11:02:09Z</time>
      </trkpt>
      <trkpt lat="47.16279" lon="-1.62646">
        <ele>74</ele>
        <time>2022-06-05T11:02:11Z</time>
      </trkpt>
      <trkpt lat="47.16281" lon="-1.62627">
        <ele>74</ele>
        <time>2022-06-05T11:02:13Z</time>
      </trkpt>
      <trkpt lat="47.16285" lon="-1.62609">
        <ele>74</ele>
        <time>2022-06-05T11:02:15Z</time>
      </trkpt>
      <trkpt lat="47.1629" lon="-1.62592">
        <ele>74</ele>
        <time>2022-06-05T11:02:17Z</time>
      </trkpt>
      <trkpt lat="47.16298" lon="-1.6258">
        <ele>74</ele>
        <time>2022-06-05T11:02:19Z</time>
      </trkpt>
      <trkpt lat="47.16309" lon="-1.62571">
        <ele>74</ele>
        <time>2022-06-05T11:02:21Z</time>
      </trkpt>
      <trkpt lat="47.16321" lon="-1.62569">
        <ele>74</ele>
        <time>2022-06-05T11:02:23Z</time>
      </trkpt>
      <trkpt lat="47.16334" lon="-1.62572">
        <ele>74</ele>
        <time>2022-06-05T11:02:25Z</time>
      </trkpt>
      <trkpt lat="47.16346" lon="-1.62578">
        <ele>74</ele>
        <time>2022-06-05T11:02:27Z</time>
      </trkpt>
      <trkpt lat="47.16357" lon="-1.62582">
        <ele>74</ele>
        <time>2022-06-05T11:02:29Z</time>
      </trkpt>
      <trkpt lat="47.16368" lon="-1.62585">
        <ele>74</ele>
        <time>2022-06-05T11:02:31Z</time>
      </trkpt>
      <trkpt lat="47.1638" lon="-1.62583">
        <ele>74</ele>
        <time>2022-06-05T11:02:33Z</time>
      </trkpt>
      <trkpt lat="47.16392" lon="-1.62578">
        <ele>74</ele>
        <time>2022-06-05T11:02:35Z</time>
      </trkpt>
      <trkpt lat="47.16403" lon="-1.6257">
        <ele>74</ele>
        <time>2022-06-05T11:02:37Z</time>
      </trkpt>
      <trkpt lat="47.16413" lon="-1.6256">
        <ele>74</ele>
        <time>2022-06-05T11:02:39Z</time>
      </trkpt>
      <trkpt lat="47.16424" lon="-1.62549">
        <ele>75</ele>
        <time>2022-06-05T11:02:41Z</time>
      </trkpt>
      <trkpt lat="47.16434" lon="-1.62541">
        <ele>75</ele>
        <time>2022-06-05T11:02:43Z</time>
      </trkpt>
      <trkpt lat="47.16446" lon="-1.62539">
        <ele>75</ele>
        <time>2022-06-05T11:02:45Z</time>
      </trkpt>
      <trkpt lat="47.16457" lon="-1.62542">
        <ele>75</ele>
        <time>2022-06-05T11:02:47Z</time>
      </trkpt>
      <trkpt lat="47.16469" lon="-1.62546">
        <ele>75</ele>
        <time>2022-06-05T11:02:49Z</time>
      </trkpt>
      <trkpt lat="47.16481" lon="-1.6255">
        <ele>75</ele>
        <time>2022-06-05T11:02:51Z</time>
      </trkpt>
      <trkpt lat="47.16492" lon="-1.62554">
        <ele>75</ele>
        <time>2022-06-05T11:02:53Z</time>
      </trkpt>
      <trkpt lat="47.16504" lon="-1.62557">
        <ele>74</ele>
        <time>2022-06-05T11:02:55Z</time>
      </trkpt>
      <trkpt lat="47.16516" lon="-1.6256">
        <ele>74</ele>
        <time>2022-06-05T11:02:57Z</time>
      </trkpt>
      <trkpt lat="47.16528" lon="-1.62563">
        <ele>74</ele>
        <time>2022-06-05T11:02:59Z</time>
      </trkpt>
      <trkpt lat="47.16539" lon="-1.62559">
        <ele>74</ele>
        <time>2022-06-05T11:03:01Z</time>
      </trkpt>
      <trkpt lat="47.16548" lon="-1.62549">
        <ele>75</ele>
        <time>2022-06-05T11:03:03Z</time>
      </trkpt>
      <trkpt lat="47.16558" lon="-1.62536">
        <ele>75</ele>
        <time>2022-06-05T11:03:05Z</time>
      </trkpt>
      <trkpt lat="47.16566" lon="-1.6252">
        <ele>75</ele>
        <time>2022-06-05T11:03:07Z</time>
      </trkpt>
      <trkpt lat="47.16574" lon="-1.62502">
        <ele>75</ele>
        <time>2022-06-05T11:03:09Z</time>
      </trkpt>
      <trkpt lat="47.16581" lon="-1.62483">
        <ele>75</ele>
        <time>2022-06-05T11:03:11Z</time>
      </trkpt>
      <trkpt lat="47.16588" lon="-1.62465">
        <ele>74</ele>
        <time>2022-06-05T11:03:13Z</time>
      </trkpt>
      <trkpt lat="47.16596" lon="-1.62446">
        <ele>74</ele>
        <time>2022-06-05T11:03:15Z</time>
      </trkpt>
      <trkpt lat="47.16605" lon="-1.62428">
        <ele>73</ele>
        <time>2022-06-05T11:03:17Z</time>
      </trkpt>
      <trkpt lat="47.16613" lon="-1.6241">
        <ele>73</ele>
        <time>2022-06-05T11:03:19Z</time>
      </trkpt>
      <trkpt lat="47.16623" lon="-1.62394">
        <ele>73</ele>
        <time>2022-06-05T11:03:21Z</time>
      </trkpt>
      <trkpt lat="47.16634" lon="-1.62379">
        <ele>73</ele>
        <time>2022-06-05T11:03:23Z</time>
      </trkpt>
      <trkpt lat="47.16647" lon="-1.62367">
        <ele>73</ele>
        <time>2022-06-05T11:03:25Z</time>
      </trkpt>
      <trkpt lat="47.16659" lon="-1.62358">
        <ele>72</ele>
        <time>2022-06-05T11:03:27Z</time>
      </trkpt>
      <trkpt lat="47.16673" lon="-1.62353">
        <ele>73</ele>
        <time>2022-06-05T11:03:29Z</time>
      </trkpt>
      <trkpt lat="47.16688" lon="-1.6236">
        <ele>73</ele>
        <time>2022-06-05T11:03:31Z</time>
      </trkpt>
      <trkpt lat="47.16702" lon="-1.62371">
        <ele>72</ele>
        <time>2022-06-05T11:03:33Z</time>
      </trkpt>
      <trkpt lat="47.16712" lon="-1.62385">
        <ele>72</ele>
        <time>2022-06-05T11:03:35Z</time>
      </trkpt>
      <trkpt lat="47.16721" lon="-1.62398">
        <ele>70</ele>
        <time>2022-06-05T11:03:37Z</time>
      </trkpt>
      <trkpt lat="47.16729" lon="-1.62408">
        <ele>70</ele>
        <time>2022-06-05T11:03:39Z</time>
      </trkpt>
      <trkpt lat="47.1673" lon="-1.62423">
        <ele>70</ele>
        <time>2022-06-05T11:03:42Z</time>
      </trkpt>
      <trkpt lat="47.16729" lon="-1.62437">
        <ele>69</ele>
        <time>2022-06-05T11:03:44Z</time>
      </trkpt>
      <trkpt lat="47.16725" lon="-1.62452">
        <ele>68</ele>
        <time>2022-06-05T11:03:46Z</time>
      </trkpt>
      <trkpt lat="47.16722" lon="-1.62467">
        <ele>68</ele>
        <time>2022-06-05T11:03:48Z</time>
      </trkpt>
      <trkpt lat="47.1672" lon="-1.62483">
        <ele>68</ele>
        <time>2022-06-05T11:03:50Z</time>
      </trkpt>
      <trkpt lat="47.16726" lon="-1.62498">
        <ele>67</ele>
        <time>2022-06-05T11:03:53Z</time>
      </trkpt>
      <trkpt lat="47.16735" lon="-1.62504">
        <ele>67</ele>
        <time>2022-06-05T11:03:55Z</time>
      </trkpt>
      <trkpt lat="47.16745" lon="-1.62508">
        <ele>68</ele>
        <time>2022-06-05T11:03:57Z</time>
      </trkpt>
      <trkpt lat="47.16756" lon="-1.62512">
        <ele>67</ele>
        <time>2022-06-05T11:03:59Z</time>
      </trkpt>
      <trkpt lat="47.16766" lon="-1.62517">
        <ele>67</ele>
        <time>2022-06-05T11:04:01Z</time>
      </trkpt>
      <trkpt lat="47.16775" lon="-1.62522">
        <ele>67</ele>
        <time>2022-06-05T11:04:03Z</time>
      </trkpt>
      <trkpt lat="47.16787" lon="-1.62531">
        <ele>67</ele>
        <time>2022-06-05T11:04:06Z</time>
      </trkpt>
      <trkpt lat="47.16799" lon="-1.6254">
        <ele>67</ele>
        <time>2022-06-05T11:04:09Z</time>
      </trkpt>
      <trkpt lat="47.16807" lon="-1.62545">
        <ele>67</ele>
        <time>2022-06-05T11:04:11Z</time>
      </trkpt>
      <trkpt lat="47.16816" lon="-1.6255">
        <ele>67</ele>
        <time>2022-06-05T11:04:13Z</time>
      </trkpt>
      <trkpt lat="47.16826" lon="-1.62561">
        <ele>69</ele>
        <time>2022-06-05T11:04:16Z</time>
      </trkpt>
      <trkpt lat="47.16834" lon="-1.62574">
        <ele>69</ele>
        <time>2022-06-05T11:04:19Z</time>
      </trkpt>
      <trkpt lat="47.16831" lon="-1.6259">
        <ele>68</ele>
        <time>2022-06-05T11:04:22Z</time>
      </trkpt>
      <trkpt lat="47.16822" lon="-1.62604">
        <ele>68</ele>
        <time>2022-06-05T11:04:25Z</time>
      </trkpt>
      <trkpt lat="47.16814" lon="-1.62616">
        <ele>68</ele>
        <time>2022-06-05T11:04:28Z</time>
      </trkpt>
      <trkpt lat="47.16807" lon="-1.62627">
        <ele>68</ele>
        <time>2022-06-05T11:04:31Z</time>
      </trkpt>
      <trkpt lat="47.16799" lon="-1.62641">
        <ele>68</ele>
        <time>2022-06-05T11:04:34Z</time>
      </trkpt>
      <trkpt lat="47.1679" lon="-1.62655">
        <ele>69</ele>
        <time>2022-06-05T11:04:37Z</time>
      </trkpt>
      <trkpt lat="47.16781" lon="-1.62656">
        <ele>70</ele>
        <time>2022-06-05T11:04:48Z</time>
      </trkpt>
    </trkseg>
  </trk>
</gpx>